<?xml version="1.0" encoding="UTF-8" standalone="no" ?>
<gpx xmlns="http://www.topografix.com/GPX/1/1" xmlns:xsi="http://www.w3.org/2001/XMLSchema-instance" xsi:schemaLocation="http://www.topografix.com/GPX/1/1 http://www.topografix.com/GPX/1/1/gpx.xsd" version="1.1" creator="VisuGPX - https://www.visugpx.com">
  <metadata>
    <name>Balade autour de Vicdessos</name>
    <desc><![CDATA[Balade autour de Vicdessos]]></desc>
  </metadata>
  <trk>
    <name><![CDATA[Randocourse]]></name>
    <trkseg>
      <trkpt lat="42.77604" lon="1.51115">
        <ele>707.66772460938</ele>
        <time>2011-03-21T08:38:54Z</time>
      </trkpt>
      <trkpt lat="42.77605" lon="1.51116">
        <ele>707.66772460938</ele>
        <time>2011-03-21T08:38:55Z</time>
      </trkpt>
      <trkpt lat="42.7761" lon="1.51125">
        <ele>705.7451171875</ele>
        <time>2011-03-21T08:38:59Z</time>
      </trkpt>
      <trkpt lat="42.77617" lon="1.51133">
        <ele>702.38037109375</ele>
        <time>2011-03-21T08:39:03Z</time>
      </trkpt>
      <trkpt lat="42.77626" lon="1.5114">
        <ele>701.89990234375</ele>
        <time>2011-03-21T08:39:07Z</time>
      </trkpt>
      <trkpt lat="42.7763" lon="1.51144">
        <ele>702.38037109375</ele>
        <time>2011-03-21T08:39:09Z</time>
      </trkpt>
      <trkpt lat="42.77635" lon="1.51152">
        <ele>702.86108398438</ele>
        <time>2011-03-21T08:39:13Z</time>
      </trkpt>
      <trkpt lat="42.77644" lon="1.51162">
        <ele>703.82250976562</ele>
        <time>2011-03-21T08:39:17Z</time>
      </trkpt>
      <trkpt lat="42.77647" lon="1.51171">
        <ele>707.18701171875</ele>
        <time>2011-03-21T08:39:20Z</time>
      </trkpt>
      <trkpt lat="42.77657" lon="1.51186">
        <ele>701.89990234375</ele>
        <time>2011-03-21T08:39:25Z</time>
      </trkpt>
      <trkpt lat="42.77664" lon="1.51195">
        <ele>699.97705078125</ele>
        <time>2011-03-21T08:39:28Z</time>
      </trkpt>
      <trkpt lat="42.77666" lon="1.51202">
        <ele>699.97705078125</ele>
        <time>2011-03-21T08:39:30Z</time>
      </trkpt>
      <trkpt lat="42.77675" lon="1.51216">
        <ele>700.4580078125</ele>
        <time>2011-03-21T08:39:35Z</time>
      </trkpt>
      <trkpt lat="42.77678" lon="1.51229">
        <ele>701.89990234375</ele>
        <time>2011-03-21T08:39:39Z</time>
      </trkpt>
      <trkpt lat="42.77679" lon="1.51235">
        <ele>699.49633789062</ele>
        <time>2011-03-21T08:39:41Z</time>
      </trkpt>
      <trkpt lat="42.77682" lon="1.51247">
        <ele>690.36401367188</ele>
        <time>2011-03-21T08:39:59Z</time>
      </trkpt>
      <trkpt lat="42.77684" lon="1.51249">
        <ele>689.88330078125</ele>
        <time>2011-03-21T08:40:00Z</time>
      </trkpt>
      <trkpt lat="42.77687" lon="1.51257">
        <ele>689.40258789062</ele>
        <time>2011-03-21T08:40:02Z</time>
      </trkpt>
      <trkpt lat="42.77689" lon="1.5126">
        <ele>689.88330078125</ele>
        <time>2011-03-21T08:40:03Z</time>
      </trkpt>
      <trkpt lat="42.77691" lon="1.51274">
        <ele>690.36401367188</ele>
        <time>2011-03-21T08:40:07Z</time>
      </trkpt>
      <trkpt lat="42.77694" lon="1.51289">
        <ele>689.40258789062</ele>
        <time>2011-03-21T08:40:11Z</time>
      </trkpt>
      <trkpt lat="42.77695" lon="1.51304">
        <ele>690.36401367188</ele>
        <time>2011-03-21T08:40:15Z</time>
      </trkpt>
      <trkpt lat="42.77695" lon="1.51307">
        <ele>690.84448242188</ele>
        <time>2011-03-21T08:40:16Z</time>
      </trkpt>
      <trkpt lat="42.77696" lon="1.51317">
        <ele>691.3251953125</ele>
        <time>2011-03-21T08:40:19Z</time>
      </trkpt>
      <trkpt lat="42.77699" lon="1.5133">
        <ele>691.80590820312</ele>
        <time>2011-03-21T08:40:23Z</time>
      </trkpt>
      <trkpt lat="42.77698" lon="1.51346">
        <ele>690.36401367188</ele>
        <time>2011-03-21T08:40:27Z</time>
      </trkpt>
      <trkpt lat="42.77704" lon="1.51376">
        <ele>686.99926757812</ele>
        <time>2011-03-21T08:40:35Z</time>
      </trkpt>
      <trkpt lat="42.77707" lon="1.51391">
        <ele>688.92211914062</ele>
        <time>2011-03-21T08:40:40Z</time>
      </trkpt>
      <trkpt lat="42.77711" lon="1.51408">
        <ele>688.92211914062</ele>
        <time>2011-03-21T08:40:46Z</time>
      </trkpt>
      <trkpt lat="42.77715" lon="1.51424">
        <ele>690.84448242188</ele>
        <time>2011-03-21T08:40:51Z</time>
      </trkpt>
      <trkpt lat="42.77718" lon="1.51437">
        <ele>690.84448242188</ele>
        <time>2011-03-21T08:40:55Z</time>
      </trkpt>
      <trkpt lat="42.77722" lon="1.51453">
        <ele>691.80590820312</ele>
        <time>2011-03-21T08:41:00Z</time>
      </trkpt>
      <trkpt lat="42.77723" lon="1.5146">
        <ele>691.80590820312</ele>
        <time>2011-03-21T08:41:02Z</time>
      </trkpt>
      <trkpt lat="42.77723" lon="1.51474">
        <ele>692.28662109375</ele>
        <time>2011-03-21T08:41:07Z</time>
      </trkpt>
      <trkpt lat="42.77723" lon="1.51483">
        <ele>691.80590820312</ele>
        <time>2011-03-21T08:41:10Z</time>
      </trkpt>
      <trkpt lat="42.77723" lon="1.515">
        <ele>690.84448242188</ele>
        <time>2011-03-21T08:41:15Z</time>
      </trkpt>
      <trkpt lat="42.77723" lon="1.51502">
        <ele>691.3251953125</ele>
        <time>2011-03-21T08:41:16Z</time>
      </trkpt>
      <trkpt lat="42.77723" lon="1.51521">
        <ele>691.80590820312</ele>
        <time>2011-03-21T08:41:22Z</time>
      </trkpt>
      <trkpt lat="42.77721" lon="1.51537">
        <ele>690.36401367188</ele>
        <time>2011-03-21T08:41:26Z</time>
      </trkpt>
      <trkpt lat="42.77719" lon="1.51551">
        <ele>689.88330078125</ele>
        <time>2011-03-21T08:41:30Z</time>
      </trkpt>
      <trkpt lat="42.77719" lon="1.51554">
        <ele>690.36401367188</ele>
        <time>2011-03-21T08:41:31Z</time>
      </trkpt>
      <trkpt lat="42.77715" lon="1.51559">
        <ele>691.3251953125</ele>
        <time>2011-03-21T08:41:34Z</time>
      </trkpt>
      <trkpt lat="42.77715" lon="1.51566">
        <ele>691.80590820312</ele>
        <time>2011-03-21T08:41:36Z</time>
      </trkpt>
      <trkpt lat="42.77714" lon="1.51578">
        <ele>694.20922851562</ele>
        <time>2011-03-21T08:41:40Z</time>
      </trkpt>
      <trkpt lat="42.77712" lon="1.51591">
        <ele>695.65112304688</ele>
        <time>2011-03-21T08:41:44Z</time>
      </trkpt>
      <trkpt lat="42.77711" lon="1.516">
        <ele>696.1318359375</ele>
        <time>2011-03-21T08:41:47Z</time>
      </trkpt>
      <trkpt lat="42.7771" lon="1.5161">
        <ele>699.49633789062</ele>
        <time>2011-03-21T08:41:51Z</time>
      </trkpt>
      <trkpt lat="42.77707" lon="1.51617">
        <ele>701.41918945312</ele>
        <time>2011-03-21T08:41:54Z</time>
      </trkpt>
      <trkpt lat="42.77707" lon="1.51623">
        <ele>702.38037109375</ele>
        <time>2011-03-21T08:41:56Z</time>
      </trkpt>
      <trkpt lat="42.77704" lon="1.51637">
        <ele>701.89990234375</ele>
        <time>2011-03-21T08:42:00Z</time>
      </trkpt>
      <trkpt lat="42.77701" lon="1.51649">
        <ele>701.41918945312</ele>
        <time>2011-03-21T08:42:04Z</time>
      </trkpt>
      <trkpt lat="42.77699" lon="1.51662">
        <ele>699.97705078125</ele>
        <time>2011-03-21T08:42:08Z</time>
      </trkpt>
      <trkpt lat="42.77699" lon="1.51667">
        <ele>699.015625</ele>
        <time>2011-03-21T08:42:09Z</time>
      </trkpt>
      <trkpt lat="42.77698" lon="1.51681">
        <ele>698.53491210938</ele>
        <time>2011-03-21T08:42:14Z</time>
      </trkpt>
      <trkpt lat="42.77698" lon="1.51693">
        <ele>698.53491210938</ele>
        <time>2011-03-21T08:42:19Z</time>
      </trkpt>
      <trkpt lat="42.77702" lon="1.5171">
        <ele>699.015625</ele>
        <time>2011-03-21T08:42:24Z</time>
      </trkpt>
      <trkpt lat="42.77705" lon="1.51727">
        <ele>697.09301757812</ele>
        <time>2011-03-21T08:42:30Z</time>
      </trkpt>
      <trkpt lat="42.77707" lon="1.5174">
        <ele>696.61254882812</ele>
        <time>2011-03-21T08:42:33Z</time>
      </trkpt>
      <trkpt lat="42.77707" lon="1.51744">
        <ele>696.1318359375</ele>
        <time>2011-03-21T08:42:34Z</time>
      </trkpt>
      <trkpt lat="42.77712" lon="1.51765">
        <ele>694.68969726562</ele>
        <time>2011-03-21T08:42:40Z</time>
      </trkpt>
      <trkpt lat="42.77713" lon="1.51768">
        <ele>694.68969726562</ele>
        <time>2011-03-21T08:42:41Z</time>
      </trkpt>
      <trkpt lat="42.77716" lon="1.51786">
        <ele>692.76733398438</ele>
        <time>2011-03-21T08:42:46Z</time>
      </trkpt>
      <trkpt lat="42.77716" lon="1.51789">
        <ele>692.76733398438</ele>
        <time>2011-03-21T08:42:47Z</time>
      </trkpt>
      <trkpt lat="42.77715" lon="1.51807">
        <ele>691.80590820312</ele>
        <time>2011-03-21T08:42:53Z</time>
      </trkpt>
      <trkpt lat="42.77713" lon="1.51825">
        <ele>692.76733398438</ele>
        <time>2011-03-21T08:42:59Z</time>
      </trkpt>
      <trkpt lat="42.7771" lon="1.51841">
        <ele>691.3251953125</ele>
        <time>2011-03-21T08:43:04Z</time>
      </trkpt>
      <trkpt lat="42.77708" lon="1.51858">
        <ele>690.84448242188</ele>
        <time>2011-03-21T08:43:08Z</time>
      </trkpt>
      <trkpt lat="42.77706" lon="1.51871">
        <ele>692.28662109375</ele>
        <time>2011-03-21T08:43:11Z</time>
      </trkpt>
      <trkpt lat="42.77705" lon="1.51891">
        <ele>692.28662109375</ele>
        <time>2011-03-21T08:43:16Z</time>
      </trkpt>
      <trkpt lat="42.77706" lon="1.51907">
        <ele>690.84448242188</ele>
        <time>2011-03-21T08:43:20Z</time>
      </trkpt>
      <trkpt lat="42.77707" lon="1.51917">
        <ele>688.92211914062</ele>
        <time>2011-03-21T08:43:23Z</time>
      </trkpt>
      <trkpt lat="42.77709" lon="1.5193">
        <ele>686.99926757812</ele>
        <time>2011-03-21T08:43:26Z</time>
      </trkpt>
      <trkpt lat="42.77708" lon="1.51943">
        <ele>686.0380859375</ele>
        <time>2011-03-21T08:43:30Z</time>
      </trkpt>
      <trkpt lat="42.77707" lon="1.51957">
        <ele>685.07690429688</ele>
        <time>2011-03-21T08:43:34Z</time>
      </trkpt>
      <trkpt lat="42.77708" lon="1.51973">
        <ele>683.63452148438</ele>
        <time>2011-03-21T08:43:39Z</time>
      </trkpt>
      <trkpt lat="42.77709" lon="1.51984">
        <ele>684.11547851562</ele>
        <time>2011-03-21T08:43:42Z</time>
      </trkpt>
      <trkpt lat="42.77711" lon="1.51989">
        <ele>683.15380859375</ele>
        <time>2011-03-21T08:43:44Z</time>
      </trkpt>
      <trkpt lat="42.77714" lon="1.52">
        <ele>683.15380859375</ele>
        <time>2011-03-21T08:43:47Z</time>
      </trkpt>
      <trkpt lat="42.77721" lon="1.52017">
        <ele>685.07690429688</ele>
        <time>2011-03-21T08:43:53Z</time>
      </trkpt>
      <trkpt lat="42.77727" lon="1.52031">
        <ele>686.51879882812</ele>
        <time>2011-03-21T08:43:57Z</time>
      </trkpt>
      <trkpt lat="42.7773" lon="1.52037">
        <ele>686.0380859375</ele>
        <time>2011-03-21T08:43:59Z</time>
      </trkpt>
      <trkpt lat="42.77732" lon="1.52051">
        <ele>686.51879882812</ele>
        <time>2011-03-21T08:44:03Z</time>
      </trkpt>
      <trkpt lat="42.77738" lon="1.52062">
        <ele>684.59619140625</ele>
        <time>2011-03-21T08:44:07Z</time>
      </trkpt>
      <trkpt lat="42.77747" lon="1.52075">
        <ele>683.15380859375</ele>
        <time>2011-03-21T08:44:12Z</time>
      </trkpt>
      <trkpt lat="42.77753" lon="1.52082">
        <ele>682.67333984375</ele>
        <time>2011-03-21T08:44:15Z</time>
      </trkpt>
      <trkpt lat="42.77761" lon="1.52092">
        <ele>681.2314453125</ele>
        <time>2011-03-21T08:44:19Z</time>
      </trkpt>
      <trkpt lat="42.77771" lon="1.52099">
        <ele>678.828125</ele>
        <time>2011-03-21T08:44:24Z</time>
      </trkpt>
      <trkpt lat="42.77777" lon="1.52112">
        <ele>677.86669921875</ele>
        <time>2011-03-21T08:44:29Z</time>
      </trkpt>
      <trkpt lat="42.77785" lon="1.52125">
        <ele>677.86669921875</ele>
        <time>2011-03-21T08:44:34Z</time>
      </trkpt>
      <trkpt lat="42.7779" lon="1.52137">
        <ele>677.38623046875</ele>
        <time>2011-03-21T08:44:38Z</time>
      </trkpt>
      <trkpt lat="42.77797" lon="1.52147">
        <ele>677.86669921875</ele>
        <time>2011-03-21T08:44:42Z</time>
      </trkpt>
      <trkpt lat="42.77805" lon="1.5216">
        <ele>677.38623046875</ele>
        <time>2011-03-21T08:44:47Z</time>
      </trkpt>
      <trkpt lat="42.77815" lon="1.52173">
        <ele>677.86669921875</ele>
        <time>2011-03-21T08:44:52Z</time>
      </trkpt>
      <trkpt lat="42.77819" lon="1.52181">
        <ele>678.828125</ele>
        <time>2011-03-21T08:44:55Z</time>
      </trkpt>
      <trkpt lat="42.77821" lon="1.52191">
        <ele>679.78930664062</ele>
        <time>2011-03-21T08:44:58Z</time>
      </trkpt>
      <trkpt lat="42.77826" lon="1.52213">
        <ele>682.19262695312</ele>
        <time>2011-03-21T08:45:03Z</time>
      </trkpt>
      <trkpt lat="42.77832" lon="1.5223">
        <ele>682.19262695312</ele>
        <time>2011-03-21T08:45:09Z</time>
      </trkpt>
      <trkpt lat="42.77838" lon="1.52248">
        <ele>683.63452148438</ele>
        <time>2011-03-21T08:45:14Z</time>
      </trkpt>
      <trkpt lat="42.77845" lon="1.52261">
        <ele>683.63452148438</ele>
        <time>2011-03-21T08:45:19Z</time>
      </trkpt>
      <trkpt lat="42.77848" lon="1.52277">
        <ele>685.55737304688</ele>
        <time>2011-03-21T08:45:25Z</time>
      </trkpt>
      <trkpt lat="42.77848" lon="1.52279">
        <ele>685.55737304688</ele>
        <time>2011-03-21T08:45:26Z</time>
      </trkpt>
      <trkpt lat="42.7785" lon="1.52291">
        <ele>685.55737304688</ele>
        <time>2011-03-21T08:45:31Z</time>
      </trkpt>
      <trkpt lat="42.77852" lon="1.52303">
        <ele>684.59619140625</ele>
        <time>2011-03-21T08:45:35Z</time>
      </trkpt>
      <trkpt lat="42.77856" lon="1.52321">
        <ele>684.59619140625</ele>
        <time>2011-03-21T08:45:41Z</time>
      </trkpt>
      <trkpt lat="42.7786" lon="1.52336">
        <ele>683.15380859375</ele>
        <time>2011-03-21T08:45:46Z</time>
      </trkpt>
      <trkpt lat="42.77864" lon="1.52352">
        <ele>683.15380859375</ele>
        <time>2011-03-21T08:45:51Z</time>
      </trkpt>
      <trkpt lat="42.77866" lon="1.52359">
        <ele>683.63452148438</ele>
        <time>2011-03-21T08:45:53Z</time>
      </trkpt>
      <trkpt lat="42.7787" lon="1.52372">
        <ele>683.15380859375</ele>
        <time>2011-03-21T08:45:57Z</time>
      </trkpt>
      <trkpt lat="42.77875" lon="1.52381">
        <ele>683.15380859375</ele>
        <time>2011-03-21T08:46:00Z</time>
      </trkpt>
      <trkpt lat="42.7788" lon="1.52396">
        <ele>683.63452148438</ele>
        <time>2011-03-21T08:46:04Z</time>
      </trkpt>
      <trkpt lat="42.77882" lon="1.52403">
        <ele>683.15380859375</ele>
        <time>2011-03-21T08:46:06Z</time>
      </trkpt>
      <trkpt lat="42.77886" lon="1.52422">
        <ele>682.67333984375</ele>
        <time>2011-03-21T08:46:11Z</time>
      </trkpt>
      <trkpt lat="42.77888" lon="1.5244">
        <ele>681.7119140625</ele>
        <time>2011-03-21T08:46:16Z</time>
      </trkpt>
      <trkpt lat="42.7789" lon="1.52457">
        <ele>680.75073242188</ele>
        <time>2011-03-21T08:46:21Z</time>
      </trkpt>
      <trkpt lat="42.77893" lon="1.52473">
        <ele>680.27001953125</ele>
        <time>2011-03-21T08:46:25Z</time>
      </trkpt>
      <trkpt lat="42.77891" lon="1.52488">
        <ele>687.96069335938</ele>
        <time>2011-03-21T08:46:29Z</time>
      </trkpt>
      <trkpt lat="42.77892" lon="1.52493">
        <ele>689.88330078125</ele>
        <time>2011-03-21T08:46:31Z</time>
      </trkpt>
      <trkpt lat="42.77892" lon="1.52512">
        <ele>685.55737304688</ele>
        <time>2011-03-21T08:46:36Z</time>
      </trkpt>
      <trkpt lat="42.77893" lon="1.52524">
        <ele>684.59619140625</ele>
        <time>2011-03-21T08:46:40Z</time>
      </trkpt>
      <trkpt lat="42.77893" lon="1.52536">
        <ele>681.2314453125</ele>
        <time>2011-03-21T08:46:44Z</time>
      </trkpt>
      <trkpt lat="42.77892" lon="1.52549">
        <ele>677.38623046875</ele>
        <time>2011-03-21T08:46:48Z</time>
      </trkpt>
      <trkpt lat="42.77892" lon="1.52559">
        <ele>674.50219726562</ele>
        <time>2011-03-21T08:46:51Z</time>
      </trkpt>
      <trkpt lat="42.77893" lon="1.52576">
        <ele>673.06030273438</ele>
        <time>2011-03-21T08:46:56Z</time>
      </trkpt>
      <trkpt lat="42.779" lon="1.52594">
        <ele>672.57958984375</ele>
        <time>2011-03-21T08:47:02Z</time>
      </trkpt>
      <trkpt lat="42.77903" lon="1.52605">
        <ele>672.57958984375</ele>
        <time>2011-03-21T08:47:05Z</time>
      </trkpt>
      <trkpt lat="42.77905" lon="1.52626">
        <ele>675.46337890625</ele>
        <time>2011-03-21T08:47:10Z</time>
      </trkpt>
      <trkpt lat="42.77906" lon="1.52633">
        <ele>675.46337890625</ele>
        <time>2011-03-21T08:47:12Z</time>
      </trkpt>
      <trkpt lat="42.77908" lon="1.52656">
        <ele>677.38623046875</ele>
        <time>2011-03-21T08:47:18Z</time>
      </trkpt>
      <trkpt lat="42.77907" lon="1.52663">
        <ele>678.34741210938</ele>
        <time>2011-03-21T08:47:20Z</time>
      </trkpt>
      <trkpt lat="42.77909" lon="1.52682">
        <ele>679.78930664062</ele>
        <time>2011-03-21T08:47:25Z</time>
      </trkpt>
      <trkpt lat="42.77911" lon="1.5269">
        <ele>679.78930664062</ele>
        <time>2011-03-21T08:47:27Z</time>
      </trkpt>
      <trkpt lat="42.77917" lon="1.52708">
        <ele>679.78930664062</ele>
        <time>2011-03-21T08:47:32Z</time>
      </trkpt>
      <trkpt lat="42.77919" lon="1.52722">
        <ele>679.78930664062</ele>
        <time>2011-03-21T08:47:36Z</time>
      </trkpt>
      <trkpt lat="42.77919" lon="1.52732">
        <ele>679.30859375</ele>
        <time>2011-03-21T08:47:39Z</time>
      </trkpt>
      <trkpt lat="42.77918" lon="1.52749">
        <ele>678.828125</ele>
        <time>2011-03-21T08:47:43Z</time>
      </trkpt>
      <trkpt lat="42.77919" lon="1.52766">
        <ele>679.30859375</ele>
        <time>2011-03-21T08:47:47Z</time>
      </trkpt>
      <trkpt lat="42.77921" lon="1.52777">
        <ele>678.34741210938</ele>
        <time>2011-03-21T08:47:49Z</time>
      </trkpt>
      <trkpt lat="42.77923" lon="1.5279">
        <ele>677.86669921875</ele>
        <time>2011-03-21T08:47:53Z</time>
      </trkpt>
      <trkpt lat="42.77923" lon="1.52793">
        <ele>678.828125</ele>
        <time>2011-03-21T08:47:54Z</time>
      </trkpt>
      <trkpt lat="42.77926" lon="1.5281">
        <ele>677.86669921875</ele>
        <time>2011-03-21T08:48:00Z</time>
      </trkpt>
      <trkpt lat="42.77931" lon="1.52825">
        <ele>675.94409179688</ele>
        <time>2011-03-21T08:48:05Z</time>
      </trkpt>
      <trkpt lat="42.77936" lon="1.52836">
        <ele>675.46337890625</ele>
        <time>2011-03-21T08:48:09Z</time>
      </trkpt>
      <trkpt lat="42.77938" lon="1.52842">
        <ele>675.46337890625</ele>
        <time>2011-03-21T08:48:11Z</time>
      </trkpt>
      <trkpt lat="42.77946" lon="1.52856">
        <ele>677.38623046875</ele>
        <time>2011-03-21T08:48:17Z</time>
      </trkpt>
      <trkpt lat="42.7795" lon="1.52866">
        <ele>678.828125</ele>
        <time>2011-03-21T08:48:21Z</time>
      </trkpt>
      <trkpt lat="42.77951" lon="1.52869">
        <ele>679.30859375</ele>
        <time>2011-03-21T08:48:22Z</time>
      </trkpt>
      <trkpt lat="42.77952" lon="1.52875">
        <ele>679.78930664062</ele>
        <time>2011-03-21T08:48:24Z</time>
      </trkpt>
      <trkpt lat="42.77962" lon="1.52887">
        <ele>683.15380859375</ele>
        <time>2011-03-21T08:48:28Z</time>
      </trkpt>
      <trkpt lat="42.77969" lon="1.52899">
        <ele>682.67333984375</ele>
        <time>2011-03-21T08:48:32Z</time>
      </trkpt>
      <trkpt lat="42.77975" lon="1.5291">
        <ele>678.828125</ele>
        <time>2011-03-21T08:48:36Z</time>
      </trkpt>
      <trkpt lat="42.77987" lon="1.52918">
        <ele>674.98291015625</ele>
        <time>2011-03-21T08:48:41Z</time>
      </trkpt>
      <trkpt lat="42.77989" lon="1.52924">
        <ele>674.98291015625</ele>
        <time>2011-03-21T08:48:43Z</time>
      </trkpt>
      <trkpt lat="42.7799" lon="1.52936">
        <ele>676.4248046875</ele>
        <time>2011-03-21T08:48:46Z</time>
      </trkpt>
      <trkpt lat="42.77991" lon="1.52946">
        <ele>679.78930664062</ele>
        <time>2011-03-21T08:48:49Z</time>
      </trkpt>
      <trkpt lat="42.77995" lon="1.5296">
        <ele>680.75073242188</ele>
        <time>2011-03-21T08:48:53Z</time>
      </trkpt>
      <trkpt lat="42.77998" lon="1.52969">
        <ele>679.30859375</ele>
        <time>2011-03-21T08:48:57Z</time>
      </trkpt>
      <trkpt lat="42.78002" lon="1.52975">
        <ele>679.78930664062</ele>
        <time>2011-03-21T08:49:02Z</time>
      </trkpt>
      <trkpt lat="42.78008" lon="1.52992">
        <ele>679.30859375</ele>
        <time>2011-03-21T08:49:07Z</time>
      </trkpt>
      <trkpt lat="42.78012" lon="1.52998">
        <ele>680.27001953125</ele>
        <time>2011-03-21T08:49:09Z</time>
      </trkpt>
      <trkpt lat="42.7802" lon="1.53021">
        <ele>678.828125</ele>
        <time>2011-03-21T08:49:16Z</time>
      </trkpt>
      <trkpt lat="42.78021" lon="1.53025">
        <ele>678.828125</ele>
        <time>2011-03-21T08:49:17Z</time>
      </trkpt>
      <trkpt lat="42.78022" lon="1.53032">
        <ele>678.828125</ele>
        <time>2011-03-21T08:49:19Z</time>
      </trkpt>
      <trkpt lat="42.78026" lon="1.53046">
        <ele>680.75073242188</ele>
        <time>2011-03-21T08:49:23Z</time>
      </trkpt>
      <trkpt lat="42.7803" lon="1.53054">
        <ele>683.15380859375</ele>
        <time>2011-03-21T08:49:27Z</time>
      </trkpt>
      <trkpt lat="42.78037" lon="1.53072">
        <ele>683.63452148438</ele>
        <time>2011-03-21T08:49:33Z</time>
      </trkpt>
      <trkpt lat="42.78045" lon="1.53086">
        <ele>685.07690429688</ele>
        <time>2011-03-21T08:49:37Z</time>
      </trkpt>
      <trkpt lat="42.78049" lon="1.53103">
        <ele>685.07690429688</ele>
        <time>2011-03-21T08:49:41Z</time>
      </trkpt>
      <trkpt lat="42.7805" lon="1.5311">
        <ele>686.0380859375</ele>
        <time>2011-03-21T08:49:43Z</time>
      </trkpt>
      <trkpt lat="42.78051" lon="1.5312">
        <ele>689.88330078125</ele>
        <time>2011-03-21T08:49:47Z</time>
      </trkpt>
      <trkpt lat="42.78049" lon="1.53129">
        <ele>699.015625</ele>
        <time>2011-03-21T08:49:50Z</time>
      </trkpt>
      <trkpt lat="42.7805" lon="1.53145">
        <ele>709.10961914062</ele>
        <time>2011-03-21T08:49:56Z</time>
      </trkpt>
      <trkpt lat="42.78057" lon="1.53161">
        <ele>708.62890625</ele>
        <time>2011-03-21T08:50:01Z</time>
      </trkpt>
      <trkpt lat="42.78065" lon="1.53172">
        <ele>708.1484375</ele>
        <time>2011-03-21T08:50:05Z</time>
      </trkpt>
      <trkpt lat="42.78066" lon="1.53175">
        <ele>709.10961914062</ele>
        <time>2011-03-21T08:50:06Z</time>
      </trkpt>
      <trkpt lat="42.78073" lon="1.53188">
        <ele>706.70629882812</ele>
        <time>2011-03-21T08:50:12Z</time>
      </trkpt>
      <trkpt lat="42.78077" lon="1.53198">
        <ele>702.38037109375</ele>
        <time>2011-03-21T08:50:17Z</time>
      </trkpt>
      <trkpt lat="42.7808" lon="1.53215">
        <ele>700.4580078125</ele>
        <time>2011-03-21T08:50:23Z</time>
      </trkpt>
      <trkpt lat="42.78082" lon="1.53225">
        <ele>699.015625</ele>
        <time>2011-03-21T08:50:27Z</time>
      </trkpt>
      <trkpt lat="42.78079" lon="1.53236">
        <ele>695.65112304688</ele>
        <time>2011-03-21T08:50:33Z</time>
      </trkpt>
      <trkpt lat="42.78079" lon="1.53238">
        <ele>696.1318359375</ele>
        <time>2011-03-21T08:50:34Z</time>
      </trkpt>
      <trkpt lat="42.7808" lon="1.5324">
        <ele>692.76733398438</ele>
        <time>2011-03-21T08:51:29Z</time>
      </trkpt>
      <trkpt lat="42.78079" lon="1.5324">
        <ele>692.76733398438</ele>
        <time>2011-03-21T08:51:30Z</time>
      </trkpt>
      <trkpt lat="42.78079" lon="1.53246">
        <ele>693.24780273438</ele>
        <time>2011-03-21T08:51:33Z</time>
      </trkpt>
      <trkpt lat="42.78079" lon="1.53258">
        <ele>694.20922851562</ele>
        <time>2011-03-21T08:51:38Z</time>
      </trkpt>
      <trkpt lat="42.78079" lon="1.53268">
        <ele>696.1318359375</ele>
        <time>2011-03-21T08:51:44Z</time>
      </trkpt>
      <trkpt lat="42.7808" lon="1.53271">
        <ele>696.1318359375</ele>
        <time>2011-03-21T08:51:45Z</time>
      </trkpt>
      <trkpt lat="42.78086" lon="1.53283">
        <ele>695.17041015625</ele>
        <time>2011-03-21T08:51:52Z</time>
      </trkpt>
      <trkpt lat="42.78087" lon="1.53284">
        <ele>694.68969726562</ele>
        <time>2011-03-21T08:51:53Z</time>
      </trkpt>
      <trkpt lat="42.7809" lon="1.53291">
        <ele>693.728515625</ele>
        <time>2011-03-21T08:51:57Z</time>
      </trkpt>
      <trkpt lat="42.78091" lon="1.53292">
        <ele>693.24780273438</ele>
        <time>2011-03-21T08:51:58Z</time>
      </trkpt>
      <trkpt lat="42.78092" lon="1.53302">
        <ele>691.80590820312</ele>
        <time>2011-03-21T08:52:04Z</time>
      </trkpt>
      <trkpt lat="42.78101" lon="1.53306">
        <ele>692.76733398438</ele>
        <time>2011-03-21T08:52:12Z</time>
      </trkpt>
      <trkpt lat="42.78104" lon="1.53307">
        <ele>694.20922851562</ele>
        <time>2011-03-21T08:52:14Z</time>
      </trkpt>
      <trkpt lat="42.78106" lon="1.53307">
        <ele>694.68969726562</ele>
        <time>2011-03-21T08:52:17Z</time>
      </trkpt>
      <trkpt lat="42.78112" lon="1.53305">
        <ele>695.17041015625</ele>
        <time>2011-03-21T08:52:25Z</time>
      </trkpt>
      <trkpt lat="42.78115" lon="1.53303">
        <ele>694.68969726562</ele>
        <time>2011-03-21T08:52:31Z</time>
      </trkpt>
      <trkpt lat="42.78119" lon="1.53301">
        <ele>694.20922851562</ele>
        <time>2011-03-21T08:52:35Z</time>
      </trkpt>
      <trkpt lat="42.78126" lon="1.53299">
        <ele>697.09301757812</ele>
        <time>2011-03-21T08:52:42Z</time>
      </trkpt>
      <trkpt lat="42.78131" lon="1.53297">
        <ele>701.41918945312</ele>
        <time>2011-03-21T08:52:46Z</time>
      </trkpt>
      <trkpt lat="42.78138" lon="1.53298">
        <ele>706.70629882812</ele>
        <time>2011-03-21T08:52:52Z</time>
      </trkpt>
      <trkpt lat="42.78143" lon="1.533">
        <ele>708.62890625</ele>
        <time>2011-03-21T08:52:58Z</time>
      </trkpt>
      <trkpt lat="42.78146" lon="1.533">
        <ele>708.62890625</ele>
        <time>2011-03-21T08:53:01Z</time>
      </trkpt>
      <trkpt lat="42.78151" lon="1.53306">
        <ele>708.1484375</ele>
        <time>2011-03-21T08:53:08Z</time>
      </trkpt>
      <trkpt lat="42.78154" lon="1.53315">
        <ele>706.70629882812</ele>
        <time>2011-03-21T08:53:16Z</time>
      </trkpt>
      <trkpt lat="42.78154" lon="1.53319">
        <ele>711.51293945312</ele>
        <time>2011-03-21T08:53:21Z</time>
      </trkpt>
      <trkpt lat="42.78157" lon="1.53319">
        <ele>713.435546875</ele>
        <time>2011-03-21T08:53:27Z</time>
      </trkpt>
      <trkpt lat="42.78163" lon="1.53319">
        <ele>714.87744140625</ele>
        <time>2011-03-21T08:53:32Z</time>
      </trkpt>
      <trkpt lat="42.78162" lon="1.53324">
        <ele>714.39672851562</ele>
        <time>2011-03-21T08:53:39Z</time>
      </trkpt>
      <trkpt lat="42.78162" lon="1.53329">
        <ele>714.39672851562</ele>
        <time>2011-03-21T08:53:43Z</time>
      </trkpt>
      <trkpt lat="42.78166" lon="1.5333">
        <ele>715.35815429688</ele>
        <time>2011-03-21T08:53:49Z</time>
      </trkpt>
      <trkpt lat="42.7817" lon="1.53327">
        <ele>716.31958007812</ele>
        <time>2011-03-21T08:53:56Z</time>
      </trkpt>
      <trkpt lat="42.78172" lon="1.53329">
        <ele>720.6455078125</ele>
        <time>2011-03-21T08:54:01Z</time>
      </trkpt>
      <trkpt lat="42.78175" lon="1.5333">
        <ele>723.048828125</ele>
        <time>2011-03-21T08:54:06Z</time>
      </trkpt>
      <trkpt lat="42.7818" lon="1.53338">
        <ele>728.3359375</ele>
        <time>2011-03-21T08:54:12Z</time>
      </trkpt>
      <trkpt lat="42.7818" lon="1.53342">
        <ele>731.70043945312</ele>
        <time>2011-03-21T08:54:16Z</time>
      </trkpt>
      <trkpt lat="42.78182" lon="1.53349">
        <ele>737.94921875</ele>
        <time>2011-03-21T08:54:23Z</time>
      </trkpt>
      <trkpt lat="42.78187" lon="1.53352">
        <ele>737.46850585938</ele>
        <time>2011-03-21T08:54:29Z</time>
      </trkpt>
      <trkpt lat="42.78189" lon="1.53346">
        <ele>736.50732421875</ele>
        <time>2011-03-21T08:54:35Z</time>
      </trkpt>
      <trkpt lat="42.78192" lon="1.5334">
        <ele>734.58471679688</ele>
        <time>2011-03-21T08:54:41Z</time>
      </trkpt>
      <trkpt lat="42.78198" lon="1.53339">
        <ele>732.662109375</ele>
        <time>2011-03-21T08:54:47Z</time>
      </trkpt>
      <trkpt lat="42.78202" lon="1.5334">
        <ele>735.5458984375</ele>
        <time>2011-03-21T08:54:53Z</time>
      </trkpt>
      <trkpt lat="42.78206" lon="1.53337">
        <ele>735.0654296875</ele>
        <time>2011-03-21T08:54:58Z</time>
      </trkpt>
      <trkpt lat="42.78211" lon="1.53335">
        <ele>735.0654296875</ele>
        <time>2011-03-21T08:55:04Z</time>
      </trkpt>
      <trkpt lat="42.78209" lon="1.53335">
        <ele>746.60107421875</ele>
        <time>2011-03-21T08:55:12Z</time>
      </trkpt>
      <trkpt lat="42.78206" lon="1.53339">
        <ele>754.77221679688</ele>
        <time>2011-03-21T08:55:19Z</time>
      </trkpt>
      <trkpt lat="42.78206" lon="1.53345">
        <ele>754.29174804688</ele>
        <time>2011-03-21T08:55:25Z</time>
      </trkpt>
      <trkpt lat="42.78206" lon="1.53355">
        <ele>752.849609375</ele>
        <time>2011-03-21T08:55:32Z</time>
      </trkpt>
      <trkpt lat="42.78205" lon="1.53359">
        <ele>753.33032226562</ele>
        <time>2011-03-21T08:55:35Z</time>
      </trkpt>
      <trkpt lat="42.78204" lon="1.5337">
        <ele>754.29174804688</ele>
        <time>2011-03-21T08:55:41Z</time>
      </trkpt>
      <trkpt lat="42.78204" lon="1.53378">
        <ele>754.29174804688</ele>
        <time>2011-03-21T08:55:46Z</time>
      </trkpt>
      <trkpt lat="42.78206" lon="1.53388">
        <ele>751.40771484375</ele>
        <time>2011-03-21T08:55:52Z</time>
      </trkpt>
      <trkpt lat="42.78208" lon="1.53386">
        <ele>751.88842773438</ele>
        <time>2011-03-21T08:55:56Z</time>
      </trkpt>
      <trkpt lat="42.78215" lon="1.53378">
        <ele>751.40771484375</ele>
        <time>2011-03-21T08:56:05Z</time>
      </trkpt>
      <trkpt lat="42.78217" lon="1.53378">
        <ele>750.92700195312</ele>
        <time>2011-03-21T08:56:07Z</time>
      </trkpt>
      <trkpt lat="42.78222" lon="1.53374">
        <ele>752.36889648438</ele>
        <time>2011-03-21T08:56:14Z</time>
      </trkpt>
      <trkpt lat="42.78227" lon="1.53369">
        <ele>751.88842773438</ele>
        <time>2011-03-21T08:56:20Z</time>
      </trkpt>
      <trkpt lat="42.78231" lon="1.53372">
        <ele>754.29174804688</ele>
        <time>2011-03-21T08:56:26Z</time>
      </trkpt>
      <trkpt lat="42.78231" lon="1.53379">
        <ele>757.65625</ele>
        <time>2011-03-21T08:56:32Z</time>
      </trkpt>
      <trkpt lat="42.78231" lon="1.53387">
        <ele>760.05932617188</ele>
        <time>2011-03-21T08:56:39Z</time>
      </trkpt>
      <trkpt lat="42.78232" lon="1.53395">
        <ele>762.46264648438</ele>
        <time>2011-03-21T08:56:45Z</time>
      </trkpt>
      <trkpt lat="42.78231" lon="1.53398">
        <ele>763.90454101562</ele>
        <time>2011-03-21T08:56:47Z</time>
      </trkpt>
      <trkpt lat="42.78234" lon="1.53397">
        <ele>764.8662109375</ele>
        <time>2011-03-21T08:56:53Z</time>
      </trkpt>
      <trkpt lat="42.78239" lon="1.53391">
        <ele>763.90454101562</ele>
        <time>2011-03-21T08:56:59Z</time>
      </trkpt>
      <trkpt lat="42.78246" lon="1.53385">
        <ele>764.38549804688</ele>
        <time>2011-03-21T08:57:06Z</time>
      </trkpt>
      <trkpt lat="42.78251" lon="1.53375">
        <ele>765.34692382812</ele>
        <time>2011-03-21T08:57:16Z</time>
      </trkpt>
      <trkpt lat="42.78254" lon="1.53368">
        <ele>765.34692382812</ele>
        <time>2011-03-21T08:57:23Z</time>
      </trkpt>
      <trkpt lat="42.78258" lon="1.53363">
        <ele>765.82763671875</ele>
        <time>2011-03-21T08:57:29Z</time>
      </trkpt>
      <trkpt lat="42.78262" lon="1.53357">
        <ele>767.75</ele>
        <time>2011-03-21T08:57:35Z</time>
      </trkpt>
      <trkpt lat="42.78265" lon="1.5335">
        <ele>769.19213867188</ele>
        <time>2011-03-21T08:57:41Z</time>
      </trkpt>
      <trkpt lat="42.78268" lon="1.53343">
        <ele>769.19213867188</ele>
        <time>2011-03-21T08:57:48Z</time>
      </trkpt>
      <trkpt lat="42.78273" lon="1.53337">
        <ele>770.63403320312</ele>
        <time>2011-03-21T08:57:55Z</time>
      </trkpt>
      <trkpt lat="42.78277" lon="1.53332">
        <ele>771.11474609375</ele>
        <time>2011-03-21T08:58:00Z</time>
      </trkpt>
      <trkpt lat="42.78282" lon="1.53325">
        <ele>772.07592773438</ele>
        <time>2011-03-21T08:58:06Z</time>
      </trkpt>
      <trkpt lat="42.78283" lon="1.53325">
        <ele>773.03735351562</ele>
        <time>2011-03-21T08:58:07Z</time>
      </trkpt>
      <trkpt lat="42.78285" lon="1.53325">
        <ele>773.99853515625</ele>
        <time>2011-03-21T08:58:09Z</time>
      </trkpt>
      <trkpt lat="42.78286" lon="1.53326">
        <ele>775.4404296875</ele>
        <time>2011-03-21T08:58:11Z</time>
      </trkpt>
      <trkpt lat="42.78285" lon="1.53331">
        <ele>778.80517578125</ele>
        <time>2011-03-21T08:58:16Z</time>
      </trkpt>
      <trkpt lat="42.78282" lon="1.5334">
        <ele>780.24731445312</ele>
        <time>2011-03-21T08:58:23Z</time>
      </trkpt>
      <trkpt lat="42.78282" lon="1.53342">
        <ele>780.24731445312</ele>
        <time>2011-03-21T08:58:24Z</time>
      </trkpt>
      <trkpt lat="42.78281" lon="1.5335">
        <ele>782.65063476562</ele>
        <time>2011-03-21T08:58:32Z</time>
      </trkpt>
      <trkpt lat="42.7828" lon="1.53358">
        <ele>786.01513671875</ele>
        <time>2011-03-21T08:58:39Z</time>
      </trkpt>
      <trkpt lat="42.78279" lon="1.53365">
        <ele>787.93774414062</ele>
        <time>2011-03-21T08:58:44Z</time>
      </trkpt>
      <trkpt lat="42.7828" lon="1.53369">
        <ele>788.89916992188</ele>
        <time>2011-03-21T08:58:47Z</time>
      </trkpt>
      <trkpt lat="42.78282" lon="1.53375">
        <ele>792.263671875</ele>
        <time>2011-03-21T08:58:53Z</time>
      </trkpt>
      <trkpt lat="42.78284" lon="1.53383">
        <ele>793.22485351562</ele>
        <time>2011-03-21T08:58:59Z</time>
      </trkpt>
      <trkpt lat="42.78284" lon="1.53394">
        <ele>793.22485351562</ele>
        <time>2011-03-21T08:59:06Z</time>
      </trkpt>
      <trkpt lat="42.78284" lon="1.53396">
        <ele>793.70556640625</ele>
        <time>2011-03-21T08:59:07Z</time>
      </trkpt>
      <trkpt lat="42.78286" lon="1.53406">
        <ele>794.66674804688</ele>
        <time>2011-03-21T08:59:15Z</time>
      </trkpt>
      <trkpt lat="42.78287" lon="1.53407">
        <ele>794.66674804688</ele>
        <time>2011-03-21T08:59:16Z</time>
      </trkpt>
      <trkpt lat="42.78289" lon="1.53418">
        <ele>795.1474609375</ele>
        <time>2011-03-21T08:59:25Z</time>
      </trkpt>
      <trkpt lat="42.7829" lon="1.53423">
        <ele>795.1474609375</ele>
        <time>2011-03-21T08:59:28Z</time>
      </trkpt>
      <trkpt lat="42.7829" lon="1.53429">
        <ele>797.0703125</ele>
        <time>2011-03-21T08:59:32Z</time>
      </trkpt>
      <trkpt lat="42.78288" lon="1.53444">
        <ele>800.91552734375</ele>
        <time>2011-03-21T08:59:40Z</time>
      </trkpt>
      <trkpt lat="42.7829" lon="1.53456">
        <ele>800.91552734375</ele>
        <time>2011-03-21T08:59:49Z</time>
      </trkpt>
      <trkpt lat="42.78291" lon="1.53461">
        <ele>802.357421875</ele>
        <time>2011-03-21T08:59:52Z</time>
      </trkpt>
      <trkpt lat="42.78291" lon="1.53471">
        <ele>804.2802734375</ele>
        <time>2011-03-21T09:00:00Z</time>
      </trkpt>
      <trkpt lat="42.78293" lon="1.5348">
        <ele>805.72216796875</ele>
        <time>2011-03-21T09:00:07Z</time>
      </trkpt>
      <trkpt lat="42.78296" lon="1.53485">
        <ele>806.20263671875</ele>
        <time>2011-03-21T09:00:13Z</time>
      </trkpt>
      <trkpt lat="42.783" lon="1.53494">
        <ele>806.68334960938</ele>
        <time>2011-03-21T09:00:21Z</time>
      </trkpt>
      <trkpt lat="42.78304" lon="1.53501">
        <ele>808.12548828125</ele>
        <time>2011-03-21T09:00:28Z</time>
      </trkpt>
      <trkpt lat="42.78309" lon="1.53504">
        <ele>809.5673828125</ele>
        <time>2011-03-21T09:00:33Z</time>
      </trkpt>
      <trkpt lat="42.78319" lon="1.53502">
        <ele>810.52856445312</ele>
        <time>2011-03-21T09:00:40Z</time>
      </trkpt>
      <trkpt lat="42.7832" lon="1.53502">
        <ele>810.52856445312</ele>
        <time>2011-03-21T09:00:41Z</time>
      </trkpt>
      <trkpt lat="42.78325" lon="1.53503">
        <ele>811.00927734375</ele>
        <time>2011-03-21T09:00:45Z</time>
      </trkpt>
      <trkpt lat="42.78335" lon="1.53509">
        <ele>811.00927734375</ele>
        <time>2011-03-21T09:00:51Z</time>
      </trkpt>
      <trkpt lat="42.78345" lon="1.53517">
        <ele>812.45141601562</ele>
        <time>2011-03-21T09:00:56Z</time>
      </trkpt>
      <trkpt lat="42.78354" lon="1.53521">
        <ele>813.41284179688</ele>
        <time>2011-03-21T09:01:00Z</time>
      </trkpt>
      <trkpt lat="42.78362" lon="1.53525">
        <ele>812.93212890625</ele>
        <time>2011-03-21T09:01:03Z</time>
      </trkpt>
      <trkpt lat="42.78368" lon="1.53527">
        <ele>812.93212890625</ele>
        <time>2011-03-21T09:01:05Z</time>
      </trkpt>
      <trkpt lat="42.78379" lon="1.5353">
        <ele>813.41284179688</ele>
        <time>2011-03-21T09:01:10Z</time>
      </trkpt>
      <trkpt lat="42.78385" lon="1.53535">
        <ele>810.52856445312</ele>
        <time>2011-03-21T09:01:14Z</time>
      </trkpt>
      <trkpt lat="42.784" lon="1.53547">
        <ele>810.0478515625</ele>
        <time>2011-03-21T09:01:20Z</time>
      </trkpt>
      <trkpt lat="42.78419" lon="1.53549">
        <ele>807.64477539062</ele>
        <time>2011-03-21T09:01:26Z</time>
      </trkpt>
      <trkpt lat="42.78432" lon="1.53555">
        <ele>806.20263671875</ele>
        <time>2011-03-21T09:01:31Z</time>
      </trkpt>
      <trkpt lat="42.78442" lon="1.53562">
        <ele>805.72216796875</ele>
        <time>2011-03-21T09:01:35Z</time>
      </trkpt>
      <trkpt lat="42.78449" lon="1.53567">
        <ele>808.12548828125</ele>
        <time>2011-03-21T09:01:39Z</time>
      </trkpt>
      <trkpt lat="42.78454" lon="1.53571">
        <ele>810.52856445312</ele>
        <time>2011-03-21T09:01:43Z</time>
      </trkpt>
      <trkpt lat="42.78458" lon="1.53574">
        <ele>808.60595703125</ele>
        <time>2011-03-21T09:01:47Z</time>
      </trkpt>
      <trkpt lat="42.7846" lon="1.53575">
        <ele>807.64477539062</ele>
        <time>2011-03-21T09:01:50Z</time>
      </trkpt>
      <trkpt lat="42.78466" lon="1.53577">
        <ele>809.08666992188</ele>
        <time>2011-03-21T09:01:56Z</time>
      </trkpt>
      <trkpt lat="42.78471" lon="1.53578">
        <ele>812.93212890625</ele>
        <time>2011-03-21T09:02:02Z</time>
      </trkpt>
      <trkpt lat="42.78479" lon="1.53581">
        <ele>816.77734375</ele>
        <time>2011-03-21T09:02:08Z</time>
      </trkpt>
      <trkpt lat="42.78483" lon="1.53581">
        <ele>817.73852539062</ele>
        <time>2011-03-21T09:02:13Z</time>
      </trkpt>
      <trkpt lat="42.78489" lon="1.53584">
        <ele>817.73852539062</ele>
        <time>2011-03-21T09:02:19Z</time>
      </trkpt>
      <trkpt lat="42.78495" lon="1.53588">
        <ele>819.1806640625</ele>
        <time>2011-03-21T09:02:26Z</time>
      </trkpt>
      <trkpt lat="42.78499" lon="1.53593">
        <ele>819.66137695312</ele>
        <time>2011-03-21T09:02:31Z</time>
      </trkpt>
      <trkpt lat="42.78507" lon="1.53599">
        <ele>821.10327148438</ele>
        <time>2011-03-21T09:02:38Z</time>
      </trkpt>
      <trkpt lat="42.7851" lon="1.53602">
        <ele>821.10327148438</ele>
        <time>2011-03-21T09:02:42Z</time>
      </trkpt>
      <trkpt lat="42.78514" lon="1.53607">
        <ele>820.62255859375</ele>
        <time>2011-03-21T09:02:47Z</time>
      </trkpt>
      <trkpt lat="42.7852" lon="1.53611">
        <ele>821.10327148438</ele>
        <time>2011-03-21T09:02:53Z</time>
      </trkpt>
      <trkpt lat="42.78525" lon="1.5362">
        <ele>830.23583984375</ele>
        <time>2011-03-21T09:02:59Z</time>
      </trkpt>
      <trkpt lat="42.78527" lon="1.53626">
        <ele>837.92626953125</ele>
        <time>2011-03-21T09:03:03Z</time>
      </trkpt>
      <trkpt lat="42.78537" lon="1.53632">
        <ele>838.8876953125</ele>
        <time>2011-03-21T09:03:10Z</time>
      </trkpt>
      <trkpt lat="42.7854" lon="1.53636">
        <ele>839.3681640625</ele>
        <time>2011-03-21T09:03:14Z</time>
      </trkpt>
      <trkpt lat="42.78545" lon="1.53635">
        <ele>842.73291015625</ele>
        <time>2011-03-21T09:03:18Z</time>
      </trkpt>
      <trkpt lat="42.78551" lon="1.5363">
        <ele>844.17504882812</ele>
        <time>2011-03-21T09:03:23Z</time>
      </trkpt>
      <trkpt lat="42.78558" lon="1.53637">
        <ele>842.73291015625</ele>
        <time>2011-03-21T09:03:30Z</time>
      </trkpt>
      <trkpt lat="42.78559" lon="1.53641">
        <ele>841.771484375</ele>
        <time>2011-03-21T09:03:32Z</time>
      </trkpt>
      <trkpt lat="42.78564" lon="1.53647">
        <ele>838.8876953125</ele>
        <time>2011-03-21T09:03:37Z</time>
      </trkpt>
      <trkpt lat="42.78572" lon="1.53655">
        <ele>837.44555664062</ele>
        <time>2011-03-21T09:03:45Z</time>
      </trkpt>
      <trkpt lat="42.78578" lon="1.53662">
        <ele>836.96484375</ele>
        <time>2011-03-21T09:03:51Z</time>
      </trkpt>
      <trkpt lat="42.78582" lon="1.53669">
        <ele>836.00366210938</ele>
        <time>2011-03-21T09:03:57Z</time>
      </trkpt>
      <trkpt lat="42.78585" lon="1.53678">
        <ele>836.96484375</ele>
        <time>2011-03-21T09:04:02Z</time>
      </trkpt>
      <trkpt lat="42.78585" lon="1.53682">
        <ele>837.44555664062</ele>
        <time>2011-03-21T09:04:04Z</time>
      </trkpt>
      <trkpt lat="42.78587" lon="1.53698">
        <ele>837.44555664062</ele>
        <time>2011-03-21T09:04:11Z</time>
      </trkpt>
      <trkpt lat="42.78591" lon="1.53712">
        <ele>839.3681640625</ele>
        <time>2011-03-21T09:04:18Z</time>
      </trkpt>
      <trkpt lat="42.78596" lon="1.53725">
        <ele>839.84887695312</ele>
        <time>2011-03-21T09:04:26Z</time>
      </trkpt>
      <trkpt lat="42.78603" lon="1.53738">
        <ele>841.29077148438</ele>
        <time>2011-03-21T09:04:34Z</time>
      </trkpt>
      <trkpt lat="42.78608" lon="1.53747">
        <ele>843.21337890625</ele>
        <time>2011-03-21T09:04:40Z</time>
      </trkpt>
      <trkpt lat="42.78617" lon="1.53756">
        <ele>844.17504882812</ele>
        <time>2011-03-21T09:04:47Z</time>
      </trkpt>
      <trkpt lat="42.78625" lon="1.53768">
        <ele>846.09765625</ele>
        <time>2011-03-21T09:04:55Z</time>
      </trkpt>
      <trkpt lat="42.7863" lon="1.53776">
        <ele>846.57836914062</ele>
        <time>2011-03-21T09:05:00Z</time>
      </trkpt>
      <trkpt lat="42.78634" lon="1.53772">
        <ele>847.05883789062</ele>
        <time>2011-03-21T09:05:05Z</time>
      </trkpt>
      <trkpt lat="42.78633" lon="1.5377">
        <ele>847.05883789062</ele>
        <time>2011-03-21T09:05:06Z</time>
      </trkpt>
      <trkpt lat="42.78623" lon="1.53752">
        <ele>845.61694335938</ele>
        <time>2011-03-21T09:05:12Z</time>
      </trkpt>
      <trkpt lat="42.78618" lon="1.5374">
        <ele>845.61694335938</ele>
        <time>2011-03-21T09:05:16Z</time>
      </trkpt>
      <trkpt lat="42.78615" lon="1.53728">
        <ele>847.05883789062</ele>
        <time>2011-03-21T09:05:21Z</time>
      </trkpt>
      <trkpt lat="42.78609" lon="1.53714">
        <ele>847.05883789062</ele>
        <time>2011-03-21T09:05:26Z</time>
      </trkpt>
      <trkpt lat="42.78606" lon="1.53694">
        <ele>848.9814453125</ele>
        <time>2011-03-21T09:05:32Z</time>
      </trkpt>
      <trkpt lat="42.78616" lon="1.53691">
        <ele>850.42358398438</ele>
        <time>2011-03-21T09:05:37Z</time>
      </trkpt>
      <trkpt lat="42.78621" lon="1.53699">
        <ele>848.50073242188</ele>
        <time>2011-03-21T09:05:41Z</time>
      </trkpt>
      <trkpt lat="42.78622" lon="1.53701">
        <ele>847.53955078125</ele>
        <time>2011-03-21T09:05:42Z</time>
      </trkpt>
      <trkpt lat="42.78625" lon="1.53713">
        <ele>848.02026367188</ele>
        <time>2011-03-21T09:05:48Z</time>
      </trkpt>
      <trkpt lat="42.78627" lon="1.53717">
        <ele>848.50073242188</ele>
        <time>2011-03-21T09:05:50Z</time>
      </trkpt>
      <trkpt lat="42.78633" lon="1.53725">
        <ele>847.05883789062</ele>
        <time>2011-03-21T09:05:56Z</time>
      </trkpt>
      <trkpt lat="42.78637" lon="1.5373">
        <ele>848.9814453125</ele>
        <time>2011-03-21T09:05:59Z</time>
      </trkpt>
      <trkpt lat="42.78642" lon="1.53736">
        <ele>851.384765625</ele>
        <time>2011-03-21T09:06:04Z</time>
      </trkpt>
      <trkpt lat="42.78651" lon="1.53749">
        <ele>857.15258789062</ele>
        <time>2011-03-21T09:06:13Z</time>
      </trkpt>
      <trkpt lat="42.78659" lon="1.53757">
        <ele>860.03662109375</ele>
        <time>2011-03-21T09:06:21Z</time>
      </trkpt>
      <trkpt lat="42.78669" lon="1.53766">
        <ele>861.95947265625</ele>
        <time>2011-03-21T09:06:31Z</time>
      </trkpt>
      <trkpt lat="42.78679" lon="1.53771">
        <ele>863.8818359375</ele>
        <time>2011-03-21T09:06:39Z</time>
      </trkpt>
      <trkpt lat="42.78688" lon="1.53776">
        <ele>864.36254882812</ele>
        <time>2011-03-21T09:06:46Z</time>
      </trkpt>
      <trkpt lat="42.78696" lon="1.53782">
        <ele>864.36254882812</ele>
        <time>2011-03-21T09:06:53Z</time>
      </trkpt>
      <trkpt lat="42.78705" lon="1.53793">
        <ele>865.32397460938</ele>
        <time>2011-03-21T09:07:02Z</time>
      </trkpt>
      <trkpt lat="42.78714" lon="1.53804">
        <ele>867.24658203125</ele>
        <time>2011-03-21T09:07:10Z</time>
      </trkpt>
      <trkpt lat="42.78718" lon="1.53808">
        <ele>868.20776367188</ele>
        <time>2011-03-21T09:07:13Z</time>
      </trkpt>
      <trkpt lat="42.78724" lon="1.5382">
        <ele>869.64990234375</ele>
        <time>2011-03-21T09:07:21Z</time>
      </trkpt>
      <trkpt lat="42.78732" lon="1.53833">
        <ele>870.61108398438</ele>
        <time>2011-03-21T09:07:30Z</time>
      </trkpt>
      <trkpt lat="42.78738" lon="1.53836">
        <ele>871.572265625</ele>
        <time>2011-03-21T09:07:34Z</time>
      </trkpt>
      <trkpt lat="42.78738" lon="1.53829">
        <ele>872.53369140625</ele>
        <time>2011-03-21T09:07:40Z</time>
      </trkpt>
      <trkpt lat="42.78731" lon="1.53813">
        <ele>874.93701171875</ele>
        <time>2011-03-21T09:07:50Z</time>
      </trkpt>
      <trkpt lat="42.78725" lon="1.53801">
        <ele>875.89819335938</ele>
        <time>2011-03-21T09:07:57Z</time>
      </trkpt>
      <trkpt lat="42.78722" lon="1.53794">
        <ele>877.82104492188</ele>
        <time>2011-03-21T09:08:01Z</time>
      </trkpt>
      <trkpt lat="42.78719" lon="1.53785">
        <ele>879.26293945312</ele>
        <time>2011-03-21T09:08:06Z</time>
      </trkpt>
      <trkpt lat="42.78717" lon="1.53779">
        <ele>879.26293945312</ele>
        <time>2011-03-21T09:08:09Z</time>
      </trkpt>
      <trkpt lat="42.78719" lon="1.53772">
        <ele>878.3017578125</ele>
        <time>2011-03-21T09:08:13Z</time>
      </trkpt>
      <trkpt lat="42.7872" lon="1.53768">
        <ele>878.3017578125</ele>
        <time>2011-03-21T09:08:15Z</time>
      </trkpt>
      <trkpt lat="42.78724" lon="1.5376">
        <ele>878.3017578125</ele>
        <time>2011-03-21T09:08:19Z</time>
      </trkpt>
      <trkpt lat="42.78725" lon="1.53759">
        <ele>878.78247070312</ele>
        <time>2011-03-21T09:08:21Z</time>
      </trkpt>
      <trkpt lat="42.78728" lon="1.53758">
        <ele>881.66625976562</ele>
        <time>2011-03-21T09:08:25Z</time>
      </trkpt>
      <trkpt lat="42.78727" lon="1.5375">
        <ele>883.5888671875</ele>
        <time>2011-03-21T09:08:30Z</time>
      </trkpt>
      <trkpt lat="42.78726" lon="1.53749">
        <ele>883.5888671875</ele>
        <time>2011-03-21T09:08:31Z</time>
      </trkpt>
      <trkpt lat="42.78722" lon="1.53743">
        <ele>885.03100585938</ele>
        <time>2011-03-21T09:08:36Z</time>
      </trkpt>
      <trkpt lat="42.78717" lon="1.53737">
        <ele>886.47290039062</ele>
        <time>2011-03-21T09:08:42Z</time>
      </trkpt>
      <trkpt lat="42.78711" lon="1.53731">
        <ele>887.91479492188</ele>
        <time>2011-03-21T09:08:47Z</time>
      </trkpt>
      <trkpt lat="42.78709" lon="1.53725">
        <ele>888.3955078125</ele>
        <time>2011-03-21T09:08:51Z</time>
      </trkpt>
      <trkpt lat="42.78709" lon="1.53723">
        <ele>889.35668945312</ele>
        <time>2011-03-21T09:09:06Z</time>
      </trkpt>
      <trkpt lat="42.78708" lon="1.53722">
        <ele>888.87622070312</ele>
        <time>2011-03-21T09:09:07Z</time>
      </trkpt>
      <trkpt lat="42.78703" lon="1.53717">
        <ele>889.35668945312</ele>
        <time>2011-03-21T09:09:11Z</time>
      </trkpt>
      <trkpt lat="42.78701" lon="1.53713">
        <ele>889.83740234375</ele>
        <time>2011-03-21T09:09:14Z</time>
      </trkpt>
      <trkpt lat="42.78695" lon="1.53706">
        <ele>888.3955078125</ele>
        <time>2011-03-21T09:09:20Z</time>
      </trkpt>
      <trkpt lat="42.78689" lon="1.53697">
        <ele>885.51147460938</ele>
        <time>2011-03-21T09:09:25Z</time>
      </trkpt>
      <trkpt lat="42.78684" lon="1.53684">
        <ele>883.5888671875</ele>
        <time>2011-03-21T09:09:29Z</time>
      </trkpt>
      <trkpt lat="42.78678" lon="1.53674">
        <ele>882.62768554688</ele>
        <time>2011-03-21T09:09:32Z</time>
      </trkpt>
      <trkpt lat="42.78671" lon="1.53659">
        <ele>881.66625976562</ele>
        <time>2011-03-21T09:09:37Z</time>
      </trkpt>
      <trkpt lat="42.78664" lon="1.53648">
        <ele>878.78247070312</ele>
        <time>2011-03-21T09:09:41Z</time>
      </trkpt>
      <trkpt lat="42.7866" lon="1.53641">
        <ele>879.26293945312</ele>
        <time>2011-03-21T09:09:43Z</time>
      </trkpt>
      <trkpt lat="42.78651" lon="1.53623">
        <ele>877.82104492188</ele>
        <time>2011-03-21T09:09:49Z</time>
      </trkpt>
      <trkpt lat="42.78641" lon="1.53609">
        <ele>876.37915039062</ele>
        <time>2011-03-21T09:09:55Z</time>
      </trkpt>
      <trkpt lat="42.78639" lon="1.53606">
        <ele>875.89819335938</ele>
        <time>2011-03-21T09:09:56Z</time>
      </trkpt>
      <trkpt lat="42.78632" lon="1.53584">
        <ele>876.85986328125</ele>
        <time>2011-03-21T09:10:02Z</time>
      </trkpt>
      <trkpt lat="42.78624" lon="1.53567">
        <ele>878.3017578125</ele>
        <time>2011-03-21T09:10:07Z</time>
      </trkpt>
      <trkpt lat="42.78618" lon="1.53554">
        <ele>878.3017578125</ele>
        <time>2011-03-21T09:10:11Z</time>
      </trkpt>
      <trkpt lat="42.78612" lon="1.53541">
        <ele>878.78247070312</ele>
        <time>2011-03-21T09:10:16Z</time>
      </trkpt>
      <trkpt lat="42.78606" lon="1.5353">
        <ele>879.26293945312</ele>
        <time>2011-03-21T09:10:20Z</time>
      </trkpt>
      <trkpt lat="42.786" lon="1.53513">
        <ele>881.66625976562</ele>
        <time>2011-03-21T09:10:25Z</time>
      </trkpt>
      <trkpt lat="42.78596" lon="1.53499">
        <ele>884.55029296875</ele>
        <time>2011-03-21T09:10:29Z</time>
      </trkpt>
      <trkpt lat="42.78593" lon="1.53491">
        <ele>884.55029296875</ele>
        <time>2011-03-21T09:10:35Z</time>
      </trkpt>
      <trkpt lat="42.78591" lon="1.53485">
        <ele>883.10815429688</ele>
        <time>2011-03-21T09:10:40Z</time>
      </trkpt>
      <trkpt lat="42.78585" lon="1.53481">
        <ele>885.03100585938</ele>
        <time>2011-03-21T09:10:45Z</time>
      </trkpt>
      <trkpt lat="42.78576" lon="1.53477">
        <ele>887.43408203125</ele>
        <time>2011-03-21T09:10:52Z</time>
      </trkpt>
      <trkpt lat="42.78575" lon="1.53477">
        <ele>886.95336914062</ele>
        <time>2011-03-21T09:10:53Z</time>
      </trkpt>
      <trkpt lat="42.78568" lon="1.53471">
        <ele>889.35668945312</ele>
        <time>2011-03-21T09:10:59Z</time>
      </trkpt>
      <trkpt lat="42.78562" lon="1.53466">
        <ele>892.24096679688</ele>
        <time>2011-03-21T09:11:04Z</time>
      </trkpt>
      <trkpt lat="42.78558" lon="1.53464">
        <ele>891.76000976562</ele>
        <time>2011-03-21T09:11:07Z</time>
      </trkpt>
      <trkpt lat="42.78556" lon="1.53463">
        <ele>891.76000976562</ele>
        <time>2011-03-21T09:11:09Z</time>
      </trkpt>
      <trkpt lat="42.78554" lon="1.5346">
        <ele>892.24096679688</ele>
        <time>2011-03-21T09:11:13Z</time>
      </trkpt>
      <trkpt lat="42.7855" lon="1.53455">
        <ele>892.7216796875</ele>
        <time>2011-03-21T09:11:19Z</time>
      </trkpt>
      <trkpt lat="42.78548" lon="1.5345">
        <ele>890.79858398438</ele>
        <time>2011-03-21T09:11:24Z</time>
      </trkpt>
      <trkpt lat="42.78548" lon="1.53446">
        <ele>893.68286132812</ele>
        <time>2011-03-21T09:11:30Z</time>
      </trkpt>
      <trkpt lat="42.78548" lon="1.53442">
        <ele>895.60546875</ele>
        <time>2011-03-21T09:11:34Z</time>
      </trkpt>
      <trkpt lat="42.78546" lon="1.53439">
        <ele>893.68286132812</ele>
        <time>2011-03-21T09:11:39Z</time>
      </trkpt>
      <trkpt lat="42.78542" lon="1.53434">
        <ele>896.56689453125</ele>
        <time>2011-03-21T09:11:45Z</time>
      </trkpt>
      <trkpt lat="42.7854" lon="1.5343">
        <ele>897.04736328125</ele>
        <time>2011-03-21T09:11:48Z</time>
      </trkpt>
      <trkpt lat="42.78536" lon="1.53423">
        <ele>896.56689453125</ele>
        <time>2011-03-21T09:11:55Z</time>
      </trkpt>
      <trkpt lat="42.78533" lon="1.53417">
        <ele>897.52807617188</ele>
        <time>2011-03-21T09:12:01Z</time>
      </trkpt>
      <trkpt lat="42.7853" lon="1.53412">
        <ele>896.56689453125</ele>
        <time>2011-03-21T09:12:07Z</time>
      </trkpt>
      <trkpt lat="42.78526" lon="1.53404">
        <ele>896.08618164062</ele>
        <time>2011-03-21T09:12:13Z</time>
      </trkpt>
      <trkpt lat="42.78526" lon="1.534">
        <ele>896.08618164062</ele>
        <time>2011-03-21T09:12:16Z</time>
      </trkpt>
      <trkpt lat="42.78522" lon="1.53396">
        <ele>899.93139648438</ele>
        <time>2011-03-21T09:12:21Z</time>
      </trkpt>
      <trkpt lat="42.78518" lon="1.5339">
        <ele>897.52807617188</ele>
        <time>2011-03-21T09:12:28Z</time>
      </trkpt>
      <trkpt lat="42.78522" lon="1.53383">
        <ele>899.45068359375</ele>
        <time>2011-03-21T09:12:35Z</time>
      </trkpt>
      <trkpt lat="42.78522" lon="1.5338">
        <ele>903.77661132812</ele>
        <time>2011-03-21T09:12:37Z</time>
      </trkpt>
      <trkpt lat="42.78523" lon="1.53373">
        <ele>905.21850585938</ele>
        <time>2011-03-21T09:12:42Z</time>
      </trkpt>
      <trkpt lat="42.78524" lon="1.53367">
        <ele>905.21850585938</ele>
        <time>2011-03-21T09:12:46Z</time>
      </trkpt>
      <trkpt lat="42.78527" lon="1.53355">
        <ele>905.69921875</ele>
        <time>2011-03-21T09:12:53Z</time>
      </trkpt>
      <trkpt lat="42.7853" lon="1.53348">
        <ele>904.73779296875</ele>
        <time>2011-03-21T09:12:57Z</time>
      </trkpt>
      <trkpt lat="42.7853" lon="1.53346">
        <ele>904.25732421875</ele>
        <time>2011-03-21T09:12:58Z</time>
      </trkpt>
      <trkpt lat="42.78531" lon="1.5334">
        <ele>904.25732421875</ele>
        <time>2011-03-21T09:13:03Z</time>
      </trkpt>
      <trkpt lat="42.78534" lon="1.53329">
        <ele>904.73779296875</ele>
        <time>2011-03-21T09:13:11Z</time>
      </trkpt>
      <trkpt lat="42.78534" lon="1.53326">
        <ele>905.21850585938</ele>
        <time>2011-03-21T09:13:13Z</time>
      </trkpt>
      <trkpt lat="42.78536" lon="1.53316">
        <ele>904.25732421875</ele>
        <time>2011-03-21T09:13:17Z</time>
      </trkpt>
      <trkpt lat="42.78538" lon="1.53297">
        <ele>901.85400390625</ele>
        <time>2011-03-21T09:13:23Z</time>
      </trkpt>
      <trkpt lat="42.78539" lon="1.5328">
        <ele>902.81518554688</ele>
        <time>2011-03-21T09:13:28Z</time>
      </trkpt>
      <trkpt lat="42.78545" lon="1.53266">
        <ele>903.2958984375</ele>
        <time>2011-03-21T09:13:33Z</time>
      </trkpt>
      <trkpt lat="42.78548" lon="1.53258">
        <ele>906.1796875</ele>
        <time>2011-03-21T09:13:37Z</time>
      </trkpt>
      <trkpt lat="42.7855" lon="1.53254">
        <ele>908.10278320312</ele>
        <time>2011-03-21T09:13:39Z</time>
      </trkpt>
      <trkpt lat="42.78554" lon="1.53246">
        <ele>913.38989257812</ele>
        <time>2011-03-21T09:13:46Z</time>
      </trkpt>
      <trkpt lat="42.78556" lon="1.53243">
        <ele>915.79321289062</ele>
        <time>2011-03-21T09:13:49Z</time>
      </trkpt>
      <trkpt lat="42.78558" lon="1.53242">
        <ele>915.79321289062</ele>
        <time>2011-03-21T09:13:51Z</time>
      </trkpt>
      <trkpt lat="42.78562" lon="1.53237">
        <ele>917.71557617188</ele>
        <time>2011-03-21T09:13:56Z</time>
      </trkpt>
      <trkpt lat="42.78565" lon="1.53231">
        <ele>920.11889648438</ele>
        <time>2011-03-21T09:14:01Z</time>
      </trkpt>
      <trkpt lat="42.78568" lon="1.53226">
        <ele>921.56079101562</ele>
        <time>2011-03-21T09:14:07Z</time>
      </trkpt>
      <trkpt lat="42.78567" lon="1.53219">
        <ele>921.56079101562</ele>
        <time>2011-03-21T09:14:12Z</time>
      </trkpt>
      <trkpt lat="42.78568" lon="1.53212">
        <ele>920.599609375</ele>
        <time>2011-03-21T09:14:17Z</time>
      </trkpt>
      <trkpt lat="42.78568" lon="1.53209">
        <ele>924.92578125</ele>
        <time>2011-03-21T09:14:22Z</time>
      </trkpt>
      <trkpt lat="42.78565" lon="1.53204">
        <ele>933.57739257812</ele>
        <time>2011-03-21T09:14:26Z</time>
      </trkpt>
      <trkpt lat="42.78564" lon="1.53199">
        <ele>937.42260742188</ele>
        <time>2011-03-21T09:14:31Z</time>
      </trkpt>
      <trkpt lat="42.78563" lon="1.53197">
        <ele>937.9033203125</ele>
        <time>2011-03-21T09:14:33Z</time>
      </trkpt>
      <trkpt lat="42.78561" lon="1.53194">
        <ele>940.30688476562</ele>
        <time>2011-03-21T09:14:39Z</time>
      </trkpt>
      <trkpt lat="42.78561" lon="1.53191">
        <ele>942.71020507812</ele>
        <time>2011-03-21T09:14:43Z</time>
      </trkpt>
      <trkpt lat="42.78556" lon="1.53186">
        <ele>943.67138671875</ele>
        <time>2011-03-21T09:14:49Z</time>
      </trkpt>
      <trkpt lat="42.78554" lon="1.53184">
        <ele>942.71020507812</ele>
        <time>2011-03-21T09:14:51Z</time>
      </trkpt>
      <trkpt lat="42.78542" lon="1.53173">
        <ele>941.26806640625</ele>
        <time>2011-03-21T09:14:56Z</time>
      </trkpt>
      <trkpt lat="42.78534" lon="1.53159">
        <ele>939.34521484375</ele>
        <time>2011-03-21T09:15:01Z</time>
      </trkpt>
      <trkpt lat="42.78529" lon="1.53152">
        <ele>941.74877929688</ele>
        <time>2011-03-21T09:15:06Z</time>
      </trkpt>
      <trkpt lat="42.78524" lon="1.53142">
        <ele>947.99731445312</ele>
        <time>2011-03-21T09:15:12Z</time>
      </trkpt>
      <trkpt lat="42.78522" lon="1.53135">
        <ele>947.99731445312</ele>
        <time>2011-03-21T09:15:18Z</time>
      </trkpt>
      <trkpt lat="42.78519" lon="1.53126">
        <ele>950.88110351562</ele>
        <time>2011-03-21T09:15:25Z</time>
      </trkpt>
      <trkpt lat="42.78515" lon="1.53118">
        <ele>950.88110351562</ele>
        <time>2011-03-21T09:15:33Z</time>
      </trkpt>
      <trkpt lat="42.78513" lon="1.53114">
        <ele>951.84252929688</ele>
        <time>2011-03-21T09:15:39Z</time>
      </trkpt>
      <trkpt lat="42.78512" lon="1.53105">
        <ele>952.32299804688</ele>
        <time>2011-03-21T09:15:46Z</time>
      </trkpt>
      <trkpt lat="42.7851" lon="1.53099">
        <ele>953.28442382812</ele>
        <time>2011-03-21T09:15:52Z</time>
      </trkpt>
      <trkpt lat="42.7851" lon="1.53092">
        <ele>955.68774414062</ele>
        <time>2011-03-21T09:15:58Z</time>
      </trkpt>
      <trkpt lat="42.78509" lon="1.53086">
        <ele>958.09130859375</ele>
        <time>2011-03-21T09:16:04Z</time>
      </trkpt>
      <trkpt lat="42.78508" lon="1.53079">
        <ele>959.05249023438</ele>
        <time>2011-03-21T09:16:09Z</time>
      </trkpt>
      <trkpt lat="42.78506" lon="1.53074">
        <ele>960.49438476562</ele>
        <time>2011-03-21T09:16:13Z</time>
      </trkpt>
      <trkpt lat="42.78503" lon="1.53069">
        <ele>962.89770507812</ele>
        <time>2011-03-21T09:16:18Z</time>
      </trkpt>
      <trkpt lat="42.78502" lon="1.53064">
        <ele>964.33959960938</ele>
        <time>2011-03-21T09:16:22Z</time>
      </trkpt>
      <trkpt lat="42.78499" lon="1.5306">
        <ele>967.2236328125</ele>
        <time>2011-03-21T09:16:28Z</time>
      </trkpt>
      <trkpt lat="42.78498" lon="1.53051">
        <ele>968.18481445312</ele>
        <time>2011-03-21T09:16:35Z</time>
      </trkpt>
      <trkpt lat="42.78492" lon="1.53045">
        <ele>969.626953125</ele>
        <time>2011-03-21T09:16:42Z</time>
      </trkpt>
      <trkpt lat="42.78489" lon="1.53042">
        <ele>970.58813476562</ele>
        <time>2011-03-21T09:16:48Z</time>
      </trkpt>
      <trkpt lat="42.78484" lon="1.53039">
        <ele>971.06884765625</ele>
        <time>2011-03-21T09:16:54Z</time>
      </trkpt>
      <trkpt lat="42.78479" lon="1.53036">
        <ele>972.0302734375</ele>
        <time>2011-03-21T09:17:01Z</time>
      </trkpt>
      <trkpt lat="42.78476" lon="1.53033">
        <ele>971.54931640625</ele>
        <time>2011-03-21T09:17:07Z</time>
      </trkpt>
      <trkpt lat="42.78471" lon="1.53028">
        <ele>973.95288085938</ele>
        <time>2011-03-21T09:17:14Z</time>
      </trkpt>
      <trkpt lat="42.78469" lon="1.53028">
        <ele>974.91430664062</ele>
        <time>2011-03-21T09:17:23Z</time>
      </trkpt>
      <trkpt lat="42.78473" lon="1.53027">
        <ele>974.91430664062</ele>
        <time>2011-03-21T09:17:27Z</time>
      </trkpt>
      <trkpt lat="42.78479" lon="1.53025">
        <ele>974.43359375</ele>
        <time>2011-03-21T09:17:33Z</time>
      </trkpt>
      <trkpt lat="42.7848" lon="1.53024">
        <ele>974.43359375</ele>
        <time>2011-03-21T09:17:34Z</time>
      </trkpt>
      <trkpt lat="42.78485" lon="1.53019">
        <ele>973.95288085938</ele>
        <time>2011-03-21T09:17:39Z</time>
      </trkpt>
      <trkpt lat="42.78491" lon="1.53017">
        <ele>973.95288085938</ele>
        <time>2011-03-21T09:17:46Z</time>
      </trkpt>
      <trkpt lat="42.78494" lon="1.53018">
        <ele>974.91430664062</ele>
        <time>2011-03-21T09:17:50Z</time>
      </trkpt>
      <trkpt lat="42.78499" lon="1.53019">
        <ele>977.79809570312</ele>
        <time>2011-03-21T09:17:56Z</time>
      </trkpt>
      <trkpt lat="42.78504" lon="1.53021">
        <ele>977.79809570312</ele>
        <time>2011-03-21T09:18:01Z</time>
      </trkpt>
      <trkpt lat="42.7851" lon="1.53021">
        <ele>977.79809570312</ele>
        <time>2011-03-21T09:18:06Z</time>
      </trkpt>
      <trkpt lat="42.7851" lon="1.53018">
        <ele>979.23999023438</ele>
        <time>2011-03-21T09:18:10Z</time>
      </trkpt>
      <trkpt lat="42.78505" lon="1.53014">
        <ele>981.16284179688</ele>
        <time>2011-03-21T09:18:15Z</time>
      </trkpt>
      <trkpt lat="42.78502" lon="1.53009">
        <ele>982.60473632812</ele>
        <time>2011-03-21T09:18:20Z</time>
      </trkpt>
      <trkpt lat="42.78496" lon="1.53002">
        <ele>986.93041992188</ele>
        <time>2011-03-21T09:18:28Z</time>
      </trkpt>
      <trkpt lat="42.78491" lon="1.52999">
        <ele>989.81469726562</ele>
        <time>2011-03-21T09:18:34Z</time>
      </trkpt>
      <trkpt lat="42.78487" lon="1.52996">
        <ele>991.25659179688</ele>
        <time>2011-03-21T09:18:39Z</time>
      </trkpt>
      <trkpt lat="42.78482" lon="1.52992">
        <ele>991.25659179688</ele>
        <time>2011-03-21T09:18:44Z</time>
      </trkpt>
      <trkpt lat="42.78481" lon="1.52991">
        <ele>990.77587890625</ele>
        <time>2011-03-21T09:18:46Z</time>
      </trkpt>
      <trkpt lat="42.78477" lon="1.52988">
        <ele>991.25659179688</ele>
        <time>2011-03-21T09:18:50Z</time>
      </trkpt>
      <trkpt lat="42.78474" lon="1.52985">
        <ele>991.7373046875</ele>
        <time>2011-03-21T09:18:53Z</time>
      </trkpt>
      <trkpt lat="42.78473" lon="1.52984">
        <ele>992.21801757812</ele>
        <time>2011-03-21T09:18:55Z</time>
      </trkpt>
      <trkpt lat="42.78468" lon="1.52982">
        <ele>994.140625</ele>
        <time>2011-03-21T09:18:59Z</time>
      </trkpt>
      <trkpt lat="42.78466" lon="1.52981">
        <ele>996.06323242188</ele>
        <time>2011-03-21T09:19:07Z</time>
      </trkpt>
      <trkpt lat="42.78463" lon="1.52979">
        <ele>997.0244140625</ele>
        <time>2011-03-21T09:20:13Z</time>
      </trkpt>
      <trkpt lat="42.78462" lon="1.52979">
        <ele>997.0244140625</ele>
        <time>2011-03-21T09:20:14Z</time>
      </trkpt>
      <trkpt lat="42.78458" lon="1.52976">
        <ele>997.98583984375</ele>
        <time>2011-03-21T09:20:16Z</time>
      </trkpt>
      <trkpt lat="42.78454" lon="1.52973">
        <ele>998.94702148438</ele>
        <time>2011-03-21T09:20:19Z</time>
      </trkpt>
      <trkpt lat="42.7845" lon="1.52968">
        <ele>1000.8696289062</ele>
        <time>2011-03-21T09:20:24Z</time>
      </trkpt>
      <trkpt lat="42.78447" lon="1.52963">
        <ele>1002.7922363281</ele>
        <time>2011-03-21T09:20:29Z</time>
      </trkpt>
      <trkpt lat="42.78442" lon="1.52953">
        <ele>1003.7536621094</ele>
        <time>2011-03-21T09:20:36Z</time>
      </trkpt>
      <trkpt lat="42.78436" lon="1.5294">
        <ele>1005.1958007812</ele>
        <time>2011-03-21T09:20:46Z</time>
      </trkpt>
      <trkpt lat="42.78433" lon="1.52936">
        <ele>1005.6765136719</ele>
        <time>2011-03-21T09:20:49Z</time>
      </trkpt>
      <trkpt lat="42.78431" lon="1.52931">
        <ele>1006.6376953125</ele>
        <time>2011-03-21T09:20:53Z</time>
      </trkpt>
      <trkpt lat="42.78428" lon="1.52922">
        <ele>1007.5991210938</ele>
        <time>2011-03-21T09:20:59Z</time>
      </trkpt>
      <trkpt lat="42.7843" lon="1.52919">
        <ele>1007.5991210938</ele>
        <time>2011-03-21T09:21:02Z</time>
      </trkpt>
      <trkpt lat="42.78437" lon="1.52924">
        <ele>1008.0798339844</ele>
        <time>2011-03-21T09:21:09Z</time>
      </trkpt>
      <trkpt lat="42.78442" lon="1.52926">
        <ele>1008.5603027344</ele>
        <time>2011-03-21T09:21:15Z</time>
      </trkpt>
      <trkpt lat="42.78449" lon="1.52928">
        <ele>1010.0021972656</ele>
        <time>2011-03-21T09:21:23Z</time>
      </trkpt>
      <trkpt lat="42.78455" lon="1.52929">
        <ele>1012.4055175781</ele>
        <time>2011-03-21T09:21:29Z</time>
      </trkpt>
      <trkpt lat="42.78462" lon="1.52933">
        <ele>1015.7702636719</ele>
        <time>2011-03-21T09:21:35Z</time>
      </trkpt>
      <trkpt lat="42.78463" lon="1.52933">
        <ele>1016.2507324219</ele>
        <time>2011-03-21T09:21:36Z</time>
      </trkpt>
      <trkpt lat="42.78471" lon="1.5294">
        <ele>1018.6540527344</ele>
        <time>2011-03-21T09:21:43Z</time>
      </trkpt>
      <trkpt lat="42.78473" lon="1.52941">
        <ele>1018.6540527344</ele>
        <time>2011-03-21T09:21:44Z</time>
      </trkpt>
      <trkpt lat="42.78475" lon="1.52943">
        <ele>1019.6154785156</ele>
        <time>2011-03-21T09:21:48Z</time>
      </trkpt>
      <trkpt lat="42.78477" lon="1.52939">
        <ele>1020.0961914062</ele>
        <time>2011-03-21T09:21:54Z</time>
      </trkpt>
      <trkpt lat="42.78476" lon="1.5293">
        <ele>1022.0187988281</ele>
        <time>2011-03-21T09:22:02Z</time>
      </trkpt>
      <trkpt lat="42.78473" lon="1.52923">
        <ele>1023.94140625</ele>
        <time>2011-03-21T09:22:10Z</time>
      </trkpt>
      <trkpt lat="42.78469" lon="1.52916">
        <ele>1025.8640136719</ele>
        <time>2011-03-21T09:22:18Z</time>
      </trkpt>
      <trkpt lat="42.78467" lon="1.52907">
        <ele>1028.748046875</ele>
        <time>2011-03-21T09:22:27Z</time>
      </trkpt>
      <trkpt lat="42.78465" lon="1.529">
        <ele>1030.6706542969</ele>
        <time>2011-03-21T09:22:35Z</time>
      </trkpt>
      <trkpt lat="42.78463" lon="1.52893">
        <ele>1032.5932617188</ele>
        <time>2011-03-21T09:22:42Z</time>
      </trkpt>
      <trkpt lat="42.7846" lon="1.52885">
        <ele>1036.4387207031</ele>
        <time>2011-03-21T09:22:50Z</time>
      </trkpt>
      <trkpt lat="42.78456" lon="1.52879">
        <ele>1039.3225097656</ele>
        <time>2011-03-21T09:22:56Z</time>
      </trkpt>
      <trkpt lat="42.78453" lon="1.52872">
        <ele>1040.7644042969</ele>
        <time>2011-03-21T09:23:03Z</time>
      </trkpt>
      <trkpt lat="42.78451" lon="1.52864">
        <ele>1043.1677246094</ele>
        <time>2011-03-21T09:23:11Z</time>
      </trkpt>
      <trkpt lat="42.78449" lon="1.52856">
        <ele>1044.1291503906</ele>
        <time>2011-03-21T09:23:18Z</time>
      </trkpt>
      <trkpt lat="42.78447" lon="1.52845">
        <ele>1046.5324707031</ele>
        <time>2011-03-21T09:23:26Z</time>
      </trkpt>
      <trkpt lat="42.78447" lon="1.52834">
        <ele>1046.5324707031</ele>
        <time>2011-03-21T09:23:33Z</time>
      </trkpt>
      <trkpt lat="42.78447" lon="1.52832">
        <ele>1046.5324707031</ele>
        <time>2011-03-21T09:23:35Z</time>
      </trkpt>
      <trkpt lat="42.78446" lon="1.52831">
        <ele>1046.0517578125</ele>
        <time>2011-03-21T09:23:43Z</time>
      </trkpt>
      <trkpt lat="42.78445" lon="1.52829">
        <ele>1047.9743652344</ele>
        <time>2011-03-21T09:23:53Z</time>
      </trkpt>
      <trkpt lat="42.78445" lon="1.52829">
        <ele>1047.9743652344</ele>
        <time>2011-03-21T09:23:54Z</time>
      </trkpt>
      <trkpt lat="42.78445" lon="1.52828">
        <ele>1047.9743652344</ele>
        <time>2011-03-21T09:23:57Z</time>
      </trkpt>
      <trkpt lat="42.78445" lon="1.52824">
        <ele>1047.0129394531</ele>
        <time>2011-03-21T09:23:58Z</time>
      </trkpt>
      <trkpt lat="42.78444" lon="1.52807">
        <ele>1044.1291503906</ele>
        <time>2011-03-21T09:24:03Z</time>
      </trkpt>
      <trkpt lat="42.78444" lon="1.52804">
        <ele>1043.6484375</ele>
        <time>2011-03-21T09:24:04Z</time>
      </trkpt>
      <trkpt lat="42.78439" lon="1.52792">
        <ele>1040.7644042969</ele>
        <time>2011-03-21T09:24:08Z</time>
      </trkpt>
      <trkpt lat="42.7843" lon="1.52773">
        <ele>1034.03515625</ele>
        <time>2011-03-21T09:24:14Z</time>
      </trkpt>
      <trkpt lat="42.78424" lon="1.52758">
        <ele>1030.6706542969</ele>
        <time>2011-03-21T09:24:18Z</time>
      </trkpt>
      <trkpt lat="42.7842" lon="1.5274">
        <ele>1029.7092285156</ele>
        <time>2011-03-21T09:24:23Z</time>
      </trkpt>
      <trkpt lat="42.78414" lon="1.52726">
        <ele>1030.1899414062</ele>
        <time>2011-03-21T09:24:27Z</time>
      </trkpt>
      <trkpt lat="42.78406" lon="1.52712">
        <ele>1031.6318359375</ele>
        <time>2011-03-21T09:24:32Z</time>
      </trkpt>
      <trkpt lat="42.78402" lon="1.52699">
        <ele>1030.6706542969</ele>
        <time>2011-03-21T09:24:36Z</time>
      </trkpt>
      <trkpt lat="42.78398" lon="1.52676">
        <ele>1028.2673339844</ele>
        <time>2011-03-21T09:24:42Z</time>
      </trkpt>
      <trkpt lat="42.78393" lon="1.52658">
        <ele>1026.3447265625</ele>
        <time>2011-03-21T09:24:47Z</time>
      </trkpt>
      <trkpt lat="42.78391" lon="1.52643">
        <ele>1024.4221191406</ele>
        <time>2011-03-21T09:24:51Z</time>
      </trkpt>
      <trkpt lat="42.78389" lon="1.52627">
        <ele>1024.4221191406</ele>
        <time>2011-03-21T09:24:55Z</time>
      </trkpt>
      <trkpt lat="42.78386" lon="1.52607">
        <ele>1025.8640136719</ele>
        <time>2011-03-21T09:25:00Z</time>
      </trkpt>
      <trkpt lat="42.78384" lon="1.52596">
        <ele>1026.3447265625</ele>
        <time>2011-03-21T09:25:03Z</time>
      </trkpt>
      <trkpt lat="42.78383" lon="1.52584">
        <ele>1025.8640136719</ele>
        <time>2011-03-21T09:25:07Z</time>
      </trkpt>
      <trkpt lat="42.7838" lon="1.52565">
        <ele>1025.3833007812</ele>
        <time>2011-03-21T09:25:12Z</time>
      </trkpt>
      <trkpt lat="42.78378" lon="1.5255">
        <ele>1025.8640136719</ele>
        <time>2011-03-21T09:25:16Z</time>
      </trkpt>
      <trkpt lat="42.78378" lon="1.52537">
        <ele>1026.8254394531</ele>
        <time>2011-03-21T09:25:20Z</time>
      </trkpt>
      <trkpt lat="42.78379" lon="1.52522">
        <ele>1029.7092285156</ele>
        <time>2011-03-21T09:25:29Z</time>
      </trkpt>
      <trkpt lat="42.78379" lon="1.52517">
        <ele>1031.1513671875</ele>
        <time>2011-03-21T09:25:32Z</time>
      </trkpt>
      <trkpt lat="42.78381" lon="1.52512">
        <ele>1031.6318359375</ele>
        <time>2011-03-21T09:25:36Z</time>
      </trkpt>
      <trkpt lat="42.78382" lon="1.525">
        <ele>1034.03515625</ele>
        <time>2011-03-21T09:25:44Z</time>
      </trkpt>
      <trkpt lat="42.78381" lon="1.52491">
        <ele>1034.5158691406</ele>
        <time>2011-03-21T09:25:51Z</time>
      </trkpt>
      <trkpt lat="42.78381" lon="1.52489">
        <ele>1034.5158691406</ele>
        <time>2011-03-21T09:25:52Z</time>
      </trkpt>
      <trkpt lat="42.78378" lon="1.52478">
        <ele>1036.4387207031</ele>
        <time>2011-03-21T09:26:00Z</time>
      </trkpt>
      <trkpt lat="42.78376" lon="1.52466">
        <ele>1036.9191894531</ele>
        <time>2011-03-21T09:26:07Z</time>
      </trkpt>
      <trkpt lat="42.78375" lon="1.52451">
        <ele>1037.3999023438</ele>
        <time>2011-03-21T09:26:15Z</time>
      </trkpt>
      <trkpt lat="42.78373" lon="1.52436">
        <ele>1037.3999023438</ele>
        <time>2011-03-21T09:26:19Z</time>
      </trkpt>
      <trkpt lat="42.7837" lon="1.52423">
        <ele>1036.9191894531</ele>
        <time>2011-03-21T09:26:23Z</time>
      </trkpt>
      <trkpt lat="42.78362" lon="1.52409">
        <ele>1035.4770507812</ele>
        <time>2011-03-21T09:26:28Z</time>
      </trkpt>
      <trkpt lat="42.78356" lon="1.52394">
        <ele>1034.5158691406</ele>
        <time>2011-03-21T09:26:33Z</time>
      </trkpt>
      <trkpt lat="42.78355" lon="1.52373">
        <ele>1034.9965820312</ele>
        <time>2011-03-21T09:26:39Z</time>
      </trkpt>
      <trkpt lat="42.78355" lon="1.5237">
        <ele>1034.5158691406</ele>
        <time>2011-03-21T09:26:40Z</time>
      </trkpt>
      <trkpt lat="42.78357" lon="1.52352">
        <ele>1033.0737304688</ele>
        <time>2011-03-21T09:26:45Z</time>
      </trkpt>
      <trkpt lat="42.78354" lon="1.5234">
        <ele>1031.6318359375</ele>
        <time>2011-03-21T09:26:49Z</time>
      </trkpt>
      <trkpt lat="42.7835" lon="1.52324">
        <ele>1032.1125488281</ele>
        <time>2011-03-21T09:26:54Z</time>
      </trkpt>
      <trkpt lat="42.78343" lon="1.52301">
        <ele>1032.5932617188</ele>
        <time>2011-03-21T09:27:01Z</time>
      </trkpt>
      <trkpt lat="42.78337" lon="1.52288">
        <ele>1031.1513671875</ele>
        <time>2011-03-21T09:27:05Z</time>
      </trkpt>
      <trkpt lat="42.7833" lon="1.52273">
        <ele>1029.7092285156</ele>
        <time>2011-03-21T09:27:10Z</time>
      </trkpt>
      <trkpt lat="42.78325" lon="1.5226">
        <ele>1028.2673339844</ele>
        <time>2011-03-21T09:27:14Z</time>
      </trkpt>
      <trkpt lat="42.78319" lon="1.52233">
        <ele>1024.9028320312</ele>
        <time>2011-03-21T09:27:21Z</time>
      </trkpt>
      <trkpt lat="42.78316" lon="1.52208">
        <ele>1024.4221191406</ele>
        <time>2011-03-21T09:27:28Z</time>
      </trkpt>
      <trkpt lat="42.78311" lon="1.5219">
        <ele>1023.4609375</ele>
        <time>2011-03-21T09:27:33Z</time>
      </trkpt>
      <trkpt lat="42.78306" lon="1.5217">
        <ele>1022.4995117188</ele>
        <time>2011-03-21T09:27:39Z</time>
      </trkpt>
      <trkpt lat="42.78302" lon="1.52151">
        <ele>1022.0187988281</ele>
        <time>2011-03-21T09:27:44Z</time>
      </trkpt>
      <trkpt lat="42.78297" lon="1.52134">
        <ele>1021.5380859375</ele>
        <time>2011-03-21T09:27:49Z</time>
      </trkpt>
      <trkpt lat="42.78289" lon="1.52108">
        <ele>1020.0961914062</ele>
        <time>2011-03-21T09:27:56Z</time>
      </trkpt>
      <trkpt lat="42.78284" lon="1.52087">
        <ele>1019.6154785156</ele>
        <time>2011-03-21T09:28:02Z</time>
      </trkpt>
      <trkpt lat="42.78278" lon="1.5207">
        <ele>1019.134765625</ele>
        <time>2011-03-21T09:28:07Z</time>
      </trkpt>
      <trkpt lat="42.78273" lon="1.52055">
        <ele>1017.2121582031</ele>
        <time>2011-03-21T09:28:12Z</time>
      </trkpt>
      <trkpt lat="42.7827" lon="1.52037">
        <ele>1015.2895507812</ele>
        <time>2011-03-21T09:28:17Z</time>
      </trkpt>
      <trkpt lat="42.78265" lon="1.52014">
        <ele>1013.8474121094</ele>
        <time>2011-03-21T09:28:23Z</time>
      </trkpt>
      <trkpt lat="42.78259" lon="1.51989">
        <ele>1011.9250488281</ele>
        <time>2011-03-21T09:28:30Z</time>
      </trkpt>
      <trkpt lat="42.78256" lon="1.51976">
        <ele>1010.4829101562</ele>
        <time>2011-03-21T09:28:34Z</time>
      </trkpt>
      <trkpt lat="42.78255" lon="1.51974">
        <ele>1010.0021972656</ele>
        <time>2011-03-21T09:28:35Z</time>
      </trkpt>
      <trkpt lat="42.78255" lon="1.51969">
        <ele>1009.041015625</ele>
        <time>2011-03-21T09:28:58Z</time>
      </trkpt>
      <trkpt lat="42.78255" lon="1.51967">
        <ele>1008.5603027344</ele>
        <time>2011-03-21T09:28:59Z</time>
      </trkpt>
      <trkpt lat="42.78255" lon="1.51963">
        <ele>1008.0798339844</ele>
        <time>2011-03-21T09:29:00Z</time>
      </trkpt>
      <trkpt lat="42.78258" lon="1.51948">
        <ele>1007.1184082031</ele>
        <time>2011-03-21T09:29:04Z</time>
      </trkpt>
      <trkpt lat="42.78268" lon="1.51928">
        <ele>1005.1958007812</ele>
        <time>2011-03-21T09:29:10Z</time>
      </trkpt>
      <trkpt lat="42.78276" lon="1.5191">
        <ele>1003.2729492188</ele>
        <time>2011-03-21T09:29:15Z</time>
      </trkpt>
      <trkpt lat="42.7828" lon="1.51892">
        <ele>1001.8310546875</ele>
        <time>2011-03-21T09:29:20Z</time>
      </trkpt>
      <trkpt lat="42.78283" lon="1.51884">
        <ele>1001.8310546875</ele>
        <time>2011-03-21T09:29:22Z</time>
      </trkpt>
      <trkpt lat="42.78285" lon="1.51868">
        <ele>1002.3115234375</ele>
        <time>2011-03-21T09:29:26Z</time>
      </trkpt>
      <trkpt lat="42.78294" lon="1.51851">
        <ele>1001.8310546875</ele>
        <time>2011-03-21T09:29:32Z</time>
      </trkpt>
      <trkpt lat="42.783" lon="1.51836">
        <ele>1000.8696289062</ele>
        <time>2011-03-21T09:29:38Z</time>
      </trkpt>
      <trkpt lat="42.78302" lon="1.51834">
        <ele>1000.3891601562</ele>
        <time>2011-03-21T09:29:39Z</time>
      </trkpt>
      <trkpt lat="42.78307" lon="1.51819">
        <ele>997.98583984375</ele>
        <time>2011-03-21T09:29:45Z</time>
      </trkpt>
      <trkpt lat="42.78308" lon="1.51807">
        <ele>995.58251953125</ele>
        <time>2011-03-21T09:29:49Z</time>
      </trkpt>
      <trkpt lat="42.78305" lon="1.51801">
        <ele>995.58251953125</ele>
        <time>2011-03-21T09:29:51Z</time>
      </trkpt>
      <trkpt lat="42.78295" lon="1.51782">
        <ele>994.62109375</ele>
        <time>2011-03-21T09:29:57Z</time>
      </trkpt>
      <trkpt lat="42.78293" lon="1.51765">
        <ele>994.62109375</ele>
        <time>2011-03-21T09:30:01Z</time>
      </trkpt>
      <trkpt lat="42.78292" lon="1.51744">
        <ele>993.65991210938</ele>
        <time>2011-03-21T09:30:06Z</time>
      </trkpt>
      <trkpt lat="42.78286" lon="1.51718">
        <ele>993.65991210938</ele>
        <time>2011-03-21T09:30:13Z</time>
      </trkpt>
      <trkpt lat="42.78285" lon="1.51706">
        <ele>993.17919921875</ele>
        <time>2011-03-21T09:30:16Z</time>
      </trkpt>
      <trkpt lat="42.78283" lon="1.51693">
        <ele>992.69873046875</ele>
        <time>2011-03-21T09:30:20Z</time>
      </trkpt>
      <trkpt lat="42.78282" lon="1.51672">
        <ele>993.65991210938</ele>
        <time>2011-03-21T09:30:25Z</time>
      </trkpt>
      <trkpt lat="42.7828" lon="1.51653">
        <ele>994.140625</ele>
        <time>2011-03-21T09:30:30Z</time>
      </trkpt>
      <trkpt lat="42.78277" lon="1.51634">
        <ele>994.62109375</ele>
        <time>2011-03-21T09:30:35Z</time>
      </trkpt>
      <trkpt lat="42.78274" lon="1.51619">
        <ele>995.58251953125</ele>
        <time>2011-03-21T09:30:39Z</time>
      </trkpt>
      <trkpt lat="42.78274" lon="1.51604">
        <ele>994.62109375</ele>
        <time>2011-03-21T09:30:43Z</time>
      </trkpt>
      <trkpt lat="42.78273" lon="1.516">
        <ele>995.58251953125</ele>
        <time>2011-03-21T09:30:44Z</time>
      </trkpt>
      <trkpt lat="42.78271" lon="1.51584">
        <ele>996.06323242188</ele>
        <time>2011-03-21T09:30:48Z</time>
      </trkpt>
      <trkpt lat="42.7827" lon="1.51569">
        <ele>997.98583984375</ele>
        <time>2011-03-21T09:30:52Z</time>
      </trkpt>
      <trkpt lat="42.78272" lon="1.51554">
        <ele>1000.3891601562</ele>
        <time>2011-03-21T09:30:56Z</time>
      </trkpt>
      <trkpt lat="42.78277" lon="1.51545">
        <ele>1000.3891601562</ele>
        <time>2011-03-21T09:30:59Z</time>
      </trkpt>
      <trkpt lat="42.78288" lon="1.51533">
        <ele>999.90844726562</ele>
        <time>2011-03-21T09:31:05Z</time>
      </trkpt>
      <trkpt lat="42.78296" lon="1.5152">
        <ele>997.98583984375</ele>
        <time>2011-03-21T09:31:10Z</time>
      </trkpt>
      <trkpt lat="42.78302" lon="1.5151">
        <ele>997.0244140625</ele>
        <time>2011-03-21T09:31:13Z</time>
      </trkpt>
      <trkpt lat="42.78313" lon="1.51499">
        <ele>993.17919921875</ele>
        <time>2011-03-21T09:31:19Z</time>
      </trkpt>
      <trkpt lat="42.78322" lon="1.51493">
        <ele>991.7373046875</ele>
        <time>2011-03-21T09:31:23Z</time>
      </trkpt>
      <trkpt lat="42.78331" lon="1.51482">
        <ele>989.81469726562</ele>
        <time>2011-03-21T09:31:27Z</time>
      </trkpt>
      <trkpt lat="42.7833" lon="1.5147">
        <ele>988.37280273438</ele>
        <time>2011-03-21T09:31:33Z</time>
      </trkpt>
      <trkpt lat="42.78326" lon="1.51464">
        <ele>990.77587890625</ele>
        <time>2011-03-21T09:31:37Z</time>
      </trkpt>
      <trkpt lat="42.78326" lon="1.51462">
        <ele>991.25659179688</ele>
        <time>2011-03-21T09:31:45Z</time>
      </trkpt>
      <trkpt lat="42.78323" lon="1.5146">
        <ele>990.77587890625</ele>
        <time>2011-03-21T09:31:47Z</time>
      </trkpt>
      <trkpt lat="42.7832" lon="1.51458">
        <ele>989.81469726562</ele>
        <time>2011-03-21T09:31:49Z</time>
      </trkpt>
      <trkpt lat="42.7831" lon="1.51447">
        <ele>993.65991210938</ele>
        <time>2011-03-21T09:31:55Z</time>
      </trkpt>
      <trkpt lat="42.78308" lon="1.51445">
        <ele>994.140625</ele>
        <time>2011-03-21T09:31:56Z</time>
      </trkpt>
      <trkpt lat="42.78303" lon="1.51441">
        <ele>994.140625</ele>
        <time>2011-03-21T09:31:59Z</time>
      </trkpt>
      <trkpt lat="42.78296" lon="1.51435">
        <ele>994.140625</ele>
        <time>2011-03-21T09:32:03Z</time>
      </trkpt>
      <trkpt lat="42.78292" lon="1.51427">
        <ele>993.17919921875</ele>
        <time>2011-03-21T09:32:06Z</time>
      </trkpt>
      <trkpt lat="42.78287" lon="1.5142">
        <ele>992.69873046875</ele>
        <time>2011-03-21T09:32:09Z</time>
      </trkpt>
      <trkpt lat="42.78295" lon="1.51426">
        <ele>990.77587890625</ele>
        <time>2011-03-21T09:32:42Z</time>
      </trkpt>
      <trkpt lat="42.78296" lon="1.51428">
        <ele>991.25659179688</ele>
        <time>2011-03-21T09:32:43Z</time>
      </trkpt>
      <trkpt lat="42.78297" lon="1.51429">
        <ele>990.77587890625</ele>
        <time>2011-03-21T09:32:45Z</time>
      </trkpt>
      <trkpt lat="42.78288" lon="1.51417">
        <ele>991.25659179688</ele>
        <time>2011-03-21T09:32:51Z</time>
      </trkpt>
      <trkpt lat="42.78283" lon="1.51403">
        <ele>993.17919921875</ele>
        <time>2011-03-21T09:32:55Z</time>
      </trkpt>
      <trkpt lat="42.7828" lon="1.51393">
        <ele>993.17919921875</ele>
        <time>2011-03-21T09:33:00Z</time>
      </trkpt>
      <trkpt lat="42.78279" lon="1.5139">
        <ele>993.65991210938</ele>
        <time>2011-03-21T09:33:13Z</time>
      </trkpt>
      <trkpt lat="42.78277" lon="1.51379">
        <ele>993.17919921875</ele>
        <time>2011-03-21T09:33:17Z</time>
      </trkpt>
      <trkpt lat="42.78271" lon="1.51363">
        <ele>992.69873046875</ele>
        <time>2011-03-21T09:33:22Z</time>
      </trkpt>
      <trkpt lat="42.78268" lon="1.51353">
        <ele>991.25659179688</ele>
        <time>2011-03-21T09:33:25Z</time>
      </trkpt>
      <trkpt lat="42.7827" lon="1.51341">
        <ele>989.81469726562</ele>
        <time>2011-03-21T09:33:30Z</time>
      </trkpt>
      <trkpt lat="42.78268" lon="1.5133">
        <ele>987.4111328125</ele>
        <time>2011-03-21T09:33:34Z</time>
      </trkpt>
      <trkpt lat="42.78262" lon="1.51313">
        <ele>985.96923828125</ele>
        <time>2011-03-21T09:33:39Z</time>
      </trkpt>
      <trkpt lat="42.78263" lon="1.51296">
        <ele>983.08520507812</ele>
        <time>2011-03-21T09:33:45Z</time>
      </trkpt>
      <trkpt lat="42.78263" lon="1.5128">
        <ele>983.56591796875</ele>
        <time>2011-03-21T09:33:50Z</time>
      </trkpt>
      <trkpt lat="42.78262" lon="1.51264">
        <ele>985.00805664062</ele>
        <time>2011-03-21T09:33:55Z</time>
      </trkpt>
      <trkpt lat="42.78262" lon="1.51262">
        <ele>984.52734375</ele>
        <time>2011-03-21T09:33:56Z</time>
      </trkpt>
      <trkpt lat="42.7826" lon="1.51249">
        <ele>985.48852539062</ele>
        <time>2011-03-21T09:34:01Z</time>
      </trkpt>
      <trkpt lat="42.7826" lon="1.51239">
        <ele>985.96923828125</ele>
        <time>2011-03-21T09:34:04Z</time>
      </trkpt>
      <trkpt lat="42.78257" lon="1.51227">
        <ele>986.93041992188</ele>
        <time>2011-03-21T09:34:08Z</time>
      </trkpt>
      <trkpt lat="42.78258" lon="1.51218">
        <ele>986.93041992188</ele>
        <time>2011-03-21T09:34:12Z</time>
      </trkpt>
      <trkpt lat="42.78257" lon="1.5121">
        <ele>987.89184570312</ele>
        <time>2011-03-21T09:34:18Z</time>
      </trkpt>
      <trkpt lat="42.78252" lon="1.51199">
        <ele>991.7373046875</ele>
        <time>2011-03-21T09:34:25Z</time>
      </trkpt>
      <trkpt lat="42.78251" lon="1.51195">
        <ele>993.65991210938</ele>
        <time>2011-03-21T09:34:27Z</time>
      </trkpt>
      <trkpt lat="42.78248" lon="1.51183">
        <ele>995.58251953125</ele>
        <time>2011-03-21T09:34:34Z</time>
      </trkpt>
      <trkpt lat="42.78247" lon="1.51178">
        <ele>996.5439453125</ele>
        <time>2011-03-21T09:34:37Z</time>
      </trkpt>
      <trkpt lat="42.78245" lon="1.51168">
        <ele>997.98583984375</ele>
        <time>2011-03-21T09:34:44Z</time>
      </trkpt>
      <trkpt lat="42.78239" lon="1.51164">
        <ele>999.90844726562</ele>
        <time>2011-03-21T09:35:21Z</time>
      </trkpt>
      <trkpt lat="42.78239" lon="1.51162">
        <ele>999.90844726562</ele>
        <time>2011-03-21T09:35:22Z</time>
      </trkpt>
      <trkpt lat="42.78239" lon="1.51161">
        <ele>999.90844726562</ele>
        <time>2011-03-21T09:35:23Z</time>
      </trkpt>
      <trkpt lat="42.78234" lon="1.51144">
        <ele>997.50512695312</ele>
        <time>2011-03-21T09:35:28Z</time>
      </trkpt>
      <trkpt lat="42.78234" lon="1.51136">
        <ele>998.46630859375</ele>
        <time>2011-03-21T09:35:33Z</time>
      </trkpt>
      <trkpt lat="42.78235" lon="1.51129">
        <ele>1004.7150878906</ele>
        <time>2011-03-21T09:36:36Z</time>
      </trkpt>
      <trkpt lat="42.78233" lon="1.51132">
        <ele>1004.2346191406</ele>
        <time>2011-03-21T09:37:11Z</time>
      </trkpt>
      <trkpt lat="42.78233" lon="1.51131">
        <ele>1004.2346191406</ele>
        <time>2011-03-21T09:37:12Z</time>
      </trkpt>
      <trkpt lat="42.78232" lon="1.51123">
        <ele>1003.7536621094</ele>
        <time>2011-03-21T09:37:14Z</time>
      </trkpt>
      <trkpt lat="42.7823" lon="1.51103">
        <ele>1004.2346191406</ele>
        <time>2011-03-21T09:37:21Z</time>
      </trkpt>
      <trkpt lat="42.7823" lon="1.51098">
        <ele>1004.2346191406</ele>
        <time>2011-03-21T09:37:24Z</time>
      </trkpt>
      <trkpt lat="42.78229" lon="1.51094">
        <ele>1004.2346191406</ele>
        <time>2011-03-21T09:37:27Z</time>
      </trkpt>
      <trkpt lat="42.78228" lon="1.51092">
        <ele>1005.6765136719</ele>
        <time>2011-03-21T09:37:33Z</time>
      </trkpt>
      <trkpt lat="42.78226" lon="1.51087">
        <ele>1007.1184082031</ele>
        <time>2011-03-21T09:37:41Z</time>
      </trkpt>
      <trkpt lat="42.78225" lon="1.51076">
        <ele>1007.1184082031</ele>
        <time>2011-03-21T09:37:45Z</time>
      </trkpt>
      <trkpt lat="42.78225" lon="1.51062">
        <ele>1006.6376953125</ele>
        <time>2011-03-21T09:37:49Z</time>
      </trkpt>
      <trkpt lat="42.78221" lon="1.5105">
        <ele>1008.0798339844</ele>
        <time>2011-03-21T09:37:53Z</time>
      </trkpt>
      <trkpt lat="42.78211" lon="1.51031">
        <ele>1007.5991210938</ele>
        <time>2011-03-21T09:37:59Z</time>
      </trkpt>
      <trkpt lat="42.78205" lon="1.51014">
        <ele>1005.6765136719</ele>
        <time>2011-03-21T09:38:04Z</time>
      </trkpt>
      <trkpt lat="42.78198" lon="1.50998">
        <ele>1003.2729492188</ele>
        <time>2011-03-21T09:38:09Z</time>
      </trkpt>
      <trkpt lat="42.78193" lon="1.50978">
        <ele>1002.3115234375</ele>
        <time>2011-03-21T09:38:15Z</time>
      </trkpt>
      <trkpt lat="42.7819" lon="1.50966">
        <ele>1001.8310546875</ele>
        <time>2011-03-21T09:38:19Z</time>
      </trkpt>
      <trkpt lat="42.78184" lon="1.50946">
        <ele>1000.3891601562</ele>
        <time>2011-03-21T09:38:25Z</time>
      </trkpt>
      <trkpt lat="42.78178" lon="1.50928">
        <ele>998.46630859375</ele>
        <time>2011-03-21T09:38:30Z</time>
      </trkpt>
      <trkpt lat="42.78171" lon="1.50916">
        <ele>997.50512695312</ele>
        <time>2011-03-21T09:38:34Z</time>
      </trkpt>
      <trkpt lat="42.78161" lon="1.50904">
        <ele>996.5439453125</ele>
        <time>2011-03-21T09:38:39Z</time>
      </trkpt>
      <trkpt lat="42.7816" lon="1.50902">
        <ele>996.06323242188</ele>
        <time>2011-03-21T09:38:40Z</time>
      </trkpt>
      <trkpt lat="42.78156" lon="1.50892">
        <ele>996.06323242188</ele>
        <time>2011-03-21T09:38:45Z</time>
      </trkpt>
      <trkpt lat="42.78153" lon="1.50882">
        <ele>997.50512695312</ele>
        <time>2011-03-21T09:38:49Z</time>
      </trkpt>
      <trkpt lat="42.78153" lon="1.50879">
        <ele>997.0244140625</ele>
        <time>2011-03-21T09:38:51Z</time>
      </trkpt>
      <trkpt lat="42.78152" lon="1.50861">
        <ele>1003.2729492188</ele>
        <time>2011-03-21T09:39:25Z</time>
      </trkpt>
      <trkpt lat="42.78152" lon="1.50859">
        <ele>1003.2729492188</ele>
        <time>2011-03-21T09:39:26Z</time>
      </trkpt>
      <trkpt lat="42.78154" lon="1.50855">
        <ele>1002.3115234375</ele>
        <time>2011-03-21T09:39:27Z</time>
      </trkpt>
      <trkpt lat="42.78159" lon="1.50837">
        <ele>1001.8310546875</ele>
        <time>2011-03-21T09:39:32Z</time>
      </trkpt>
      <trkpt lat="42.78161" lon="1.50826">
        <ele>1003.7536621094</ele>
        <time>2011-03-21T09:39:35Z</time>
      </trkpt>
      <trkpt lat="42.78166" lon="1.50812">
        <ele>1002.7922363281</ele>
        <time>2011-03-21T09:39:40Z</time>
      </trkpt>
      <trkpt lat="42.78158" lon="1.50793">
        <ele>1004.7150878906</ele>
        <time>2011-03-21T09:39:46Z</time>
      </trkpt>
      <trkpt lat="42.78156" lon="1.50776">
        <ele>1003.7536621094</ele>
        <time>2011-03-21T09:39:51Z</time>
      </trkpt>
      <trkpt lat="42.78149" lon="1.5077">
        <ele>1002.7922363281</ele>
        <time>2011-03-21T09:39:55Z</time>
      </trkpt>
      <trkpt lat="42.78141" lon="1.50768">
        <ele>1002.3115234375</ele>
        <time>2011-03-21T09:40:01Z</time>
      </trkpt>
      <trkpt lat="42.78135" lon="1.50767">
        <ele>1000.8696289062</ele>
        <time>2011-03-21T09:40:08Z</time>
      </trkpt>
      <trkpt lat="42.78133" lon="1.50767">
        <ele>1000.3891601562</ele>
        <time>2011-03-21T09:40:11Z</time>
      </trkpt>
      <trkpt lat="42.78134" lon="1.5077">
        <ele>997.98583984375</ele>
        <time>2011-03-21T09:40:19Z</time>
      </trkpt>
      <trkpt lat="42.78135" lon="1.50775">
        <ele>997.98583984375</ele>
        <time>2011-03-21T09:41:04Z</time>
      </trkpt>
      <trkpt lat="42.78135" lon="1.50774">
        <ele>997.98583984375</ele>
        <time>2011-03-21T09:41:05Z</time>
      </trkpt>
      <trkpt lat="42.78131" lon="1.50768">
        <ele>997.0244140625</ele>
        <time>2011-03-21T09:41:08Z</time>
      </trkpt>
      <trkpt lat="42.78127" lon="1.50766">
        <ele>995.10180664062</ele>
        <time>2011-03-21T09:41:10Z</time>
      </trkpt>
      <trkpt lat="42.78119" lon="1.50761">
        <ele>993.17919921875</ele>
        <time>2011-03-21T09:41:14Z</time>
      </trkpt>
      <trkpt lat="42.78112" lon="1.50749">
        <ele>989.81469726562</ele>
        <time>2011-03-21T09:41:20Z</time>
      </trkpt>
      <trkpt lat="42.78109" lon="1.50742">
        <ele>986.93041992188</ele>
        <time>2011-03-21T09:41:24Z</time>
      </trkpt>
      <trkpt lat="42.78097" lon="1.50755">
        <ele>983.08520507812</ele>
        <time>2011-03-21T09:41:29Z</time>
      </trkpt>
      <trkpt lat="42.78087" lon="1.50766">
        <ele>980.68212890625</ele>
        <time>2011-03-21T09:41:34Z</time>
      </trkpt>
      <trkpt lat="42.7808" lon="1.5078">
        <ele>976.8369140625</ele>
        <time>2011-03-21T09:41:39Z</time>
      </trkpt>
      <trkpt lat="42.78085" lon="1.50798">
        <ele>975.39477539062</ele>
        <time>2011-03-21T09:41:43Z</time>
      </trkpt>
      <trkpt lat="42.78085" lon="1.50801">
        <ele>974.43359375</ele>
        <time>2011-03-21T09:41:44Z</time>
      </trkpt>
      <trkpt lat="42.7809" lon="1.50816">
        <ele>971.54931640625</ele>
        <time>2011-03-21T09:41:49Z</time>
      </trkpt>
      <trkpt lat="42.78095" lon="1.50826">
        <ele>970.58813476562</ele>
        <time>2011-03-21T09:41:53Z</time>
      </trkpt>
      <trkpt lat="42.78103" lon="1.50842">
        <ele>968.66552734375</ele>
        <time>2011-03-21T09:41:58Z</time>
      </trkpt>
      <trkpt lat="42.78109" lon="1.50857">
        <ele>965.30102539062</ele>
        <time>2011-03-21T09:42:03Z</time>
      </trkpt>
      <trkpt lat="42.78111" lon="1.50861">
        <ele>964.8203125</ele>
        <time>2011-03-21T09:42:04Z</time>
      </trkpt>
      <trkpt lat="42.78113" lon="1.50882">
        <ele>961.9365234375</ele>
        <time>2011-03-21T09:42:11Z</time>
      </trkpt>
      <trkpt lat="42.78112" lon="1.509">
        <ele>958.57177734375</ele>
        <time>2011-03-21T09:42:16Z</time>
      </trkpt>
      <trkpt lat="42.7811" lon="1.50916">
        <ele>954.72631835938</ele>
        <time>2011-03-21T09:42:20Z</time>
      </trkpt>
      <trkpt lat="42.78107" lon="1.50932">
        <ele>952.32299804688</ele>
        <time>2011-03-21T09:42:24Z</time>
      </trkpt>
      <trkpt lat="42.78103" lon="1.5095">
        <ele>948.95849609375</ele>
        <time>2011-03-21T09:42:29Z</time>
      </trkpt>
      <trkpt lat="42.78101" lon="1.50976">
        <ele>945.11328125</ele>
        <time>2011-03-21T09:42:35Z</time>
      </trkpt>
      <trkpt lat="42.78098" lon="1.50989">
        <ele>942.71020507812</ele>
        <time>2011-03-21T09:42:40Z</time>
      </trkpt>
      <trkpt lat="42.78094" lon="1.51">
        <ele>941.26806640625</ele>
        <time>2011-03-21T09:42:45Z</time>
      </trkpt>
      <trkpt lat="42.78093" lon="1.51008">
        <ele>941.26806640625</ele>
        <time>2011-03-21T09:42:48Z</time>
      </trkpt>
      <trkpt lat="42.78087" lon="1.51003">
        <ele>936.94189453125</ele>
        <time>2011-03-21T09:42:53Z</time>
      </trkpt>
      <trkpt lat="42.78081" lon="1.51001">
        <ele>932.13549804688</ele>
        <time>2011-03-21T09:42:57Z</time>
      </trkpt>
      <trkpt lat="42.78078" lon="1.51012">
        <ele>930.212890625</ele>
        <time>2011-03-21T09:43:00Z</time>
      </trkpt>
      <trkpt lat="42.78081" lon="1.51032">
        <ele>926.36767578125</ele>
        <time>2011-03-21T09:43:05Z</time>
      </trkpt>
      <trkpt lat="42.78083" lon="1.51054">
        <ele>923.48364257812</ele>
        <time>2011-03-21T09:43:10Z</time>
      </trkpt>
      <trkpt lat="42.78078" lon="1.51059">
        <ele>921.08032226562</ele>
        <time>2011-03-21T09:43:15Z</time>
      </trkpt>
      <trkpt lat="42.78074" lon="1.51057">
        <ele>920.11889648438</ele>
        <time>2011-03-21T09:43:20Z</time>
      </trkpt>
      <trkpt lat="42.78069" lon="1.51066">
        <ele>919.15771484375</ele>
        <time>2011-03-21T09:43:23Z</time>
      </trkpt>
      <trkpt lat="42.78061" lon="1.51083">
        <ele>916.27368164062</ele>
        <time>2011-03-21T09:43:28Z</time>
      </trkpt>
      <trkpt lat="42.78054" lon="1.51092">
        <ele>914.35107421875</ele>
        <time>2011-03-21T09:43:32Z</time>
      </trkpt>
      <trkpt lat="42.78046" lon="1.51114">
        <ele>913.87036132812</ele>
        <time>2011-03-21T09:43:38Z</time>
      </trkpt>
      <trkpt lat="42.78043" lon="1.51119">
        <ele>912.9091796875</ele>
        <time>2011-03-21T09:43:40Z</time>
      </trkpt>
      <trkpt lat="42.78038" lon="1.51125">
        <ele>911.46728515625</ele>
        <time>2011-03-21T09:43:45Z</time>
      </trkpt>
      <trkpt lat="42.78028" lon="1.5111">
        <ele>907.14111328125</ele>
        <time>2011-03-21T09:43:51Z</time>
      </trkpt>
      <trkpt lat="42.78026" lon="1.51093">
        <ele>905.21850585938</ele>
        <time>2011-03-21T09:43:56Z</time>
      </trkpt>
      <trkpt lat="42.78027" lon="1.51077">
        <ele>902.33447265625</ele>
        <time>2011-03-21T09:44:01Z</time>
      </trkpt>
      <trkpt lat="42.78023" lon="1.51064">
        <ele>899.93139648438</ele>
        <time>2011-03-21T09:44:05Z</time>
      </trkpt>
      <trkpt lat="42.7802" lon="1.51052">
        <ele>894.64404296875</ele>
        <time>2011-03-21T09:44:09Z</time>
      </trkpt>
      <trkpt lat="42.7802" lon="1.51046">
        <ele>892.7216796875</ele>
        <time>2011-03-21T09:44:11Z</time>
      </trkpt>
      <trkpt lat="42.78017" lon="1.51043">
        <ele>891.76000976562</ele>
        <time>2011-03-21T09:44:13Z</time>
      </trkpt>
      <trkpt lat="42.78015" lon="1.51051">
        <ele>889.35668945312</ele>
        <time>2011-03-21T09:44:18Z</time>
      </trkpt>
      <trkpt lat="42.78014" lon="1.51056">
        <ele>888.87622070312</ele>
        <time>2011-03-21T09:44:20Z</time>
      </trkpt>
      <trkpt lat="42.78007" lon="1.51053">
        <ele>885.03100585938</ele>
        <time>2011-03-21T09:44:24Z</time>
      </trkpt>
      <trkpt lat="42.78006" lon="1.5105">
        <ele>885.03100585938</ele>
        <time>2011-03-21T09:44:25Z</time>
      </trkpt>
      <trkpt lat="42.78002" lon="1.5103">
        <ele>879.74365234375</ele>
        <time>2011-03-21T09:44:32Z</time>
      </trkpt>
      <trkpt lat="42.78001" lon="1.51028">
        <ele>879.26293945312</ele>
        <time>2011-03-21T09:44:33Z</time>
      </trkpt>
      <trkpt lat="42.77998" lon="1.51036">
        <ele>879.74365234375</ele>
        <time>2011-03-21T09:44:37Z</time>
      </trkpt>
      <trkpt lat="42.77993" lon="1.51031">
        <ele>880.22436523438</ele>
        <time>2011-03-21T09:44:41Z</time>
      </trkpt>
      <trkpt lat="42.77993" lon="1.51013">
        <ele>880.22436523438</ele>
        <time>2011-03-21T09:44:46Z</time>
      </trkpt>
      <trkpt lat="42.77994" lon="1.51007">
        <ele>879.26293945312</ele>
        <time>2011-03-21T09:44:48Z</time>
      </trkpt>
      <trkpt lat="42.77984" lon="1.50994">
        <ele>883.10815429688</ele>
        <time>2011-03-21T09:46:02Z</time>
      </trkpt>
      <trkpt lat="42.77991" lon="1.50982">
        <ele>884.55029296875</ele>
        <time>2011-03-21T09:46:07Z</time>
      </trkpt>
      <trkpt lat="42.77992" lon="1.50978">
        <ele>884.55029296875</ele>
        <time>2011-03-21T09:46:08Z</time>
      </trkpt>
      <trkpt lat="42.77991" lon="1.50957">
        <ele>881.18579101562</ele>
        <time>2011-03-21T09:46:13Z</time>
      </trkpt>
      <trkpt lat="42.77991" lon="1.50949">
        <ele>879.74365234375</ele>
        <time>2011-03-21T09:46:15Z</time>
      </trkpt>
      <trkpt lat="42.7799" lon="1.50924">
        <ele>877.34057617188</ele>
        <time>2011-03-21T09:46:21Z</time>
      </trkpt>
      <trkpt lat="42.77983" lon="1.50911">
        <ele>876.37915039062</ele>
        <time>2011-03-21T09:46:25Z</time>
      </trkpt>
      <trkpt lat="42.77971" lon="1.509">
        <ele>876.37915039062</ele>
        <time>2011-03-21T09:46:29Z</time>
      </trkpt>
      <trkpt lat="42.77955" lon="1.50891">
        <ele>874.45629882812</ele>
        <time>2011-03-21T09:46:34Z</time>
      </trkpt>
      <trkpt lat="42.77944" lon="1.50877">
        <ele>872.53369140625</ele>
        <time>2011-03-21T09:46:39Z</time>
      </trkpt>
      <trkpt lat="42.77937" lon="1.50864">
        <ele>871.572265625</ele>
        <time>2011-03-21T09:46:43Z</time>
      </trkpt>
      <trkpt lat="42.77933" lon="1.50848">
        <ele>870.61108398438</ele>
        <time>2011-03-21T09:46:47Z</time>
      </trkpt>
      <trkpt lat="42.77928" lon="1.50829">
        <ele>869.64990234375</ele>
        <time>2011-03-21T09:46:52Z</time>
      </trkpt>
      <trkpt lat="42.77926" lon="1.50811">
        <ele>866.28515625</ele>
        <time>2011-03-21T09:46:57Z</time>
      </trkpt>
      <trkpt lat="42.77925" lon="1.50799">
        <ele>864.84326171875</ele>
        <time>2011-03-21T09:47:00Z</time>
      </trkpt>
      <trkpt lat="42.77924" lon="1.50783">
        <ele>861.95947265625</ele>
        <time>2011-03-21T09:47:05Z</time>
      </trkpt>
      <trkpt lat="42.77916" lon="1.50766">
        <ele>860.03662109375</ele>
        <time>2011-03-21T09:47:10Z</time>
      </trkpt>
      <trkpt lat="42.77909" lon="1.50756">
        <ele>858.59448242188</ele>
        <time>2011-03-21T09:47:13Z</time>
      </trkpt>
      <trkpt lat="42.77901" lon="1.50744">
        <ele>858.11401367188</ele>
        <time>2011-03-21T09:47:17Z</time>
      </trkpt>
      <trkpt lat="42.77897" lon="1.50738">
        <ele>856.671875</ele>
        <time>2011-03-21T09:47:19Z</time>
      </trkpt>
      <trkpt lat="42.77896" lon="1.50719">
        <ele>852.82666015625</ele>
        <time>2011-03-21T09:47:24Z</time>
      </trkpt>
      <trkpt lat="42.77901" lon="1.507">
        <ele>850.90405273438</ele>
        <time>2011-03-21T09:47:29Z</time>
      </trkpt>
      <trkpt lat="42.77908" lon="1.50686">
        <ele>848.50073242188</ele>
        <time>2011-03-21T09:47:33Z</time>
      </trkpt>
      <trkpt lat="42.77916" lon="1.50669">
        <ele>845.13623046875</ele>
        <time>2011-03-21T09:47:38Z</time>
      </trkpt>
      <trkpt lat="42.77923" lon="1.50657">
        <ele>844.65551757812</ele>
        <time>2011-03-21T09:47:42Z</time>
      </trkpt>
      <trkpt lat="42.77926" lon="1.50654">
        <ele>851.384765625</ele>
        <time>2011-03-21T09:47:47Z</time>
      </trkpt>
      <trkpt lat="42.77924" lon="1.50651">
        <ele>855.71069335938</ele>
        <time>2011-03-21T09:47:50Z</time>
      </trkpt>
      <trkpt lat="42.77917" lon="1.50644">
        <ele>860.998046875</ele>
        <time>2011-03-21T09:47:56Z</time>
      </trkpt>
      <trkpt lat="42.77914" lon="1.50641">
        <ele>861.95947265625</ele>
        <time>2011-03-21T09:47:59Z</time>
      </trkpt>
      <trkpt lat="42.77914" lon="1.50633">
        <ele>860.998046875</ele>
        <time>2011-03-21T09:48:04Z</time>
      </trkpt>
      <trkpt lat="42.77913" lon="1.50632">
        <ele>860.51733398438</ele>
        <time>2011-03-21T09:48:06Z</time>
      </trkpt>
      <trkpt lat="42.77909" lon="1.5063">
        <ele>858.11401367188</ele>
        <time>2011-03-21T09:48:14Z</time>
      </trkpt>
      <trkpt lat="42.77906" lon="1.50629">
        <ele>857.63330078125</ele>
        <time>2011-03-21T09:48:17Z</time>
      </trkpt>
      <trkpt lat="42.77897" lon="1.50617">
        <ele>855.71069335938</ele>
        <time>2011-03-21T09:48:21Z</time>
      </trkpt>
      <trkpt lat="42.77888" lon="1.50606">
        <ele>854.26879882812</ele>
        <time>2011-03-21T09:48:25Z</time>
      </trkpt>
      <trkpt lat="42.7788" lon="1.50593">
        <ele>851.384765625</ele>
        <time>2011-03-21T09:48:29Z</time>
      </trkpt>
      <trkpt lat="42.77869" lon="1.50578">
        <ele>848.50073242188</ele>
        <time>2011-03-21T09:48:35Z</time>
      </trkpt>
      <trkpt lat="42.77856" lon="1.5057">
        <ele>844.65551757812</ele>
        <time>2011-03-21T09:48:40Z</time>
      </trkpt>
      <trkpt lat="42.77842" lon="1.5056">
        <ele>842.25219726562</ele>
        <time>2011-03-21T09:48:45Z</time>
      </trkpt>
      <trkpt lat="42.77829" lon="1.50546">
        <ele>841.771484375</ele>
        <time>2011-03-21T09:48:51Z</time>
      </trkpt>
      <trkpt lat="42.77822" lon="1.50525">
        <ele>839.84887695312</ele>
        <time>2011-03-21T09:48:56Z</time>
      </trkpt>
      <trkpt lat="42.77819" lon="1.5052">
        <ele>839.84887695312</ele>
        <time>2011-03-21T09:48:57Z</time>
      </trkpt>
      <trkpt lat="42.77818" lon="1.50505">
        <ele>837.44555664062</ele>
        <time>2011-03-21T09:49:01Z</time>
      </trkpt>
      <trkpt lat="42.77813" lon="1.50481">
        <ele>836.96484375</ele>
        <time>2011-03-21T09:49:07Z</time>
      </trkpt>
      <trkpt lat="42.77808" lon="1.50463">
        <ele>835.04248046875</ele>
        <time>2011-03-21T09:49:12Z</time>
      </trkpt>
      <trkpt lat="42.77804" lon="1.50446">
        <ele>831.677734375</ele>
        <time>2011-03-21T09:49:17Z</time>
      </trkpt>
      <trkpt lat="42.77802" lon="1.5042">
        <ele>827.35180664062</ele>
        <time>2011-03-21T09:49:24Z</time>
      </trkpt>
      <trkpt lat="42.77803" lon="1.50401">
        <ele>825.42895507812</ele>
        <time>2011-03-21T09:49:29Z</time>
      </trkpt>
      <trkpt lat="42.77807" lon="1.50387">
        <ele>823.98706054688</ele>
        <time>2011-03-21T09:49:33Z</time>
      </trkpt>
      <trkpt lat="42.77807" lon="1.50384">
        <ele>823.02587890625</ele>
        <time>2011-03-21T09:49:34Z</time>
      </trkpt>
      <trkpt lat="42.77801" lon="1.50385">
        <ele>820.14184570312</ele>
        <time>2011-03-21T09:49:38Z</time>
      </trkpt>
      <trkpt lat="42.778" lon="1.504">
        <ele>819.66137695312</ele>
        <time>2011-03-21T09:49:41Z</time>
      </trkpt>
      <trkpt lat="42.77795" lon="1.50412">
        <ele>820.62255859375</ele>
        <time>2011-03-21T09:49:45Z</time>
      </trkpt>
      <trkpt lat="42.77792" lon="1.50428">
        <ele>822.064453125</ele>
        <time>2011-03-21T09:49:49Z</time>
      </trkpt>
      <trkpt lat="42.77792" lon="1.50445">
        <ele>822.54516601562</ele>
        <time>2011-03-21T09:49:53Z</time>
      </trkpt>
      <trkpt lat="42.77793" lon="1.50472">
        <ele>822.064453125</ele>
        <time>2011-03-21T09:49:59Z</time>
      </trkpt>
      <trkpt lat="42.77795" lon="1.50495">
        <ele>821.58374023438</ele>
        <time>2011-03-21T09:50:04Z</time>
      </trkpt>
      <trkpt lat="42.77795" lon="1.50513">
        <ele>820.62255859375</ele>
        <time>2011-03-21T09:50:08Z</time>
      </trkpt>
      <trkpt lat="42.77793" lon="1.50531">
        <ele>820.14184570312</ele>
        <time>2011-03-21T09:50:12Z</time>
      </trkpt>
      <trkpt lat="42.77788" lon="1.50546">
        <ele>819.66137695312</ele>
        <time>2011-03-21T09:50:16Z</time>
      </trkpt>
      <trkpt lat="42.77785" lon="1.50562">
        <ele>817.73852539062</ele>
        <time>2011-03-21T09:50:20Z</time>
      </trkpt>
      <trkpt lat="42.77788" lon="1.50582">
        <ele>814.3740234375</ele>
        <time>2011-03-21T09:50:25Z</time>
      </trkpt>
      <trkpt lat="42.77796" lon="1.50599">
        <ele>811.48999023438</ele>
        <time>2011-03-21T09:50:30Z</time>
      </trkpt>
      <trkpt lat="42.77803" lon="1.50607">
        <ele>810.52856445312</ele>
        <time>2011-03-21T09:50:34Z</time>
      </trkpt>
      <trkpt lat="42.77817" lon="1.50611">
        <ele>807.64477539062</ele>
        <time>2011-03-21T09:50:39Z</time>
      </trkpt>
      <trkpt lat="42.77828" lon="1.50614">
        <ele>806.20263671875</ele>
        <time>2011-03-21T09:50:44Z</time>
      </trkpt>
      <trkpt lat="42.77832" lon="1.50618">
        <ele>807.64477539062</ele>
        <time>2011-03-21T09:50:46Z</time>
      </trkpt>
      <trkpt lat="42.77841" lon="1.50627">
        <ele>812.93212890625</ele>
        <time>2011-03-21T09:50:51Z</time>
      </trkpt>
      <trkpt lat="42.77839" lon="1.50638">
        <ele>812.45141601562</ele>
        <time>2011-03-21T09:50:55Z</time>
      </trkpt>
      <trkpt lat="42.77833" lon="1.5065">
        <ele>813.89331054688</ele>
        <time>2011-03-21T09:50:58Z</time>
      </trkpt>
      <trkpt lat="42.77824" lon="1.50666">
        <ele>814.3740234375</ele>
        <time>2011-03-21T09:51:02Z</time>
      </trkpt>
      <trkpt lat="42.77815" lon="1.50681">
        <ele>812.45141601562</ele>
        <time>2011-03-21T09:51:06Z</time>
      </trkpt>
      <trkpt lat="42.77813" lon="1.50683">
        <ele>811.970703125</ele>
        <time>2011-03-21T09:51:07Z</time>
      </trkpt>
      <trkpt lat="42.77799" lon="1.50691">
        <ele>810.52856445312</ele>
        <time>2011-03-21T09:51:12Z</time>
      </trkpt>
      <trkpt lat="42.7779" lon="1.507">
        <ele>808.60595703125</ele>
        <time>2011-03-21T09:51:16Z</time>
      </trkpt>
      <trkpt lat="42.77791" lon="1.50715">
        <ele>805.24145507812</ele>
        <time>2011-03-21T09:51:21Z</time>
      </trkpt>
      <trkpt lat="42.77801" lon="1.50725">
        <ele>801.39624023438</ele>
        <time>2011-03-21T09:51:25Z</time>
      </trkpt>
      <trkpt lat="42.77808" lon="1.50738">
        <ele>799.95434570312</ele>
        <time>2011-03-21T09:51:29Z</time>
      </trkpt>
      <trkpt lat="42.77811" lon="1.50751">
        <ele>798.99291992188</ele>
        <time>2011-03-21T09:51:33Z</time>
      </trkpt>
      <trkpt lat="42.77814" lon="1.50765">
        <ele>798.03173828125</ele>
        <time>2011-03-21T09:51:37Z</time>
      </trkpt>
      <trkpt lat="42.77821" lon="1.50784">
        <ele>798.99291992188</ele>
        <time>2011-03-21T09:51:43Z</time>
      </trkpt>
      <trkpt lat="42.77826" lon="1.50802">
        <ele>799.4736328125</ele>
        <time>2011-03-21T09:51:48Z</time>
      </trkpt>
      <trkpt lat="42.77828" lon="1.50809">
        <ele>799.4736328125</ele>
        <time>2011-03-21T09:51:50Z</time>
      </trkpt>
      <trkpt lat="42.77833" lon="1.50827">
        <ele>801.39624023438</ele>
        <time>2011-03-21T09:51:55Z</time>
      </trkpt>
      <trkpt lat="42.77829" lon="1.50837">
        <ele>800.91552734375</ele>
        <time>2011-03-21T09:51:58Z</time>
      </trkpt>
      <trkpt lat="42.77822" lon="1.50829">
        <ele>798.99291992188</ele>
        <time>2011-03-21T09:52:01Z</time>
      </trkpt>
      <trkpt lat="42.77821" lon="1.50824">
        <ele>798.03173828125</ele>
        <time>2011-03-21T09:52:02Z</time>
      </trkpt>
      <trkpt lat="42.77814" lon="1.50807">
        <ele>795.1474609375</ele>
        <time>2011-03-21T09:52:07Z</time>
      </trkpt>
      <trkpt lat="42.77811" lon="1.508">
        <ele>794.66674804688</ele>
        <time>2011-03-21T09:52:09Z</time>
      </trkpt>
      <trkpt lat="42.77802" lon="1.50785">
        <ele>791.78295898438</ele>
        <time>2011-03-21T09:52:14Z</time>
      </trkpt>
      <trkpt lat="42.77799" lon="1.50779">
        <ele>791.30224609375</ele>
        <time>2011-03-21T09:52:16Z</time>
      </trkpt>
      <trkpt lat="42.77795" lon="1.50769">
        <ele>791.30224609375</ele>
        <time>2011-03-21T09:52:19Z</time>
      </trkpt>
      <trkpt lat="42.77784" lon="1.50756">
        <ele>789.37963867188</ele>
        <time>2011-03-21T09:52:23Z</time>
      </trkpt>
      <trkpt lat="42.77776" lon="1.50745">
        <ele>788.89916992188</ele>
        <time>2011-03-21T09:52:27Z</time>
      </trkpt>
      <trkpt lat="42.77766" lon="1.50737">
        <ele>786.49584960938</ele>
        <time>2011-03-21T09:52:31Z</time>
      </trkpt>
      <trkpt lat="42.77755" lon="1.5073">
        <ele>783.61181640625</ele>
        <time>2011-03-21T09:52:35Z</time>
      </trkpt>
      <trkpt lat="42.77753" lon="1.50728">
        <ele>782.65063476562</ele>
        <time>2011-03-21T09:52:36Z</time>
      </trkpt>
      <trkpt lat="42.77739" lon="1.50716">
        <ele>778.80517578125</ele>
        <time>2011-03-21T09:52:42Z</time>
      </trkpt>
      <trkpt lat="42.77736" lon="1.50713">
        <ele>778.80517578125</ele>
        <time>2011-03-21T09:52:43Z</time>
      </trkpt>
      <trkpt lat="42.77734" lon="1.50695">
        <ele>774.9599609375</ele>
        <time>2011-03-21T09:52:48Z</time>
      </trkpt>
      <trkpt lat="42.77733" lon="1.50691">
        <ele>774.47924804688</ele>
        <time>2011-03-21T09:52:52Z</time>
      </trkpt>
      <trkpt lat="42.77733" lon="1.50686">
        <ele>772.07592773438</ele>
        <time>2011-03-21T09:52:56Z</time>
      </trkpt>
      <trkpt lat="42.77732" lon="1.50681">
        <ele>768.71142578125</ele>
        <time>2011-03-21T09:53:01Z</time>
      </trkpt>
      <trkpt lat="42.77723" lon="1.50682">
        <ele>765.34692382812</ele>
        <time>2011-03-21T09:53:05Z</time>
      </trkpt>
      <trkpt lat="42.7771" lon="1.50687">
        <ele>761.98217773438</ele>
        <time>2011-03-21T09:53:11Z</time>
      </trkpt>
      <trkpt lat="42.77707" lon="1.5068">
        <ele>758.13696289062</ele>
        <time>2011-03-21T09:53:16Z</time>
      </trkpt>
      <trkpt lat="42.77708" lon="1.50676">
        <ele>757.65625</ele>
        <time>2011-03-21T09:53:17Z</time>
      </trkpt>
      <trkpt lat="42.77709" lon="1.50667">
        <ele>754.29174804688</ele>
        <time>2011-03-21T09:53:23Z</time>
      </trkpt>
      <trkpt lat="42.77706" lon="1.50665">
        <ele>754.29174804688</ele>
        <time>2011-03-21T09:53:26Z</time>
      </trkpt>
      <trkpt lat="42.777" lon="1.50661">
        <ele>752.849609375</ele>
        <time>2011-03-21T09:53:30Z</time>
      </trkpt>
      <trkpt lat="42.77697" lon="1.50661">
        <ele>753.81103515625</ele>
        <time>2011-03-21T09:53:32Z</time>
      </trkpt>
      <trkpt lat="42.77689" lon="1.50661">
        <ele>754.29174804688</ele>
        <time>2011-03-21T09:53:37Z</time>
      </trkpt>
      <trkpt lat="42.77686" lon="1.50661">
        <ele>753.81103515625</ele>
        <time>2011-03-21T09:53:40Z</time>
      </trkpt>
      <trkpt lat="42.77683" lon="1.50665">
        <ele>753.33032226562</ele>
        <time>2011-03-21T09:53:47Z</time>
      </trkpt>
      <trkpt lat="42.77676" lon="1.5067">
        <ele>749.9658203125</ele>
        <time>2011-03-21T09:53:52Z</time>
      </trkpt>
      <trkpt lat="42.77667" lon="1.50682">
        <ele>748.52368164062</ele>
        <time>2011-03-21T09:53:57Z</time>
      </trkpt>
      <trkpt lat="42.77665" lon="1.50684">
        <ele>748.04321289062</ele>
        <time>2011-03-21T09:53:58Z</time>
      </trkpt>
      <trkpt lat="42.77658" lon="1.50707">
        <ele>744.67822265625</ele>
        <time>2011-03-21T09:54:05Z</time>
      </trkpt>
      <trkpt lat="42.77652" lon="1.50723">
        <ele>741.31372070312</ele>
        <time>2011-03-21T09:54:10Z</time>
      </trkpt>
      <trkpt lat="42.77648" lon="1.50732">
        <ele>740.3525390625</ele>
        <time>2011-03-21T09:54:13Z</time>
      </trkpt>
      <trkpt lat="42.7764" lon="1.50742">
        <ele>736.50732421875</ele>
        <time>2011-03-21T09:54:18Z</time>
      </trkpt>
      <trkpt lat="42.77633" lon="1.50751">
        <ele>733.142578125</ele>
        <time>2011-03-21T09:54:23Z</time>
      </trkpt>
      <trkpt lat="42.77628" lon="1.50758">
        <ele>730.25854492188</ele>
        <time>2011-03-21T09:54:28Z</time>
      </trkpt>
      <trkpt lat="42.77628" lon="1.50758">
        <ele>729.77783203125</ele>
        <time>2011-03-21T09:54:36Z</time>
      </trkpt>
      <trkpt lat="42.77628" lon="1.50758">
        <ele>730.25854492188</ele>
        <time>2011-03-21T09:54:41Z</time>
      </trkpt>
      <trkpt lat="42.77628" lon="1.50762">
        <ele>730.7392578125</ele>
        <time>2011-03-21T09:54:47Z</time>
      </trkpt>
      <trkpt lat="42.77629" lon="1.50773">
        <ele>729.77783203125</ele>
        <time>2011-03-21T09:54:52Z</time>
      </trkpt>
      <trkpt lat="42.77633" lon="1.50782">
        <ele>727.37475585938</ele>
        <time>2011-03-21T09:54:56Z</time>
      </trkpt>
      <trkpt lat="42.77629" lon="1.50787">
        <ele>726.41333007812</ele>
        <time>2011-03-21T09:54:59Z</time>
      </trkpt>
      <trkpt lat="42.77625" lon="1.50788">
        <ele>726.89404296875</ele>
        <time>2011-03-21T09:55:01Z</time>
      </trkpt>
      <trkpt lat="42.77618" lon="1.50792">
        <ele>726.89404296875</ele>
        <time>2011-03-21T09:55:04Z</time>
      </trkpt>
      <trkpt lat="42.77605" lon="1.50799">
        <ele>727.37475585938</ele>
        <time>2011-03-21T09:55:09Z</time>
      </trkpt>
      <trkpt lat="42.77595" lon="1.50801">
        <ele>726.41333007812</ele>
        <time>2011-03-21T09:55:13Z</time>
      </trkpt>
      <trkpt lat="42.77592" lon="1.50799">
        <ele>725.9326171875</ele>
        <time>2011-03-21T09:55:14Z</time>
      </trkpt>
      <trkpt lat="42.77576" lon="1.50794">
        <ele>725.9326171875</ele>
        <time>2011-03-21T09:55:20Z</time>
      </trkpt>
      <trkpt lat="42.77571" lon="1.50793">
        <ele>725.9326171875</ele>
        <time>2011-03-21T09:55:22Z</time>
      </trkpt>
      <trkpt lat="42.77572" lon="1.50799">
        <ele>725.45190429688</ele>
        <time>2011-03-21T09:55:26Z</time>
      </trkpt>
      <trkpt lat="42.77578" lon="1.50806">
        <ele>724.01000976562</ele>
        <time>2011-03-21T09:55:29Z</time>
      </trkpt>
      <trkpt lat="42.77588" lon="1.50817">
        <ele>721.12622070312</ele>
        <time>2011-03-21T09:55:33Z</time>
      </trkpt>
      <trkpt lat="42.77597" lon="1.50833">
        <ele>719.20361328125</ele>
        <time>2011-03-21T09:55:38Z</time>
      </trkpt>
      <trkpt lat="42.77602" lon="1.50843">
        <ele>717.28100585938</ele>
        <time>2011-03-21T09:55:41Z</time>
      </trkpt>
      <trkpt lat="42.77609" lon="1.50854">
        <ele>715.35815429688</ele>
        <time>2011-03-21T09:55:45Z</time>
      </trkpt>
      <trkpt lat="42.7762" lon="1.5087">
        <ele>712.95483398438</ele>
        <time>2011-03-21T09:55:50Z</time>
      </trkpt>
      <trkpt lat="42.77626" lon="1.50888">
        <ele>713.435546875</ele>
        <time>2011-03-21T09:55:55Z</time>
      </trkpt>
      <trkpt lat="42.77633" lon="1.50902">
        <ele>712.95483398438</ele>
        <time>2011-03-21T09:55:59Z</time>
      </trkpt>
      <trkpt lat="42.77642" lon="1.50923">
        <ele>711.99365234375</ele>
        <time>2011-03-21T09:56:05Z</time>
      </trkpt>
      <trkpt lat="42.77647" lon="1.50934">
        <ele>710.55151367188</ele>
        <time>2011-03-21T09:56:08Z</time>
      </trkpt>
      <trkpt lat="42.77656" lon="1.50951">
        <ele>711.51293945312</ele>
        <time>2011-03-21T09:56:13Z</time>
      </trkpt>
      <trkpt lat="42.7766" lon="1.50958">
        <ele>711.51293945312</ele>
        <time>2011-03-21T09:56:15Z</time>
      </trkpt>
      <trkpt lat="42.77671" lon="1.50973">
        <ele>709.59033203125</ele>
        <time>2011-03-21T09:56:20Z</time>
      </trkpt>
      <trkpt lat="42.77677" lon="1.50991">
        <ele>709.10961914062</ele>
        <time>2011-03-21T09:56:25Z</time>
      </trkpt>
      <trkpt lat="42.77679" lon="1.50994">
        <ele>709.59033203125</ele>
        <time>2011-03-21T09:56:26Z</time>
      </trkpt>
      <trkpt lat="42.77681" lon="1.51007">
        <ele>710.55151367188</ele>
        <time>2011-03-21T09:56:29Z</time>
      </trkpt>
      <trkpt lat="42.77689" lon="1.51026">
        <ele>710.55151367188</ele>
        <time>2011-03-21T09:56:35Z</time>
      </trkpt>
      <trkpt lat="42.7769" lon="1.51028">
        <ele>710.55151367188</ele>
        <time>2011-03-21T09:56:36Z</time>
      </trkpt>
      <trkpt lat="42.77687" lon="1.51044">
        <ele>711.99365234375</ele>
        <time>2011-03-21T09:56:41Z</time>
      </trkpt>
      <trkpt lat="42.77682" lon="1.51056">
        <ele>712.47412109375</ele>
        <time>2011-03-21T09:56:44Z</time>
      </trkpt>
      <trkpt lat="42.77677" lon="1.51064">
        <ele>713.435546875</ele>
        <time>2011-03-21T09:56:47Z</time>
      </trkpt>
      <trkpt lat="42.77669" lon="1.51059">
        <ele>709.10961914062</ele>
        <time>2011-03-21T09:56:50Z</time>
      </trkpt>
      <trkpt lat="42.7766" lon="1.51048">
        <ele>706.2255859375</ele>
        <time>2011-03-21T09:56:54Z</time>
      </trkpt>
      <trkpt lat="42.77654" lon="1.5105">
        <ele>704.78369140625</ele>
        <time>2011-03-21T09:56:57Z</time>
      </trkpt>
      <trkpt lat="42.7765" lon="1.51059">
        <ele>704.30322265625</ele>
        <time>2011-03-21T09:57:00Z</time>
      </trkpt>
      <trkpt lat="42.77645" lon="1.51069">
        <ele>701.89990234375</ele>
        <time>2011-03-21T09:57:03Z</time>
      </trkpt>
      <trkpt lat="42.77633" lon="1.51071">
        <ele>698.53491210938</ele>
        <time>2011-03-21T09:57:07Z</time>
      </trkpt>
      <trkpt lat="42.77621" lon="1.51079">
        <ele>693.728515625</ele>
        <time>2011-03-21T09:57:12Z</time>
      </trkpt>
      <trkpt lat="42.77617" lon="1.51085">
        <ele>690.84448242188</ele>
        <time>2011-03-21T09:57:14Z</time>
      </trkpt>
      <trkpt lat="42.77611" lon="1.51099">
        <ele>690.36401367188</ele>
        <time>2011-03-21T09:57:18Z</time>
      </trkpt>
      <trkpt lat="42.77604" lon="1.51112">
        <ele>689.88330078125</ele>
        <time>2011-03-21T09:57:22Z</time>
      </trkpt>
      <trkpt lat="42.77602" lon="1.51114">
        <ele>690.36401367188</ele>
        <time>2011-03-21T09:57:23Z</time>
      </trkpt>
      <trkpt lat="42.77596" lon="1.51125">
        <ele>690.84448242188</ele>
        <time>2011-03-21T10:01:43Z</time>
      </trkpt>
      <trkpt lat="42.77596" lon="1.51125">
        <ele>690.84448242188</ele>
        <time>2011-03-21T10:01:44Z</time>
      </trkpt>
      <trkpt lat="42.77597" lon="1.51128">
        <ele>690.84448242188</ele>
        <time>2011-03-21T10:01:45Z</time>
      </trkpt>
      <trkpt lat="42.77594" lon="1.51139">
        <ele>690.84448242188</ele>
        <time>2011-03-21T10:01:52Z</time>
      </trkpt>
      <trkpt lat="42.77591" lon="1.51145">
        <ele>689.88330078125</ele>
        <time>2011-03-21T10:01:56Z</time>
      </trkpt>
      <trkpt lat="42.77584" lon="1.51162">
        <ele>690.84448242188</ele>
        <time>2011-03-21T10:02:06Z</time>
      </trkpt>
      <trkpt lat="42.77578" lon="1.51176">
        <ele>690.84448242188</ele>
        <time>2011-03-21T10:02:15Z</time>
      </trkpt>
      <trkpt lat="42.77571" lon="1.51192">
        <ele>689.88330078125</ele>
        <time>2011-03-21T10:02:25Z</time>
      </trkpt>
      <trkpt lat="42.77563" lon="1.51206">
        <ele>688.44140625</ele>
        <time>2011-03-21T10:02:35Z</time>
      </trkpt>
      <trkpt lat="42.77556" lon="1.51219">
        <ele>687.96069335938</ele>
        <time>2011-03-21T10:02:43Z</time>
      </trkpt>
      <trkpt lat="42.77549" lon="1.51231">
        <ele>689.40258789062</ele>
        <time>2011-03-21T10:02:50Z</time>
      </trkpt>
      <trkpt lat="42.77542" lon="1.51242">
        <ele>689.40258789062</ele>
        <time>2011-03-21T10:02:58Z</time>
      </trkpt>
      <trkpt lat="42.77535" lon="1.51254">
        <ele>689.88330078125</ele>
        <time>2011-03-21T10:03:06Z</time>
      </trkpt>
      <trkpt lat="42.77527" lon="1.51269">
        <ele>690.36401367188</ele>
        <time>2011-03-21T10:03:15Z</time>
      </trkpt>
      <trkpt lat="42.77519" lon="1.51286">
        <ele>690.84448242188</ele>
        <time>2011-03-21T10:03:25Z</time>
      </trkpt>
      <trkpt lat="42.77513" lon="1.51297">
        <ele>690.84448242188</ele>
        <time>2011-03-21T10:03:32Z</time>
      </trkpt>
      <trkpt lat="42.77507" lon="1.5131">
        <ele>691.3251953125</ele>
        <time>2011-03-21T10:03:40Z</time>
      </trkpt>
      <trkpt lat="42.77501" lon="1.51321">
        <ele>691.3251953125</ele>
        <time>2011-03-21T10:03:47Z</time>
      </trkpt>
      <trkpt lat="42.77494" lon="1.51335">
        <ele>692.76733398438</ele>
        <time>2011-03-21T10:03:56Z</time>
      </trkpt>
      <trkpt lat="42.77489" lon="1.51345">
        <ele>694.20922851562</ele>
        <time>2011-03-21T10:04:02Z</time>
      </trkpt>
      <trkpt lat="42.77486" lon="1.51354">
        <ele>694.68969726562</ele>
        <time>2011-03-21T10:04:08Z</time>
      </trkpt>
      <trkpt lat="42.77482" lon="1.51362">
        <ele>695.65112304688</ele>
        <time>2011-03-21T10:04:13Z</time>
      </trkpt>
      <trkpt lat="42.77477" lon="1.51371">
        <ele>696.61254882812</ele>
        <time>2011-03-21T10:04:19Z</time>
      </trkpt>
      <trkpt lat="42.7747" lon="1.51383">
        <ele>697.57373046875</ele>
        <time>2011-03-21T10:04:27Z</time>
      </trkpt>
      <trkpt lat="42.7746" lon="1.51388">
        <ele>697.57373046875</ele>
        <time>2011-03-21T10:04:34Z</time>
      </trkpt>
      <trkpt lat="42.77454" lon="1.51392">
        <ele>697.57373046875</ele>
        <time>2011-03-21T10:04:40Z</time>
      </trkpt>
      <trkpt lat="42.77453" lon="1.51392">
        <ele>698.05444335938</ele>
        <time>2011-03-21T10:04:41Z</time>
      </trkpt>
      <trkpt lat="42.77451" lon="1.51399">
        <ele>699.015625</ele>
        <time>2011-03-21T10:04:48Z</time>
      </trkpt>
      <trkpt lat="42.77446" lon="1.51405">
        <ele>700.9384765625</ele>
        <time>2011-03-21T10:04:54Z</time>
      </trkpt>
      <trkpt lat="42.77441" lon="1.51406">
        <ele>702.86108398438</ele>
        <time>2011-03-21T10:04:59Z</time>
      </trkpt>
      <trkpt lat="42.77432" lon="1.51407">
        <ele>703.82250976562</ele>
        <time>2011-03-21T10:05:06Z</time>
      </trkpt>
      <trkpt lat="42.77428" lon="1.51408">
        <ele>703.82250976562</ele>
        <time>2011-03-21T10:05:09Z</time>
      </trkpt>
      <trkpt lat="42.77424" lon="1.51409">
        <ele>704.78369140625</ele>
        <time>2011-03-21T10:05:13Z</time>
      </trkpt>
      <trkpt lat="42.77417" lon="1.51409">
        <ele>704.78369140625</ele>
        <time>2011-03-21T10:05:19Z</time>
      </trkpt>
      <trkpt lat="42.77412" lon="1.5141">
        <ele>704.78369140625</ele>
        <time>2011-03-21T10:05:24Z</time>
      </trkpt>
      <trkpt lat="42.77405" lon="1.51411">
        <ele>706.2255859375</ele>
        <time>2011-03-21T10:05:30Z</time>
      </trkpt>
      <trkpt lat="42.77397" lon="1.51414">
        <ele>709.10961914062</ele>
        <time>2011-03-21T10:05:38Z</time>
      </trkpt>
      <trkpt lat="42.77394" lon="1.51415">
        <ele>709.59033203125</ele>
        <time>2011-03-21T10:05:41Z</time>
      </trkpt>
      <trkpt lat="42.7739" lon="1.51416">
        <ele>709.59033203125</ele>
        <time>2011-03-21T10:05:45Z</time>
      </trkpt>
      <trkpt lat="42.77386" lon="1.51419">
        <ele>710.55151367188</ele>
        <time>2011-03-21T10:05:51Z</time>
      </trkpt>
      <trkpt lat="42.77385" lon="1.51419">
        <ele>711.0322265625</ele>
        <time>2011-03-21T10:05:52Z</time>
      </trkpt>
      <trkpt lat="42.77381" lon="1.51421">
        <ele>713.435546875</ele>
        <time>2011-03-21T10:06:16Z</time>
      </trkpt>
      <trkpt lat="42.77382" lon="1.51421">
        <ele>714.87744140625</ele>
        <time>2011-03-21T10:06:17Z</time>
      </trkpt>
      <trkpt lat="42.77378" lon="1.51417">
        <ele>716.31958007812</ele>
        <time>2011-03-21T10:06:21Z</time>
      </trkpt>
      <trkpt lat="42.77376" lon="1.51417">
        <ele>717.28100585938</ele>
        <time>2011-03-21T10:06:23Z</time>
      </trkpt>
      <trkpt lat="42.77372" lon="1.51412">
        <ele>718.72290039062</ele>
        <time>2011-03-21T10:06:28Z</time>
      </trkpt>
      <trkpt lat="42.77365" lon="1.51404">
        <ele>721.60668945312</ele>
        <time>2011-03-21T10:06:35Z</time>
      </trkpt>
      <trkpt lat="42.77362" lon="1.51399">
        <ele>723.52954101562</ele>
        <time>2011-03-21T10:06:39Z</time>
      </trkpt>
      <trkpt lat="42.77362" lon="1.51398">
        <ele>723.52954101562</ele>
        <time>2011-03-21T10:06:40Z</time>
      </trkpt>
      <trkpt lat="42.7736" lon="1.51392">
        <ele>724.01000976562</ele>
        <time>2011-03-21T10:06:44Z</time>
      </trkpt>
      <trkpt lat="42.77356" lon="1.51386">
        <ele>725.9326171875</ele>
        <time>2011-03-21T10:06:50Z</time>
      </trkpt>
      <trkpt lat="42.77354" lon="1.51389">
        <ele>726.89404296875</ele>
        <time>2011-03-21T10:06:54Z</time>
      </trkpt>
      <trkpt lat="42.77355" lon="1.51396">
        <ele>727.37475585938</ele>
        <time>2011-03-21T10:06:59Z</time>
      </trkpt>
      <trkpt lat="42.77356" lon="1.51409">
        <ele>728.81665039062</ele>
        <time>2011-03-21T10:07:08Z</time>
      </trkpt>
      <trkpt lat="42.77356" lon="1.51412">
        <ele>728.81665039062</ele>
        <time>2011-03-21T10:07:10Z</time>
      </trkpt>
      <trkpt lat="42.77356" lon="1.51424">
        <ele>729.29711914062</ele>
        <time>2011-03-21T10:07:17Z</time>
      </trkpt>
      <trkpt lat="42.77354" lon="1.51438">
        <ele>731.21997070312</ele>
        <time>2011-03-21T10:07:25Z</time>
      </trkpt>
      <trkpt lat="42.77354" lon="1.51439">
        <ele>731.21997070312</ele>
        <time>2011-03-21T10:07:26Z</time>
      </trkpt>
      <trkpt lat="42.77352" lon="1.51447">
        <ele>733.62329101562</ele>
        <time>2011-03-21T10:07:32Z</time>
      </trkpt>
      <trkpt lat="42.77349" lon="1.51452">
        <ele>736.98779296875</ele>
        <time>2011-03-21T10:07:38Z</time>
      </trkpt>
      <trkpt lat="42.77348" lon="1.51458">
        <ele>738.42993164062</ele>
        <time>2011-03-21T10:07:43Z</time>
      </trkpt>
      <trkpt lat="42.77349" lon="1.51464">
        <ele>739.39111328125</ele>
        <time>2011-03-21T10:07:49Z</time>
      </trkpt>
      <trkpt lat="42.77347" lon="1.51462">
        <ele>739.39111328125</ele>
        <time>2011-03-21T10:07:54Z</time>
      </trkpt>
      <trkpt lat="42.77346" lon="1.51459">
        <ele>739.87182617188</ele>
        <time>2011-03-21T10:07:56Z</time>
      </trkpt>
      <trkpt lat="42.77347" lon="1.51448">
        <ele>740.3525390625</ele>
        <time>2011-03-21T10:08:02Z</time>
      </trkpt>
      <trkpt lat="42.77345" lon="1.51445">
        <ele>738.91064453125</ele>
        <time>2011-03-21T10:08:04Z</time>
      </trkpt>
      <trkpt lat="42.77344" lon="1.51442">
        <ele>737.94921875</ele>
        <time>2011-03-21T10:08:06Z</time>
      </trkpt>
      <trkpt lat="42.77343" lon="1.5144">
        <ele>737.46850585938</ele>
        <time>2011-03-21T10:08:08Z</time>
      </trkpt>
      <trkpt lat="42.77341" lon="1.51431">
        <ele>736.50732421875</ele>
        <time>2011-03-21T10:08:14Z</time>
      </trkpt>
      <trkpt lat="42.77338" lon="1.51424">
        <ele>737.46850585938</ele>
        <time>2011-03-21T10:08:19Z</time>
      </trkpt>
      <trkpt lat="42.77335" lon="1.51415">
        <ele>736.98779296875</ele>
        <time>2011-03-21T10:08:25Z</time>
      </trkpt>
      <trkpt lat="42.77333" lon="1.51406">
        <ele>739.39111328125</ele>
        <time>2011-03-21T10:08:31Z</time>
      </trkpt>
      <trkpt lat="42.77332" lon="1.51403">
        <ele>741.79443359375</ele>
        <time>2011-03-21T10:08:34Z</time>
      </trkpt>
      <trkpt lat="42.77328" lon="1.51399">
        <ele>745.15893554688</ele>
        <time>2011-03-21T10:08:40Z</time>
      </trkpt>
      <trkpt lat="42.77329" lon="1.51401">
        <ele>746.60107421875</ele>
        <time>2011-03-21T10:08:42Z</time>
      </trkpt>
      <trkpt lat="42.77332" lon="1.51409">
        <ele>748.52368164062</ele>
        <time>2011-03-21T10:08:48Z</time>
      </trkpt>
      <trkpt lat="42.77332" lon="1.51417">
        <ele>749.9658203125</ele>
        <time>2011-03-21T10:08:55Z</time>
      </trkpt>
      <trkpt lat="42.77331" lon="1.51425">
        <ele>749.48510742188</ele>
        <time>2011-03-21T10:09:00Z</time>
      </trkpt>
      <trkpt lat="42.77331" lon="1.51431">
        <ele>751.40771484375</ele>
        <time>2011-03-21T10:09:05Z</time>
      </trkpt>
      <trkpt lat="42.77332" lon="1.51438">
        <ele>752.36889648438</ele>
        <time>2011-03-21T10:09:10Z</time>
      </trkpt>
      <trkpt lat="42.77333" lon="1.51445">
        <ele>753.33032226562</ele>
        <time>2011-03-21T10:09:15Z</time>
      </trkpt>
      <trkpt lat="42.77333" lon="1.51445">
        <ele>753.81103515625</ele>
        <time>2011-03-21T10:09:16Z</time>
      </trkpt>
      <trkpt lat="42.77331" lon="1.51448">
        <ele>755.2529296875</ele>
        <time>2011-03-21T10:09:40Z</time>
      </trkpt>
      <trkpt lat="42.77331" lon="1.51449">
        <ele>755.2529296875</ele>
        <time>2011-03-21T10:09:41Z</time>
      </trkpt>
      <trkpt lat="42.77327" lon="1.51448">
        <ele>755.2529296875</ele>
        <time>2011-03-21T10:09:44Z</time>
      </trkpt>
      <trkpt lat="42.77323" lon="1.51445">
        <ele>754.29174804688</ele>
        <time>2011-03-21T10:09:48Z</time>
      </trkpt>
      <trkpt lat="42.77319" lon="1.51437">
        <ele>752.849609375</ele>
        <time>2011-03-21T10:09:53Z</time>
      </trkpt>
      <trkpt lat="42.77317" lon="1.51434">
        <ele>752.36889648438</ele>
        <time>2011-03-21T10:09:55Z</time>
      </trkpt>
      <trkpt lat="42.77317" lon="1.51433">
        <ele>756.69482421875</ele>
        <time>2011-03-21T10:10:01Z</time>
      </trkpt>
      <trkpt lat="42.77317" lon="1.5144">
        <ele>758.61743164062</ele>
        <time>2011-03-21T10:10:07Z</time>
      </trkpt>
      <trkpt lat="42.77316" lon="1.51445">
        <ele>759.57885742188</ele>
        <time>2011-03-21T10:10:11Z</time>
      </trkpt>
      <trkpt lat="42.77318" lon="1.51452">
        <ele>761.50146484375</ele>
        <time>2011-03-21T10:10:17Z</time>
      </trkpt>
      <trkpt lat="42.7732" lon="1.51458">
        <ele>763.42407226562</ele>
        <time>2011-03-21T10:10:22Z</time>
      </trkpt>
      <trkpt lat="42.77319" lon="1.51464">
        <ele>764.8662109375</ele>
        <time>2011-03-21T10:10:27Z</time>
      </trkpt>
      <trkpt lat="42.77316" lon="1.51464">
        <ele>766.30810546875</ele>
        <time>2011-03-21T10:10:32Z</time>
      </trkpt>
      <trkpt lat="42.77312" lon="1.51461">
        <ele>765.82763671875</ele>
        <time>2011-03-21T10:10:37Z</time>
      </trkpt>
      <trkpt lat="42.77309" lon="1.51457">
        <ele>764.8662109375</ele>
        <time>2011-03-21T10:10:41Z</time>
      </trkpt>
      <trkpt lat="42.77309" lon="1.51455">
        <ele>764.38549804688</ele>
        <time>2011-03-21T10:10:42Z</time>
      </trkpt>
      <trkpt lat="42.77306" lon="1.51449">
        <ele>765.82763671875</ele>
        <time>2011-03-21T10:10:47Z</time>
      </trkpt>
      <trkpt lat="42.77304" lon="1.51449">
        <ele>766.78881835938</ele>
        <time>2011-03-21T10:10:49Z</time>
      </trkpt>
      <trkpt lat="42.77303" lon="1.51453">
        <ele>769.6728515625</ele>
        <time>2011-03-21T10:10:54Z</time>
      </trkpt>
      <trkpt lat="42.77305" lon="1.5146">
        <ele>772.07592773438</ele>
        <time>2011-03-21T10:11:00Z</time>
      </trkpt>
      <trkpt lat="42.77306" lon="1.51468">
        <ele>772.07592773438</ele>
        <time>2011-03-21T10:11:06Z</time>
      </trkpt>
      <trkpt lat="42.77308" lon="1.51475">
        <ele>773.03735351562</ele>
        <time>2011-03-21T10:11:12Z</time>
      </trkpt>
      <trkpt lat="42.77311" lon="1.5148">
        <ele>773.99853515625</ele>
        <time>2011-03-21T10:11:17Z</time>
      </trkpt>
      <trkpt lat="42.77314" lon="1.51489">
        <ele>776.40185546875</ele>
        <time>2011-03-21T10:11:25Z</time>
      </trkpt>
      <trkpt lat="42.77316" lon="1.51492">
        <ele>780.72802734375</ele>
        <time>2011-03-21T10:11:30Z</time>
      </trkpt>
      <trkpt lat="42.77315" lon="1.51489">
        <ele>790.34106445312</ele>
        <time>2011-03-21T10:12:29Z</time>
      </trkpt>
      <trkpt lat="42.77315" lon="1.51489">
        <ele>790.34106445312</ele>
        <time>2011-03-21T10:12:30Z</time>
      </trkpt>
      <trkpt lat="42.77311" lon="1.51488">
        <ele>791.30224609375</ele>
        <time>2011-03-21T10:12:34Z</time>
      </trkpt>
      <trkpt lat="42.77306" lon="1.51485">
        <ele>791.78295898438</ele>
        <time>2011-03-21T10:12:39Z</time>
      </trkpt>
      <trkpt lat="42.77304" lon="1.51484">
        <ele>791.30224609375</ele>
        <time>2011-03-21T10:12:41Z</time>
      </trkpt>
      <trkpt lat="42.77299" lon="1.51479">
        <ele>791.30224609375</ele>
        <time>2011-03-21T10:12:47Z</time>
      </trkpt>
      <trkpt lat="42.77296" lon="1.51476">
        <ele>791.78295898438</ele>
        <time>2011-03-21T10:12:50Z</time>
      </trkpt>
      <trkpt lat="42.77294" lon="1.51473">
        <ele>791.78295898438</ele>
        <time>2011-03-21T10:12:53Z</time>
      </trkpt>
      <trkpt lat="42.77292" lon="1.5147">
        <ele>790.34106445312</ele>
        <time>2011-03-21T10:12:56Z</time>
      </trkpt>
      <trkpt lat="42.7729" lon="1.51464">
        <ele>790.34106445312</ele>
        <time>2011-03-21T10:13:00Z</time>
      </trkpt>
      <trkpt lat="42.77288" lon="1.51456">
        <ele>785.53442382812</ele>
        <time>2011-03-21T10:13:07Z</time>
      </trkpt>
      <trkpt lat="42.77289" lon="1.51454">
        <ele>788.89916992188</ele>
        <time>2011-03-21T10:13:10Z</time>
      </trkpt>
      <trkpt lat="42.7729" lon="1.5146">
        <ele>795.1474609375</ele>
        <time>2011-03-21T10:13:15Z</time>
      </trkpt>
      <trkpt lat="42.77291" lon="1.51467">
        <ele>800.91552734375</ele>
        <time>2011-03-21T10:13:21Z</time>
      </trkpt>
      <trkpt lat="42.77291" lon="1.51476">
        <ele>804.7607421875</ele>
        <time>2011-03-21T10:13:26Z</time>
      </trkpt>
      <trkpt lat="42.77292" lon="1.51482">
        <ele>804.7607421875</ele>
        <time>2011-03-21T10:13:31Z</time>
      </trkpt>
      <trkpt lat="42.77292" lon="1.51489">
        <ele>802.83813476562</ele>
        <time>2011-03-21T10:13:37Z</time>
      </trkpt>
      <trkpt lat="42.77293" lon="1.51495">
        <ele>802.83813476562</ele>
        <time>2011-03-21T10:13:42Z</time>
      </trkpt>
      <trkpt lat="42.77295" lon="1.51501">
        <ele>803.31884765625</ele>
        <time>2011-03-21T10:13:47Z</time>
      </trkpt>
      <trkpt lat="42.77299" lon="1.51509">
        <ele>804.2802734375</ele>
        <time>2011-03-21T10:13:54Z</time>
      </trkpt>
      <trkpt lat="42.77301" lon="1.5151">
        <ele>805.72216796875</ele>
        <time>2011-03-21T10:13:56Z</time>
      </trkpt>
      <trkpt lat="42.77301" lon="1.51513">
        <ele>812.93212890625</ele>
        <time>2011-03-21T10:14:01Z</time>
      </trkpt>
      <trkpt lat="42.77301" lon="1.5151">
        <ele>818.69995117188</ele>
        <time>2011-03-21T10:14:03Z</time>
      </trkpt>
      <trkpt lat="42.77299" lon="1.51495">
        <ele>835.04248046875</ele>
        <time>2011-03-21T10:14:11Z</time>
      </trkpt>
      <trkpt lat="42.77295" lon="1.51493">
        <ele>832.15844726562</ele>
        <time>2011-03-21T10:14:15Z</time>
      </trkpt>
      <trkpt lat="42.77288" lon="1.51488">
        <ele>829.75512695312</ele>
        <time>2011-03-21T10:14:22Z</time>
      </trkpt>
      <trkpt lat="42.77282" lon="1.51484">
        <ele>824.94848632812</ele>
        <time>2011-03-21T10:14:28Z</time>
      </trkpt>
      <trkpt lat="42.77277" lon="1.51485">
        <ele>823.50659179688</ele>
        <time>2011-03-21T10:14:34Z</time>
      </trkpt>
      <trkpt lat="42.77279" lon="1.51494">
        <ele>823.02587890625</ele>
        <time>2011-03-21T10:14:41Z</time>
      </trkpt>
      <trkpt lat="42.77281" lon="1.51499">
        <ele>823.98706054688</ele>
        <time>2011-03-21T10:14:46Z</time>
      </trkpt>
      <trkpt lat="42.77282" lon="1.51506">
        <ele>824.94848632812</ele>
        <time>2011-03-21T10:14:51Z</time>
      </trkpt>
      <trkpt lat="42.77284" lon="1.51509">
        <ele>826.39038085938</ele>
        <time>2011-03-21T10:14:54Z</time>
      </trkpt>
      <trkpt lat="42.77291" lon="1.51523">
        <ele>826.87109375</ele>
        <time>2011-03-21T10:15:04Z</time>
      </trkpt>
      <trkpt lat="42.77295" lon="1.51528">
        <ele>827.83227539062</ele>
        <time>2011-03-21T10:15:10Z</time>
      </trkpt>
      <trkpt lat="42.77297" lon="1.51531">
        <ele>829.75512695312</ele>
        <time>2011-03-21T10:15:12Z</time>
      </trkpt>
      <trkpt lat="42.77296" lon="1.5154">
        <ele>826.87109375</ele>
        <time>2011-03-21T10:15:19Z</time>
      </trkpt>
      <trkpt lat="42.77296" lon="1.51545">
        <ele>825.90966796875</ele>
        <time>2011-03-21T10:15:24Z</time>
      </trkpt>
      <trkpt lat="42.77295" lon="1.51552">
        <ele>824.4677734375</ele>
        <time>2011-03-21T10:15:30Z</time>
      </trkpt>
      <trkpt lat="42.77291" lon="1.5156">
        <ele>836.96484375</ele>
        <time>2011-03-21T10:16:02Z</time>
      </trkpt>
      <trkpt lat="42.7729" lon="1.5156">
        <ele>837.44555664062</ele>
        <time>2011-03-21T10:16:03Z</time>
      </trkpt>
      <trkpt lat="42.77287" lon="1.51563">
        <ele>838.40698242188</ele>
        <time>2011-03-21T10:16:05Z</time>
      </trkpt>
      <trkpt lat="42.77282" lon="1.51571">
        <ele>837.92626953125</ele>
        <time>2011-03-21T10:16:14Z</time>
      </trkpt>
      <trkpt lat="42.77277" lon="1.51573">
        <ele>835.52294921875</ele>
        <time>2011-03-21T10:16:21Z</time>
      </trkpt>
      <trkpt lat="42.77273" lon="1.5158">
        <ele>836.96484375</ele>
        <time>2011-03-21T10:16:29Z</time>
      </trkpt>
      <trkpt lat="42.77267" lon="1.51584">
        <ele>839.84887695312</ele>
        <time>2011-03-21T10:16:37Z</time>
      </trkpt>
      <trkpt lat="42.77271" lon="1.51589">
        <ele>839.3681640625</ele>
        <time>2011-03-21T10:16:42Z</time>
      </trkpt>
      <trkpt lat="42.77276" lon="1.51594">
        <ele>841.29077148438</ele>
        <time>2011-03-21T10:16:48Z</time>
      </trkpt>
      <trkpt lat="42.77282" lon="1.51595">
        <ele>839.3681640625</ele>
        <time>2011-03-21T10:16:56Z</time>
      </trkpt>
      <trkpt lat="42.77285" lon="1.51596">
        <ele>838.8876953125</ele>
        <time>2011-03-21T10:17:01Z</time>
      </trkpt>
      <trkpt lat="42.77294" lon="1.51599">
        <ele>835.04248046875</ele>
        <time>2011-03-21T10:17:08Z</time>
      </trkpt>
      <trkpt lat="42.77299" lon="1.51601">
        <ele>834.0810546875</ele>
        <time>2011-03-21T10:17:12Z</time>
      </trkpt>
      <trkpt lat="42.77308" lon="1.51601">
        <ele>836.96484375</ele>
        <time>2011-03-21T10:17:19Z</time>
      </trkpt>
      <trkpt lat="42.77315" lon="1.516">
        <ele>838.8876953125</ele>
        <time>2011-03-21T10:17:25Z</time>
      </trkpt>
      <trkpt lat="42.7732" lon="1.51606">
        <ele>843.69409179688</ele>
        <time>2011-03-21T10:17:32Z</time>
      </trkpt>
      <trkpt lat="42.77318" lon="1.51612">
        <ele>843.69409179688</ele>
        <time>2011-03-21T10:17:36Z</time>
      </trkpt>
      <trkpt lat="42.77317" lon="1.51616">
        <ele>843.21337890625</ele>
        <time>2011-03-21T10:17:39Z</time>
      </trkpt>
      <trkpt lat="42.77314" lon="1.51624">
        <ele>843.21337890625</ele>
        <time>2011-03-21T10:17:46Z</time>
      </trkpt>
      <trkpt lat="42.77309" lon="1.51632">
        <ele>844.65551757812</ele>
        <time>2011-03-21T10:17:52Z</time>
      </trkpt>
      <trkpt lat="42.77309" lon="1.51633">
        <ele>844.65551757812</ele>
        <time>2011-03-21T10:17:53Z</time>
      </trkpt>
      <trkpt lat="42.77304" lon="1.51641">
        <ele>846.57836914062</ele>
        <time>2011-03-21T10:18:00Z</time>
      </trkpt>
      <trkpt lat="42.77302" lon="1.51648">
        <ele>847.53955078125</ele>
        <time>2011-03-21T10:18:06Z</time>
      </trkpt>
      <trkpt lat="42.773" lon="1.51652">
        <ele>848.50073242188</ele>
        <time>2011-03-21T10:18:09Z</time>
      </trkpt>
      <trkpt lat="42.77296" lon="1.51659">
        <ele>849.94287109375</ele>
        <time>2011-03-21T10:18:16Z</time>
      </trkpt>
      <trkpt lat="42.77291" lon="1.51668">
        <ele>850.42358398438</ele>
        <time>2011-03-21T10:18:23Z</time>
      </trkpt>
      <trkpt lat="42.77286" lon="1.51678">
        <ele>852.34594726562</ele>
        <time>2011-03-21T10:18:30Z</time>
      </trkpt>
      <trkpt lat="42.77283" lon="1.51684">
        <ele>854.26879882812</ele>
        <time>2011-03-21T10:18:35Z</time>
      </trkpt>
      <trkpt lat="42.7728" lon="1.51694">
        <ele>856.19116210938</ele>
        <time>2011-03-21T10:18:41Z</time>
      </trkpt>
      <trkpt lat="42.7728" lon="1.51697">
        <ele>857.63330078125</ele>
        <time>2011-03-21T10:18:43Z</time>
      </trkpt>
      <trkpt lat="42.77279" lon="1.51699">
        <ele>859.55590820312</ele>
        <time>2011-03-21T10:18:46Z</time>
      </trkpt>
      <trkpt lat="42.77273" lon="1.51701">
        <ele>861.47875976562</ele>
        <time>2011-03-21T10:18:52Z</time>
      </trkpt>
      <trkpt lat="42.77267" lon="1.51695">
        <ele>861.47875976562</ele>
        <time>2011-03-21T10:18:58Z</time>
      </trkpt>
      <trkpt lat="42.77267" lon="1.51694">
        <ele>862.43994140625</ele>
        <time>2011-03-21T10:18:59Z</time>
      </trkpt>
      <trkpt lat="42.77262" lon="1.51686">
        <ele>862.92065429688</ele>
        <time>2011-03-21T10:19:07Z</time>
      </trkpt>
      <trkpt lat="42.77256" lon="1.51683">
        <ele>863.4013671875</ele>
        <time>2011-03-21T10:19:14Z</time>
      </trkpt>
      <trkpt lat="42.77253" lon="1.51683">
        <ele>861.95947265625</ele>
        <time>2011-03-21T10:19:20Z</time>
      </trkpt>
      <trkpt lat="42.77247" lon="1.51679">
        <ele>861.95947265625</ele>
        <time>2011-03-21T10:19:26Z</time>
      </trkpt>
      <trkpt lat="42.77238" lon="1.51678">
        <ele>862.92065429688</ele>
        <time>2011-03-21T10:19:33Z</time>
      </trkpt>
      <trkpt lat="42.77236" lon="1.51678">
        <ele>863.8818359375</ele>
        <time>2011-03-21T10:19:35Z</time>
      </trkpt>
      <trkpt lat="42.7723" lon="1.51681">
        <ele>868.20776367188</ele>
        <time>2011-03-21T10:19:40Z</time>
      </trkpt>
      <trkpt lat="42.77224" lon="1.51684">
        <ele>872.53369140625</ele>
        <time>2011-03-21T10:19:46Z</time>
      </trkpt>
      <trkpt lat="42.7722" lon="1.51685">
        <ele>873.9755859375</ele>
        <time>2011-03-21T10:19:49Z</time>
      </trkpt>
      <trkpt lat="42.77216" lon="1.51687">
        <ele>876.37915039062</ele>
        <time>2011-03-21T10:19:53Z</time>
      </trkpt>
      <trkpt lat="42.7721" lon="1.51687">
        <ele>877.82104492188</ele>
        <time>2011-03-21T10:19:59Z</time>
      </trkpt>
      <trkpt lat="42.77202" lon="1.51687">
        <ele>879.26293945312</ele>
        <time>2011-03-21T10:20:04Z</time>
      </trkpt>
      <trkpt lat="42.772" lon="1.51685">
        <ele>880.705078125</ele>
        <time>2011-03-21T10:20:07Z</time>
      </trkpt>
      <trkpt lat="42.77192" lon="1.51683">
        <ele>881.66625976562</ele>
        <time>2011-03-21T10:20:14Z</time>
      </trkpt>
      <trkpt lat="42.77186" lon="1.51682">
        <ele>882.62768554688</ele>
        <time>2011-03-21T10:20:19Z</time>
      </trkpt>
      <trkpt lat="42.7718" lon="1.51681">
        <ele>885.03100585938</ele>
        <time>2011-03-21T10:20:23Z</time>
      </trkpt>
      <trkpt lat="42.77172" lon="1.51678">
        <ele>889.35668945312</ele>
        <time>2011-03-21T10:20:30Z</time>
      </trkpt>
      <trkpt lat="42.77167" lon="1.51677">
        <ele>888.3955078125</ele>
        <time>2011-03-21T10:20:35Z</time>
      </trkpt>
      <trkpt lat="42.7716" lon="1.51677">
        <ele>887.43408203125</ele>
        <time>2011-03-21T10:20:41Z</time>
      </trkpt>
      <trkpt lat="42.77155" lon="1.51676">
        <ele>888.87622070312</ele>
        <time>2011-03-21T10:20:45Z</time>
      </trkpt>
      <trkpt lat="42.77147" lon="1.51676">
        <ele>895.12475585938</ele>
        <time>2011-03-21T10:20:51Z</time>
      </trkpt>
      <trkpt lat="42.77143" lon="1.51675">
        <ele>895.60546875</ele>
        <time>2011-03-21T10:20:55Z</time>
      </trkpt>
      <trkpt lat="42.77136" lon="1.51675">
        <ele>899.45068359375</ele>
        <time>2011-03-21T10:21:01Z</time>
      </trkpt>
      <trkpt lat="42.77133" lon="1.51675">
        <ele>899.45068359375</ele>
        <time>2011-03-21T10:21:03Z</time>
      </trkpt>
      <trkpt lat="42.77125" lon="1.51675">
        <ele>904.25732421875</ele>
        <time>2011-03-21T10:21:10Z</time>
      </trkpt>
      <trkpt lat="42.77117" lon="1.51676">
        <ele>908.58325195312</ele>
        <time>2011-03-21T10:21:16Z</time>
      </trkpt>
      <trkpt lat="42.77115" lon="1.51677">
        <ele>909.06396484375</ele>
        <time>2011-03-21T10:21:17Z</time>
      </trkpt>
      <trkpt lat="42.77106" lon="1.51678">
        <ele>914.35107421875</ele>
        <time>2011-03-21T10:21:23Z</time>
      </trkpt>
      <trkpt lat="42.77103" lon="1.51678">
        <ele>915.79321289062</ele>
        <time>2011-03-21T10:21:26Z</time>
      </trkpt>
      <trkpt lat="42.77095" lon="1.51684">
        <ele>910.98657226562</ele>
        <time>2011-03-21T10:21:33Z</time>
      </trkpt>
      <trkpt lat="42.77089" lon="1.51688">
        <ele>910.505859375</ele>
        <time>2011-03-21T10:21:38Z</time>
      </trkpt>
      <trkpt lat="42.77085" lon="1.51692">
        <ele>908.58325195312</ele>
        <time>2011-03-21T10:21:43Z</time>
      </trkpt>
      <trkpt lat="42.77079" lon="1.51697">
        <ele>906.66040039062</ele>
        <time>2011-03-21T10:21:48Z</time>
      </trkpt>
      <trkpt lat="42.77072" lon="1.51706">
        <ele>906.1796875</ele>
        <time>2011-03-21T10:21:56Z</time>
      </trkpt>
      <trkpt lat="42.77065" lon="1.51712">
        <ele>906.66040039062</ele>
        <time>2011-03-21T10:22:03Z</time>
      </trkpt>
      <trkpt lat="42.77065" lon="1.51713">
        <ele>906.66040039062</ele>
        <time>2011-03-21T10:22:04Z</time>
      </trkpt>
      <trkpt lat="42.77063" lon="1.51715">
        <ele>907.14111328125</ele>
        <time>2011-03-21T10:22:06Z</time>
      </trkpt>
      <trkpt lat="42.77052" lon="1.51725">
        <ele>906.1796875</ele>
        <time>2011-03-21T10:22:15Z</time>
      </trkpt>
      <trkpt lat="42.77051" lon="1.51727">
        <ele>905.69921875</ele>
        <time>2011-03-21T10:22:16Z</time>
      </trkpt>
      <trkpt lat="42.77047" lon="1.51734">
        <ele>905.21850585938</ele>
        <time>2011-03-21T10:22:21Z</time>
      </trkpt>
      <trkpt lat="42.77045" lon="1.51742">
        <ele>904.73779296875</ele>
        <time>2011-03-21T10:22:27Z</time>
      </trkpt>
      <trkpt lat="42.77041" lon="1.51745">
        <ele>905.21850585938</ele>
        <time>2011-03-21T10:22:34Z</time>
      </trkpt>
      <trkpt lat="42.77037" lon="1.51738">
        <ele>905.69921875</ele>
        <time>2011-03-21T10:22:39Z</time>
      </trkpt>
      <trkpt lat="42.77033" lon="1.51731">
        <ele>908.10278320312</ele>
        <time>2011-03-21T10:22:44Z</time>
      </trkpt>
      <trkpt lat="42.77031" lon="1.51725">
        <ele>905.69921875</ele>
        <time>2011-03-21T10:22:49Z</time>
      </trkpt>
      <trkpt lat="42.77029" lon="1.51715">
        <ele>908.58325195312</ele>
        <time>2011-03-21T10:22:56Z</time>
      </trkpt>
      <trkpt lat="42.77025" lon="1.51711">
        <ele>910.98657226562</ele>
        <time>2011-03-21T10:23:01Z</time>
      </trkpt>
      <trkpt lat="42.77024" lon="1.51712">
        <ele>911.94799804688</ele>
        <time>2011-03-21T10:23:02Z</time>
      </trkpt>
      <trkpt lat="42.7702" lon="1.51718">
        <ele>916.27368164062</ele>
        <time>2011-03-21T10:23:08Z</time>
      </trkpt>
      <trkpt lat="42.77016" lon="1.51724">
        <ele>917.71557617188</ele>
        <time>2011-03-21T10:23:14Z</time>
      </trkpt>
      <trkpt lat="42.77015" lon="1.5173">
        <ele>918.1962890625</ele>
        <time>2011-03-21T10:23:19Z</time>
      </trkpt>
      <trkpt lat="42.77015" lon="1.51735">
        <ele>921.08032226562</ele>
        <time>2011-03-21T10:23:24Z</time>
      </trkpt>
      <trkpt lat="42.7701" lon="1.51759">
        <ele>920.599609375</ele>
        <time>2011-03-21T10:24:11Z</time>
      </trkpt>
      <trkpt lat="42.7701" lon="1.51758">
        <ele>920.11889648438</ele>
        <time>2011-03-21T10:24:12Z</time>
      </trkpt>
      <trkpt lat="42.7701" lon="1.51741">
        <ele>922.04150390625</ele>
        <time>2011-03-21T10:24:19Z</time>
      </trkpt>
      <trkpt lat="42.77011" lon="1.51739">
        <ele>922.04150390625</ele>
        <time>2011-03-21T10:24:20Z</time>
      </trkpt>
      <trkpt lat="42.77009" lon="1.51735">
        <ele>922.04150390625</ele>
        <time>2011-03-21T10:24:25Z</time>
      </trkpt>
      <trkpt lat="42.77008" lon="1.51737">
        <ele>923.0029296875</ele>
        <time>2011-03-21T10:24:28Z</time>
      </trkpt>
      <trkpt lat="42.77006" lon="1.51744">
        <ele>925.88696289062</ele>
        <time>2011-03-21T10:24:35Z</time>
      </trkpt>
      <trkpt lat="42.77003" lon="1.51746">
        <ele>926.36767578125</ele>
        <time>2011-03-21T10:24:37Z</time>
      </trkpt>
      <trkpt lat="42.76994" lon="1.51754">
        <ele>927.3291015625</ele>
        <time>2011-03-21T10:24:45Z</time>
      </trkpt>
      <trkpt lat="42.76991" lon="1.51754">
        <ele>925.88696289062</ele>
        <time>2011-03-21T10:24:49Z</time>
      </trkpt>
      <trkpt lat="42.76985" lon="1.51756">
        <ele>926.36767578125</ele>
        <time>2011-03-21T10:24:55Z</time>
      </trkpt>
      <trkpt lat="42.76981" lon="1.5176">
        <ele>927.8095703125</ele>
        <time>2011-03-21T10:24:59Z</time>
      </trkpt>
      <trkpt lat="42.76971" lon="1.51763">
        <ele>930.212890625</ele>
        <time>2011-03-21T10:25:06Z</time>
      </trkpt>
      <trkpt lat="42.76969" lon="1.51763">
        <ele>929.25146484375</ele>
        <time>2011-03-21T10:25:09Z</time>
      </trkpt>
      <trkpt lat="42.76959" lon="1.51765">
        <ele>928.77099609375</ele>
        <time>2011-03-21T10:25:19Z</time>
      </trkpt>
      <trkpt lat="42.76958" lon="1.51765">
        <ele>929.25146484375</ele>
        <time>2011-03-21T10:25:20Z</time>
      </trkpt>
      <trkpt lat="42.76952" lon="1.5177">
        <ele>931.65478515625</ele>
        <time>2011-03-21T10:25:25Z</time>
      </trkpt>
      <trkpt lat="42.76941" lon="1.5177">
        <ele>937.42260742188</ele>
        <time>2011-03-21T10:25:35Z</time>
      </trkpt>
      <trkpt lat="42.76936" lon="1.51773">
        <ele>940.30688476562</ele>
        <time>2011-03-21T10:25:40Z</time>
      </trkpt>
      <trkpt lat="42.76936" lon="1.51777">
        <ele>941.26806640625</ele>
        <time>2011-03-21T10:25:45Z</time>
      </trkpt>
      <trkpt lat="42.76938" lon="1.5178">
        <ele>944.63256835938</ele>
        <time>2011-03-21T10:25:51Z</time>
      </trkpt>
      <trkpt lat="42.76943" lon="1.51783">
        <ele>947.5166015625</ele>
        <time>2011-03-21T10:25:57Z</time>
      </trkpt>
      <trkpt lat="42.76942" lon="1.51789">
        <ele>950.40063476562</ele>
        <time>2011-03-21T10:26:04Z</time>
      </trkpt>
      <trkpt lat="42.7694" lon="1.51789">
        <ele>951.36181640625</ele>
        <time>2011-03-21T10:26:12Z</time>
      </trkpt>
      <trkpt lat="42.76935" lon="1.51794">
        <ele>950.88110351562</ele>
        <time>2011-03-21T10:26:19Z</time>
      </trkpt>
      <trkpt lat="42.76929" lon="1.51799">
        <ele>951.36181640625</ele>
        <time>2011-03-21T10:26:25Z</time>
      </trkpt>
      <trkpt lat="42.76922" lon="1.51802">
        <ele>951.36181640625</ele>
        <time>2011-03-21T10:26:32Z</time>
      </trkpt>
      <trkpt lat="42.76916" lon="1.51805">
        <ele>951.84252929688</ele>
        <time>2011-03-21T10:26:38Z</time>
      </trkpt>
      <trkpt lat="42.76915" lon="1.51805">
        <ele>951.84252929688</ele>
        <time>2011-03-21T10:26:39Z</time>
      </trkpt>
      <trkpt lat="42.76907" lon="1.51811">
        <ele>951.36181640625</ele>
        <time>2011-03-21T10:26:47Z</time>
      </trkpt>
      <trkpt lat="42.76902" lon="1.51814">
        <ele>951.36181640625</ele>
        <time>2011-03-21T10:26:52Z</time>
      </trkpt>
      <trkpt lat="42.76902" lon="1.51814">
        <ele>951.36181640625</ele>
        <time>2011-03-21T10:26:53Z</time>
      </trkpt>
      <trkpt lat="42.76894" lon="1.51817">
        <ele>950.40063476562</ele>
        <time>2011-03-21T10:27:00Z</time>
      </trkpt>
      <trkpt lat="42.76892" lon="1.51818">
        <ele>952.32299804688</ele>
        <time>2011-03-21T10:27:02Z</time>
      </trkpt>
      <trkpt lat="42.76888" lon="1.51821">
        <ele>953.76513671875</ele>
        <time>2011-03-21T10:27:06Z</time>
      </trkpt>
      <trkpt lat="42.76886" lon="1.51822">
        <ele>953.28442382812</ele>
        <time>2011-03-21T10:27:08Z</time>
      </trkpt>
      <trkpt lat="42.76878" lon="1.51828">
        <ele>955.20703125</ele>
        <time>2011-03-21T10:27:15Z</time>
      </trkpt>
      <trkpt lat="42.76876" lon="1.51829">
        <ele>955.68774414062</ele>
        <time>2011-03-21T10:27:17Z</time>
      </trkpt>
      <trkpt lat="42.76869" lon="1.51835">
        <ele>956.16845703125</ele>
        <time>2011-03-21T10:27:25Z</time>
      </trkpt>
      <trkpt lat="42.76868" lon="1.51836">
        <ele>956.16845703125</ele>
        <time>2011-03-21T10:27:26Z</time>
      </trkpt>
      <trkpt lat="42.76864" lon="1.5184">
        <ele>957.61059570312</ele>
        <time>2011-03-21T10:27:30Z</time>
      </trkpt>
      <trkpt lat="42.76862" lon="1.51842">
        <ele>958.09130859375</ele>
        <time>2011-03-21T10:27:32Z</time>
      </trkpt>
      <trkpt lat="42.7686" lon="1.51845">
        <ele>958.57177734375</ele>
        <time>2011-03-21T10:27:36Z</time>
      </trkpt>
      <trkpt lat="42.76856" lon="1.51851">
        <ele>959.533203125</ele>
        <time>2011-03-21T10:27:41Z</time>
      </trkpt>
      <trkpt lat="42.7685" lon="1.5186">
        <ele>962.4169921875</ele>
        <time>2011-03-21T10:27:48Z</time>
      </trkpt>
      <trkpt lat="42.76845" lon="1.51866">
        <ele>963.37841796875</ele>
        <time>2011-03-21T10:27:54Z</time>
      </trkpt>
      <trkpt lat="42.76836" lon="1.51874">
        <ele>965.30102539062</ele>
        <time>2011-03-21T10:28:02Z</time>
      </trkpt>
      <trkpt lat="42.76834" lon="1.51876">
        <ele>966.26220703125</ele>
        <time>2011-03-21T10:28:04Z</time>
      </trkpt>
      <trkpt lat="42.76829" lon="1.51879">
        <ele>966.74291992188</ele>
        <time>2011-03-21T10:28:09Z</time>
      </trkpt>
      <trkpt lat="42.76823" lon="1.51881">
        <ele>969.14624023438</ele>
        <time>2011-03-21T10:28:16Z</time>
      </trkpt>
      <trkpt lat="42.76821" lon="1.51879">
        <ele>968.66552734375</ele>
        <time>2011-03-21T10:28:18Z</time>
      </trkpt>
      <trkpt lat="42.76813" lon="1.51874">
        <ele>971.06884765625</ele>
        <time>2011-03-21T10:28:25Z</time>
      </trkpt>
      <trkpt lat="42.76804" lon="1.5187">
        <ele>973.47241210938</ele>
        <time>2011-03-21T10:28:32Z</time>
      </trkpt>
      <trkpt lat="42.76799" lon="1.51868">
        <ele>974.91430664062</ele>
        <time>2011-03-21T10:28:37Z</time>
      </trkpt>
      <trkpt lat="42.76794" lon="1.51863">
        <ele>974.91430664062</ele>
        <time>2011-03-21T10:28:45Z</time>
      </trkpt>
      <trkpt lat="42.76793" lon="1.51861">
        <ele>973.95288085938</ele>
        <time>2011-03-21T10:28:59Z</time>
      </trkpt>
      <trkpt lat="42.76791" lon="1.51864">
        <ele>974.43359375</ele>
        <time>2011-03-21T10:29:07Z</time>
      </trkpt>
      <trkpt lat="42.76786" lon="1.51868">
        <ele>974.91430664062</ele>
        <time>2011-03-21T10:29:12Z</time>
      </trkpt>
      <trkpt lat="42.76779" lon="1.5187">
        <ele>976.35620117188</ele>
        <time>2011-03-21T10:29:19Z</time>
      </trkpt>
      <trkpt lat="42.76772" lon="1.5187">
        <ele>978.27880859375</ele>
        <time>2011-03-21T10:29:26Z</time>
      </trkpt>
      <trkpt lat="42.76773" lon="1.51878">
        <ele>979.720703125</ele>
        <time>2011-03-21T10:29:32Z</time>
      </trkpt>
      <trkpt lat="42.7678" lon="1.51885">
        <ele>977.79809570312</ele>
        <time>2011-03-21T10:29:39Z</time>
      </trkpt>
      <trkpt lat="42.76785" lon="1.51888">
        <ele>977.31762695312</ele>
        <time>2011-03-21T10:29:45Z</time>
      </trkpt>
      <trkpt lat="42.76788" lon="1.51889">
        <ele>979.23999023438</ele>
        <time>2011-03-21T10:29:56Z</time>
      </trkpt>
      <trkpt lat="42.76791" lon="1.51893">
        <ele>980.68212890625</ele>
        <time>2011-03-21T10:30:00Z</time>
      </trkpt>
      <trkpt lat="42.76792" lon="1.51895">
        <ele>980.68212890625</ele>
        <time>2011-03-21T10:30:02Z</time>
      </trkpt>
      <trkpt lat="42.76791" lon="1.5189">
        <ele>989.81469726562</ele>
        <time>2011-03-21T10:31:59Z</time>
      </trkpt>
      <trkpt lat="42.76792" lon="1.51891">
        <ele>988.37280273438</ele>
        <time>2011-03-21T10:32:00Z</time>
      </trkpt>
      <trkpt lat="42.76797" lon="1.51897">
        <ele>985.00805664062</ele>
        <time>2011-03-21T10:32:04Z</time>
      </trkpt>
      <trkpt lat="42.76798" lon="1.519">
        <ele>984.04663085938</ele>
        <time>2011-03-21T10:32:06Z</time>
      </trkpt>
      <trkpt lat="42.76803" lon="1.51904">
        <ele>984.52734375</ele>
        <time>2011-03-21T10:32:11Z</time>
      </trkpt>
      <trkpt lat="42.76806" lon="1.51905">
        <ele>983.56591796875</ele>
        <time>2011-03-21T10:32:13Z</time>
      </trkpt>
      <trkpt lat="42.76818" lon="1.51905">
        <ele>980.20141601562</ele>
        <time>2011-03-21T10:32:21Z</time>
      </trkpt>
      <trkpt lat="42.76828" lon="1.51906">
        <ele>973.95288085938</ele>
        <time>2011-03-21T10:32:28Z</time>
      </trkpt>
      <trkpt lat="42.76833" lon="1.51906">
        <ele>972.0302734375</ele>
        <time>2011-03-21T10:32:32Z</time>
      </trkpt>
      <trkpt lat="42.76836" lon="1.51909">
        <ele>971.06884765625</ele>
        <time>2011-03-21T10:32:36Z</time>
      </trkpt>
      <trkpt lat="42.76845" lon="1.51915">
        <ele>963.85888671875</ele>
        <time>2011-03-21T10:32:41Z</time>
      </trkpt>
      <trkpt lat="42.76855" lon="1.51909">
        <ele>974.91430664062</ele>
        <time>2011-03-21T10:32:48Z</time>
      </trkpt>
      <trkpt lat="42.76863" lon="1.51908">
        <ele>984.52734375</ele>
        <time>2011-03-21T10:32:53Z</time>
      </trkpt>
      <trkpt lat="42.76864" lon="1.51908">
        <ele>985.00805664062</ele>
        <time>2011-03-21T10:32:54Z</time>
      </trkpt>
      <trkpt lat="42.76869" lon="1.51914">
        <ele>985.00805664062</ele>
        <time>2011-03-21T10:33:00Z</time>
      </trkpt>
      <trkpt lat="42.76874" lon="1.51919">
        <ele>984.52734375</ele>
        <time>2011-03-21T10:33:05Z</time>
      </trkpt>
      <trkpt lat="42.76876" lon="1.51923">
        <ele>983.56591796875</ele>
        <time>2011-03-21T10:33:08Z</time>
      </trkpt>
      <trkpt lat="42.76879" lon="1.51931">
        <ele>982.60473632812</ele>
        <time>2011-03-21T10:33:14Z</time>
      </trkpt>
      <trkpt lat="42.76875" lon="1.5194">
        <ele>983.56591796875</ele>
        <time>2011-03-21T10:33:21Z</time>
      </trkpt>
      <trkpt lat="42.76867" lon="1.51945">
        <ele>984.04663085938</ele>
        <time>2011-03-21T10:33:28Z</time>
      </trkpt>
      <trkpt lat="42.76859" lon="1.51951">
        <ele>984.52734375</ele>
        <time>2011-03-21T10:33:36Z</time>
      </trkpt>
      <trkpt lat="42.76849" lon="1.51957">
        <ele>984.52734375</ele>
        <time>2011-03-21T10:33:45Z</time>
      </trkpt>
      <trkpt lat="42.76841" lon="1.5196">
        <ele>987.4111328125</ele>
        <time>2011-03-21T10:33:53Z</time>
      </trkpt>
      <trkpt lat="42.76839" lon="1.51961">
        <ele>987.89184570312</ele>
        <time>2011-03-21T10:33:54Z</time>
      </trkpt>
      <trkpt lat="42.7683" lon="1.51961">
        <ele>992.21801757812</ele>
        <time>2011-03-21T10:34:03Z</time>
      </trkpt>
      <trkpt lat="42.7682" lon="1.51965">
        <ele>993.65991210938</ele>
        <time>2011-03-21T10:34:12Z</time>
      </trkpt>
      <trkpt lat="42.76818" lon="1.51966">
        <ele>993.65991210938</ele>
        <time>2011-03-21T10:34:13Z</time>
      </trkpt>
      <trkpt lat="42.76814" lon="1.51965">
        <ele>997.0244140625</ele>
        <time>2011-03-21T10:34:17Z</time>
      </trkpt>
      <trkpt lat="42.76807" lon="1.51967">
        <ele>998.94702148438</ele>
        <time>2011-03-21T10:34:23Z</time>
      </trkpt>
      <trkpt lat="42.76799" lon="1.51969">
        <ele>998.46630859375</ele>
        <time>2011-03-21T10:34:29Z</time>
      </trkpt>
      <trkpt lat="42.76794" lon="1.51972">
        <ele>997.98583984375</ele>
        <time>2011-03-21T10:34:34Z</time>
      </trkpt>
      <trkpt lat="42.76788" lon="1.51974">
        <ele>999.90844726562</ele>
        <time>2011-03-21T10:34:42Z</time>
      </trkpt>
      <trkpt lat="42.76781" lon="1.51976">
        <ele>1000.8696289062</ele>
        <time>2011-03-21T10:34:48Z</time>
      </trkpt>
      <trkpt lat="42.76773" lon="1.51978">
        <ele>1001.8310546875</ele>
        <time>2011-03-21T10:34:54Z</time>
      </trkpt>
      <trkpt lat="42.76765" lon="1.51979">
        <ele>1005.6765136719</ele>
        <time>2011-03-21T10:35:01Z</time>
      </trkpt>
      <trkpt lat="42.76763" lon="1.51979">
        <ele>1006.6376953125</ele>
        <time>2011-03-21T10:35:05Z</time>
      </trkpt>
      <trkpt lat="42.76756" lon="1.51981">
        <ele>1004.2346191406</ele>
        <time>2011-03-21T10:35:11Z</time>
      </trkpt>
      <trkpt lat="42.76754" lon="1.51982">
        <ele>1004.2346191406</ele>
        <time>2011-03-21T10:35:12Z</time>
      </trkpt>
      <trkpt lat="42.76748" lon="1.51984">
        <ele>1004.2346191406</ele>
        <time>2011-03-21T10:35:17Z</time>
      </trkpt>
      <trkpt lat="42.76739" lon="1.51989">
        <ele>1003.7536621094</ele>
        <time>2011-03-21T10:35:26Z</time>
      </trkpt>
      <trkpt lat="42.76734" lon="1.51989">
        <ele>1003.7536621094</ele>
        <time>2011-03-21T10:35:30Z</time>
      </trkpt>
      <trkpt lat="42.76723" lon="1.51995">
        <ele>1004.7150878906</ele>
        <time>2011-03-21T10:35:40Z</time>
      </trkpt>
      <trkpt lat="42.76712" lon="1.51999">
        <ele>1008.5603027344</ele>
        <time>2011-03-21T10:35:49Z</time>
      </trkpt>
      <trkpt lat="42.76704" lon="1.52006">
        <ele>1010.4829101562</ele>
        <time>2011-03-21T10:35:57Z</time>
      </trkpt>
      <trkpt lat="42.76697" lon="1.5201">
        <ele>1011.9250488281</ele>
        <time>2011-03-21T10:36:04Z</time>
      </trkpt>
      <trkpt lat="42.7669" lon="1.52013">
        <ele>1013.3669433594</ele>
        <time>2011-03-21T10:36:10Z</time>
      </trkpt>
      <trkpt lat="42.76681" lon="1.52019">
        <ele>1014.8088378906</ele>
        <time>2011-03-21T10:36:18Z</time>
      </trkpt>
      <trkpt lat="42.76673" lon="1.52026">
        <ele>1015.2895507812</ele>
        <time>2011-03-21T10:36:26Z</time>
      </trkpt>
      <trkpt lat="42.76666" lon="1.52031">
        <ele>1016.7314453125</ele>
        <time>2011-03-21T10:36:33Z</time>
      </trkpt>
      <trkpt lat="42.76662" lon="1.52033">
        <ele>1018.1733398438</ele>
        <time>2011-03-21T10:36:36Z</time>
      </trkpt>
      <trkpt lat="42.76657" lon="1.52039">
        <ele>1019.6154785156</ele>
        <time>2011-03-21T10:36:42Z</time>
      </trkpt>
      <trkpt lat="42.76649" lon="1.52043">
        <ele>1021.5380859375</ele>
        <time>2011-03-21T10:36:49Z</time>
      </trkpt>
      <trkpt lat="42.76642" lon="1.52047">
        <ele>1024.4221191406</ele>
        <time>2011-03-21T10:36:57Z</time>
      </trkpt>
      <trkpt lat="42.7664" lon="1.52048">
        <ele>1024.9028320312</ele>
        <time>2011-03-21T10:36:59Z</time>
      </trkpt>
      <trkpt lat="42.76635" lon="1.52051">
        <ele>1025.3833007812</ele>
        <time>2011-03-21T10:37:05Z</time>
      </trkpt>
      <trkpt lat="42.76628" lon="1.52056">
        <ele>1025.3833007812</ele>
        <time>2011-03-21T10:37:12Z</time>
      </trkpt>
      <trkpt lat="42.76627" lon="1.52057">
        <ele>1024.9028320312</ele>
        <time>2011-03-21T10:37:13Z</time>
      </trkpt>
      <trkpt lat="42.76617" lon="1.52065">
        <ele>1026.8254394531</ele>
        <time>2011-03-21T10:37:21Z</time>
      </trkpt>
      <trkpt lat="42.7661" lon="1.52067">
        <ele>1027.7866210938</ele>
        <time>2011-03-21T10:37:28Z</time>
      </trkpt>
      <trkpt lat="42.766" lon="1.52074">
        <ele>1030.6706542969</ele>
        <time>2011-03-21T10:37:36Z</time>
      </trkpt>
      <trkpt lat="42.76594" lon="1.52079">
        <ele>1032.1125488281</ele>
        <time>2011-03-21T10:37:42Z</time>
      </trkpt>
      <trkpt lat="42.76585" lon="1.52085">
        <ele>1036.4387207031</ele>
        <time>2011-03-21T10:37:51Z</time>
      </trkpt>
      <trkpt lat="42.7658" lon="1.52088">
        <ele>1041.2451171875</ele>
        <time>2011-03-21T10:37:57Z</time>
      </trkpt>
      <trkpt lat="42.76575" lon="1.5209">
        <ele>1044.1291503906</ele>
        <time>2011-03-21T10:38:01Z</time>
      </trkpt>
      <trkpt lat="42.76572" lon="1.5209">
        <ele>1051.3388671875</ele>
        <time>2011-03-21T10:38:06Z</time>
      </trkpt>
      <trkpt lat="42.76567" lon="1.52092">
        <ele>1057.1069335938</ele>
        <time>2011-03-21T10:38:11Z</time>
      </trkpt>
      <trkpt lat="42.76562" lon="1.52095">
        <ele>1061.4328613281</ele>
        <time>2011-03-21T10:38:16Z</time>
      </trkpt>
      <trkpt lat="42.76558" lon="1.52097">
        <ele>1066.2392578125</ele>
        <time>2011-03-21T10:38:21Z</time>
      </trkpt>
      <trkpt lat="42.76553" lon="1.52097">
        <ele>1074.8913574219</ele>
        <time>2011-03-21T10:38:26Z</time>
      </trkpt>
      <trkpt lat="42.76545" lon="1.52101">
        <ele>1080.6591796875</ele>
        <time>2011-03-21T10:38:33Z</time>
      </trkpt>
      <trkpt lat="42.76535" lon="1.52109">
        <ele>1078.255859375</ele>
        <time>2011-03-21T10:38:37Z</time>
      </trkpt>
      <trkpt lat="42.76528" lon="1.52114">
        <ele>1074.4106445312</ele>
        <time>2011-03-21T10:38:41Z</time>
      </trkpt>
      <trkpt lat="42.76526" lon="1.52114">
        <ele>1072.96875</ele>
        <time>2011-03-21T10:38:43Z</time>
      </trkpt>
      <trkpt lat="42.76522" lon="1.52114">
        <ele>1070.5654296875</ele>
        <time>2011-03-21T10:38:47Z</time>
      </trkpt>
      <trkpt lat="42.76516" lon="1.52115">
        <ele>1069.1235351562</ele>
        <time>2011-03-21T10:38:54Z</time>
      </trkpt>
      <trkpt lat="42.7651" lon="1.52117">
        <ele>1071.0461425781</ele>
        <time>2011-03-21T10:38:59Z</time>
      </trkpt>
      <trkpt lat="42.76507" lon="1.52116">
        <ele>1077.2946777344</ele>
        <time>2011-03-21T10:39:03Z</time>
      </trkpt>
      <trkpt lat="42.76503" lon="1.52118">
        <ele>1077.2946777344</ele>
        <time>2011-03-21T10:39:08Z</time>
      </trkpt>
      <trkpt lat="42.76499" lon="1.52119">
        <ele>1078.255859375</ele>
        <time>2011-03-21T10:39:12Z</time>
      </trkpt>
      <trkpt lat="42.76496" lon="1.5212">
        <ele>1078.7365722656</ele>
        <time>2011-03-21T10:39:15Z</time>
      </trkpt>
      <trkpt lat="42.7649" lon="1.52121">
        <ele>1080.1784667969</ele>
        <time>2011-03-21T10:39:20Z</time>
      </trkpt>
      <trkpt lat="42.76486" lon="1.52123">
        <ele>1079.6977539062</ele>
        <time>2011-03-21T10:39:24Z</time>
      </trkpt>
      <trkpt lat="42.76482" lon="1.52124">
        <ele>1078.7365722656</ele>
        <time>2011-03-21T10:39:28Z</time>
      </trkpt>
      <trkpt lat="42.76477" lon="1.52122">
        <ele>1081.6203613281</ele>
        <time>2011-03-21T10:39:34Z</time>
      </trkpt>
      <trkpt lat="42.76476" lon="1.52122">
        <ele>1081.1398925781</ele>
        <time>2011-03-21T10:39:35Z</time>
      </trkpt>
      <trkpt lat="42.76468" lon="1.52125">
        <ele>1077.7751464844</ele>
        <time>2011-03-21T10:39:40Z</time>
      </trkpt>
      <trkpt lat="42.76462" lon="1.52129">
        <ele>1074.4106445312</ele>
        <time>2011-03-21T10:39:45Z</time>
      </trkpt>
      <trkpt lat="42.76456" lon="1.52132">
        <ele>1072.4880371094</ele>
        <time>2011-03-21T10:39:49Z</time>
      </trkpt>
      <trkpt lat="42.76452" lon="1.52133">
        <ele>1070.0847167969</ele>
        <time>2011-03-21T10:39:53Z</time>
      </trkpt>
      <trkpt lat="42.76448" lon="1.52134">
        <ele>1067.6811523438</ele>
        <time>2011-03-21T10:39:57Z</time>
      </trkpt>
      <trkpt lat="42.76443" lon="1.52135">
        <ele>1067.2006835938</ele>
        <time>2011-03-21T10:40:01Z</time>
      </trkpt>
      <trkpt lat="42.76435" lon="1.52139">
        <ele>1066.2392578125</ele>
        <time>2011-03-21T10:40:07Z</time>
      </trkpt>
      <trkpt lat="42.7643" lon="1.52139">
        <ele>1066.7199707031</ele>
        <time>2011-03-21T10:40:11Z</time>
      </trkpt>
      <trkpt lat="42.76429" lon="1.52139">
        <ele>1067.2006835938</ele>
        <time>2011-03-21T10:40:12Z</time>
      </trkpt>
      <trkpt lat="42.76422" lon="1.52139">
        <ele>1067.2006835938</ele>
        <time>2011-03-21T10:40:19Z</time>
      </trkpt>
      <trkpt lat="42.76419" lon="1.52137">
        <ele>1068.6428222656</ele>
        <time>2011-03-21T10:40:23Z</time>
      </trkpt>
      <trkpt lat="42.76409" lon="1.52138">
        <ele>1068.6428222656</ele>
        <time>2011-03-21T10:40:31Z</time>
      </trkpt>
      <trkpt lat="42.76405" lon="1.52138">
        <ele>1068.162109375</ele>
        <time>2011-03-21T10:40:34Z</time>
      </trkpt>
      <trkpt lat="42.76401" lon="1.52137">
        <ele>1067.6811523438</ele>
        <time>2011-03-21T10:40:38Z</time>
      </trkpt>
      <trkpt lat="42.76397" lon="1.52136">
        <ele>1068.162109375</ele>
        <time>2011-03-21T10:40:43Z</time>
      </trkpt>
      <trkpt lat="42.76389" lon="1.52133">
        <ele>1072.4880371094</ele>
        <time>2011-03-21T10:40:50Z</time>
      </trkpt>
      <trkpt lat="42.76383" lon="1.52129">
        <ele>1077.2946777344</ele>
        <time>2011-03-21T10:40:56Z</time>
      </trkpt>
      <trkpt lat="42.76376" lon="1.52125">
        <ele>1080.6591796875</ele>
        <time>2011-03-21T10:41:03Z</time>
      </trkpt>
      <trkpt lat="42.76372" lon="1.52124">
        <ele>1081.1398925781</ele>
        <time>2011-03-21T10:41:07Z</time>
      </trkpt>
      <trkpt lat="42.76365" lon="1.52124">
        <ele>1081.6203613281</ele>
        <time>2011-03-21T10:41:12Z</time>
      </trkpt>
      <trkpt lat="42.76362" lon="1.52123">
        <ele>1080.6591796875</ele>
        <time>2011-03-21T10:41:15Z</time>
      </trkpt>
      <trkpt lat="42.76355" lon="1.52124">
        <ele>1080.6591796875</ele>
        <time>2011-03-21T10:41:21Z</time>
      </trkpt>
      <trkpt lat="42.76355" lon="1.52124">
        <ele>1081.1398925781</ele>
        <time>2011-03-21T10:41:22Z</time>
      </trkpt>
      <trkpt lat="42.76359" lon="1.52131">
        <ele>1083.0622558594</ele>
        <time>2011-03-21T10:41:29Z</time>
      </trkpt>
      <trkpt lat="42.76362" lon="1.52133">
        <ele>1083.54296875</ele>
        <time>2011-03-21T10:41:32Z</time>
      </trkpt>
      <trkpt lat="42.76366" lon="1.52135">
        <ele>1084.9853515625</ele>
        <time>2011-03-21T10:41:36Z</time>
      </trkpt>
      <trkpt lat="42.76368" lon="1.52137">
        <ele>1084.0239257812</ele>
        <time>2011-03-21T10:41:38Z</time>
      </trkpt>
      <trkpt lat="42.76376" lon="1.52146">
        <ele>1084.0239257812</ele>
        <time>2011-03-21T10:41:47Z</time>
      </trkpt>
      <trkpt lat="42.76377" lon="1.52146">
        <ele>1084.5046386719</ele>
        <time>2011-03-21T10:41:48Z</time>
      </trkpt>
      <trkpt lat="42.76382" lon="1.52152">
        <ele>1085.4658203125</ele>
        <time>2011-03-21T10:41:53Z</time>
      </trkpt>
      <trkpt lat="42.76389" lon="1.52157">
        <ele>1084.5046386719</ele>
        <time>2011-03-21T10:41:59Z</time>
      </trkpt>
      <trkpt lat="42.76395" lon="1.52163">
        <ele>1086.4272460938</ele>
        <time>2011-03-21T10:42:05Z</time>
      </trkpt>
      <trkpt lat="42.76398" lon="1.52166">
        <ele>1086.9077148438</ele>
        <time>2011-03-21T10:42:09Z</time>
      </trkpt>
      <trkpt lat="42.76401" lon="1.52169">
        <ele>1087.3884277344</ele>
        <time>2011-03-21T10:42:13Z</time>
      </trkpt>
      <trkpt lat="42.76408" lon="1.52173">
        <ele>1088.3498535156</ele>
        <time>2011-03-21T10:42:19Z</time>
      </trkpt>
      <trkpt lat="42.76411" lon="1.52177">
        <ele>1088.8305664062</ele>
        <time>2011-03-21T10:42:23Z</time>
      </trkpt>
      <trkpt lat="42.76414" lon="1.52179">
        <ele>1089.7917480469</ele>
        <time>2011-03-21T10:42:26Z</time>
      </trkpt>
      <trkpt lat="42.76418" lon="1.52183">
        <ele>1088.8305664062</ele>
        <time>2011-03-21T10:42:30Z</time>
      </trkpt>
      <trkpt lat="42.7642" lon="1.52184">
        <ele>1088.3498535156</ele>
        <time>2011-03-21T10:42:32Z</time>
      </trkpt>
      <trkpt lat="42.76425" lon="1.52191">
        <ele>1085.4658203125</ele>
        <time>2011-03-21T10:42:37Z</time>
      </trkpt>
      <trkpt lat="42.76429" lon="1.52194">
        <ele>1084.5046386719</ele>
        <time>2011-03-21T10:42:41Z</time>
      </trkpt>
      <trkpt lat="42.76432" lon="1.52197">
        <ele>1084.5046386719</ele>
        <time>2011-03-21T10:42:44Z</time>
      </trkpt>
      <trkpt lat="42.76438" lon="1.52199">
        <ele>1087.869140625</ele>
        <time>2011-03-21T10:42:49Z</time>
      </trkpt>
      <trkpt lat="42.76445" lon="1.52205">
        <ele>1089.7917480469</ele>
        <time>2011-03-21T10:42:55Z</time>
      </trkpt>
      <trkpt lat="42.76451" lon="1.5221">
        <ele>1091.7143554688</ele>
        <time>2011-03-21T10:43:01Z</time>
      </trkpt>
      <trkpt lat="42.76454" lon="1.52212">
        <ele>1092.1950683594</ele>
        <time>2011-03-21T10:43:04Z</time>
      </trkpt>
      <trkpt lat="42.7646" lon="1.52217">
        <ele>1092.67578125</ele>
        <time>2011-03-21T10:43:09Z</time>
      </trkpt>
      <trkpt lat="42.76464" lon="1.5222">
        <ele>1095.0788574219</ele>
        <time>2011-03-21T10:43:13Z</time>
      </trkpt>
      <trkpt lat="42.7647" lon="1.52223">
        <ele>1099.8854980469</ele>
        <time>2011-03-21T10:43:19Z</time>
      </trkpt>
      <trkpt lat="42.76479" lon="1.52228">
        <ele>1104.2116699219</ele>
        <time>2011-03-21T10:43:25Z</time>
      </trkpt>
      <trkpt lat="42.76482" lon="1.52229">
        <ele>1106.6147460938</ele>
        <time>2011-03-21T10:43:29Z</time>
      </trkpt>
      <trkpt lat="42.76489" lon="1.52232">
        <ele>1108.0568847656</ele>
        <time>2011-03-21T10:43:35Z</time>
      </trkpt>
      <trkpt lat="42.76494" lon="1.52239">
        <ele>1107.576171875</ele>
        <time>2011-03-21T10:43:41Z</time>
      </trkpt>
      <trkpt lat="42.76498" lon="1.52243">
        <ele>1107.576171875</ele>
        <time>2011-03-21T10:43:46Z</time>
      </trkpt>
      <trkpt lat="42.76503" lon="1.52247">
        <ele>1108.5373535156</ele>
        <time>2011-03-21T10:43:51Z</time>
      </trkpt>
      <trkpt lat="42.76506" lon="1.52251">
        <ele>1108.5373535156</ele>
        <time>2011-03-21T10:43:55Z</time>
      </trkpt>
      <trkpt lat="42.7651" lon="1.52255">
        <ele>1108.0568847656</ele>
        <time>2011-03-21T10:43:58Z</time>
      </trkpt>
      <trkpt lat="42.76511" lon="1.52256">
        <ele>1108.0568847656</ele>
        <time>2011-03-21T10:43:59Z</time>
      </trkpt>
      <trkpt lat="42.76516" lon="1.5226">
        <ele>1106.1340332031</ele>
        <time>2011-03-21T10:44:04Z</time>
      </trkpt>
      <trkpt lat="42.76518" lon="1.52262">
        <ele>1105.1728515625</ele>
        <time>2011-03-21T10:44:08Z</time>
      </trkpt>
      <trkpt lat="42.76522" lon="1.52266">
        <ele>1105.1728515625</ele>
        <time>2011-03-21T10:44:12Z</time>
      </trkpt>
      <trkpt lat="42.76524" lon="1.52268">
        <ele>1106.1340332031</ele>
        <time>2011-03-21T10:44:15Z</time>
      </trkpt>
      <trkpt lat="42.76528" lon="1.52271">
        <ele>1107.0954589844</ele>
        <time>2011-03-21T10:44:19Z</time>
      </trkpt>
      <trkpt lat="42.76531" lon="1.52275">
        <ele>1105.6535644531</ele>
        <time>2011-03-21T10:44:23Z</time>
      </trkpt>
      <trkpt lat="42.76537" lon="1.52279">
        <ele>1105.6535644531</ele>
        <time>2011-03-21T10:44:29Z</time>
      </trkpt>
      <trkpt lat="42.76538" lon="1.5228">
        <ele>1105.1728515625</ele>
        <time>2011-03-21T10:44:30Z</time>
      </trkpt>
      <trkpt lat="42.7654" lon="1.52284">
        <ele>1104.2116699219</ele>
        <time>2011-03-21T10:44:33Z</time>
      </trkpt>
      <trkpt lat="42.76544" lon="1.52287">
        <ele>1103.7309570312</ele>
        <time>2011-03-21T10:44:38Z</time>
      </trkpt>
      <trkpt lat="42.76547" lon="1.5229">
        <ele>1103.2502441406</ele>
        <time>2011-03-21T10:44:41Z</time>
      </trkpt>
      <trkpt lat="42.76553" lon="1.52297">
        <ele>1100.8469238281</ele>
        <time>2011-03-21T10:44:47Z</time>
      </trkpt>
      <trkpt lat="42.76556" lon="1.52301">
        <ele>1101.3276367188</ele>
        <time>2011-03-21T10:44:51Z</time>
      </trkpt>
      <trkpt lat="42.76561" lon="1.52304">
        <ele>1103.2502441406</ele>
        <time>2011-03-21T10:44:56Z</time>
      </trkpt>
      <trkpt lat="42.76566" lon="1.52306">
        <ele>1105.1728515625</ele>
        <time>2011-03-21T10:45:00Z</time>
      </trkpt>
      <trkpt lat="42.76571" lon="1.52309">
        <ele>1111.4213867188</ele>
        <time>2011-03-21T10:45:05Z</time>
      </trkpt>
      <trkpt lat="42.76575" lon="1.52311">
        <ele>1112.3825683594</ele>
        <time>2011-03-21T10:45:10Z</time>
      </trkpt>
      <trkpt lat="42.76579" lon="1.52314">
        <ele>1115.7473144531</ele>
        <time>2011-03-21T10:45:15Z</time>
      </trkpt>
      <trkpt lat="42.76583" lon="1.52315">
        <ele>1119.5927734375</ele>
        <time>2011-03-21T10:45:19Z</time>
      </trkpt>
      <trkpt lat="42.7659" lon="1.52318">
        <ele>1122.4765625</ele>
        <time>2011-03-21T10:45:27Z</time>
      </trkpt>
      <trkpt lat="42.76595" lon="1.52321">
        <ele>1122.4765625</ele>
        <time>2011-03-21T10:45:32Z</time>
      </trkpt>
      <trkpt lat="42.76602" lon="1.52322">
        <ele>1123.9184570312</ele>
        <time>2011-03-21T10:45:38Z</time>
      </trkpt>
      <trkpt lat="42.76604" lon="1.52323">
        <ele>1125.8410644531</ele>
        <time>2011-03-21T10:45:41Z</time>
      </trkpt>
      <trkpt lat="42.76609" lon="1.52326">
        <ele>1129.2055664062</ele>
        <time>2011-03-21T10:45:47Z</time>
      </trkpt>
      <trkpt lat="42.76609" lon="1.52331">
        <ele>1132.08984375</ele>
        <time>2011-03-21T10:45:51Z</time>
      </trkpt>
      <trkpt lat="42.76604" lon="1.52334">
        <ele>1132.5705566406</ele>
        <time>2011-03-21T10:45:56Z</time>
      </trkpt>
      <trkpt lat="42.766" lon="1.52335">
        <ele>1134.4931640625</ele>
        <time>2011-03-21T10:46:00Z</time>
      </trkpt>
      <trkpt lat="42.76598" lon="1.52336">
        <ele>1134.4931640625</ele>
        <time>2011-03-21T10:46:03Z</time>
      </trkpt>
      <trkpt lat="42.76592" lon="1.52336">
        <ele>1134.9738769531</ele>
        <time>2011-03-21T10:46:08Z</time>
      </trkpt>
      <trkpt lat="42.76588" lon="1.52336">
        <ele>1136.4157714844</ele>
        <time>2011-03-21T10:46:13Z</time>
      </trkpt>
      <trkpt lat="42.76582" lon="1.52339">
        <ele>1134.0124511719</ele>
        <time>2011-03-21T10:46:18Z</time>
      </trkpt>
      <trkpt lat="42.76577" lon="1.52343">
        <ele>1132.5705566406</ele>
        <time>2011-03-21T10:46:22Z</time>
      </trkpt>
      <trkpt lat="42.76572" lon="1.52343">
        <ele>1134.4931640625</ele>
        <time>2011-03-21T10:46:26Z</time>
      </trkpt>
      <trkpt lat="42.76567" lon="1.52344">
        <ele>1133.0510253906</ele>
        <time>2011-03-21T10:46:30Z</time>
      </trkpt>
      <trkpt lat="42.76565" lon="1.52344">
        <ele>1134.0124511719</ele>
        <time>2011-03-21T10:46:33Z</time>
      </trkpt>
      <trkpt lat="42.76561" lon="1.52345">
        <ele>1134.9738769531</ele>
        <time>2011-03-21T10:46:37Z</time>
      </trkpt>
      <trkpt lat="42.76553" lon="1.52347">
        <ele>1138.8190917969</ele>
        <time>2011-03-21T10:46:45Z</time>
      </trkpt>
      <trkpt lat="42.76547" lon="1.52348">
        <ele>1140.7414550781</ele>
        <time>2011-03-21T10:46:51Z</time>
      </trkpt>
      <trkpt lat="42.76544" lon="1.52347">
        <ele>1141.7028808594</ele>
        <time>2011-03-21T10:46:54Z</time>
      </trkpt>
      <trkpt lat="42.76541" lon="1.52346">
        <ele>1143.6254882812</ele>
        <time>2011-03-21T10:46:57Z</time>
      </trkpt>
      <trkpt lat="42.76536" lon="1.52347">
        <ele>1145.0673828125</ele>
        <time>2011-03-21T10:47:01Z</time>
      </trkpt>
      <trkpt lat="42.76531" lon="1.52346">
        <ele>1148.4321289062</ele>
        <time>2011-03-21T10:47:06Z</time>
      </trkpt>
      <trkpt lat="42.76526" lon="1.52345">
        <ele>1150.3549804688</ele>
        <time>2011-03-21T10:47:11Z</time>
      </trkpt>
      <trkpt lat="42.76521" lon="1.52344">
        <ele>1152.7580566406</ele>
        <time>2011-03-21T10:47:16Z</time>
      </trkpt>
      <trkpt lat="42.76515" lon="1.52345">
        <ele>1153.2387695312</ele>
        <time>2011-03-21T10:47:21Z</time>
      </trkpt>
      <trkpt lat="42.76511" lon="1.52345">
        <ele>1153.2387695312</ele>
        <time>2011-03-21T10:47:25Z</time>
      </trkpt>
      <trkpt lat="42.76507" lon="1.52346">
        <ele>1152.7580566406</ele>
        <time>2011-03-21T10:47:28Z</time>
      </trkpt>
      <trkpt lat="42.765" lon="1.5235">
        <ele>1151.3161621094</ele>
        <time>2011-03-21T10:47:33Z</time>
      </trkpt>
      <trkpt lat="42.76498" lon="1.52352">
        <ele>1154.2001953125</ele>
        <time>2011-03-21T10:47:38Z</time>
      </trkpt>
      <trkpt lat="42.76502" lon="1.52354">
        <ele>1157.5646972656</ele>
        <time>2011-03-21T10:47:43Z</time>
      </trkpt>
      <trkpt lat="42.76504" lon="1.52355">
        <ele>1159.9677734375</ele>
        <time>2011-03-21T10:47:46Z</time>
      </trkpt>
      <trkpt lat="42.76508" lon="1.52358">
        <ele>1160.4484863281</ele>
        <time>2011-03-21T10:47:51Z</time>
      </trkpt>
      <trkpt lat="42.76512" lon="1.5236">
        <ele>1159.0065917969</ele>
        <time>2011-03-21T10:47:55Z</time>
      </trkpt>
      <trkpt lat="42.76514" lon="1.52361">
        <ele>1159.9677734375</ele>
        <time>2011-03-21T10:47:58Z</time>
      </trkpt>
      <trkpt lat="42.76518" lon="1.52364">
        <ele>1160.4484863281</ele>
        <time>2011-03-21T10:48:02Z</time>
      </trkpt>
      <trkpt lat="42.76523" lon="1.52366">
        <ele>1164.2939453125</ele>
        <time>2011-03-21T10:48:08Z</time>
      </trkpt>
      <trkpt lat="42.76527" lon="1.52369">
        <ele>1164.2939453125</ele>
        <time>2011-03-21T10:48:14Z</time>
      </trkpt>
      <trkpt lat="42.7653" lon="1.52372">
        <ele>1163.8129882812</ele>
        <time>2011-03-21T10:48:17Z</time>
      </trkpt>
      <trkpt lat="42.76532" lon="1.52373">
        <ele>1163.8129882812</ele>
        <time>2011-03-21T10:48:19Z</time>
      </trkpt>
      <trkpt lat="42.76542" lon="1.52381">
        <ele>1165.2553710938</ele>
        <time>2011-03-21T10:48:29Z</time>
      </trkpt>
      <trkpt lat="42.76546" lon="1.52384">
        <ele>1166.2165527344</ele>
        <time>2011-03-21T10:48:33Z</time>
      </trkpt>
      <trkpt lat="42.7655" lon="1.52386">
        <ele>1167.6584472656</ele>
        <time>2011-03-21T10:48:37Z</time>
      </trkpt>
      <trkpt lat="42.76553" lon="1.52388">
        <ele>1167.1779785156</ele>
        <time>2011-03-21T10:48:41Z</time>
      </trkpt>
      <trkpt lat="42.76558" lon="1.52392">
        <ele>1168.6198730469</ele>
        <time>2011-03-21T10:48:47Z</time>
      </trkpt>
      <trkpt lat="42.76565" lon="1.52396">
        <ele>1168.1391601562</ele>
        <time>2011-03-21T10:48:53Z</time>
      </trkpt>
      <trkpt lat="42.76571" lon="1.52401">
        <ele>1168.6198730469</ele>
        <time>2011-03-21T10:48:59Z</time>
      </trkpt>
      <trkpt lat="42.76574" lon="1.52404">
        <ele>1168.6198730469</ele>
        <time>2011-03-21T10:49:03Z</time>
      </trkpt>
      <trkpt lat="42.76577" lon="1.52406">
        <ele>1169.1005859375</ele>
        <time>2011-03-21T10:49:07Z</time>
      </trkpt>
      <trkpt lat="42.76583" lon="1.5241">
        <ele>1170.0617675781</ele>
        <time>2011-03-21T10:49:13Z</time>
      </trkpt>
      <trkpt lat="42.76589" lon="1.52415">
        <ele>1172.4650878906</ele>
        <time>2011-03-21T10:49:19Z</time>
      </trkpt>
      <trkpt lat="42.76594" lon="1.52418">
        <ele>1172.9458007812</ele>
        <time>2011-03-21T10:49:25Z</time>
      </trkpt>
      <trkpt lat="42.76598" lon="1.5242">
        <ele>1171.5036621094</ele>
        <time>2011-03-21T10:49:29Z</time>
      </trkpt>
      <trkpt lat="42.76601" lon="1.5242">
        <ele>1172.9458007812</ele>
        <time>2011-03-21T10:49:32Z</time>
      </trkpt>
      <trkpt lat="42.76606" lon="1.5242">
        <ele>1177.2717285156</ele>
        <time>2011-03-21T10:49:36Z</time>
      </trkpt>
      <trkpt lat="42.7661" lon="1.52421">
        <ele>1179.6748046875</ele>
        <time>2011-03-21T10:49:41Z</time>
      </trkpt>
      <trkpt lat="42.76615" lon="1.52424">
        <ele>1179.6748046875</ele>
        <time>2011-03-21T10:49:46Z</time>
      </trkpt>
      <trkpt lat="42.76618" lon="1.52424">
        <ele>1180.6364746094</ele>
        <time>2011-03-21T10:49:48Z</time>
      </trkpt>
      <trkpt lat="42.76622" lon="1.52425">
        <ele>1181.59765625</ele>
        <time>2011-03-21T10:49:51Z</time>
      </trkpt>
      <trkpt lat="42.76629" lon="1.52429">
        <ele>1180.6364746094</ele>
        <time>2011-03-21T10:49:58Z</time>
      </trkpt>
      <trkpt lat="42.76633" lon="1.52432">
        <ele>1179.1940917969</ele>
        <time>2011-03-21T10:50:03Z</time>
      </trkpt>
      <trkpt lat="42.76635" lon="1.52434">
        <ele>1179.1940917969</ele>
        <time>2011-03-21T10:50:05Z</time>
      </trkpt>
      <trkpt lat="42.76642" lon="1.52436">
        <ele>1182.5590820312</ele>
        <time>2011-03-21T10:50:12Z</time>
      </trkpt>
      <trkpt lat="42.76648" lon="1.52437">
        <ele>1184.4816894531</ele>
        <time>2011-03-21T10:50:19Z</time>
      </trkpt>
      <trkpt lat="42.76647" lon="1.52442">
        <ele>1188.3269042969</ele>
        <time>2011-03-21T10:50:24Z</time>
      </trkpt>
      <trkpt lat="42.76645" lon="1.52444">
        <ele>1189.7687988281</ele>
        <time>2011-03-21T10:50:27Z</time>
      </trkpt>
      <trkpt lat="42.76643" lon="1.52444">
        <ele>1192.6528320312</ele>
        <time>2011-03-21T10:50:31Z</time>
      </trkpt>
      <trkpt lat="42.7664" lon="1.52444">
        <ele>1194.0947265625</ele>
        <time>2011-03-21T10:50:35Z</time>
      </trkpt>
      <trkpt lat="42.76635" lon="1.52445">
        <ele>1195.5366210938</ele>
        <time>2011-03-21T10:50:41Z</time>
      </trkpt>
      <trkpt lat="42.76631" lon="1.52446">
        <ele>1198.4206542969</ele>
        <time>2011-03-21T10:50:46Z</time>
      </trkpt>
      <trkpt lat="42.76627" lon="1.5245">
        <ele>1196.4982910156</ele>
        <time>2011-03-21T10:50:50Z</time>
      </trkpt>
      <trkpt lat="42.76627" lon="1.5245">
        <ele>1196.9787597656</ele>
        <time>2011-03-21T10:50:51Z</time>
      </trkpt>
      <trkpt lat="42.76621" lon="1.5245">
        <ele>1199.3820800781</ele>
        <time>2011-03-21T10:50:57Z</time>
      </trkpt>
      <trkpt lat="42.76616" lon="1.52452">
        <ele>1201.7854003906</ele>
        <time>2011-03-21T10:51:02Z</time>
      </trkpt>
      <trkpt lat="42.76607" lon="1.52454">
        <ele>1199.3820800781</ele>
        <time>2011-03-21T10:51:09Z</time>
      </trkpt>
      <trkpt lat="42.76602" lon="1.52456">
        <ele>1199.3820800781</ele>
        <time>2011-03-21T10:51:13Z</time>
      </trkpt>
      <trkpt lat="42.76595" lon="1.52456">
        <ele>1202.2658691406</ele>
        <time>2011-03-21T10:51:20Z</time>
      </trkpt>
      <trkpt lat="42.76593" lon="1.52457">
        <ele>1201.7854003906</ele>
        <time>2011-03-21T10:51:22Z</time>
      </trkpt>
      <trkpt lat="42.76588" lon="1.52458">
        <ele>1203.7080078125</ele>
        <time>2011-03-21T10:51:28Z</time>
      </trkpt>
      <trkpt lat="42.76587" lon="1.52458">
        <ele>1204.1887207031</ele>
        <time>2011-03-21T10:51:29Z</time>
      </trkpt>
      <trkpt lat="42.7658" lon="1.52458">
        <ele>1206.591796875</ele>
        <time>2011-03-21T10:51:34Z</time>
      </trkpt>
      <trkpt lat="42.76575" lon="1.52457">
        <ele>1208.5144042969</ele>
        <time>2011-03-21T10:51:39Z</time>
      </trkpt>
      <trkpt lat="42.76568" lon="1.52458">
        <ele>1209.4758300781</ele>
        <time>2011-03-21T10:51:44Z</time>
      </trkpt>
      <trkpt lat="42.76562" lon="1.52459">
        <ele>1208.9951171875</ele>
        <time>2011-03-21T10:51:49Z</time>
      </trkpt>
      <trkpt lat="42.7656" lon="1.52453">
        <ele>1212.8405761719</ele>
        <time>2011-03-21T10:52:40Z</time>
      </trkpt>
      <trkpt lat="42.76559" lon="1.52453">
        <ele>1212.8405761719</ele>
        <time>2011-03-21T10:52:41Z</time>
      </trkpt>
      <trkpt lat="42.76556" lon="1.52455">
        <ele>1210.9177246094</ele>
        <time>2011-03-21T10:52:44Z</time>
      </trkpt>
      <trkpt lat="42.76553" lon="1.52455">
        <ele>1209.4758300781</ele>
        <time>2011-03-21T10:52:48Z</time>
      </trkpt>
      <trkpt lat="42.76546" lon="1.52457">
        <ele>1209.9562988281</ele>
        <time>2011-03-21T10:52:54Z</time>
      </trkpt>
      <trkpt lat="42.76543" lon="1.52458">
        <ele>1210.9177246094</ele>
        <time>2011-03-21T10:52:57Z</time>
      </trkpt>
      <trkpt lat="42.76537" lon="1.52459">
        <ele>1212.3598632812</ele>
        <time>2011-03-21T10:53:02Z</time>
      </trkpt>
      <trkpt lat="42.76529" lon="1.52459">
        <ele>1214.2824707031</ele>
        <time>2011-03-21T10:53:09Z</time>
      </trkpt>
      <trkpt lat="42.76524" lon="1.52459">
        <ele>1216.205078125</ele>
        <time>2011-03-21T10:53:14Z</time>
      </trkpt>
      <trkpt lat="42.7652" lon="1.5246">
        <ele>1215.724609375</ele>
        <time>2011-03-21T10:53:17Z</time>
      </trkpt>
      <trkpt lat="42.76512" lon="1.52461">
        <ele>1216.6857910156</ele>
        <time>2011-03-21T10:53:24Z</time>
      </trkpt>
      <trkpt lat="42.76508" lon="1.52461">
        <ele>1218.1276855469</ele>
        <time>2011-03-21T10:53:28Z</time>
      </trkpt>
      <trkpt lat="42.76503" lon="1.52462">
        <ele>1220.5310058594</ele>
        <time>2011-03-21T10:53:34Z</time>
      </trkpt>
      <trkpt lat="42.76498" lon="1.52463">
        <ele>1221.9729003906</ele>
        <time>2011-03-21T10:53:38Z</time>
      </trkpt>
      <trkpt lat="42.76493" lon="1.52467">
        <ele>1221.4921875</ele>
        <time>2011-03-21T10:53:44Z</time>
      </trkpt>
      <trkpt lat="42.76493" lon="1.52467">
        <ele>1221.4921875</ele>
        <time>2011-03-21T10:53:45Z</time>
      </trkpt>
      <trkpt lat="42.76482" lon="1.52466">
        <ele>1227.7407226562</ele>
        <time>2011-03-21T10:54:36Z</time>
      </trkpt>
      <trkpt lat="42.76482" lon="1.52466">
        <ele>1227.7407226562</ele>
        <time>2011-03-21T10:54:37Z</time>
      </trkpt>
      <trkpt lat="42.76486" lon="1.52465">
        <ele>1228.2216796875</ele>
        <time>2011-03-21T10:54:43Z</time>
      </trkpt>
      <trkpt lat="42.76492" lon="1.52466">
        <ele>1228.2216796875</ele>
        <time>2011-03-21T10:54:49Z</time>
      </trkpt>
      <trkpt lat="42.76493" lon="1.52467">
        <ele>1228.2216796875</ele>
        <time>2011-03-21T10:54:50Z</time>
      </trkpt>
      <trkpt lat="42.76497" lon="1.52466">
        <ele>1233.0280761719</ele>
        <time>2011-03-21T10:54:54Z</time>
      </trkpt>
      <trkpt lat="42.76505" lon="1.52459">
        <ele>1240.2380371094</ele>
        <time>2011-03-21T10:55:02Z</time>
      </trkpt>
      <trkpt lat="42.76513" lon="1.52464">
        <ele>1238.7961425781</ele>
        <time>2011-03-21T10:55:09Z</time>
      </trkpt>
      <trkpt lat="42.76523" lon="1.52472">
        <ele>1235.912109375</ele>
        <time>2011-03-21T10:55:17Z</time>
      </trkpt>
      <trkpt lat="42.76529" lon="1.52477">
        <ele>1233.9895019531</ele>
        <time>2011-03-21T10:55:23Z</time>
      </trkpt>
      <trkpt lat="42.76536" lon="1.52478">
        <ele>1235.912109375</ele>
        <time>2011-03-21T10:55:28Z</time>
      </trkpt>
      <trkpt lat="42.76543" lon="1.52482">
        <ele>1236.8732910156</ele>
        <time>2011-03-21T10:55:34Z</time>
      </trkpt>
      <trkpt lat="42.76547" lon="1.52486">
        <ele>1236.3928222656</ele>
        <time>2011-03-21T10:55:38Z</time>
      </trkpt>
      <trkpt lat="42.76552" lon="1.52489">
        <ele>1235.4313964844</ele>
        <time>2011-03-21T10:55:43Z</time>
      </trkpt>
      <trkpt lat="42.76558" lon="1.52493">
        <ele>1233.0280761719</ele>
        <time>2011-03-21T10:55:48Z</time>
      </trkpt>
      <trkpt lat="42.76562" lon="1.52499">
        <ele>1230.1442871094</ele>
        <time>2011-03-21T10:55:52Z</time>
      </trkpt>
      <trkpt lat="42.76567" lon="1.52503">
        <ele>1229.6635742188</ele>
        <time>2011-03-21T10:55:57Z</time>
      </trkpt>
      <trkpt lat="42.7657" lon="1.52506">
        <ele>1230.1442871094</ele>
        <time>2011-03-21T10:56:01Z</time>
      </trkpt>
      <trkpt lat="42.76576" lon="1.52511">
        <ele>1231.1057128906</ele>
        <time>2011-03-21T10:56:07Z</time>
      </trkpt>
      <trkpt lat="42.76577" lon="1.52511">
        <ele>1231.5861816406</ele>
        <time>2011-03-21T10:56:08Z</time>
      </trkpt>
      <trkpt lat="42.76583" lon="1.52514">
        <ele>1233.9895019531</ele>
        <time>2011-03-21T10:56:14Z</time>
      </trkpt>
      <trkpt lat="42.7659" lon="1.5252">
        <ele>1235.4313964844</ele>
        <time>2011-03-21T10:56:20Z</time>
      </trkpt>
      <trkpt lat="42.76591" lon="1.5252">
        <ele>1235.912109375</ele>
        <time>2011-03-21T10:56:21Z</time>
      </trkpt>
      <trkpt lat="42.76593" lon="1.52527">
        <ele>1236.8732910156</ele>
        <time>2011-03-21T10:56:27Z</time>
      </trkpt>
      <trkpt lat="42.76591" lon="1.52528">
        <ele>1239.2766113281</ele>
        <time>2011-03-21T10:56:31Z</time>
      </trkpt>
      <trkpt lat="42.76587" lon="1.52526">
        <ele>1241.6799316406</ele>
        <time>2011-03-21T10:56:35Z</time>
      </trkpt>
      <trkpt lat="42.76582" lon="1.52524">
        <ele>1246.0061035156</ele>
        <time>2011-03-21T10:56:40Z</time>
      </trkpt>
      <trkpt lat="42.76579" lon="1.52525">
        <ele>1245.525390625</ele>
        <time>2011-03-21T10:56:44Z</time>
      </trkpt>
      <trkpt lat="42.76571" lon="1.52524">
        <ele>1246.4868164062</ele>
        <time>2011-03-21T10:56:52Z</time>
      </trkpt>
      <trkpt lat="42.7657" lon="1.52524">
        <ele>1246.9672851562</ele>
        <time>2011-03-21T10:56:53Z</time>
      </trkpt>
      <trkpt lat="42.76563" lon="1.52522">
        <ele>1249.8513183594</ele>
        <time>2011-03-21T10:56:59Z</time>
      </trkpt>
      <trkpt lat="42.76557" lon="1.52521">
        <ele>1251.2932128906</ele>
        <time>2011-03-21T10:57:04Z</time>
      </trkpt>
      <trkpt lat="42.76551" lon="1.52521">
        <ele>1253.6965332031</ele>
        <time>2011-03-21T10:57:10Z</time>
      </trkpt>
      <trkpt lat="42.76547" lon="1.5252">
        <ele>1255.619140625</ele>
        <time>2011-03-21T10:57:14Z</time>
      </trkpt>
      <trkpt lat="42.76543" lon="1.5252">
        <ele>1258.5029296875</ele>
        <time>2011-03-21T10:57:19Z</time>
      </trkpt>
      <trkpt lat="42.76539" lon="1.52521">
        <ele>1259.9448242188</ele>
        <time>2011-03-21T10:57:24Z</time>
      </trkpt>
      <trkpt lat="42.76535" lon="1.52521">
        <ele>1260.42578125</ele>
        <time>2011-03-21T10:57:28Z</time>
      </trkpt>
      <trkpt lat="42.76527" lon="1.52523">
        <ele>1259.4643554688</ele>
        <time>2011-03-21T10:57:34Z</time>
      </trkpt>
      <trkpt lat="42.76519" lon="1.52523">
        <ele>1258.0224609375</ele>
        <time>2011-03-21T10:57:42Z</time>
      </trkpt>
      <trkpt lat="42.76512" lon="1.52525">
        <ele>1257.5417480469</ele>
        <time>2011-03-21T10:57:47Z</time>
      </trkpt>
      <trkpt lat="42.76507" lon="1.52526">
        <ele>1258.0224609375</ele>
        <time>2011-03-21T10:57:51Z</time>
      </trkpt>
      <trkpt lat="42.76502" lon="1.52527">
        <ele>1258.9836425781</ele>
        <time>2011-03-21T10:57:55Z</time>
      </trkpt>
      <trkpt lat="42.76493" lon="1.5253">
        <ele>1260.42578125</ele>
        <time>2011-03-21T10:58:02Z</time>
      </trkpt>
      <trkpt lat="42.76488" lon="1.52531">
        <ele>1263.3098144531</ele>
        <time>2011-03-21T10:58:08Z</time>
      </trkpt>
      <trkpt lat="42.76482" lon="1.52532">
        <ele>1263.3098144531</ele>
        <time>2011-03-21T10:58:14Z</time>
      </trkpt>
      <trkpt lat="42.7648" lon="1.52532">
        <ele>1268.1162109375</ele>
        <time>2011-03-21T10:58:23Z</time>
      </trkpt>
      <trkpt lat="42.76482" lon="1.52528">
        <ele>1268.5969238281</ele>
        <time>2011-03-21T10:58:35Z</time>
      </trkpt>
      <trkpt lat="42.76482" lon="1.52521">
        <ele>1276.2875976562</ele>
        <time>2011-03-21T10:58:42Z</time>
      </trkpt>
      <trkpt lat="42.7648" lon="1.52517">
        <ele>1278.2102050781</ele>
        <time>2011-03-21T10:58:55Z</time>
      </trkpt>
      <trkpt lat="42.76481" lon="1.52516">
        <ele>1278.6909179688</ele>
        <time>2011-03-21T10:59:01Z</time>
      </trkpt>
      <trkpt lat="42.76497" lon="1.52528">
        <ele>1269.5583496094</ele>
        <time>2011-03-21T10:59:17Z</time>
      </trkpt>
      <trkpt lat="42.76501" lon="1.52529">
        <ele>1268.5969238281</ele>
        <time>2011-03-21T10:59:21Z</time>
      </trkpt>
      <trkpt lat="42.76508" lon="1.52533">
        <ele>1269.5583496094</ele>
        <time>2011-03-21T10:59:27Z</time>
      </trkpt>
      <trkpt lat="42.76514" lon="1.52535">
        <ele>1270.0388183594</ele>
        <time>2011-03-21T10:59:32Z</time>
      </trkpt>
      <trkpt lat="42.76521" lon="1.52541">
        <ele>1269.5583496094</ele>
        <time>2011-03-21T10:59:39Z</time>
      </trkpt>
      <trkpt lat="42.76527" lon="1.52544">
        <ele>1270.0388183594</ele>
        <time>2011-03-21T10:59:44Z</time>
      </trkpt>
      <trkpt lat="42.76535" lon="1.52549">
        <ele>1271.0002441406</ele>
        <time>2011-03-21T10:59:51Z</time>
      </trkpt>
      <trkpt lat="42.76542" lon="1.52552">
        <ele>1273.8840332031</ele>
        <time>2011-03-21T10:59:57Z</time>
      </trkpt>
      <trkpt lat="42.76542" lon="1.52553">
        <ele>1273.4035644531</ele>
        <time>2011-03-21T10:59:58Z</time>
      </trkpt>
      <trkpt lat="42.76545" lon="1.52558">
        <ele>1273.4035644531</ele>
        <time>2011-03-21T11:00:02Z</time>
      </trkpt>
      <trkpt lat="42.7655" lon="1.52565">
        <ele>1274.3647460938</ele>
        <time>2011-03-21T11:00:08Z</time>
      </trkpt>
      <trkpt lat="42.76553" lon="1.52571">
        <ele>1275.806640625</ele>
        <time>2011-03-21T11:00:13Z</time>
      </trkpt>
      <trkpt lat="42.76559" lon="1.52578">
        <ele>1275.3259277344</ele>
        <time>2011-03-21T11:00:19Z</time>
      </trkpt>
      <trkpt lat="42.76559" lon="1.5258">
        <ele>1275.3259277344</ele>
        <time>2011-03-21T11:00:20Z</time>
      </trkpt>
      <trkpt lat="42.76564" lon="1.52583">
        <ele>1277.7294921875</ele>
        <time>2011-03-21T11:00:26Z</time>
      </trkpt>
      <trkpt lat="42.76567" lon="1.52588">
        <ele>1278.2102050781</ele>
        <time>2011-03-21T11:00:30Z</time>
      </trkpt>
      <trkpt lat="42.7657" lon="1.52592">
        <ele>1279.1713867188</ele>
        <time>2011-03-21T11:00:34Z</time>
      </trkpt>
      <trkpt lat="42.76571" lon="1.52593">
        <ele>1279.1713867188</ele>
        <time>2011-03-21T11:00:35Z</time>
      </trkpt>
      <trkpt lat="42.76575" lon="1.52597">
        <ele>1280.6135253906</ele>
        <time>2011-03-21T11:00:40Z</time>
      </trkpt>
      <trkpt lat="42.76576" lon="1.52598">
        <ele>1281.0942382812</ele>
        <time>2011-03-21T11:00:41Z</time>
      </trkpt>
      <trkpt lat="42.76581" lon="1.52605">
        <ele>1283.0166015625</ele>
        <time>2011-03-21T11:00:48Z</time>
      </trkpt>
      <trkpt lat="42.76582" lon="1.52607">
        <ele>1283.0166015625</ele>
        <time>2011-03-21T11:00:50Z</time>
      </trkpt>
      <trkpt lat="42.76585" lon="1.52611">
        <ele>1283.9780273438</ele>
        <time>2011-03-21T11:00:54Z</time>
      </trkpt>
      <trkpt lat="42.7659" lon="1.52615">
        <ele>1286.3813476562</ele>
        <time>2011-03-21T11:01:00Z</time>
      </trkpt>
      <trkpt lat="42.76593" lon="1.52622">
        <ele>1286.3813476562</ele>
        <time>2011-03-21T11:01:05Z</time>
      </trkpt>
      <trkpt lat="42.766" lon="1.52629">
        <ele>1288.7846679688</ele>
        <time>2011-03-21T11:01:13Z</time>
      </trkpt>
      <trkpt lat="42.76603" lon="1.52631">
        <ele>1290.2265625</ele>
        <time>2011-03-21T11:01:17Z</time>
      </trkpt>
      <trkpt lat="42.76606" lon="1.52634">
        <ele>1292.6301269531</ele>
        <time>2011-03-21T11:01:21Z</time>
      </trkpt>
      <trkpt lat="42.76612" lon="1.5264">
        <ele>1293.1105957031</ele>
        <time>2011-03-21T11:01:27Z</time>
      </trkpt>
      <trkpt lat="42.76616" lon="1.52647">
        <ele>1293.1105957031</ele>
        <time>2011-03-21T11:01:33Z</time>
      </trkpt>
      <trkpt lat="42.76617" lon="1.52649">
        <ele>1293.1105957031</ele>
        <time>2011-03-21T11:01:35Z</time>
      </trkpt>
      <trkpt lat="42.76621" lon="1.52653">
        <ele>1295.5139160156</ele>
        <time>2011-03-21T11:01:40Z</time>
      </trkpt>
      <trkpt lat="42.76622" lon="1.52655">
        <ele>1295.5139160156</ele>
        <time>2011-03-21T11:01:41Z</time>
      </trkpt>
      <trkpt lat="42.76629" lon="1.52662">
        <ele>1298.8784179688</ele>
        <time>2011-03-21T11:01:48Z</time>
      </trkpt>
      <trkpt lat="42.7663" lon="1.52663">
        <ele>1299.3591308594</ele>
        <time>2011-03-21T11:01:49Z</time>
      </trkpt>
      <trkpt lat="42.76634" lon="1.52669">
        <ele>1300.3205566406</ele>
        <time>2011-03-21T11:01:54Z</time>
      </trkpt>
      <trkpt lat="42.76638" lon="1.52673">
        <ele>1302.7236328125</ele>
        <time>2011-03-21T11:02:00Z</time>
      </trkpt>
      <trkpt lat="42.76642" lon="1.5268">
        <ele>1302.2429199219</ele>
        <time>2011-03-21T11:02:06Z</time>
      </trkpt>
      <trkpt lat="42.76644" lon="1.52683">
        <ele>1302.7236328125</ele>
        <time>2011-03-21T11:02:08Z</time>
      </trkpt>
      <trkpt lat="42.76648" lon="1.52689">
        <ele>1302.7236328125</ele>
        <time>2011-03-21T11:02:14Z</time>
      </trkpt>
      <trkpt lat="42.7665" lon="1.52693">
        <ele>1302.2429199219</ele>
        <time>2011-03-21T11:02:17Z</time>
      </trkpt>
      <trkpt lat="42.76654" lon="1.52697">
        <ele>1303.6850585938</ele>
        <time>2011-03-21T11:02:21Z</time>
      </trkpt>
      <trkpt lat="42.76658" lon="1.52704">
        <ele>1305.126953125</ele>
        <time>2011-03-21T11:02:27Z</time>
      </trkpt>
      <trkpt lat="42.76662" lon="1.52707">
        <ele>1306.0881347656</ele>
        <time>2011-03-21T11:02:31Z</time>
      </trkpt>
      <trkpt lat="42.76667" lon="1.52715">
        <ele>1308.4916992188</ele>
        <time>2011-03-21T11:02:38Z</time>
      </trkpt>
      <trkpt lat="42.76668" lon="1.52716">
        <ele>1309.453125</ele>
        <time>2011-03-21T11:02:39Z</time>
      </trkpt>
      <trkpt lat="42.7667" lon="1.5272">
        <ele>1309.453125</ele>
        <time>2011-03-21T11:02:42Z</time>
      </trkpt>
      <trkpt lat="42.76675" lon="1.52725">
        <ele>1309.453125</ele>
        <time>2011-03-21T11:02:47Z</time>
      </trkpt>
      <trkpt lat="42.76675" lon="1.52726">
        <ele>1309.93359375</ele>
        <time>2011-03-21T11:02:48Z</time>
      </trkpt>
      <trkpt lat="42.7668" lon="1.52732">
        <ele>1310.8950195312</ele>
        <time>2011-03-21T11:02:53Z</time>
      </trkpt>
      <trkpt lat="42.76684" lon="1.5274">
        <ele>1311.3757324219</ele>
        <time>2011-03-21T11:02:59Z</time>
      </trkpt>
      <trkpt lat="42.76685" lon="1.52742">
        <ele>1311.8564453125</ele>
        <time>2011-03-21T11:03:01Z</time>
      </trkpt>
      <trkpt lat="42.76687" lon="1.52747">
        <ele>1313.2983398438</ele>
        <time>2011-03-21T11:03:05Z</time>
      </trkpt>
      <trkpt lat="42.76693" lon="1.52754">
        <ele>1316.6628417969</ele>
        <time>2011-03-21T11:03:12Z</time>
      </trkpt>
      <trkpt lat="42.76697" lon="1.52759">
        <ele>1319.0661621094</ele>
        <time>2011-03-21T11:03:17Z</time>
      </trkpt>
      <trkpt lat="42.76698" lon="1.52761">
        <ele>1320.9887695312</ele>
        <time>2011-03-21T11:03:23Z</time>
      </trkpt>
      <trkpt lat="42.76702" lon="1.52766">
        <ele>1323.8725585938</ele>
        <time>2011-03-21T11:03:28Z</time>
      </trkpt>
      <trkpt lat="42.76705" lon="1.52774">
        <ele>1322.4306640625</ele>
        <time>2011-03-21T11:03:34Z</time>
      </trkpt>
      <trkpt lat="42.76705" lon="1.52775">
        <ele>1321.9499511719</ele>
        <time>2011-03-21T11:03:36Z</time>
      </trkpt>
      <trkpt lat="42.76693" lon="1.52767">
        <ele>1312.8176269531</ele>
        <time>2011-03-21T11:04:59Z</time>
      </trkpt>
      <trkpt lat="42.76693" lon="1.52766">
        <ele>1312.3369140625</ele>
        <time>2011-03-21T11:05:00Z</time>
      </trkpt>
      <trkpt lat="42.7669" lon="1.52761">
        <ele>1310.4143066406</ele>
        <time>2011-03-21T11:05:05Z</time>
      </trkpt>
      <trkpt lat="42.76685" lon="1.52758">
        <ele>1308.4916992188</ele>
        <time>2011-03-21T11:05:09Z</time>
      </trkpt>
      <trkpt lat="42.76678" lon="1.52757">
        <ele>1303.2043457031</ele>
        <time>2011-03-21T11:05:15Z</time>
      </trkpt>
      <trkpt lat="42.76669" lon="1.52752">
        <ele>1302.2429199219</ele>
        <time>2011-03-21T11:05:21Z</time>
      </trkpt>
      <trkpt lat="42.76661" lon="1.52747">
        <ele>1301.2817382812</ele>
        <time>2011-03-21T11:05:28Z</time>
      </trkpt>
      <trkpt lat="42.76655" lon="1.52744">
        <ele>1300.3205566406</ele>
        <time>2011-03-21T11:05:33Z</time>
      </trkpt>
      <trkpt lat="42.76649" lon="1.52743">
        <ele>1298.8784179688</ele>
        <time>2011-03-21T11:05:38Z</time>
      </trkpt>
      <trkpt lat="42.76647" lon="1.52743">
        <ele>1299.83984375</ele>
        <time>2011-03-21T11:05:41Z</time>
      </trkpt>
      <trkpt lat="42.76643" lon="1.52742">
        <ele>1301.2817382812</ele>
        <time>2011-03-21T11:05:45Z</time>
      </trkpt>
      <trkpt lat="42.76637" lon="1.52746">
        <ele>1301.7624511719</ele>
        <time>2011-03-21T11:05:51Z</time>
      </trkpt>
      <trkpt lat="42.7663" lon="1.52747">
        <ele>1303.2043457031</ele>
        <time>2011-03-21T11:05:57Z</time>
      </trkpt>
      <trkpt lat="42.76625" lon="1.52749">
        <ele>1306.0881347656</ele>
        <time>2011-03-21T11:06:04Z</time>
      </trkpt>
      <trkpt lat="42.7662" lon="1.52749">
        <ele>1308.0112304688</ele>
        <time>2011-03-21T11:06:09Z</time>
      </trkpt>
      <trkpt lat="42.76615" lon="1.52749">
        <ele>1308.0112304688</ele>
        <time>2011-03-21T11:06:12Z</time>
      </trkpt>
      <trkpt lat="42.76608" lon="1.52747">
        <ele>1313.2983398438</ele>
        <time>2011-03-21T11:06:19Z</time>
      </trkpt>
      <trkpt lat="42.76605" lon="1.52746">
        <ele>1316.1821289062</ele>
        <time>2011-03-21T11:06:23Z</time>
      </trkpt>
      <trkpt lat="42.76597" lon="1.52747">
        <ele>1318.1047363281</ele>
        <time>2011-03-21T11:06:30Z</time>
      </trkpt>
      <trkpt lat="42.76593" lon="1.52745">
        <ele>1320.5080566406</ele>
        <time>2011-03-21T11:06:35Z</time>
      </trkpt>
      <trkpt lat="42.76591" lon="1.52742">
        <ele>1323.8725585938</ele>
        <time>2011-03-21T11:06:41Z</time>
      </trkpt>
      <trkpt lat="42.76587" lon="1.52741">
        <ele>1324.8342285156</ele>
        <time>2011-03-21T11:06:45Z</time>
      </trkpt>
      <trkpt lat="42.76581" lon="1.52738">
        <ele>1324.8342285156</ele>
        <time>2011-03-21T11:06:52Z</time>
      </trkpt>
      <trkpt lat="42.76574" lon="1.52734">
        <ele>1325.7954101562</ele>
        <time>2011-03-21T11:07:01Z</time>
      </trkpt>
      <trkpt lat="42.76569" lon="1.5273">
        <ele>1327.2375488281</ele>
        <time>2011-03-21T11:07:08Z</time>
      </trkpt>
      <trkpt lat="42.76565" lon="1.52727">
        <ele>1326.2761230469</ele>
        <time>2011-03-21T11:07:13Z</time>
      </trkpt>
      <trkpt lat="42.76562" lon="1.52722">
        <ele>1327.2375488281</ele>
        <time>2011-03-21T11:07:18Z</time>
      </trkpt>
      <trkpt lat="42.76558" lon="1.52719">
        <ele>1329.640625</ele>
        <time>2011-03-21T11:07:24Z</time>
      </trkpt>
      <trkpt lat="42.76555" lon="1.5272">
        <ele>1330.6020507812</ele>
        <time>2011-03-21T11:07:29Z</time>
      </trkpt>
      <trkpt lat="42.76554" lon="1.52723">
        <ele>1332.0439453125</ele>
        <time>2011-03-21T11:07:33Z</time>
      </trkpt>
      <trkpt lat="42.76555" lon="1.52726">
        <ele>1335.4084472656</ele>
        <time>2011-03-21T11:07:38Z</time>
      </trkpt>
      <trkpt lat="42.76556" lon="1.5273">
        <ele>1335.8891601562</ele>
        <time>2011-03-21T11:07:42Z</time>
      </trkpt>
      <trkpt lat="42.76556" lon="1.52733">
        <ele>1336.3698730469</ele>
        <time>2011-03-21T11:07:46Z</time>
      </trkpt>
      <trkpt lat="42.76555" lon="1.52736">
        <ele>1338.7731933594</ele>
        <time>2011-03-21T11:07:51Z</time>
      </trkpt>
      <trkpt lat="42.76553" lon="1.52735">
        <ele>1341.6572265625</ele>
        <time>2011-03-21T11:07:56Z</time>
      </trkpt>
      <trkpt lat="42.7655" lon="1.52735">
        <ele>1343.0991210938</ele>
        <time>2011-03-21T11:08:01Z</time>
      </trkpt>
      <trkpt lat="42.76547" lon="1.52735">
        <ele>1343.5798339844</ele>
        <time>2011-03-21T11:08:06Z</time>
      </trkpt>
      <trkpt lat="42.76541" lon="1.52732">
        <ele>1344.060546875</ele>
        <time>2011-03-21T11:08:12Z</time>
      </trkpt>
      <trkpt lat="42.76536" lon="1.52731">
        <ele>1344.060546875</ele>
        <time>2011-03-21T11:08:17Z</time>
      </trkpt>
      <trkpt lat="42.76532" lon="1.52729">
        <ele>1344.060546875</ele>
        <time>2011-03-21T11:08:22Z</time>
      </trkpt>
      <trkpt lat="42.76525" lon="1.52728">
        <ele>1345.5024414062</ele>
        <time>2011-03-21T11:08:29Z</time>
      </trkpt>
      <trkpt lat="42.76522" lon="1.52728">
        <ele>1348.3862304688</ele>
        <time>2011-03-21T11:08:34Z</time>
      </trkpt>
      <trkpt lat="42.76521" lon="1.52727">
        <ele>1350.7895507812</ele>
        <time>2011-03-21T11:08:38Z</time>
      </trkpt>
      <trkpt lat="42.76517" lon="1.52728">
        <ele>1352.7121582031</ele>
        <time>2011-03-21T11:08:44Z</time>
      </trkpt>
      <trkpt lat="42.76511" lon="1.52726">
        <ele>1353.1928710938</ele>
        <time>2011-03-21T11:08:50Z</time>
      </trkpt>
      <trkpt lat="42.76502" lon="1.52728">
        <ele>1353.1928710938</ele>
        <time>2011-03-21T11:08:58Z</time>
      </trkpt>
      <trkpt lat="42.765" lon="1.52728">
        <ele>1354.154296875</ele>
        <time>2011-03-21T11:09:00Z</time>
      </trkpt>
      <trkpt lat="42.76498" lon="1.52728">
        <ele>1355.1154785156</ele>
        <time>2011-03-21T11:09:03Z</time>
      </trkpt>
      <trkpt lat="42.76501" lon="1.52727">
        <ele>1358.4802246094</ele>
        <time>2011-03-21T11:09:27Z</time>
      </trkpt>
      <trkpt lat="42.76501" lon="1.52727">
        <ele>1357.9997558594</ele>
        <time>2011-03-21T11:09:28Z</time>
      </trkpt>
      <trkpt lat="42.76501" lon="1.52723">
        <ele>1356.0769042969</ele>
        <time>2011-03-21T11:09:32Z</time>
      </trkpt>
      <trkpt lat="42.76496" lon="1.5272">
        <ele>1356.0769042969</ele>
        <time>2011-03-21T11:09:37Z</time>
      </trkpt>
      <trkpt lat="42.7649" lon="1.52716">
        <ele>1356.0769042969</ele>
        <time>2011-03-21T11:09:43Z</time>
      </trkpt>
      <trkpt lat="42.76482" lon="1.52714">
        <ele>1356.0769042969</ele>
        <time>2011-03-21T11:09:49Z</time>
      </trkpt>
      <trkpt lat="42.76476" lon="1.52711">
        <ele>1356.5576171875</ele>
        <time>2011-03-21T11:09:55Z</time>
      </trkpt>
      <trkpt lat="42.76475" lon="1.52711">
        <ele>1356.5576171875</ele>
        <time>2011-03-21T11:09:56Z</time>
      </trkpt>
      <trkpt lat="42.7647" lon="1.52708">
        <ele>1356.5576171875</ele>
        <time>2011-03-21T11:10:02Z</time>
      </trkpt>
      <trkpt lat="42.76465" lon="1.52706">
        <ele>1357.5190429688</ele>
        <time>2011-03-21T11:10:07Z</time>
      </trkpt>
      <trkpt lat="42.76463" lon="1.52705">
        <ele>1358.4802246094</ele>
        <time>2011-03-21T11:10:09Z</time>
      </trkpt>
      <trkpt lat="42.76457" lon="1.52704">
        <ele>1358.9609375</ele>
        <time>2011-03-21T11:10:14Z</time>
      </trkpt>
      <trkpt lat="42.76449" lon="1.52705">
        <ele>1359.9221191406</ele>
        <time>2011-03-21T11:10:21Z</time>
      </trkpt>
      <trkpt lat="42.7644" lon="1.52704">
        <ele>1361.8449707031</ele>
        <time>2011-03-21T11:10:29Z</time>
      </trkpt>
      <trkpt lat="42.76435" lon="1.52704">
        <ele>1364.248046875</ele>
        <time>2011-03-21T11:10:35Z</time>
      </trkpt>
      <trkpt lat="42.7643" lon="1.52705">
        <ele>1365.6901855469</ele>
        <time>2011-03-21T11:10:40Z</time>
      </trkpt>
      <trkpt lat="42.76424" lon="1.52708">
        <ele>1367.1320800781</ele>
        <time>2011-03-21T11:10:46Z</time>
      </trkpt>
      <trkpt lat="42.76419" lon="1.52711">
        <ele>1367.6125488281</ele>
        <time>2011-03-21T11:10:51Z</time>
      </trkpt>
      <trkpt lat="42.76414" lon="1.52718">
        <ele>1370.0158691406</ele>
        <time>2011-03-21T11:11:00Z</time>
      </trkpt>
      <trkpt lat="42.76413" lon="1.5272">
        <ele>1371.4577636719</ele>
        <time>2011-03-21T11:11:08Z</time>
      </trkpt>
      <trkpt lat="42.7641" lon="1.52724">
        <ele>1372.4194335938</ele>
        <time>2011-03-21T11:11:17Z</time>
      </trkpt>
      <trkpt lat="42.76406" lon="1.5273">
        <ele>1372.9001464844</ele>
        <time>2011-03-21T11:11:23Z</time>
      </trkpt>
      <trkpt lat="42.76402" lon="1.52736">
        <ele>1373.380859375</ele>
        <time>2011-03-21T11:11:28Z</time>
      </trkpt>
      <trkpt lat="42.76398" lon="1.52742">
        <ele>1375.3032226562</ele>
        <time>2011-03-21T11:11:34Z</time>
      </trkpt>
      <trkpt lat="42.76396" lon="1.52747">
        <ele>1376.2646484375</ele>
        <time>2011-03-21T11:11:38Z</time>
      </trkpt>
      <trkpt lat="42.76393" lon="1.52753">
        <ele>1377.7065429688</ele>
        <time>2011-03-21T11:11:43Z</time>
      </trkpt>
      <trkpt lat="42.7639" lon="1.52758">
        <ele>1378.66796875</ele>
        <time>2011-03-21T11:11:47Z</time>
      </trkpt>
      <trkpt lat="42.76389" lon="1.52763">
        <ele>1378.66796875</ele>
        <time>2011-03-21T11:11:51Z</time>
      </trkpt>
      <trkpt lat="42.76388" lon="1.52773">
        <ele>1379.6291503906</ele>
        <time>2011-03-21T11:11:58Z</time>
      </trkpt>
      <trkpt lat="42.76385" lon="1.52781">
        <ele>1381.5517578125</ele>
        <time>2011-03-21T11:12:04Z</time>
      </trkpt>
      <trkpt lat="42.76384" lon="1.52782">
        <ele>1382.0324707031</ele>
        <time>2011-03-21T11:12:05Z</time>
      </trkpt>
      <trkpt lat="42.76383" lon="1.52789">
        <ele>1383.955078125</ele>
        <time>2011-03-21T11:12:10Z</time>
      </trkpt>
      <trkpt lat="42.76383" lon="1.52791">
        <ele>1384.4357910156</ele>
        <time>2011-03-21T11:12:12Z</time>
      </trkpt>
      <trkpt lat="42.76378" lon="1.528">
        <ele>1385.8776855469</ele>
        <time>2011-03-21T11:12:18Z</time>
      </trkpt>
      <trkpt lat="42.76374" lon="1.52808">
        <ele>1387.3195800781</ele>
        <time>2011-03-21T11:12:24Z</time>
      </trkpt>
      <trkpt lat="42.76373" lon="1.52814">
        <ele>1388.28125</ele>
        <time>2011-03-21T11:12:29Z</time>
      </trkpt>
      <trkpt lat="42.76371" lon="1.52821">
        <ele>1390.6843261719</ele>
        <time>2011-03-21T11:12:35Z</time>
      </trkpt>
      <trkpt lat="42.76369" lon="1.52825">
        <ele>1391.1650390625</ele>
        <time>2011-03-21T11:12:40Z</time>
      </trkpt>
      <trkpt lat="42.76368" lon="1.52828">
        <ele>1391.6457519531</ele>
        <time>2011-03-21T11:12:42Z</time>
      </trkpt>
      <trkpt lat="42.76366" lon="1.52836">
        <ele>1392.1264648438</ele>
        <time>2011-03-21T11:12:48Z</time>
      </trkpt>
      <trkpt lat="42.76364" lon="1.52844">
        <ele>1392.6071777344</ele>
        <time>2011-03-21T11:12:55Z</time>
      </trkpt>
      <trkpt lat="42.7636" lon="1.52851">
        <ele>1393.0876464844</ele>
        <time>2011-03-21T11:13:00Z</time>
      </trkpt>
      <trkpt lat="42.76358" lon="1.52856">
        <ele>1394.0490722656</ele>
        <time>2011-03-21T11:13:05Z</time>
      </trkpt>
      <trkpt lat="42.76355" lon="1.52864">
        <ele>1395.4909667969</ele>
        <time>2011-03-21T11:13:12Z</time>
      </trkpt>
      <trkpt lat="42.76351" lon="1.5287">
        <ele>1398.85546875</ele>
        <time>2011-03-21T11:13:18Z</time>
      </trkpt>
      <trkpt lat="42.76349" lon="1.52875">
        <ele>1401.2587890625</ele>
        <time>2011-03-21T11:13:22Z</time>
      </trkpt>
      <trkpt lat="42.76347" lon="1.52879">
        <ele>1401.7395019531</ele>
        <time>2011-03-21T11:13:26Z</time>
      </trkpt>
      <trkpt lat="42.76343" lon="1.52887">
        <ele>1402.7006835938</ele>
        <time>2011-03-21T11:13:32Z</time>
      </trkpt>
      <trkpt lat="42.7634" lon="1.5289">
        <ele>1406.5461425781</ele>
        <time>2011-03-21T11:13:37Z</time>
      </trkpt>
      <trkpt lat="42.76338" lon="1.52894">
        <ele>1409.4301757812</ele>
        <time>2011-03-21T11:13:41Z</time>
      </trkpt>
      <trkpt lat="42.76333" lon="1.529">
        <ele>1413.755859375</ele>
        <time>2011-03-21T11:13:47Z</time>
      </trkpt>
      <trkpt lat="42.7633" lon="1.52904">
        <ele>1415.6787109375</ele>
        <time>2011-03-21T11:13:51Z</time>
      </trkpt>
      <trkpt lat="42.76329" lon="1.52908">
        <ele>1416.6398925781</ele>
        <time>2011-03-21T11:13:54Z</time>
      </trkpt>
      <trkpt lat="42.76325" lon="1.52913">
        <ele>1415.6787109375</ele>
        <time>2011-03-21T11:13:59Z</time>
      </trkpt>
      <trkpt lat="42.7632" lon="1.52921">
        <ele>1415.1979980469</ele>
        <time>2011-03-21T11:14:04Z</time>
      </trkpt>
      <trkpt lat="42.76316" lon="1.52926">
        <ele>1417.1206054688</ele>
        <time>2011-03-21T11:14:09Z</time>
      </trkpt>
      <trkpt lat="42.76314" lon="1.52932">
        <ele>1419.0432128906</ele>
        <time>2011-03-21T11:14:15Z</time>
      </trkpt>
      <trkpt lat="42.76313" lon="1.52935">
        <ele>1420.0046386719</ele>
        <time>2011-03-21T11:14:19Z</time>
      </trkpt>
      <trkpt lat="42.7631" lon="1.5294">
        <ele>1422.4079589844</ele>
        <time>2011-03-21T11:14:24Z</time>
      </trkpt>
      <trkpt lat="42.76306" lon="1.52945">
        <ele>1424.8112792969</ele>
        <time>2011-03-21T11:14:30Z</time>
      </trkpt>
      <trkpt lat="42.76304" lon="1.52949">
        <ele>1425.2917480469</ele>
        <time>2011-03-21T11:14:33Z</time>
      </trkpt>
      <trkpt lat="42.763" lon="1.52958">
        <ele>1420.0046386719</ele>
        <time>2011-03-21T11:14:37Z</time>
      </trkpt>
      <trkpt lat="42.76298" lon="1.52961">
        <ele>1420.0046386719</ele>
        <time>2011-03-21T11:14:40Z</time>
      </trkpt>
      <trkpt lat="42.76294" lon="1.52967">
        <ele>1420.4853515625</ele>
        <time>2011-03-21T11:14:46Z</time>
      </trkpt>
      <trkpt lat="42.76292" lon="1.52971">
        <ele>1422.4079589844</ele>
        <time>2011-03-21T11:14:49Z</time>
      </trkpt>
      <trkpt lat="42.76288" lon="1.52976">
        <ele>1426.2531738281</ele>
        <time>2011-03-21T11:14:55Z</time>
      </trkpt>
      <trkpt lat="42.76284" lon="1.52984">
        <ele>1429.6176757812</ele>
        <time>2011-03-21T11:15:02Z</time>
      </trkpt>
      <trkpt lat="42.76281" lon="1.52988">
        <ele>1432.0209960938</ele>
        <time>2011-03-21T11:15:06Z</time>
      </trkpt>
      <trkpt lat="42.76279" lon="1.5299">
        <ele>1434.9050292969</ele>
        <time>2011-03-21T11:15:10Z</time>
      </trkpt>
      <trkpt lat="42.76269" lon="1.52996">
        <ele>1436.3471679688</ele>
        <time>2011-03-21T11:15:18Z</time>
      </trkpt>
      <trkpt lat="42.76266" lon="1.53">
        <ele>1438.2697753906</ele>
        <time>2011-03-21T11:15:22Z</time>
      </trkpt>
      <trkpt lat="42.76262" lon="1.53006">
        <ele>1436.8276367188</ele>
        <time>2011-03-21T11:15:26Z</time>
      </trkpt>
      <trkpt lat="42.76258" lon="1.53009">
        <ele>1438.7504882812</ele>
        <time>2011-03-21T11:15:31Z</time>
      </trkpt>
      <trkpt lat="42.76255" lon="1.53012">
        <ele>1439.2309570312</ele>
        <time>2011-03-21T11:15:34Z</time>
      </trkpt>
      <trkpt lat="42.76253" lon="1.53014">
        <ele>1441.6342773438</ele>
        <time>2011-03-21T11:15:37Z</time>
      </trkpt>
      <trkpt lat="42.7625" lon="1.53018">
        <ele>1442.1149902344</ele>
        <time>2011-03-21T11:15:41Z</time>
      </trkpt>
      <trkpt lat="42.76244" lon="1.53023">
        <ele>1445.4794921875</ele>
        <time>2011-03-21T11:15:48Z</time>
      </trkpt>
      <trkpt lat="42.76241" lon="1.53025">
        <ele>1444.5180664062</ele>
        <time>2011-03-21T11:15:52Z</time>
      </trkpt>
      <trkpt lat="42.76237" lon="1.5303">
        <ele>1444.9987792969</ele>
        <time>2011-03-21T11:15:57Z</time>
      </trkpt>
      <trkpt lat="42.76231" lon="1.53039">
        <ele>1438.2697753906</ele>
        <time>2011-03-21T11:16:04Z</time>
      </trkpt>
      <trkpt lat="42.76225" lon="1.53044">
        <ele>1436.8276367188</ele>
        <time>2011-03-21T11:16:09Z</time>
      </trkpt>
      <trkpt lat="42.7622" lon="1.53046">
        <ele>1435.3854980469</ele>
        <time>2011-03-21T11:16:13Z</time>
      </trkpt>
      <trkpt lat="42.76217" lon="1.53048">
        <ele>1436.3471679688</ele>
        <time>2011-03-21T11:16:17Z</time>
      </trkpt>
      <trkpt lat="42.76213" lon="1.53051">
        <ele>1440.1923828125</ele>
        <time>2011-03-21T11:16:22Z</time>
      </trkpt>
      <trkpt lat="42.76207" lon="1.53055">
        <ele>1439.7116699219</ele>
        <time>2011-03-21T11:16:28Z</time>
      </trkpt>
      <trkpt lat="42.762" lon="1.53059">
        <ele>1444.0375976562</ele>
        <time>2011-03-21T11:16:35Z</time>
      </trkpt>
      <trkpt lat="42.76199" lon="1.5306">
        <ele>1443.5568847656</ele>
        <time>2011-03-21T11:16:36Z</time>
      </trkpt>
      <trkpt lat="42.76197" lon="1.53063">
        <ele>1443.076171875</ele>
        <time>2011-03-21T11:16:38Z</time>
      </trkpt>
      <trkpt lat="42.76193" lon="1.53065">
        <ele>1442.1149902344</ele>
        <time>2011-03-21T11:16:42Z</time>
      </trkpt>
      <trkpt lat="42.76184" lon="1.53068">
        <ele>1439.7116699219</ele>
        <time>2011-03-21T11:16:50Z</time>
      </trkpt>
      <trkpt lat="42.76178" lon="1.53068">
        <ele>1439.7116699219</ele>
        <time>2011-03-21T11:16:55Z</time>
      </trkpt>
      <trkpt lat="42.76174" lon="1.53069">
        <ele>1439.2309570312</ele>
        <time>2011-03-21T11:16:59Z</time>
      </trkpt>
      <trkpt lat="42.7617" lon="1.53069">
        <ele>1439.7116699219</ele>
        <time>2011-03-21T11:17:02Z</time>
      </trkpt>
      <trkpt lat="42.76165" lon="1.53066">
        <ele>1444.0375976562</ele>
        <time>2011-03-21T11:17:06Z</time>
      </trkpt>
      <trkpt lat="42.76157" lon="1.53065">
        <ele>1445.9602050781</ele>
        <time>2011-03-21T11:17:12Z</time>
      </trkpt>
      <trkpt lat="42.76154" lon="1.53065">
        <ele>1445.9602050781</ele>
        <time>2011-03-21T11:17:14Z</time>
      </trkpt>
      <trkpt lat="42.76149" lon="1.53065">
        <ele>1446.9213867188</ele>
        <time>2011-03-21T11:17:19Z</time>
      </trkpt>
      <trkpt lat="42.76143" lon="1.53063">
        <ele>1448.8439941406</ele>
        <time>2011-03-21T11:17:25Z</time>
      </trkpt>
      <trkpt lat="42.76138" lon="1.53063">
        <ele>1449.8054199219</ele>
        <time>2011-03-21T11:17:29Z</time>
      </trkpt>
      <trkpt lat="42.76131" lon="1.53061">
        <ele>1451.2473144531</ele>
        <time>2011-03-21T11:17:34Z</time>
      </trkpt>
      <trkpt lat="42.76124" lon="1.5306">
        <ele>1452.2087402344</ele>
        <time>2011-03-21T11:17:41Z</time>
      </trkpt>
      <trkpt lat="42.76117" lon="1.53058">
        <ele>1453.6508789062</ele>
        <time>2011-03-21T11:17:47Z</time>
      </trkpt>
      <trkpt lat="42.76115" lon="1.53057">
        <ele>1453.1701660156</ele>
        <time>2011-03-21T11:17:49Z</time>
      </trkpt>
      <trkpt lat="42.76108" lon="1.53054">
        <ele>1454.6120605469</ele>
        <time>2011-03-21T11:17:56Z</time>
      </trkpt>
      <trkpt lat="42.76103" lon="1.53051">
        <ele>1456.0539550781</ele>
        <time>2011-03-21T11:18:02Z</time>
      </trkpt>
      <trkpt lat="42.76096" lon="1.53049">
        <ele>1457.0153808594</ele>
        <time>2011-03-21T11:18:09Z</time>
      </trkpt>
      <trkpt lat="42.76093" lon="1.53047">
        <ele>1460.8605957031</ele>
        <time>2011-03-21T11:18:14Z</time>
      </trkpt>
      <trkpt lat="42.76089" lon="1.53044">
        <ele>1462.783203125</ele>
        <time>2011-03-21T11:18:18Z</time>
      </trkpt>
      <trkpt lat="42.76085" lon="1.53044">
        <ele>1464.7058105469</ele>
        <time>2011-03-21T11:18:21Z</time>
      </trkpt>
      <trkpt lat="42.76081" lon="1.53041">
        <ele>1464.7058105469</ele>
        <time>2011-03-21T11:18:25Z</time>
      </trkpt>
      <trkpt lat="42.76073" lon="1.53037">
        <ele>1463.7443847656</ele>
        <time>2011-03-21T11:18:33Z</time>
      </trkpt>
      <trkpt lat="42.76064" lon="1.53034">
        <ele>1462.783203125</ele>
        <time>2011-03-21T11:18:41Z</time>
      </trkpt>
      <trkpt lat="42.76062" lon="1.53033">
        <ele>1464.7058105469</ele>
        <time>2011-03-21T11:18:44Z</time>
      </trkpt>
      <trkpt lat="42.76056" lon="1.53027">
        <ele>1470.4738769531</ele>
        <time>2011-03-21T11:18:51Z</time>
      </trkpt>
      <trkpt lat="42.76057" lon="1.53028">
        <ele>1475.2802734375</ele>
        <time>2011-03-21T11:18:58Z</time>
      </trkpt>
      <trkpt lat="42.76059" lon="1.5303">
        <ele>1478.1643066406</ele>
        <time>2011-03-21T11:19:03Z</time>
      </trkpt>
      <trkpt lat="42.76057" lon="1.53032">
        <ele>1478.6450195312</ele>
        <time>2011-03-21T11:19:07Z</time>
      </trkpt>
      <trkpt lat="42.76046" lon="1.53035">
        <ele>1477.68359375</ele>
        <time>2011-03-21T11:19:46Z</time>
      </trkpt>
      <trkpt lat="42.76046" lon="1.53035">
        <ele>1477.203125</ele>
        <time>2011-03-21T11:19:47Z</time>
      </trkpt>
      <trkpt lat="42.76042" lon="1.53033">
        <ele>1477.68359375</ele>
        <time>2011-03-21T11:19:50Z</time>
      </trkpt>
      <trkpt lat="42.76037" lon="1.53028">
        <ele>1480.0869140625</ele>
        <time>2011-03-21T11:19:57Z</time>
      </trkpt>
      <trkpt lat="42.76034" lon="1.53027">
        <ele>1479.1254882812</ele>
        <time>2011-03-21T11:20:00Z</time>
      </trkpt>
      <trkpt lat="42.76027" lon="1.53018">
        <ele>1480.0869140625</ele>
        <time>2011-03-21T11:20:07Z</time>
      </trkpt>
      <trkpt lat="42.76019" lon="1.53011">
        <ele>1481.0483398438</ele>
        <time>2011-03-21T11:20:14Z</time>
      </trkpt>
      <trkpt lat="42.76012" lon="1.53003">
        <ele>1482.0095214844</ele>
        <time>2011-03-21T11:20:21Z</time>
      </trkpt>
      <trkpt lat="42.76003" lon="1.52999">
        <ele>1482.0095214844</ele>
        <time>2011-03-21T11:20:28Z</time>
      </trkpt>
      <trkpt lat="42.75996" lon="1.52993">
        <ele>1482.970703125</ele>
        <time>2011-03-21T11:20:34Z</time>
      </trkpt>
      <trkpt lat="42.75991" lon="1.52986">
        <ele>1484.8937988281</ele>
        <time>2011-03-21T11:20:40Z</time>
      </trkpt>
      <trkpt lat="42.75987" lon="1.52982">
        <ele>1485.8549804688</ele>
        <time>2011-03-21T11:20:44Z</time>
      </trkpt>
      <trkpt lat="42.75979" lon="1.52975">
        <ele>1485.8549804688</ele>
        <time>2011-03-21T11:20:51Z</time>
      </trkpt>
      <trkpt lat="42.75978" lon="1.52974">
        <ele>1486.3356933594</ele>
        <time>2011-03-21T11:20:52Z</time>
      </trkpt>
      <trkpt lat="42.75969" lon="1.52968">
        <ele>1484.8937988281</ele>
        <time>2011-03-21T11:21:00Z</time>
      </trkpt>
      <trkpt lat="42.7596" lon="1.52964">
        <ele>1484.4130859375</ele>
        <time>2011-03-21T11:21:06Z</time>
      </trkpt>
      <trkpt lat="42.75952" lon="1.52956">
        <ele>1484.4130859375</ele>
        <time>2011-03-21T11:21:14Z</time>
      </trkpt>
      <trkpt lat="42.75946" lon="1.52947">
        <ele>1483.4514160156</ele>
        <time>2011-03-21T11:21:21Z</time>
      </trkpt>
      <trkpt lat="42.75945" lon="1.52946">
        <ele>1482.970703125</ele>
        <time>2011-03-21T11:21:22Z</time>
      </trkpt>
      <trkpt lat="42.75939" lon="1.52937">
        <ele>1484.4130859375</ele>
        <time>2011-03-21T11:21:29Z</time>
      </trkpt>
      <trkpt lat="42.75933" lon="1.52932">
        <ele>1484.4130859375</ele>
        <time>2011-03-21T11:21:35Z</time>
      </trkpt>
      <trkpt lat="42.75924" lon="1.5293">
        <ele>1486.3356933594</ele>
        <time>2011-03-21T11:21:43Z</time>
      </trkpt>
      <trkpt lat="42.75917" lon="1.52931">
        <ele>1487.296875</ele>
        <time>2011-03-21T11:21:48Z</time>
      </trkpt>
      <trkpt lat="42.75908" lon="1.52935">
        <ele>1488.7390136719</ele>
        <time>2011-03-21T11:21:55Z</time>
      </trkpt>
      <trkpt lat="42.75903" lon="1.5294">
        <ele>1489.7001953125</ele>
        <time>2011-03-21T11:22:01Z</time>
      </trkpt>
      <trkpt lat="42.75897" lon="1.52945">
        <ele>1489.7001953125</ele>
        <time>2011-03-21T11:22:06Z</time>
      </trkpt>
      <trkpt lat="42.7589" lon="1.52952">
        <ele>1491.6228027344</ele>
        <time>2011-03-21T11:22:13Z</time>
      </trkpt>
      <trkpt lat="42.75883" lon="1.52959">
        <ele>1492.5842285156</ele>
        <time>2011-03-21T11:22:19Z</time>
      </trkpt>
      <trkpt lat="42.75876" lon="1.52968">
        <ele>1493.5454101562</ele>
        <time>2011-03-21T11:22:26Z</time>
      </trkpt>
      <trkpt lat="42.75869" lon="1.52978">
        <ele>1494.9873046875</ele>
        <time>2011-03-21T11:22:33Z</time>
      </trkpt>
      <trkpt lat="42.75864" lon="1.52982">
        <ele>1497.390625</ele>
        <time>2011-03-21T11:22:39Z</time>
      </trkpt>
      <trkpt lat="42.75857" lon="1.52988">
        <ele>1497.390625</ele>
        <time>2011-03-21T11:22:45Z</time>
      </trkpt>
      <trkpt lat="42.75856" lon="1.52989">
        <ele>1497.390625</ele>
        <time>2011-03-21T11:22:46Z</time>
      </trkpt>
      <trkpt lat="42.75851" lon="1.52992">
        <ele>1497.390625</ele>
        <time>2011-03-21T11:22:50Z</time>
      </trkpt>
      <trkpt lat="42.7584" lon="1.52995">
        <ele>1496.4294433594</ele>
        <time>2011-03-21T11:22:58Z</time>
      </trkpt>
      <trkpt lat="42.75835" lon="1.52999">
        <ele>1496.4294433594</ele>
        <time>2011-03-21T11:23:03Z</time>
      </trkpt>
      <trkpt lat="42.75827" lon="1.53008">
        <ele>1499.3132324219</ele>
        <time>2011-03-21T11:23:10Z</time>
      </trkpt>
      <trkpt lat="42.75823" lon="1.53011">
        <ele>1501.2360839844</ele>
        <time>2011-03-21T11:23:14Z</time>
      </trkpt>
      <trkpt lat="42.75818" lon="1.53015">
        <ele>1502.6779785156</ele>
        <time>2011-03-21T11:23:19Z</time>
      </trkpt>
      <trkpt lat="42.75811" lon="1.53019">
        <ele>1503.1586914062</ele>
        <time>2011-03-21T11:23:26Z</time>
      </trkpt>
      <trkpt lat="42.75805" lon="1.53024">
        <ele>1504.6005859375</ele>
        <time>2011-03-21T11:23:31Z</time>
      </trkpt>
      <trkpt lat="42.75797" lon="1.5303">
        <ele>1505.5620117188</ele>
        <time>2011-03-21T11:23:36Z</time>
      </trkpt>
      <trkpt lat="42.75791" lon="1.53036">
        <ele>1505.0812988281</ele>
        <time>2011-03-21T11:23:42Z</time>
      </trkpt>
      <trkpt lat="42.75781" lon="1.53039">
        <ele>1502.197265625</ele>
        <time>2011-03-21T11:23:49Z</time>
      </trkpt>
      <trkpt lat="42.75772" lon="1.53038">
        <ele>1503.1586914062</ele>
        <time>2011-03-21T11:23:55Z</time>
      </trkpt>
      <trkpt lat="42.75769" lon="1.53037">
        <ele>1503.6394042969</ele>
        <time>2011-03-21T11:23:57Z</time>
      </trkpt>
      <trkpt lat="42.75764" lon="1.53038">
        <ele>1504.6005859375</ele>
        <time>2011-03-21T11:24:01Z</time>
      </trkpt>
      <trkpt lat="42.75753" lon="1.53036">
        <ele>1505.5620117188</ele>
        <time>2011-03-21T11:24:08Z</time>
      </trkpt>
      <trkpt lat="42.75749" lon="1.53036">
        <ele>1506.5231933594</ele>
        <time>2011-03-21T11:24:11Z</time>
      </trkpt>
      <trkpt lat="42.75739" lon="1.53034">
        <ele>1510.8491210938</ele>
        <time>2011-03-21T11:24:19Z</time>
      </trkpt>
      <trkpt lat="42.75731" lon="1.53034">
        <ele>1513.2524414062</ele>
        <time>2011-03-21T11:24:25Z</time>
      </trkpt>
      <trkpt lat="42.75721" lon="1.53032">
        <ele>1514.6943359375</ele>
        <time>2011-03-21T11:24:32Z</time>
      </trkpt>
      <trkpt lat="42.7572" lon="1.53031">
        <ele>1515.1750488281</ele>
        <time>2011-03-21T11:24:33Z</time>
      </trkpt>
      <trkpt lat="42.75709" lon="1.53033">
        <ele>1516.1364746094</ele>
        <time>2011-03-21T11:24:40Z</time>
      </trkpt>
      <trkpt lat="42.75702" lon="1.53033">
        <ele>1515.6557617188</ele>
        <time>2011-03-21T11:24:45Z</time>
      </trkpt>
      <trkpt lat="42.75693" lon="1.53031">
        <ele>1514.2136230469</ele>
        <time>2011-03-21T11:24:52Z</time>
      </trkpt>
      <trkpt lat="42.75692" lon="1.53031">
        <ele>1514.2136230469</ele>
        <time>2011-03-21T11:24:53Z</time>
      </trkpt>
      <trkpt lat="42.75684" lon="1.5303">
        <ele>1513.7329101562</ele>
        <time>2011-03-21T11:24:59Z</time>
      </trkpt>
      <trkpt lat="42.75679" lon="1.5303">
        <ele>1513.2524414062</ele>
        <time>2011-03-21T11:25:02Z</time>
      </trkpt>
      <trkpt lat="42.7567" lon="1.53026">
        <ele>1513.7329101562</ele>
        <time>2011-03-21T11:25:09Z</time>
      </trkpt>
      <trkpt lat="42.75668" lon="1.53024">
        <ele>1514.2136230469</ele>
        <time>2011-03-21T11:25:11Z</time>
      </trkpt>
      <trkpt lat="42.7566" lon="1.53021">
        <ele>1513.7329101562</ele>
        <time>2011-03-21T11:25:18Z</time>
      </trkpt>
      <trkpt lat="42.75654" lon="1.53014">
        <ele>1515.6557617188</ele>
        <time>2011-03-21T11:25:25Z</time>
      </trkpt>
      <trkpt lat="42.75653" lon="1.53012">
        <ele>1517.5783691406</ele>
        <time>2011-03-21T11:25:27Z</time>
      </trkpt>
      <trkpt lat="42.75645" lon="1.53007">
        <ele>1519.0205078125</ele>
        <time>2011-03-21T11:25:34Z</time>
      </trkpt>
      <trkpt lat="42.75634" lon="1.53002">
        <ele>1518.5397949219</ele>
        <time>2011-03-21T11:25:39Z</time>
      </trkpt>
      <trkpt lat="42.75628" lon="1.52999">
        <ele>1519.9816894531</ele>
        <time>2011-03-21T11:25:43Z</time>
      </trkpt>
      <trkpt lat="42.7562" lon="1.52993">
        <ele>1528.1528320312</ele>
        <time>2011-03-21T11:26:17Z</time>
      </trkpt>
      <trkpt lat="42.75619" lon="1.52993">
        <ele>1527.1916503906</ele>
        <time>2011-03-21T11:26:18Z</time>
      </trkpt>
      <trkpt lat="42.7561" lon="1.52991">
        <ele>1524.7883300781</ele>
        <time>2011-03-21T11:26:22Z</time>
      </trkpt>
      <trkpt lat="42.75599" lon="1.52987">
        <ele>1522.3850097656</ele>
        <time>2011-03-21T11:26:27Z</time>
      </trkpt>
      <trkpt lat="42.75589" lon="1.52984">
        <ele>1519.5012207031</ele>
        <time>2011-03-21T11:26:31Z</time>
      </trkpt>
      <trkpt lat="42.7558" lon="1.52981">
        <ele>1516.1364746094</ele>
        <time>2011-03-21T11:26:35Z</time>
      </trkpt>
      <trkpt lat="42.75565" lon="1.52979">
        <ele>1513.2524414062</ele>
        <time>2011-03-21T11:26:40Z</time>
      </trkpt>
      <trkpt lat="42.75555" lon="1.52978">
        <ele>1511.810546875</ele>
        <time>2011-03-21T11:26:44Z</time>
      </trkpt>
      <trkpt lat="42.75549" lon="1.52978">
        <ele>1513.7329101562</ele>
        <time>2011-03-21T11:26:49Z</time>
      </trkpt>
      <trkpt lat="42.75539" lon="1.52982">
        <ele>1513.7329101562</ele>
        <time>2011-03-21T11:26:54Z</time>
      </trkpt>
      <trkpt lat="42.75528" lon="1.52986">
        <ele>1513.7329101562</ele>
        <time>2011-03-21T11:26:59Z</time>
      </trkpt>
      <trkpt lat="42.75517" lon="1.52991">
        <ele>1512.291015625</ele>
        <time>2011-03-21T11:27:04Z</time>
      </trkpt>
      <trkpt lat="42.755" lon="1.52999">
        <ele>1516.6171875</ele>
        <time>2011-03-21T11:27:10Z</time>
      </trkpt>
      <trkpt lat="42.75489" lon="1.53008">
        <ele>1514.2136230469</ele>
        <time>2011-03-21T11:27:15Z</time>
      </trkpt>
      <trkpt lat="42.75481" lon="1.53012">
        <ele>1510.3684082031</ele>
        <time>2011-03-21T11:27:19Z</time>
      </trkpt>
      <trkpt lat="42.75475" lon="1.53014">
        <ele>1508.4458007812</ele>
        <time>2011-03-21T11:27:22Z</time>
      </trkpt>
      <trkpt lat="42.75468" lon="1.53019">
        <ele>1507.00390625</ele>
        <time>2011-03-21T11:27:26Z</time>
      </trkpt>
      <trkpt lat="42.75458" lon="1.53027">
        <ele>1505.5620117188</ele>
        <time>2011-03-21T11:27:31Z</time>
      </trkpt>
      <trkpt lat="42.75446" lon="1.53038">
        <ele>1503.1586914062</ele>
        <time>2011-03-21T11:27:37Z</time>
      </trkpt>
      <trkpt lat="42.75438" lon="1.53046">
        <ele>1499.7939453125</ele>
        <time>2011-03-21T11:27:41Z</time>
      </trkpt>
      <trkpt lat="42.75433" lon="1.53051">
        <ele>1497.8713378906</ele>
        <time>2011-03-21T11:27:43Z</time>
      </trkpt>
      <trkpt lat="42.7543" lon="1.53055">
        <ele>1496.9099121094</ele>
        <time>2011-03-21T11:27:45Z</time>
      </trkpt>
      <trkpt lat="42.75419" lon="1.5306">
        <ele>1502.6779785156</ele>
        <time>2011-03-21T11:28:04Z</time>
      </trkpt>
      <trkpt lat="42.75418" lon="1.5306">
        <ele>1502.6779785156</ele>
        <time>2011-03-21T11:28:05Z</time>
      </trkpt>
      <trkpt lat="42.75414" lon="1.5307">
        <ele>1503.1586914062</ele>
        <time>2011-03-21T11:28:08Z</time>
      </trkpt>
      <trkpt lat="42.75409" lon="1.5309">
        <ele>1501.716796875</ele>
        <time>2011-03-21T11:28:14Z</time>
      </trkpt>
      <trkpt lat="42.75407" lon="1.531">
        <ele>1501.2360839844</ele>
        <time>2011-03-21T11:28:17Z</time>
      </trkpt>
      <trkpt lat="42.75402" lon="1.53116">
        <ele>1498.3518066406</ele>
        <time>2011-03-21T11:28:22Z</time>
      </trkpt>
      <trkpt lat="42.75399" lon="1.53122">
        <ele>1496.9099121094</ele>
        <time>2011-03-21T11:28:24Z</time>
      </trkpt>
      <trkpt lat="42.75394" lon="1.53136">
        <ele>1495.4680175781</ele>
        <time>2011-03-21T11:28:29Z</time>
      </trkpt>
      <trkpt lat="42.75391" lon="1.53151">
        <ele>1493.5454101562</ele>
        <time>2011-03-21T11:28:34Z</time>
      </trkpt>
      <trkpt lat="42.75388" lon="1.53164">
        <ele>1493.5454101562</ele>
        <time>2011-03-21T11:28:39Z</time>
      </trkpt>
      <trkpt lat="42.75383" lon="1.53173">
        <ele>1493.0646972656</ele>
        <time>2011-03-21T11:28:45Z</time>
      </trkpt>
      <trkpt lat="42.75381" lon="1.53177">
        <ele>1493.0646972656</ele>
        <time>2011-03-21T11:28:47Z</time>
      </trkpt>
      <trkpt lat="42.75378" lon="1.53187">
        <ele>1492.103515625</ele>
        <time>2011-03-21T11:28:51Z</time>
      </trkpt>
      <trkpt lat="42.75372" lon="1.53201">
        <ele>1489.7001953125</ele>
        <time>2011-03-21T11:28:57Z</time>
      </trkpt>
      <trkpt lat="42.75366" lon="1.53214">
        <ele>1489.2194824219</ele>
        <time>2011-03-21T11:29:01Z</time>
      </trkpt>
      <trkpt lat="42.75358" lon="1.53222">
        <ele>1486.3356933594</ele>
        <time>2011-03-21T11:29:05Z</time>
      </trkpt>
      <trkpt lat="42.75356" lon="1.53222">
        <ele>1486.3356933594</ele>
        <time>2011-03-21T11:29:06Z</time>
      </trkpt>
      <trkpt lat="42.7535" lon="1.53218">
        <ele>1485.8549804688</ele>
        <time>2011-03-21T11:29:11Z</time>
      </trkpt>
      <trkpt lat="42.75346" lon="1.53215">
        <ele>1485.8549804688</ele>
        <time>2011-03-21T11:29:19Z</time>
      </trkpt>
      <trkpt lat="42.75343" lon="1.53208">
        <ele>1485.3742675781</ele>
        <time>2011-03-21T11:29:25Z</time>
      </trkpt>
      <trkpt lat="42.75341" lon="1.53203">
        <ele>1485.3742675781</ele>
        <time>2011-03-21T11:29:29Z</time>
      </trkpt>
      <trkpt lat="42.75335" lon="1.53211">
        <ele>1489.7001953125</ele>
        <time>2011-03-21T11:53:11Z</time>
      </trkpt>
      <trkpt lat="42.75335" lon="1.5321">
        <ele>1489.7001953125</ele>
        <time>2011-03-21T11:53:12Z</time>
      </trkpt>
      <trkpt lat="42.75332" lon="1.53201">
        <ele>1488.2583007812</ele>
        <time>2011-03-21T11:53:16Z</time>
      </trkpt>
      <trkpt lat="42.75328" lon="1.53184">
        <ele>1490.1809082031</ele>
        <time>2011-03-21T11:53:22Z</time>
      </trkpt>
      <trkpt lat="42.75326" lon="1.53175">
        <ele>1491.1420898438</ele>
        <time>2011-03-21T11:53:25Z</time>
      </trkpt>
      <trkpt lat="42.75319" lon="1.53166">
        <ele>1494.0261230469</ele>
        <time>2011-03-21T11:53:32Z</time>
      </trkpt>
      <trkpt lat="42.75313" lon="1.53157">
        <ele>1493.0646972656</ele>
        <time>2011-03-21T11:53:40Z</time>
      </trkpt>
      <trkpt lat="42.75307" lon="1.5315">
        <ele>1492.103515625</ele>
        <time>2011-03-21T11:53:48Z</time>
      </trkpt>
      <trkpt lat="42.75298" lon="1.53143">
        <ele>1491.1420898438</ele>
        <time>2011-03-21T11:53:52Z</time>
      </trkpt>
      <trkpt lat="42.75289" lon="1.53135">
        <ele>1490.1809082031</ele>
        <time>2011-03-21T11:53:56Z</time>
      </trkpt>
      <trkpt lat="42.75282" lon="1.53126">
        <ele>1487.7775878906</ele>
        <time>2011-03-21T11:54:00Z</time>
      </trkpt>
      <trkpt lat="42.75274" lon="1.53117">
        <ele>1487.7775878906</ele>
        <time>2011-03-21T11:54:04Z</time>
      </trkpt>
      <trkpt lat="42.75264" lon="1.53103">
        <ele>1485.8549804688</ele>
        <time>2011-03-21T11:54:10Z</time>
      </trkpt>
      <trkpt lat="42.75255" lon="1.53093">
        <ele>1484.4130859375</ele>
        <time>2011-03-21T11:54:15Z</time>
      </trkpt>
      <trkpt lat="42.75242" lon="1.53078">
        <ele>1486.3356933594</ele>
        <time>2011-03-21T11:54:22Z</time>
      </trkpt>
      <trkpt lat="42.7523" lon="1.5307">
        <ele>1490.6613769531</ele>
        <time>2011-03-21T11:54:27Z</time>
      </trkpt>
      <trkpt lat="42.75217" lon="1.53053">
        <ele>1496.9099121094</ele>
        <time>2011-03-21T11:54:34Z</time>
      </trkpt>
      <trkpt lat="42.75216" lon="1.5305">
        <ele>1497.8713378906</ele>
        <time>2011-03-21T11:54:35Z</time>
      </trkpt>
      <trkpt lat="42.75209" lon="1.53035">
        <ele>1497.8713378906</ele>
        <time>2011-03-21T11:54:41Z</time>
      </trkpt>
      <trkpt lat="42.75202" lon="1.53025">
        <ele>1496.9099121094</ele>
        <time>2011-03-21T11:54:45Z</time>
      </trkpt>
      <trkpt lat="42.75198" lon="1.53017">
        <ele>1494.5065917969</ele>
        <time>2011-03-21T11:54:49Z</time>
      </trkpt>
      <trkpt lat="42.75198" lon="1.53006">
        <ele>1501.2360839844</ele>
        <time>2011-03-21T11:54:55Z</time>
      </trkpt>
      <trkpt lat="42.7519" lon="1.52999">
        <ele>1496.9099121094</ele>
        <time>2011-03-21T11:55:01Z</time>
      </trkpt>
      <trkpt lat="42.75181" lon="1.52993">
        <ele>1495.9487304688</ele>
        <time>2011-03-21T11:55:08Z</time>
      </trkpt>
      <trkpt lat="42.75176" lon="1.52987">
        <ele>1495.9487304688</ele>
        <time>2011-03-21T11:55:14Z</time>
      </trkpt>
      <trkpt lat="42.75167" lon="1.5298">
        <ele>1492.5842285156</ele>
        <time>2011-03-21T11:55:21Z</time>
      </trkpt>
      <trkpt lat="42.75163" lon="1.52971">
        <ele>1491.1420898438</ele>
        <time>2011-03-21T11:55:28Z</time>
      </trkpt>
      <trkpt lat="42.75163" lon="1.52962">
        <ele>1499.7939453125</ele>
        <time>2011-03-21T11:55:35Z</time>
      </trkpt>
      <trkpt lat="42.75159" lon="1.52953">
        <ele>1503.6394042969</ele>
        <time>2011-03-21T11:55:42Z</time>
      </trkpt>
      <trkpt lat="42.75159" lon="1.52944">
        <ele>1507.9653320312</ele>
        <time>2011-03-21T11:55:48Z</time>
      </trkpt>
      <trkpt lat="42.75158" lon="1.52942">
        <ele>1506.5231933594</ele>
        <time>2011-03-21T11:55:50Z</time>
      </trkpt>
      <trkpt lat="42.75148" lon="1.52933">
        <ele>1500.2749023438</ele>
        <time>2011-03-21T11:55:59Z</time>
      </trkpt>
      <trkpt lat="42.75143" lon="1.52923">
        <ele>1498.3518066406</ele>
        <time>2011-03-21T11:56:07Z</time>
      </trkpt>
      <trkpt lat="42.75138" lon="1.52915">
        <ele>1496.9099121094</ele>
        <time>2011-03-21T11:56:15Z</time>
      </trkpt>
      <trkpt lat="42.75133" lon="1.52912">
        <ele>1495.9487304688</ele>
        <time>2011-03-21T11:56:19Z</time>
      </trkpt>
      <trkpt lat="42.75127" lon="1.52908">
        <ele>1494.9873046875</ele>
        <time>2011-03-21T11:56:24Z</time>
      </trkpt>
      <trkpt lat="42.75126" lon="1.52902">
        <ele>1497.8713378906</ele>
        <time>2011-03-21T11:56:31Z</time>
      </trkpt>
      <trkpt lat="42.75127" lon="1.529">
        <ele>1501.2360839844</ele>
        <time>2011-03-21T11:56:37Z</time>
      </trkpt>
      <trkpt lat="42.75121" lon="1.52901">
        <ele>1495.4680175781</ele>
        <time>2011-03-21T11:56:51Z</time>
      </trkpt>
      <trkpt lat="42.75114" lon="1.52899">
        <ele>1491.6228027344</ele>
        <time>2011-03-21T11:57:07Z</time>
      </trkpt>
      <trkpt lat="42.7511" lon="1.52897">
        <ele>1490.6613769531</ele>
        <time>2011-03-21T11:57:11Z</time>
      </trkpt>
      <trkpt lat="42.75113" lon="1.52893">
        <ele>1497.8713378906</ele>
        <time>2011-03-21T11:57:15Z</time>
      </trkpt>
      <trkpt lat="42.75109" lon="1.52888">
        <ele>1497.390625</ele>
        <time>2011-03-21T11:57:22Z</time>
      </trkpt>
      <trkpt lat="42.75102" lon="1.52886">
        <ele>1493.0646972656</ele>
        <time>2011-03-21T11:57:28Z</time>
      </trkpt>
      <trkpt lat="42.75098" lon="1.52881">
        <ele>1496.4294433594</ele>
        <time>2011-03-21T11:57:34Z</time>
      </trkpt>
      <trkpt lat="42.75092" lon="1.52879">
        <ele>1494.9873046875</ele>
        <time>2011-03-21T11:57:38Z</time>
      </trkpt>
      <trkpt lat="42.75083" lon="1.52874">
        <ele>1494.0261230469</ele>
        <time>2011-03-21T11:57:46Z</time>
      </trkpt>
      <trkpt lat="42.75081" lon="1.5287">
        <ele>1497.390625</ele>
        <time>2011-03-21T11:57:51Z</time>
      </trkpt>
      <trkpt lat="42.75076" lon="1.52867">
        <ele>1497.8713378906</ele>
        <time>2011-03-21T11:57:55Z</time>
      </trkpt>
      <trkpt lat="42.75071" lon="1.52862">
        <ele>1500.2749023438</ele>
        <time>2011-03-21T11:58:02Z</time>
      </trkpt>
      <trkpt lat="42.75062" lon="1.52858">
        <ele>1493.5454101562</ele>
        <time>2011-03-21T11:58:08Z</time>
      </trkpt>
      <trkpt lat="42.75051" lon="1.52855">
        <ele>1488.7390136719</ele>
        <time>2011-03-21T11:58:16Z</time>
      </trkpt>
      <trkpt lat="42.75041" lon="1.52855">
        <ele>1487.7775878906</ele>
        <time>2011-03-21T11:58:21Z</time>
      </trkpt>
      <trkpt lat="42.75029" lon="1.52852">
        <ele>1483.4514160156</ele>
        <time>2011-03-21T11:58:26Z</time>
      </trkpt>
      <trkpt lat="42.75017" lon="1.52848">
        <ele>1481.5288085938</ele>
        <time>2011-03-21T11:58:31Z</time>
      </trkpt>
      <trkpt lat="42.75005" lon="1.5285">
        <ele>1480.0869140625</ele>
        <time>2011-03-21T11:58:36Z</time>
      </trkpt>
      <trkpt lat="42.74986" lon="1.52848">
        <ele>1480.5676269531</ele>
        <time>2011-03-21T11:58:43Z</time>
      </trkpt>
      <trkpt lat="42.74968" lon="1.52842">
        <ele>1481.5288085938</ele>
        <time>2011-03-21T11:58:50Z</time>
      </trkpt>
      <trkpt lat="42.74966" lon="1.52842">
        <ele>1482.0095214844</ele>
        <time>2011-03-21T11:58:51Z</time>
      </trkpt>
      <trkpt lat="42.74953" lon="1.52843">
        <ele>1483.9321289062</ele>
        <time>2011-03-21T11:58:56Z</time>
      </trkpt>
      <trkpt lat="42.74943" lon="1.52844">
        <ele>1484.4130859375</ele>
        <time>2011-03-21T11:59:00Z</time>
      </trkpt>
      <trkpt lat="42.74933" lon="1.52845">
        <ele>1480.0869140625</ele>
        <time>2011-03-21T11:59:05Z</time>
      </trkpt>
      <trkpt lat="42.74922" lon="1.52844">
        <ele>1478.1643066406</ele>
        <time>2011-03-21T11:59:10Z</time>
      </trkpt>
      <trkpt lat="42.74909" lon="1.52843">
        <ele>1474.3190917969</ele>
        <time>2011-03-21T11:59:16Z</time>
      </trkpt>
      <trkpt lat="42.74898" lon="1.52845">
        <ele>1472.396484375</ele>
        <time>2011-03-21T11:59:21Z</time>
      </trkpt>
      <trkpt lat="42.74888" lon="1.52845">
        <ele>1470.9545898438</ele>
        <time>2011-03-21T11:59:25Z</time>
      </trkpt>
      <trkpt lat="42.74881" lon="1.52845">
        <ele>1471.4350585938</ele>
        <time>2011-03-21T11:59:28Z</time>
      </trkpt>
      <trkpt lat="42.74868" lon="1.52846">
        <ele>1469.9931640625</ele>
        <time>2011-03-21T11:59:34Z</time>
      </trkpt>
      <trkpt lat="42.74864" lon="1.52846">
        <ele>1469.9931640625</ele>
        <time>2011-03-21T11:59:35Z</time>
      </trkpt>
      <trkpt lat="42.74852" lon="1.52842">
        <ele>1467.5895996094</ele>
        <time>2011-03-21T11:59:40Z</time>
      </trkpt>
      <trkpt lat="42.74845" lon="1.52842">
        <ele>1467.1091308594</ele>
        <time>2011-03-21T11:59:43Z</time>
      </trkpt>
      <trkpt lat="42.7483" lon="1.52839">
        <ele>1467.1091308594</ele>
        <time>2011-03-21T11:59:49Z</time>
      </trkpt>
      <trkpt lat="42.74815" lon="1.52839">
        <ele>1471.9157714844</ele>
        <time>2011-03-21T11:59:54Z</time>
      </trkpt>
      <trkpt lat="42.74801" lon="1.52835">
        <ele>1473.8383789062</ele>
        <time>2011-03-21T12:00:00Z</time>
      </trkpt>
      <trkpt lat="42.74788" lon="1.52832">
        <ele>1477.203125</ele>
        <time>2011-03-21T12:00:05Z</time>
      </trkpt>
      <trkpt lat="42.74779" lon="1.52827">
        <ele>1477.68359375</ele>
        <time>2011-03-21T12:00:09Z</time>
      </trkpt>
      <trkpt lat="42.74777" lon="1.52827">
        <ele>1479.6062011719</ele>
        <time>2011-03-21T12:00:10Z</time>
      </trkpt>
      <trkpt lat="42.74763" lon="1.5282">
        <ele>1479.1254882812</ele>
        <time>2011-03-21T12:00:16Z</time>
      </trkpt>
      <trkpt lat="42.74753" lon="1.52819">
        <ele>1479.1254882812</ele>
        <time>2011-03-21T12:00:20Z</time>
      </trkpt>
      <trkpt lat="42.74742" lon="1.52816">
        <ele>1477.68359375</ele>
        <time>2011-03-21T12:00:25Z</time>
      </trkpt>
      <trkpt lat="42.74736" lon="1.52812">
        <ele>1476.7224121094</ele>
        <time>2011-03-21T12:00:29Z</time>
      </trkpt>
      <trkpt lat="42.74734" lon="1.52804">
        <ele>1475.2802734375</ele>
        <time>2011-03-21T12:00:37Z</time>
      </trkpt>
      <trkpt lat="42.74736" lon="1.52802">
        <ele>1477.203125</ele>
        <time>2011-03-21T12:00:48Z</time>
      </trkpt>
      <trkpt lat="42.74736" lon="1.528">
        <ele>1476.2416992188</ele>
        <time>2011-03-21T12:01:07Z</time>
      </trkpt>
      <trkpt lat="42.74737" lon="1.52798">
        <ele>1477.203125</ele>
        <time>2011-03-21T12:01:09Z</time>
      </trkpt>
      <trkpt lat="42.74742" lon="1.52789">
        <ele>1481.5288085938</ele>
        <time>2011-03-21T12:01:14Z</time>
      </trkpt>
      <trkpt lat="42.74754" lon="1.52772">
        <ele>1491.1420898438</ele>
        <time>2011-03-21T12:01:23Z</time>
      </trkpt>
      <trkpt lat="42.74753" lon="1.52761">
        <ele>1484.4130859375</ele>
        <time>2011-03-21T12:01:30Z</time>
      </trkpt>
      <trkpt lat="42.74756" lon="1.52753">
        <ele>1485.3742675781</ele>
        <time>2011-03-21T12:01:35Z</time>
      </trkpt>
      <trkpt lat="42.74763" lon="1.52738">
        <ele>1489.2194824219</ele>
        <time>2011-03-21T12:01:44Z</time>
      </trkpt>
      <trkpt lat="42.74767" lon="1.52725">
        <ele>1488.2583007812</ele>
        <time>2011-03-21T12:01:49Z</time>
      </trkpt>
      <trkpt lat="42.74768" lon="1.52719">
        <ele>1486.3356933594</ele>
        <time>2011-03-21T12:01:51Z</time>
      </trkpt>
      <trkpt lat="42.7477" lon="1.52708">
        <ele>1478.6450195312</ele>
        <time>2011-03-21T12:01:56Z</time>
      </trkpt>
      <trkpt lat="42.74775" lon="1.52694">
        <ele>1474.7998046875</ele>
        <time>2011-03-21T12:02:02Z</time>
      </trkpt>
      <trkpt lat="42.74777" lon="1.52683">
        <ele>1470.9545898438</ele>
        <time>2011-03-21T12:02:06Z</time>
      </trkpt>
      <trkpt lat="42.7478" lon="1.52671">
        <ele>1467.1091308594</ele>
        <time>2011-03-21T12:02:11Z</time>
      </trkpt>
      <trkpt lat="42.74785" lon="1.52653">
        <ele>1466.6284179688</ele>
        <time>2011-03-21T12:02:17Z</time>
      </trkpt>
      <trkpt lat="42.74789" lon="1.5264">
        <ele>1466.6284179688</ele>
        <time>2011-03-21T12:02:22Z</time>
      </trkpt>
      <trkpt lat="42.74794" lon="1.52624">
        <ele>1465.1865234375</ele>
        <time>2011-03-21T12:02:28Z</time>
      </trkpt>
      <trkpt lat="42.74794" lon="1.52619">
        <ele>1463.2639160156</ele>
        <time>2011-03-21T12:02:30Z</time>
      </trkpt>
      <trkpt lat="42.74797" lon="1.52612">
        <ele>1464.7058105469</ele>
        <time>2011-03-21T12:02:36Z</time>
      </trkpt>
      <trkpt lat="42.748" lon="1.52606">
        <ele>1466.1477050781</ele>
        <time>2011-03-21T12:02:41Z</time>
      </trkpt>
      <trkpt lat="42.74799" lon="1.52595">
        <ele>1467.1091308594</ele>
        <time>2011-03-21T12:02:45Z</time>
      </trkpt>
      <trkpt lat="42.748" lon="1.52587">
        <ele>1465.6672363281</ele>
        <time>2011-03-21T12:02:48Z</time>
      </trkpt>
      <trkpt lat="42.74804" lon="1.52582">
        <ele>1465.6672363281</ele>
        <time>2011-03-21T12:02:50Z</time>
      </trkpt>
      <trkpt lat="42.74817" lon="1.52566">
        <ele>1469.5126953125</ele>
        <time>2011-03-21T12:02:56Z</time>
      </trkpt>
      <trkpt lat="42.7482" lon="1.52563">
        <ele>1470.4738769531</ele>
        <time>2011-03-21T12:02:57Z</time>
      </trkpt>
      <trkpt lat="42.74826" lon="1.52554">
        <ele>1471.9157714844</ele>
        <time>2011-03-21T12:03:01Z</time>
      </trkpt>
      <trkpt lat="42.74828" lon="1.52542">
        <ele>1471.9157714844</ele>
        <time>2011-03-21T12:03:04Z</time>
      </trkpt>
      <trkpt lat="42.7483" lon="1.52527">
        <ele>1472.8771972656</ele>
        <time>2011-03-21T12:03:07Z</time>
      </trkpt>
      <trkpt lat="42.74831" lon="1.52523">
        <ele>1472.8771972656</ele>
        <time>2011-03-21T12:03:08Z</time>
      </trkpt>
      <trkpt lat="42.74833" lon="1.52507">
        <ele>1471.4350585938</ele>
        <time>2011-03-21T12:03:13Z</time>
      </trkpt>
      <trkpt lat="42.74832" lon="1.52503">
        <ele>1470.9545898438</ele>
        <time>2011-03-21T12:03:14Z</time>
      </trkpt>
      <trkpt lat="42.74828" lon="1.52486">
        <ele>1468.5512695312</ele>
        <time>2011-03-21T12:03:19Z</time>
      </trkpt>
      <trkpt lat="42.74825" lon="1.52475">
        <ele>1468.0705566406</ele>
        <time>2011-03-21T12:03:23Z</time>
      </trkpt>
      <trkpt lat="42.74821" lon="1.52467">
        <ele>1467.1091308594</ele>
        <time>2011-03-21T12:03:26Z</time>
      </trkpt>
      <trkpt lat="42.74819" lon="1.5246">
        <ele>1467.1091308594</ele>
        <time>2011-03-21T12:03:29Z</time>
      </trkpt>
      <trkpt lat="42.74818" lon="1.52448">
        <ele>1470.9545898438</ele>
        <time>2011-03-21T12:03:33Z</time>
      </trkpt>
      <trkpt lat="42.74817" lon="1.52435">
        <ele>1474.7998046875</ele>
        <time>2011-03-21T12:03:37Z</time>
      </trkpt>
      <trkpt lat="42.74815" lon="1.5242">
        <ele>1480.5676269531</ele>
        <time>2011-03-21T12:03:42Z</time>
      </trkpt>
      <trkpt lat="42.74812" lon="1.52411">
        <ele>1480.5676269531</ele>
        <time>2011-03-21T12:03:46Z</time>
      </trkpt>
      <trkpt lat="42.7481" lon="1.524">
        <ele>1482.0095214844</ele>
        <time>2011-03-21T12:03:50Z</time>
      </trkpt>
      <trkpt lat="42.74807" lon="1.52392">
        <ele>1482.490234375</ele>
        <time>2011-03-21T12:03:53Z</time>
      </trkpt>
      <trkpt lat="42.74805" lon="1.52388">
        <ele>1482.490234375</ele>
        <time>2011-03-21T12:03:55Z</time>
      </trkpt>
      <trkpt lat="42.74801" lon="1.52375">
        <ele>1482.0095214844</ele>
        <time>2011-03-21T12:03:59Z</time>
      </trkpt>
      <trkpt lat="42.74795" lon="1.52358">
        <ele>1480.5676269531</ele>
        <time>2011-03-21T12:04:05Z</time>
      </trkpt>
      <trkpt lat="42.7479" lon="1.52343">
        <ele>1479.6062011719</ele>
        <time>2011-03-21T12:04:09Z</time>
      </trkpt>
      <trkpt lat="42.74786" lon="1.52331">
        <ele>1478.6450195312</ele>
        <time>2011-03-21T12:04:13Z</time>
      </trkpt>
      <trkpt lat="42.74778" lon="1.52317">
        <ele>1475.7609863281</ele>
        <time>2011-03-21T12:04:18Z</time>
      </trkpt>
      <trkpt lat="42.74771" lon="1.52305">
        <ele>1476.2416992188</ele>
        <time>2011-03-21T12:04:22Z</time>
      </trkpt>
      <trkpt lat="42.7477" lon="1.5229">
        <ele>1468.0705566406</ele>
        <time>2011-03-21T12:04:27Z</time>
      </trkpt>
      <trkpt lat="42.74774" lon="1.52281">
        <ele>1465.1865234375</ele>
        <time>2011-03-21T12:04:30Z</time>
      </trkpt>
      <trkpt lat="42.74783" lon="1.52274">
        <ele>1461.3413085938</ele>
        <time>2011-03-21T12:04:35Z</time>
      </trkpt>
      <trkpt lat="42.74788" lon="1.52271">
        <ele>1460.3798828125</ele>
        <time>2011-03-21T12:04:37Z</time>
      </trkpt>
      <trkpt lat="42.74803" lon="1.52264">
        <ele>1458.9379882812</ele>
        <time>2011-03-21T12:04:42Z</time>
      </trkpt>
      <trkpt lat="42.74812" lon="1.52255">
        <ele>1457.49609375</ele>
        <time>2011-03-21T12:04:46Z</time>
      </trkpt>
      <trkpt lat="42.74813" lon="1.52253">
        <ele>1457.0153808594</ele>
        <time>2011-03-21T12:04:47Z</time>
      </trkpt>
      <trkpt lat="42.74826" lon="1.52243">
        <ele>1454.6120605469</ele>
        <time>2011-03-21T12:04:52Z</time>
      </trkpt>
      <trkpt lat="42.74844" lon="1.52232">
        <ele>1453.1701660156</ele>
        <time>2011-03-21T12:04:59Z</time>
      </trkpt>
      <trkpt lat="42.74856" lon="1.52221">
        <ele>1452.689453125</ele>
        <time>2011-03-21T12:05:04Z</time>
      </trkpt>
      <trkpt lat="42.74868" lon="1.52215">
        <ele>1450.7666015625</ele>
        <time>2011-03-21T12:05:08Z</time>
      </trkpt>
      <trkpt lat="42.74879" lon="1.5221">
        <ele>1448.8439941406</ele>
        <time>2011-03-21T12:05:12Z</time>
      </trkpt>
      <trkpt lat="42.74887" lon="1.52206">
        <ele>1447.8828125</ele>
        <time>2011-03-21T12:05:15Z</time>
      </trkpt>
      <trkpt lat="42.74898" lon="1.522">
        <ele>1447.8828125</ele>
        <time>2011-03-21T12:05:19Z</time>
      </trkpt>
      <trkpt lat="42.74908" lon="1.52198">
        <ele>1447.8828125</ele>
        <time>2011-03-21T12:05:23Z</time>
      </trkpt>
      <trkpt lat="42.74922" lon="1.52192">
        <ele>1448.36328125</ele>
        <time>2011-03-21T12:05:28Z</time>
      </trkpt>
      <trkpt lat="42.74935" lon="1.52188">
        <ele>1447.8828125</ele>
        <time>2011-03-21T12:05:33Z</time>
      </trkpt>
      <trkpt lat="42.74937" lon="1.52186">
        <ele>1447.8828125</ele>
        <time>2011-03-21T12:05:34Z</time>
      </trkpt>
      <trkpt lat="42.74951" lon="1.52186">
        <ele>1447.4020996094</ele>
        <time>2011-03-21T12:05:39Z</time>
      </trkpt>
      <trkpt lat="42.74963" lon="1.52189">
        <ele>1447.4020996094</ele>
        <time>2011-03-21T12:05:43Z</time>
      </trkpt>
      <trkpt lat="42.74969" lon="1.52192">
        <ele>1447.4020996094</ele>
        <time>2011-03-21T12:05:45Z</time>
      </trkpt>
      <trkpt lat="42.74982" lon="1.52204">
        <ele>1452.689453125</ele>
        <time>2011-03-21T12:05:51Z</time>
      </trkpt>
      <trkpt lat="42.74995" lon="1.52209">
        <ele>1454.1315917969</ele>
        <time>2011-03-21T12:05:56Z</time>
      </trkpt>
      <trkpt lat="42.75006" lon="1.52206">
        <ele>1451.7280273438</ele>
        <time>2011-03-21T12:06:00Z</time>
      </trkpt>
      <trkpt lat="42.7502" lon="1.52201">
        <ele>1448.8439941406</ele>
        <time>2011-03-21T12:06:04Z</time>
      </trkpt>
      <trkpt lat="42.75032" lon="1.52193">
        <ele>1444.0375976562</ele>
        <time>2011-03-21T12:06:08Z</time>
      </trkpt>
      <trkpt lat="42.75043" lon="1.52182">
        <ele>1440.1923828125</ele>
        <time>2011-03-21T12:06:13Z</time>
      </trkpt>
      <trkpt lat="42.75055" lon="1.52173">
        <ele>1437.3083496094</ele>
        <time>2011-03-21T12:06:17Z</time>
      </trkpt>
      <trkpt lat="42.75063" lon="1.52163">
        <ele>1434.4243164062</ele>
        <time>2011-03-21T12:06:21Z</time>
      </trkpt>
      <trkpt lat="42.75069" lon="1.5215">
        <ele>1431.5402832031</ele>
        <time>2011-03-21T12:06:25Z</time>
      </trkpt>
      <trkpt lat="42.75076" lon="1.52134">
        <ele>1426.2531738281</ele>
        <time>2011-03-21T12:06:31Z</time>
      </trkpt>
      <trkpt lat="42.75077" lon="1.52132">
        <ele>1425.7724609375</ele>
        <time>2011-03-21T12:06:32Z</time>
      </trkpt>
      <trkpt lat="42.75087" lon="1.52112">
        <ele>1424.3305664062</ele>
        <time>2011-03-21T12:06:38Z</time>
      </trkpt>
      <trkpt lat="42.75095" lon="1.52097">
        <ele>1420.9660644531</ele>
        <time>2011-03-21T12:06:43Z</time>
      </trkpt>
      <trkpt lat="42.75105" lon="1.52084">
        <ele>1424.3305664062</ele>
        <time>2011-03-21T12:06:47Z</time>
      </trkpt>
      <trkpt lat="42.75108" lon="1.52082">
        <ele>1425.2917480469</ele>
        <time>2011-03-21T12:06:48Z</time>
      </trkpt>
      <trkpt lat="42.75124" lon="1.52068">
        <ele>1428.17578125</ele>
        <time>2011-03-21T12:06:54Z</time>
      </trkpt>
      <trkpt lat="42.7514" lon="1.52057">
        <ele>1423.3693847656</ele>
        <time>2011-03-21T12:07:01Z</time>
      </trkpt>
      <trkpt lat="42.7515" lon="1.52053">
        <ele>1421.4465332031</ele>
        <time>2011-03-21T12:07:05Z</time>
      </trkpt>
      <trkpt lat="42.75159" lon="1.52055">
        <ele>1419.5239257812</ele>
        <time>2011-03-21T12:07:09Z</time>
      </trkpt>
      <trkpt lat="42.75171" lon="1.5206">
        <ele>1419.5239257812</ele>
        <time>2011-03-21T12:07:14Z</time>
      </trkpt>
      <trkpt lat="42.75188" lon="1.52061">
        <ele>1418.0817871094</ele>
        <time>2011-03-21T12:07:20Z</time>
      </trkpt>
      <trkpt lat="42.75199" lon="1.52056">
        <ele>1416.1591796875</ele>
        <time>2011-03-21T12:07:24Z</time>
      </trkpt>
      <trkpt lat="42.75211" lon="1.52045">
        <ele>1415.6787109375</ele>
        <time>2011-03-21T12:07:29Z</time>
      </trkpt>
      <trkpt lat="42.7522" lon="1.52022">
        <ele>1416.1591796875</ele>
        <time>2011-03-21T12:07:36Z</time>
      </trkpt>
      <trkpt lat="42.75228" lon="1.52001">
        <ele>1416.6398925781</ele>
        <time>2011-03-21T12:07:43Z</time>
      </trkpt>
      <trkpt lat="42.75235" lon="1.51982">
        <ele>1414.2365722656</ele>
        <time>2011-03-21T12:07:50Z</time>
      </trkpt>
      <trkpt lat="42.75246" lon="1.51967">
        <ele>1415.1979980469</ele>
        <time>2011-03-21T12:07:56Z</time>
      </trkpt>
      <trkpt lat="42.75254" lon="1.51951">
        <ele>1414.7172851562</ele>
        <time>2011-03-21T12:08:01Z</time>
      </trkpt>
      <trkpt lat="42.75268" lon="1.5194">
        <ele>1411.8334960938</ele>
        <time>2011-03-21T12:08:07Z</time>
      </trkpt>
      <trkpt lat="42.75283" lon="1.51932">
        <ele>1410.3913574219</ele>
        <time>2011-03-21T12:08:13Z</time>
      </trkpt>
      <trkpt lat="42.75299" lon="1.51926">
        <ele>1410.8720703125</ele>
        <time>2011-03-21T12:08:19Z</time>
      </trkpt>
      <trkpt lat="42.75313" lon="1.51922">
        <ele>1411.3527832031</ele>
        <time>2011-03-21T12:08:24Z</time>
      </trkpt>
      <trkpt lat="42.7533" lon="1.5192">
        <ele>1410.8720703125</ele>
        <time>2011-03-21T12:08:30Z</time>
      </trkpt>
      <trkpt lat="42.75343" lon="1.51923">
        <ele>1410.8720703125</ele>
        <time>2011-03-21T12:08:35Z</time>
      </trkpt>
      <trkpt lat="42.75345" lon="1.51924">
        <ele>1411.3527832031</ele>
        <time>2011-03-21T12:08:36Z</time>
      </trkpt>
      <trkpt lat="42.75358" lon="1.51937">
        <ele>1410.3913574219</ele>
        <time>2011-03-21T12:08:42Z</time>
      </trkpt>
      <trkpt lat="42.75361" lon="1.51938">
        <ele>1409.9106445312</ele>
        <time>2011-03-21T12:08:43Z</time>
      </trkpt>
      <trkpt lat="42.75375" lon="1.51945">
        <ele>1409.9106445312</ele>
        <time>2011-03-21T12:08:49Z</time>
      </trkpt>
      <trkpt lat="42.75378" lon="1.51945">
        <ele>1410.8720703125</ele>
        <time>2011-03-21T12:08:50Z</time>
      </trkpt>
      <trkpt lat="42.75395" lon="1.51938">
        <ele>1409.4301757812</ele>
        <time>2011-03-21T12:08:56Z</time>
      </trkpt>
      <trkpt lat="42.75407" lon="1.51931">
        <ele>1407.98828125</ele>
        <time>2011-03-21T12:09:01Z</time>
      </trkpt>
      <trkpt lat="42.75423" lon="1.51929">
        <ele>1406.0654296875</ele>
        <time>2011-03-21T12:09:07Z</time>
      </trkpt>
      <trkpt lat="42.75434" lon="1.51928">
        <ele>1404.6235351562</ele>
        <time>2011-03-21T12:09:11Z</time>
      </trkpt>
      <trkpt lat="42.75437" lon="1.51928">
        <ele>1404.6235351562</ele>
        <time>2011-03-21T12:09:12Z</time>
      </trkpt>
      <trkpt lat="42.75448" lon="1.51929">
        <ele>1401.2587890625</ele>
        <time>2011-03-21T12:09:16Z</time>
      </trkpt>
      <trkpt lat="42.75464" lon="1.51926">
        <ele>1396.4523925781</ele>
        <time>2011-03-21T12:09:22Z</time>
      </trkpt>
      <trkpt lat="42.7547" lon="1.51924">
        <ele>1394.5295410156</ele>
        <time>2011-03-21T12:09:24Z</time>
      </trkpt>
      <trkpt lat="42.75484" lon="1.51906">
        <ele>1390.6843261719</ele>
        <time>2011-03-21T12:09:31Z</time>
      </trkpt>
      <trkpt lat="42.75494" lon="1.51894">
        <ele>1388.7619628906</ele>
        <time>2011-03-21T12:09:36Z</time>
      </trkpt>
      <trkpt lat="42.75496" lon="1.51892">
        <ele>1388.7619628906</ele>
        <time>2011-03-21T12:09:37Z</time>
      </trkpt>
      <trkpt lat="42.7551" lon="1.5188">
        <ele>1386.8388671875</ele>
        <time>2011-03-21T12:09:42Z</time>
      </trkpt>
      <trkpt lat="42.75513" lon="1.51877">
        <ele>1386.3583984375</ele>
        <time>2011-03-21T12:09:43Z</time>
      </trkpt>
      <trkpt lat="42.75523" lon="1.51864">
        <ele>1390.2038574219</ele>
        <time>2011-03-21T12:09:48Z</time>
      </trkpt>
      <trkpt lat="42.7553" lon="1.51859">
        <ele>1393.0876464844</ele>
        <time>2011-03-21T12:09:50Z</time>
      </trkpt>
      <trkpt lat="42.75541" lon="1.51844">
        <ele>1390.6843261719</ele>
        <time>2011-03-21T12:09:56Z</time>
      </trkpt>
      <trkpt lat="42.75554" lon="1.51826">
        <ele>1389.2424316406</ele>
        <time>2011-03-21T12:10:03Z</time>
      </trkpt>
      <trkpt lat="42.7557" lon="1.51813">
        <ele>1389.7231445312</ele>
        <time>2011-03-21T12:10:09Z</time>
      </trkpt>
      <trkpt lat="42.75577" lon="1.51803">
        <ele>1388.7619628906</ele>
        <time>2011-03-21T12:10:13Z</time>
      </trkpt>
      <trkpt lat="42.75585" lon="1.51792">
        <ele>1388.28125</ele>
        <time>2011-03-21T12:10:17Z</time>
      </trkpt>
      <trkpt lat="42.75597" lon="1.51781">
        <ele>1387.3195800781</ele>
        <time>2011-03-21T12:10:22Z</time>
      </trkpt>
      <trkpt lat="42.75608" lon="1.51769">
        <ele>1385.3969726562</ele>
        <time>2011-03-21T12:10:27Z</time>
      </trkpt>
      <trkpt lat="42.75616" lon="1.51759">
        <ele>1383.4743652344</ele>
        <time>2011-03-21T12:10:31Z</time>
      </trkpt>
      <trkpt lat="42.75627" lon="1.51745">
        <ele>1382.9936523438</ele>
        <time>2011-03-21T12:10:36Z</time>
      </trkpt>
      <trkpt lat="42.75634" lon="1.51735">
        <ele>1381.5517578125</ele>
        <time>2011-03-21T12:10:40Z</time>
      </trkpt>
      <trkpt lat="42.75644" lon="1.51721">
        <ele>1380.5905761719</ele>
        <time>2011-03-21T12:10:45Z</time>
      </trkpt>
      <trkpt lat="42.75653" lon="1.5171">
        <ele>1379.1484375</ele>
        <time>2011-03-21T12:10:49Z</time>
      </trkpt>
      <trkpt lat="42.75662" lon="1.517">
        <ele>1383.955078125</ele>
        <time>2011-03-21T12:10:53Z</time>
      </trkpt>
      <trkpt lat="42.75664" lon="1.51698">
        <ele>1384.9165039062</ele>
        <time>2011-03-21T12:10:54Z</time>
      </trkpt>
      <trkpt lat="42.75679" lon="1.51685">
        <ele>1383.4743652344</ele>
        <time>2011-03-21T12:11:00Z</time>
      </trkpt>
      <trkpt lat="42.7569" lon="1.51674">
        <ele>1382.5131835938</ele>
        <time>2011-03-21T12:11:05Z</time>
      </trkpt>
      <trkpt lat="42.75699" lon="1.51665">
        <ele>1380.1098632812</ele>
        <time>2011-03-21T12:11:09Z</time>
      </trkpt>
      <trkpt lat="42.75706" lon="1.51657">
        <ele>1377.2260742188</ele>
        <time>2011-03-21T12:11:13Z</time>
      </trkpt>
      <trkpt lat="42.75717" lon="1.5165">
        <ele>1374.3420410156</ele>
        <time>2011-03-21T12:11:17Z</time>
      </trkpt>
      <trkpt lat="42.75731" lon="1.51642">
        <ele>1370.9772949219</ele>
        <time>2011-03-21T12:11:22Z</time>
      </trkpt>
      <trkpt lat="42.75739" lon="1.51638">
        <ele>1368.5739746094</ele>
        <time>2011-03-21T12:11:25Z</time>
      </trkpt>
      <trkpt lat="42.75755" lon="1.51626">
        <ele>1365.2094726562</ele>
        <time>2011-03-21T12:11:31Z</time>
      </trkpt>
      <trkpt lat="42.7576" lon="1.51622">
        <ele>1364.7287597656</ele>
        <time>2011-03-21T12:11:34Z</time>
      </trkpt>
      <trkpt lat="42.75769" lon="1.51619">
        <ele>1366.6513671875</ele>
        <time>2011-03-21T12:11:39Z</time>
      </trkpt>
      <trkpt lat="42.7577" lon="1.51619">
        <ele>1368.0932617188</ele>
        <time>2011-03-21T12:11:40Z</time>
      </trkpt>
      <trkpt lat="42.75778" lon="1.51616">
        <ele>1370.4965820312</ele>
        <time>2011-03-21T12:11:45Z</time>
      </trkpt>
      <trkpt lat="42.75784" lon="1.51612">
        <ele>1369.5354003906</ele>
        <time>2011-03-21T12:11:50Z</time>
      </trkpt>
      <trkpt lat="42.75793" lon="1.51608">
        <ele>1371.4577636719</ele>
        <time>2011-03-21T12:11:56Z</time>
      </trkpt>
      <trkpt lat="42.75803" lon="1.51602">
        <ele>1370.9772949219</ele>
        <time>2011-03-21T12:12:01Z</time>
      </trkpt>
      <trkpt lat="42.75813" lon="1.51597">
        <ele>1367.6125488281</ele>
        <time>2011-03-21T12:12:05Z</time>
      </trkpt>
      <trkpt lat="42.75825" lon="1.51588">
        <ele>1365.2094726562</ele>
        <time>2011-03-21T12:12:10Z</time>
      </trkpt>
      <trkpt lat="42.75837" lon="1.51581">
        <ele>1362.8061523438</ele>
        <time>2011-03-21T12:12:15Z</time>
      </trkpt>
      <trkpt lat="42.75847" lon="1.51572">
        <ele>1360.4028320312</ele>
        <time>2011-03-21T12:12:19Z</time>
      </trkpt>
      <trkpt lat="42.75859" lon="1.5156">
        <ele>1359.9221191406</ele>
        <time>2011-03-21T12:12:24Z</time>
      </trkpt>
      <trkpt lat="42.75872" lon="1.51545">
        <ele>1358.9609375</ele>
        <time>2011-03-21T12:12:30Z</time>
      </trkpt>
      <trkpt lat="42.75874" lon="1.51543">
        <ele>1358.9609375</ele>
        <time>2011-03-21T12:12:31Z</time>
      </trkpt>
      <trkpt lat="42.75886" lon="1.51531">
        <ele>1357.9997558594</ele>
        <time>2011-03-21T12:12:36Z</time>
      </trkpt>
      <trkpt lat="42.75891" lon="1.51524">
        <ele>1356.0769042969</ele>
        <time>2011-03-21T12:12:39Z</time>
      </trkpt>
      <trkpt lat="42.75905" lon="1.51508">
        <ele>1355.1154785156</ele>
        <time>2011-03-21T12:12:45Z</time>
      </trkpt>
      <trkpt lat="42.75918" lon="1.51492">
        <ele>1354.154296875</ele>
        <time>2011-03-21T12:12:51Z</time>
      </trkpt>
      <trkpt lat="42.75932" lon="1.51471">
        <ele>1352.7121582031</ele>
        <time>2011-03-21T12:12:58Z</time>
      </trkpt>
      <trkpt lat="42.75933" lon="1.51467">
        <ele>1352.7121582031</ele>
        <time>2011-03-21T12:12:59Z</time>
      </trkpt>
      <trkpt lat="42.75943" lon="1.51448">
        <ele>1352.2314453125</ele>
        <time>2011-03-21T12:13:05Z</time>
      </trkpt>
      <trkpt lat="42.75951" lon="1.51429">
        <ele>1350.3090820312</ele>
        <time>2011-03-21T12:13:11Z</time>
      </trkpt>
      <trkpt lat="42.75958" lon="1.51408">
        <ele>1346.9443359375</ele>
        <time>2011-03-21T12:13:17Z</time>
      </trkpt>
      <trkpt lat="42.75964" lon="1.51389">
        <ele>1345.9831542969</ele>
        <time>2011-03-21T12:13:22Z</time>
      </trkpt>
      <trkpt lat="42.7597" lon="1.51377">
        <ele>1344.541015625</ele>
        <time>2011-03-21T12:13:26Z</time>
      </trkpt>
      <trkpt lat="42.75978" lon="1.51362">
        <ele>1342.1379394531</ele>
        <time>2011-03-21T12:13:31Z</time>
      </trkpt>
      <trkpt lat="42.7598" lon="1.51359">
        <ele>1341.6572265625</ele>
        <time>2011-03-21T12:13:32Z</time>
      </trkpt>
      <trkpt lat="42.75993" lon="1.5134">
        <ele>1341.6572265625</ele>
        <time>2011-03-21T12:13:39Z</time>
      </trkpt>
      <trkpt lat="42.76003" lon="1.51326">
        <ele>1340.6958007812</ele>
        <time>2011-03-21T12:13:44Z</time>
      </trkpt>
      <trkpt lat="42.76015" lon="1.51314">
        <ele>1340.6958007812</ele>
        <time>2011-03-21T12:13:49Z</time>
      </trkpt>
      <trkpt lat="42.76027" lon="1.51304">
        <ele>1340.6958007812</ele>
        <time>2011-03-21T12:13:54Z</time>
      </trkpt>
      <trkpt lat="42.76044" lon="1.51296">
        <ele>1339.734375</ele>
        <time>2011-03-21T12:14:00Z</time>
      </trkpt>
      <trkpt lat="42.76056" lon="1.51291">
        <ele>1339.2536621094</ele>
        <time>2011-03-21T12:14:05Z</time>
      </trkpt>
      <trkpt lat="42.76062" lon="1.51289">
        <ele>1340.6958007812</ele>
        <time>2011-03-21T12:14:09Z</time>
      </trkpt>
      <trkpt lat="42.76073" lon="1.51287">
        <ele>1339.734375</ele>
        <time>2011-03-21T12:14:16Z</time>
      </trkpt>
      <trkpt lat="42.7608" lon="1.51284">
        <ele>1337.8117675781</ele>
        <time>2011-03-21T12:14:21Z</time>
      </trkpt>
      <trkpt lat="42.76087" lon="1.5128">
        <ele>1339.2536621094</ele>
        <time>2011-03-21T12:14:26Z</time>
      </trkpt>
      <trkpt lat="42.76094" lon="1.51278">
        <ele>1339.734375</ele>
        <time>2011-03-21T12:14:32Z</time>
      </trkpt>
      <trkpt lat="42.76099" lon="1.51276">
        <ele>1338.7731933594</ele>
        <time>2011-03-21T12:14:36Z</time>
      </trkpt>
      <trkpt lat="42.76112" lon="1.51271">
        <ele>1337.8117675781</ele>
        <time>2011-03-21T12:14:41Z</time>
      </trkpt>
      <trkpt lat="42.76128" lon="1.51267">
        <ele>1333.9665527344</ele>
        <time>2011-03-21T12:14:46Z</time>
      </trkpt>
      <trkpt lat="42.76143" lon="1.51267">
        <ele>1332.0439453125</ele>
        <time>2011-03-21T12:14:51Z</time>
      </trkpt>
      <trkpt lat="42.76154" lon="1.51266">
        <ele>1329.1599121094</ele>
        <time>2011-03-21T12:14:55Z</time>
      </trkpt>
      <trkpt lat="42.76165" lon="1.51268">
        <ele>1325.7954101562</ele>
        <time>2011-03-21T12:14:59Z</time>
      </trkpt>
      <trkpt lat="42.76174" lon="1.51269">
        <ele>1325.7954101562</ele>
        <time>2011-03-21T12:15:02Z</time>
      </trkpt>
      <trkpt lat="42.76197" lon="1.51275">
        <ele>1328.6794433594</ele>
        <time>2011-03-21T12:15:10Z</time>
      </trkpt>
      <trkpt lat="42.76209" lon="1.51277">
        <ele>1330.6020507812</ele>
        <time>2011-03-21T12:15:14Z</time>
      </trkpt>
      <trkpt lat="42.76219" lon="1.51278">
        <ele>1332.0439453125</ele>
        <time>2011-03-21T12:15:18Z</time>
      </trkpt>
      <trkpt lat="42.76232" lon="1.51278">
        <ele>1333.9665527344</ele>
        <time>2011-03-21T12:15:23Z</time>
      </trkpt>
      <trkpt lat="42.76244" lon="1.51275">
        <ele>1333.4858398438</ele>
        <time>2011-03-21T12:15:27Z</time>
      </trkpt>
      <trkpt lat="42.76254" lon="1.51267">
        <ele>1331.0827636719</ele>
        <time>2011-03-21T12:15:31Z</time>
      </trkpt>
      <trkpt lat="42.76256" lon="1.5126">
        <ele>1329.1599121094</ele>
        <time>2011-03-21T12:15:34Z</time>
      </trkpt>
      <trkpt lat="42.76261" lon="1.51246">
        <ele>1328.1987304688</ele>
        <time>2011-03-21T12:15:42Z</time>
      </trkpt>
      <trkpt lat="42.76262" lon="1.5124">
        <ele>1328.6794433594</ele>
        <time>2011-03-21T12:15:46Z</time>
      </trkpt>
      <trkpt lat="42.76266" lon="1.51228">
        <ele>1329.1599121094</ele>
        <time>2011-03-21T12:15:53Z</time>
      </trkpt>
      <trkpt lat="42.76272" lon="1.51214">
        <ele>1330.1213378906</ele>
        <time>2011-03-21T12:16:01Z</time>
      </trkpt>
      <trkpt lat="42.76276" lon="1.51204">
        <ele>1330.1213378906</ele>
        <time>2011-03-21T12:16:07Z</time>
      </trkpt>
      <trkpt lat="42.76279" lon="1.51197">
        <ele>1330.1213378906</ele>
        <time>2011-03-21T12:16:11Z</time>
      </trkpt>
      <trkpt lat="42.76283" lon="1.51186">
        <ele>1330.6020507812</ele>
        <time>2011-03-21T12:16:17Z</time>
      </trkpt>
      <trkpt lat="42.76289" lon="1.51172">
        <ele>1331.0827636719</ele>
        <time>2011-03-21T12:16:25Z</time>
      </trkpt>
      <trkpt lat="42.7629" lon="1.51169">
        <ele>1331.0827636719</ele>
        <time>2011-03-21T12:16:26Z</time>
      </trkpt>
      <trkpt lat="42.76295" lon="1.51151">
        <ele>1332.0439453125</ele>
        <time>2011-03-21T12:16:35Z</time>
      </trkpt>
      <trkpt lat="42.76298" lon="1.5114">
        <ele>1332.5246582031</ele>
        <time>2011-03-21T12:16:41Z</time>
      </trkpt>
      <trkpt lat="42.76299" lon="1.51133">
        <ele>1332.5246582031</ele>
        <time>2011-03-21T12:16:44Z</time>
      </trkpt>
      <trkpt lat="42.76299" lon="1.51128">
        <ele>1331.5632324219</ele>
        <time>2011-03-21T12:16:47Z</time>
      </trkpt>
      <trkpt lat="42.763" lon="1.51118">
        <ele>1330.6020507812</ele>
        <time>2011-03-21T12:16:52Z</time>
      </trkpt>
      <trkpt lat="42.76302" lon="1.51109">
        <ele>1329.640625</ele>
        <time>2011-03-21T12:16:57Z</time>
      </trkpt>
      <trkpt lat="42.76303" lon="1.51098">
        <ele>1329.1599121094</ele>
        <time>2011-03-21T12:17:03Z</time>
      </trkpt>
      <trkpt lat="42.76305" lon="1.51085">
        <ele>1328.1987304688</ele>
        <time>2011-03-21T12:17:09Z</time>
      </trkpt>
      <trkpt lat="42.76312" lon="1.51071">
        <ele>1329.640625</ele>
        <time>2011-03-21T12:17:17Z</time>
      </trkpt>
      <trkpt lat="42.7632" lon="1.51059">
        <ele>1329.640625</ele>
        <time>2011-03-21T12:17:25Z</time>
      </trkpt>
      <trkpt lat="42.76324" lon="1.51046">
        <ele>1329.1599121094</ele>
        <time>2011-03-21T12:17:32Z</time>
      </trkpt>
      <trkpt lat="42.76327" lon="1.51032">
        <ele>1329.640625</ele>
        <time>2011-03-21T12:17:39Z</time>
      </trkpt>
      <trkpt lat="42.76329" lon="1.51017">
        <ele>1330.1213378906</ele>
        <time>2011-03-21T12:17:46Z</time>
      </trkpt>
      <trkpt lat="42.76329" lon="1.51004">
        <ele>1330.1213378906</ele>
        <time>2011-03-21T12:17:53Z</time>
      </trkpt>
      <trkpt lat="42.76329" lon="1.51002">
        <ele>1330.6020507812</ele>
        <time>2011-03-21T12:17:54Z</time>
      </trkpt>
      <trkpt lat="42.76325" lon="1.50988">
        <ele>1335.4084472656</ele>
        <time>2011-03-21T12:18:03Z</time>
      </trkpt>
      <trkpt lat="42.76318" lon="1.50975">
        <ele>1336.8503417969</ele>
        <time>2011-03-21T12:18:12Z</time>
      </trkpt>
      <trkpt lat="42.76314" lon="1.50968">
        <ele>1335.8891601562</ele>
        <time>2011-03-21T12:18:19Z</time>
      </trkpt>
      <trkpt lat="42.76315" lon="1.50968">
        <ele>1334.9279785156</ele>
        <time>2011-03-21T12:18:24Z</time>
      </trkpt>
      <trkpt lat="42.76315" lon="1.50967">
        <ele>1333.4858398438</ele>
        <time>2011-03-21T12:18:34Z</time>
      </trkpt>
      <trkpt lat="42.76313" lon="1.50963">
        <ele>1333.0051269531</ele>
        <time>2011-03-21T12:18:40Z</time>
      </trkpt>
      <trkpt lat="42.76313" lon="1.50963">
        <ele>1333.4858398438</ele>
        <time>2011-03-21T12:18:45Z</time>
      </trkpt>
      <trkpt lat="42.76306" lon="1.50955">
        <ele>1333.9665527344</ele>
        <time>2011-03-21T12:18:53Z</time>
      </trkpt>
      <trkpt lat="42.76305" lon="1.50955">
        <ele>1334.447265625</ele>
        <time>2011-03-21T12:18:59Z</time>
      </trkpt>
      <trkpt lat="42.76307" lon="1.50957">
        <ele>1334.447265625</ele>
        <time>2011-03-21T12:19:04Z</time>
      </trkpt>
      <trkpt lat="42.76312" lon="1.50963">
        <ele>1332.5246582031</ele>
        <time>2011-03-21T12:19:10Z</time>
      </trkpt>
      <trkpt lat="42.76318" lon="1.50979">
        <ele>1333.0051269531</ele>
        <time>2011-03-21T12:21:16Z</time>
      </trkpt>
      <trkpt lat="42.7632" lon="1.50979">
        <ele>1333.4858398438</ele>
        <time>2011-03-21T12:21:17Z</time>
      </trkpt>
      <trkpt lat="42.76325" lon="1.50984">
        <ele>1332.0439453125</ele>
        <time>2011-03-21T12:21:21Z</time>
      </trkpt>
      <trkpt lat="42.76328" lon="1.50986">
        <ele>1331.5632324219</ele>
        <time>2011-03-21T12:21:23Z</time>
      </trkpt>
      <trkpt lat="42.76334" lon="1.50997">
        <ele>1330.6020507812</ele>
        <time>2011-03-21T12:21:31Z</time>
      </trkpt>
      <trkpt lat="42.76342" lon="1.51004">
        <ele>1328.6794433594</ele>
        <time>2011-03-21T12:21:37Z</time>
      </trkpt>
      <trkpt lat="42.76348" lon="1.51011">
        <ele>1327.7180175781</ele>
        <time>2011-03-21T12:21:42Z</time>
      </trkpt>
      <trkpt lat="42.76352" lon="1.51015">
        <ele>1326.7568359375</ele>
        <time>2011-03-21T12:21:46Z</time>
      </trkpt>
      <trkpt lat="42.76355" lon="1.51021">
        <ele>1326.2761230469</ele>
        <time>2011-03-21T12:21:48Z</time>
      </trkpt>
      <trkpt lat="42.76358" lon="1.5104">
        <ele>1321.4692382812</ele>
        <time>2011-03-21T12:21:54Z</time>
      </trkpt>
      <trkpt lat="42.76355" lon="1.51055">
        <ele>1318.1047363281</ele>
        <time>2011-03-21T12:21:58Z</time>
      </trkpt>
      <trkpt lat="42.76352" lon="1.51068">
        <ele>1315.2209472656</ele>
        <time>2011-03-21T12:22:02Z</time>
      </trkpt>
      <trkpt lat="42.76352" lon="1.51086">
        <ele>1313.7788085938</ele>
        <time>2011-03-21T12:22:07Z</time>
      </trkpt>
      <trkpt lat="42.76354" lon="1.51105">
        <ele>1311.8564453125</ele>
        <time>2011-03-21T12:22:12Z</time>
      </trkpt>
      <trkpt lat="42.76354" lon="1.51109">
        <ele>1311.3757324219</ele>
        <time>2011-03-21T12:22:13Z</time>
      </trkpt>
      <trkpt lat="42.76352" lon="1.51123">
        <ele>1309.453125</ele>
        <time>2011-03-21T12:22:17Z</time>
      </trkpt>
      <trkpt lat="42.76351" lon="1.51127">
        <ele>1309.453125</ele>
        <time>2011-03-21T12:22:18Z</time>
      </trkpt>
      <trkpt lat="42.76343" lon="1.51147">
        <ele>1305.126953125</ele>
        <time>2011-03-21T12:22:24Z</time>
      </trkpt>
      <trkpt lat="42.76342" lon="1.51163">
        <ele>1303.2043457031</ele>
        <time>2011-03-21T12:22:28Z</time>
      </trkpt>
      <trkpt lat="42.76342" lon="1.51179">
        <ele>1301.2817382812</ele>
        <time>2011-03-21T12:22:32Z</time>
      </trkpt>
      <trkpt lat="42.76337" lon="1.51199">
        <ele>1299.83984375</ele>
        <time>2011-03-21T12:22:37Z</time>
      </trkpt>
      <trkpt lat="42.76332" lon="1.51212">
        <ele>1297.9172363281</ele>
        <time>2011-03-21T12:22:41Z</time>
      </trkpt>
      <trkpt lat="42.76329" lon="1.51226">
        <ele>1295.5139160156</ele>
        <time>2011-03-21T12:22:45Z</time>
      </trkpt>
      <trkpt lat="42.76324" lon="1.51244">
        <ele>1294.5524902344</ele>
        <time>2011-03-21T12:22:50Z</time>
      </trkpt>
      <trkpt lat="42.76321" lon="1.51259">
        <ele>1293.5913085938</ele>
        <time>2011-03-21T12:22:54Z</time>
      </trkpt>
      <trkpt lat="42.76316" lon="1.51282">
        <ele>1291.6684570312</ele>
        <time>2011-03-21T12:23:00Z</time>
      </trkpt>
      <trkpt lat="42.76313" lon="1.51297">
        <ele>1290.2265625</ele>
        <time>2011-03-21T12:23:04Z</time>
      </trkpt>
      <trkpt lat="42.76308" lon="1.51313">
        <ele>1290.70703125</ele>
        <time>2011-03-21T12:23:08Z</time>
      </trkpt>
      <trkpt lat="42.76305" lon="1.51325">
        <ele>1289.2651367188</ele>
        <time>2011-03-21T12:23:12Z</time>
      </trkpt>
      <trkpt lat="42.76301" lon="1.51338">
        <ele>1288.3039550781</ele>
        <time>2011-03-21T12:23:20Z</time>
      </trkpt>
      <trkpt lat="42.76298" lon="1.51351">
        <ele>1287.8232421875</ele>
        <time>2011-03-21T12:23:30Z</time>
      </trkpt>
      <trkpt lat="42.76296" lon="1.51357">
        <ele>1287.3425292969</ele>
        <time>2011-03-21T12:23:37Z</time>
      </trkpt>
      <trkpt lat="42.76291" lon="1.51366">
        <ele>1285.9006347656</ele>
        <time>2011-03-21T12:23:44Z</time>
      </trkpt>
      <trkpt lat="42.76283" lon="1.51374">
        <ele>1284.4587402344</ele>
        <time>2011-03-21T12:23:51Z</time>
      </trkpt>
      <trkpt lat="42.76271" lon="1.51381">
        <ele>1285.419921875</ele>
        <time>2011-03-21T12:23:56Z</time>
      </trkpt>
      <trkpt lat="42.76262" lon="1.51385">
        <ele>1284.939453125</ele>
        <time>2011-03-21T12:24:00Z</time>
      </trkpt>
      <trkpt lat="42.76252" lon="1.51387">
        <ele>1289.2651367188</ele>
        <time>2011-03-21T12:24:04Z</time>
      </trkpt>
      <trkpt lat="42.7624" lon="1.51386">
        <ele>1289.2651367188</ele>
        <time>2011-03-21T12:24:08Z</time>
      </trkpt>
      <trkpt lat="42.7623" lon="1.51386">
        <ele>1290.70703125</ele>
        <time>2011-03-21T12:24:11Z</time>
      </trkpt>
      <trkpt lat="42.7621" lon="1.51393">
        <ele>1293.5913085938</ele>
        <time>2011-03-21T12:24:17Z</time>
      </trkpt>
      <trkpt lat="42.76196" lon="1.51401">
        <ele>1291.1877441406</ele>
        <time>2011-03-21T12:24:22Z</time>
      </trkpt>
      <trkpt lat="42.76182" lon="1.51407">
        <ele>1288.3039550781</ele>
        <time>2011-03-21T12:24:27Z</time>
      </trkpt>
      <trkpt lat="42.76163" lon="1.51414">
        <ele>1283.0166015625</ele>
        <time>2011-03-21T12:24:33Z</time>
      </trkpt>
      <trkpt lat="42.76149" lon="1.51419">
        <ele>1277.7294921875</ele>
        <time>2011-03-21T12:24:38Z</time>
      </trkpt>
      <trkpt lat="42.76138" lon="1.51424">
        <ele>1271.4807128906</ele>
        <time>2011-03-21T12:24:43Z</time>
      </trkpt>
      <trkpt lat="42.76125" lon="1.51434">
        <ele>1265.232421875</ele>
        <time>2011-03-21T12:24:49Z</time>
      </trkpt>
      <trkpt lat="42.76117" lon="1.51443">
        <ele>1261.3872070312</ele>
        <time>2011-03-21T12:24:53Z</time>
      </trkpt>
      <trkpt lat="42.7611" lon="1.51464">
        <ele>1262.8291015625</ele>
        <time>2011-03-21T12:24:58Z</time>
      </trkpt>
      <trkpt lat="42.76106" lon="1.51484">
        <ele>1259.9448242188</ele>
        <time>2011-03-21T12:25:03Z</time>
      </trkpt>
      <trkpt lat="42.76101" lon="1.51507">
        <ele>1254.6577148438</ele>
        <time>2011-03-21T12:25:09Z</time>
      </trkpt>
      <trkpt lat="42.76096" lon="1.51524">
        <ele>1251.2932128906</ele>
        <time>2011-03-21T12:25:14Z</time>
      </trkpt>
      <trkpt lat="42.76091" lon="1.51539">
        <ele>1249.8513183594</ele>
        <time>2011-03-21T12:25:18Z</time>
      </trkpt>
      <trkpt lat="42.76088" lon="1.51549">
        <ele>1248.8898925781</ele>
        <time>2011-03-21T12:25:21Z</time>
      </trkpt>
      <trkpt lat="42.76082" lon="1.51564">
        <ele>1248.4091796875</ele>
        <time>2011-03-21T12:25:26Z</time>
      </trkpt>
      <trkpt lat="42.76073" lon="1.51575">
        <ele>1249.3706054688</ele>
        <time>2011-03-21T12:25:31Z</time>
      </trkpt>
      <trkpt lat="42.76067" lon="1.5159">
        <ele>1248.8898925781</ele>
        <time>2011-03-21T12:25:36Z</time>
      </trkpt>
      <trkpt lat="42.76062" lon="1.51603">
        <ele>1247.9287109375</ele>
        <time>2011-03-21T12:25:40Z</time>
      </trkpt>
      <trkpt lat="42.76055" lon="1.51619">
        <ele>1245.525390625</ele>
        <time>2011-03-21T12:25:45Z</time>
      </trkpt>
      <trkpt lat="42.76046" lon="1.51632">
        <ele>1244.5639648438</ele>
        <time>2011-03-21T12:25:50Z</time>
      </trkpt>
      <trkpt lat="42.76037" lon="1.51648">
        <ele>1244.0834960938</ele>
        <time>2011-03-21T12:25:56Z</time>
      </trkpt>
      <trkpt lat="42.7603" lon="1.5166">
        <ele>1243.6025390625</ele>
        <time>2011-03-21T12:26:00Z</time>
      </trkpt>
      <trkpt lat="42.76024" lon="1.51678">
        <ele>1239.7573242188</ele>
        <time>2011-03-21T12:26:06Z</time>
      </trkpt>
      <trkpt lat="42.76018" lon="1.51696">
        <ele>1240.7185058594</ele>
        <time>2011-03-21T12:26:11Z</time>
      </trkpt>
      <trkpt lat="42.76011" lon="1.51714">
        <ele>1242.6413574219</ele>
        <time>2011-03-21T12:26:16Z</time>
      </trkpt>
      <trkpt lat="42.76007" lon="1.51732">
        <ele>1243.1218261719</ele>
        <time>2011-03-21T12:26:21Z</time>
      </trkpt>
      <trkpt lat="42.76006" lon="1.51734">
        <ele>1242.6413574219</ele>
        <time>2011-03-21T12:26:22Z</time>
      </trkpt>
      <trkpt lat="42.76" lon="1.51755">
        <ele>1244.5639648438</ele>
        <time>2011-03-21T12:26:28Z</time>
      </trkpt>
      <trkpt lat="42.75995" lon="1.5177">
        <ele>1243.6025390625</ele>
        <time>2011-03-21T12:26:32Z</time>
      </trkpt>
      <trkpt lat="42.75988" lon="1.51782">
        <ele>1244.0834960938</ele>
        <time>2011-03-21T12:26:36Z</time>
      </trkpt>
      <trkpt lat="42.75975" lon="1.51794">
        <ele>1246.4868164062</ele>
        <time>2011-03-21T12:26:41Z</time>
      </trkpt>
      <trkpt lat="42.7597" lon="1.518">
        <ele>1247.4479980469</ele>
        <time>2011-03-21T12:26:43Z</time>
      </trkpt>
      <trkpt lat="42.75956" lon="1.5182">
        <ele>1241.19921875</ele>
        <time>2011-03-21T12:26:50Z</time>
      </trkpt>
      <trkpt lat="42.75948" lon="1.51828">
        <ele>1234.9509277344</ele>
        <time>2011-03-21T12:26:55Z</time>
      </trkpt>
      <trkpt lat="42.75935" lon="1.51838">
        <ele>1229.6635742188</ele>
        <time>2011-03-21T12:27:00Z</time>
      </trkpt>
      <trkpt lat="42.75923" lon="1.51851">
        <ele>1228.2216796875</ele>
        <time>2011-03-21T12:27:05Z</time>
      </trkpt>
      <trkpt lat="42.75913" lon="1.51864">
        <ele>1227.2602539062</ele>
        <time>2011-03-21T12:27:10Z</time>
      </trkpt>
      <trkpt lat="42.75906" lon="1.51875">
        <ele>1224.3762207031</ele>
        <time>2011-03-21T12:27:15Z</time>
      </trkpt>
      <trkpt lat="42.75898" lon="1.51887">
        <ele>1222.4536132812</ele>
        <time>2011-03-21T12:27:20Z</time>
      </trkpt>
      <trkpt lat="42.75888" lon="1.51906">
        <ele>1220.5310058594</ele>
        <time>2011-03-21T12:27:26Z</time>
      </trkpt>
      <trkpt lat="42.7588" lon="1.51918">
        <ele>1217.1665039062</ele>
        <time>2011-03-21T12:27:30Z</time>
      </trkpt>
      <trkpt lat="42.75877" lon="1.51925">
        <ele>1215.2438964844</ele>
        <time>2011-03-21T12:27:32Z</time>
      </trkpt>
      <trkpt lat="42.75867" lon="1.51934">
        <ele>1213.3212890625</ele>
        <time>2011-03-21T12:27:37Z</time>
      </trkpt>
      <trkpt lat="42.75859" lon="1.51936">
        <ele>1211.8791503906</ele>
        <time>2011-03-21T12:27:40Z</time>
      </trkpt>
      <trkpt lat="42.75854" lon="1.51948">
        <ele>1208.9951171875</ele>
        <time>2011-03-21T12:27:44Z</time>
      </trkpt>
      <trkpt lat="42.75846" lon="1.51967">
        <ele>1207.5532226562</ele>
        <time>2011-03-21T12:27:49Z</time>
      </trkpt>
      <trkpt lat="42.75838" lon="1.51984">
        <ele>1208.9951171875</ele>
        <time>2011-03-21T12:27:54Z</time>
      </trkpt>
      <trkpt lat="42.7583" lon="1.52">
        <ele>1208.5144042969</ele>
        <time>2011-03-21T12:27:59Z</time>
      </trkpt>
      <trkpt lat="42.75824" lon="1.52015">
        <ele>1209.9562988281</ele>
        <time>2011-03-21T12:28:03Z</time>
      </trkpt>
      <trkpt lat="42.75821" lon="1.52034">
        <ele>1210.4370117188</ele>
        <time>2011-03-21T12:28:08Z</time>
      </trkpt>
      <trkpt lat="42.75818" lon="1.52051">
        <ele>1208.9951171875</ele>
        <time>2011-03-21T12:28:13Z</time>
      </trkpt>
      <trkpt lat="42.75816" lon="1.52066">
        <ele>1208.5144042969</ele>
        <time>2011-03-21T12:28:18Z</time>
      </trkpt>
      <trkpt lat="42.75813" lon="1.52076">
        <ele>1209.4758300781</ele>
        <time>2011-03-21T12:28:22Z</time>
      </trkpt>
      <trkpt lat="42.75807" lon="1.52091">
        <ele>1209.9562988281</ele>
        <time>2011-03-21T12:28:26Z</time>
      </trkpt>
      <trkpt lat="42.758" lon="1.52103">
        <ele>1207.5532226562</ele>
        <time>2011-03-21T12:28:31Z</time>
      </trkpt>
      <trkpt lat="42.75795" lon="1.52108">
        <ele>1206.1110839844</ele>
        <time>2011-03-21T12:28:35Z</time>
      </trkpt>
      <trkpt lat="42.75795" lon="1.52113">
        <ele>1206.1110839844</ele>
        <time>2011-03-21T12:28:39Z</time>
      </trkpt>
      <trkpt lat="42.75801" lon="1.52111">
        <ele>1203.2272949219</ele>
        <time>2011-03-21T12:28:44Z</time>
      </trkpt>
      <trkpt lat="42.75801" lon="1.5211">
        <ele>1202.7465820312</ele>
        <time>2011-03-21T12:28:45Z</time>
      </trkpt>
      <trkpt lat="42.75803" lon="1.52107">
        <ele>1202.7465820312</ele>
        <time>2011-03-21T12:28:47Z</time>
      </trkpt>
      <trkpt lat="42.75809" lon="1.521">
        <ele>1203.7080078125</ele>
        <time>2011-03-21T12:28:54Z</time>
      </trkpt>
      <trkpt lat="42.7581" lon="1.52098">
        <ele>1202.7465820312</ele>
        <time>2011-03-21T12:28:56Z</time>
      </trkpt>
      <trkpt lat="42.75816" lon="1.5209">
        <ele>1200.8239746094</ele>
        <time>2011-03-21T12:29:02Z</time>
      </trkpt>
      <trkpt lat="42.75821" lon="1.52081">
        <ele>1194.5751953125</ele>
        <time>2011-03-21T12:29:06Z</time>
      </trkpt>
      <trkpt lat="42.7583" lon="1.52069">
        <ele>1188.3269042969</ele>
        <time>2011-03-21T12:29:11Z</time>
      </trkpt>
      <trkpt lat="42.75836" lon="1.52057">
        <ele>1189.2880859375</ele>
        <time>2011-03-21T12:29:14Z</time>
      </trkpt>
      <trkpt lat="42.75846" lon="1.52041">
        <ele>1185.4428710938</ele>
        <time>2011-03-21T12:29:19Z</time>
      </trkpt>
      <trkpt lat="42.75849" lon="1.52038">
        <ele>1184.0009765625</ele>
        <time>2011-03-21T12:29:20Z</time>
      </trkpt>
      <trkpt lat="42.75861" lon="1.52023">
        <ele>1184.9624023438</ele>
        <time>2011-03-21T12:29:25Z</time>
      </trkpt>
      <trkpt lat="42.75872" lon="1.52015">
        <ele>1184.9624023438</ele>
        <time>2011-03-21T12:29:30Z</time>
      </trkpt>
      <trkpt lat="42.75882" lon="1.52004">
        <ele>1184.0009765625</ele>
        <time>2011-03-21T12:29:35Z</time>
      </trkpt>
      <trkpt lat="42.75897" lon="1.5199">
        <ele>1183.5202636719</ele>
        <time>2011-03-21T12:29:41Z</time>
      </trkpt>
      <trkpt lat="42.75901" lon="1.51986">
        <ele>1183.5202636719</ele>
        <time>2011-03-21T12:29:43Z</time>
      </trkpt>
      <trkpt lat="42.75917" lon="1.51977">
        <ele>1183.5202636719</ele>
        <time>2011-03-21T12:29:48Z</time>
      </trkpt>
      <trkpt lat="42.75932" lon="1.51973">
        <ele>1183.0395507812</ele>
        <time>2011-03-21T12:29:53Z</time>
      </trkpt>
      <trkpt lat="42.75946" lon="1.51969">
        <ele>1183.0395507812</ele>
        <time>2011-03-21T12:29:57Z</time>
      </trkpt>
      <trkpt lat="42.75952" lon="1.51967">
        <ele>1178.7136230469</ele>
        <time>2011-03-21T12:30:01Z</time>
      </trkpt>
      <trkpt lat="42.75956" lon="1.51967">
        <ele>1174.8684082031</ele>
        <time>2011-03-21T12:30:04Z</time>
      </trkpt>
      <trkpt lat="42.75967" lon="1.51967">
        <ele>1164.7746582031</ele>
        <time>2011-03-21T12:30:10Z</time>
      </trkpt>
      <trkpt lat="42.75982" lon="1.51968">
        <ele>1159.9677734375</ele>
        <time>2011-03-21T12:30:15Z</time>
      </trkpt>
      <trkpt lat="42.75993" lon="1.51969">
        <ele>1159.4873046875</ele>
        <time>2011-03-21T12:30:20Z</time>
      </trkpt>
      <trkpt lat="42.75996" lon="1.5197">
        <ele>1158.5258789062</ele>
        <time>2011-03-21T12:30:21Z</time>
      </trkpt>
      <trkpt lat="42.75999" lon="1.51971">
        <ele>1155.1613769531</ele>
        <time>2011-03-21T12:30:23Z</time>
      </trkpt>
      <trkpt lat="42.7601" lon="1.51972">
        <ele>1149.8742675781</ele>
        <time>2011-03-21T12:30:27Z</time>
      </trkpt>
      <trkpt lat="42.76012" lon="1.51971">
        <ele>1149.3935546875</ele>
        <time>2011-03-21T12:30:28Z</time>
      </trkpt>
      <trkpt lat="42.76017" lon="1.51971">
        <ele>1146.9899902344</ele>
        <time>2011-03-21T12:30:30Z</time>
      </trkpt>
      <trkpt lat="42.76027" lon="1.51977">
        <ele>1139.7802734375</ele>
        <time>2011-03-21T12:30:36Z</time>
      </trkpt>
      <trkpt lat="42.76039" lon="1.51979">
        <ele>1134.4931640625</ele>
        <time>2011-03-21T12:30:41Z</time>
      </trkpt>
      <trkpt lat="42.76045" lon="1.51977">
        <ele>1133.0510253906</ele>
        <time>2011-03-21T12:30:44Z</time>
      </trkpt>
      <trkpt lat="42.76052" lon="1.51973">
        <ele>1131.6088867188</ele>
        <time>2011-03-21T12:30:49Z</time>
      </trkpt>
      <trkpt lat="42.76059" lon="1.51972">
        <ele>1129.2055664062</ele>
        <time>2011-03-21T12:30:53Z</time>
      </trkpt>
      <trkpt lat="42.76064" lon="1.51969">
        <ele>1128.7250976562</ele>
        <time>2011-03-21T12:30:57Z</time>
      </trkpt>
      <trkpt lat="42.76067" lon="1.51965">
        <ele>1126.8024902344</ele>
        <time>2011-03-21T12:31:00Z</time>
      </trkpt>
      <trkpt lat="42.76075" lon="1.51958">
        <ele>1121.5151367188</ele>
        <time>2011-03-21T12:31:06Z</time>
      </trkpt>
      <trkpt lat="42.76084" lon="1.51954">
        <ele>1122.4765625</ele>
        <time>2011-03-21T12:31:11Z</time>
      </trkpt>
      <trkpt lat="42.76091" lon="1.51951">
        <ele>1121.9958496094</ele>
        <time>2011-03-21T12:31:15Z</time>
      </trkpt>
      <trkpt lat="42.76094" lon="1.5195">
        <ele>1123.4379882812</ele>
        <time>2011-03-21T12:31:16Z</time>
      </trkpt>
      <trkpt lat="42.76106" lon="1.51941">
        <ele>1124.8798828125</ele>
        <time>2011-03-21T12:31:21Z</time>
      </trkpt>
      <trkpt lat="42.7612" lon="1.5193">
        <ele>1126.3217773438</ele>
        <time>2011-03-21T12:31:27Z</time>
      </trkpt>
      <trkpt lat="42.76128" lon="1.51925">
        <ele>1124.3991699219</ele>
        <time>2011-03-21T12:31:31Z</time>
      </trkpt>
      <trkpt lat="42.76137" lon="1.51917">
        <ele>1126.8024902344</ele>
        <time>2011-03-21T12:31:35Z</time>
      </trkpt>
      <trkpt lat="42.7615" lon="1.5191">
        <ele>1128.7250976562</ele>
        <time>2011-03-21T12:31:40Z</time>
      </trkpt>
      <trkpt lat="42.76162" lon="1.51903">
        <ele>1127.283203125</ele>
        <time>2011-03-21T12:31:45Z</time>
      </trkpt>
      <trkpt lat="42.76169" lon="1.51897">
        <ele>1123.9184570312</ele>
        <time>2011-03-21T12:31:49Z</time>
      </trkpt>
      <trkpt lat="42.76176" lon="1.51888">
        <ele>1113.8244628906</ele>
        <time>2011-03-21T12:31:55Z</time>
      </trkpt>
      <trkpt lat="42.76183" lon="1.5188">
        <ele>1110.4599609375</ele>
        <time>2011-03-21T12:32:00Z</time>
      </trkpt>
      <trkpt lat="42.76194" lon="1.51873">
        <ele>1106.1340332031</ele>
        <time>2011-03-21T12:32:05Z</time>
      </trkpt>
      <trkpt lat="42.76196" lon="1.51872">
        <ele>1105.6535644531</ele>
        <time>2011-03-21T12:32:06Z</time>
      </trkpt>
      <trkpt lat="42.76204" lon="1.5187">
        <ele>1102.76953125</ele>
        <time>2011-03-21T12:32:10Z</time>
      </trkpt>
      <trkpt lat="42.76213" lon="1.51865">
        <ele>1096.5209960938</ele>
        <time>2011-03-21T12:32:17Z</time>
      </trkpt>
      <trkpt lat="42.76227" lon="1.51864">
        <ele>1096.0402832031</ele>
        <time>2011-03-21T12:32:22Z</time>
      </trkpt>
      <trkpt lat="42.7624" lon="1.51862">
        <ele>1095.5595703125</ele>
        <time>2011-03-21T12:32:27Z</time>
      </trkpt>
      <trkpt lat="42.76242" lon="1.51862">
        <ele>1097.0014648438</ele>
        <time>2011-03-21T12:32:28Z</time>
      </trkpt>
      <trkpt lat="42.76253" lon="1.51856">
        <ele>1096.0402832031</ele>
        <time>2011-03-21T12:32:35Z</time>
      </trkpt>
      <trkpt lat="42.76258" lon="1.51854">
        <ele>1092.67578125</ele>
        <time>2011-03-21T12:32:39Z</time>
      </trkpt>
      <trkpt lat="42.76265" lon="1.51851">
        <ele>1088.3498535156</ele>
        <time>2011-03-21T12:32:44Z</time>
      </trkpt>
      <trkpt lat="42.7627" lon="1.51848">
        <ele>1086.9077148438</ele>
        <time>2011-03-21T12:32:49Z</time>
      </trkpt>
      <trkpt lat="42.76273" lon="1.51848">
        <ele>1085.4658203125</ele>
        <time>2011-03-21T12:32:51Z</time>
      </trkpt>
      <trkpt lat="42.76279" lon="1.5184">
        <ele>1084.9853515625</ele>
        <time>2011-03-21T12:32:57Z</time>
      </trkpt>
      <trkpt lat="42.76285" lon="1.5184">
        <ele>1083.0622558594</ele>
        <time>2011-03-21T12:33:00Z</time>
      </trkpt>
      <trkpt lat="42.76298" lon="1.5184">
        <ele>1079.6977539062</ele>
        <time>2011-03-21T12:33:06Z</time>
      </trkpt>
      <trkpt lat="42.76305" lon="1.51842">
        <ele>1078.7365722656</ele>
        <time>2011-03-21T12:33:09Z</time>
      </trkpt>
      <trkpt lat="42.76309" lon="1.51847">
        <ele>1078.7365722656</ele>
        <time>2011-03-21T12:33:12Z</time>
      </trkpt>
      <trkpt lat="42.76316" lon="1.51853">
        <ele>1081.1398925781</ele>
        <time>2011-03-21T12:33:16Z</time>
      </trkpt>
      <trkpt lat="42.76317" lon="1.51858">
        <ele>1079.2170410156</ele>
        <time>2011-03-21T12:33:19Z</time>
      </trkpt>
      <trkpt lat="42.76323" lon="1.51863">
        <ele>1074.8913574219</ele>
        <time>2011-03-21T12:33:25Z</time>
      </trkpt>
      <trkpt lat="42.76325" lon="1.51864">
        <ele>1073.9299316406</ele>
        <time>2011-03-21T12:33:27Z</time>
      </trkpt>
      <trkpt lat="42.7633" lon="1.51871">
        <ele>1067.6811523438</ele>
        <time>2011-03-21T12:33:34Z</time>
      </trkpt>
      <trkpt lat="42.76334" lon="1.51881">
        <ele>1067.6811523438</ele>
        <time>2011-03-21T12:33:39Z</time>
      </trkpt>
      <trkpt lat="42.76337" lon="1.51891">
        <ele>1065.7587890625</ele>
        <time>2011-03-21T12:33:43Z</time>
      </trkpt>
      <trkpt lat="42.76342" lon="1.51895">
        <ele>1062.8747558594</ele>
        <time>2011-03-21T12:33:48Z</time>
      </trkpt>
      <trkpt lat="42.76347" lon="1.51901">
        <ele>1059.0295410156</ele>
        <time>2011-03-21T12:33:54Z</time>
      </trkpt>
      <trkpt lat="42.76352" lon="1.51902">
        <ele>1055.1843261719</ele>
        <time>2011-03-21T12:33:59Z</time>
      </trkpt>
      <trkpt lat="42.76358" lon="1.51903">
        <ele>1054.7036132812</ele>
        <time>2011-03-21T12:34:02Z</time>
      </trkpt>
      <trkpt lat="42.76363" lon="1.51902">
        <ele>1051.8195800781</ele>
        <time>2011-03-21T12:34:07Z</time>
      </trkpt>
      <trkpt lat="42.76373" lon="1.519">
        <ele>1052.3002929688</ele>
        <time>2011-03-21T12:34:12Z</time>
      </trkpt>
      <trkpt lat="42.76379" lon="1.51898">
        <ele>1051.3388671875</ele>
        <time>2011-03-21T12:34:17Z</time>
      </trkpt>
      <trkpt lat="42.76384" lon="1.51896">
        <ele>1049.4162597656</ele>
        <time>2011-03-21T12:34:21Z</time>
      </trkpt>
      <trkpt lat="42.76386" lon="1.51895">
        <ele>1048.935546875</ele>
        <time>2011-03-21T12:34:22Z</time>
      </trkpt>
      <trkpt lat="42.76398" lon="1.51889">
        <ele>1048.4548339844</ele>
        <time>2011-03-21T12:34:27Z</time>
      </trkpt>
      <trkpt lat="42.76405" lon="1.51886">
        <ele>1047.9743652344</ele>
        <time>2011-03-21T12:34:30Z</time>
      </trkpt>
      <trkpt lat="42.76418" lon="1.51884">
        <ele>1045.5710449219</ele>
        <time>2011-03-21T12:34:35Z</time>
      </trkpt>
      <trkpt lat="42.76423" lon="1.51885">
        <ele>1042.6872558594</ele>
        <time>2011-03-21T12:34:38Z</time>
      </trkpt>
      <trkpt lat="42.76426" lon="1.51886">
        <ele>1040.2839355469</ele>
        <time>2011-03-21T12:34:40Z</time>
      </trkpt>
      <trkpt lat="42.76445" lon="1.51878">
        <ele>1037.8806152344</ele>
        <time>2011-03-21T12:34:47Z</time>
      </trkpt>
      <trkpt lat="42.76457" lon="1.51872">
        <ele>1031.6318359375</ele>
        <time>2011-03-21T12:34:51Z</time>
      </trkpt>
      <trkpt lat="42.76468" lon="1.51869">
        <ele>1026.3447265625</ele>
        <time>2011-03-21T12:34:55Z</time>
      </trkpt>
      <trkpt lat="42.76485" lon="1.51872">
        <ele>1022.9802246094</ele>
        <time>2011-03-21T12:35:00Z</time>
      </trkpt>
      <trkpt lat="42.76492" lon="1.5187">
        <ele>1022.0187988281</ele>
        <time>2011-03-21T12:35:02Z</time>
      </trkpt>
      <trkpt lat="42.76506" lon="1.51867">
        <ele>1021.0576171875</ele>
        <time>2011-03-21T12:35:07Z</time>
      </trkpt>
      <trkpt lat="42.76521" lon="1.51864">
        <ele>1019.6154785156</ele>
        <time>2011-03-21T12:35:12Z</time>
      </trkpt>
      <trkpt lat="42.76533" lon="1.51867">
        <ele>1018.6540527344</ele>
        <time>2011-03-21T12:35:16Z</time>
      </trkpt>
      <trkpt lat="42.76545" lon="1.5187">
        <ele>1017.2121582031</ele>
        <time>2011-03-21T12:35:21Z</time>
      </trkpt>
      <trkpt lat="42.76558" lon="1.51867">
        <ele>1015.7702636719</ele>
        <time>2011-03-21T12:35:26Z</time>
      </trkpt>
      <trkpt lat="42.76574" lon="1.51866">
        <ele>1014.328125</ele>
        <time>2011-03-21T12:35:31Z</time>
      </trkpt>
      <trkpt lat="42.76579" lon="1.51865">
        <ele>1013.3669433594</ele>
        <time>2011-03-21T12:35:33Z</time>
      </trkpt>
      <trkpt lat="42.76596" lon="1.51864">
        <ele>1011.4443359375</ele>
        <time>2011-03-21T12:35:39Z</time>
      </trkpt>
      <trkpt lat="42.76611" lon="1.51866">
        <ele>1010.0021972656</ele>
        <time>2011-03-21T12:35:44Z</time>
      </trkpt>
      <trkpt lat="42.76621" lon="1.51866">
        <ele>1008.5603027344</ele>
        <time>2011-03-21T12:35:48Z</time>
      </trkpt>
      <trkpt lat="42.76634" lon="1.51872">
        <ele>1006.1569824219</ele>
        <time>2011-03-21T12:35:53Z</time>
      </trkpt>
      <trkpt lat="42.76636" lon="1.51874">
        <ele>1005.6765136719</ele>
        <time>2011-03-21T12:35:54Z</time>
      </trkpt>
      <trkpt lat="42.76648" lon="1.51879">
        <ele>1002.7922363281</ele>
        <time>2011-03-21T12:35:59Z</time>
      </trkpt>
      <trkpt lat="42.76655" lon="1.51885">
        <ele>999.427734375</ele>
        <time>2011-03-21T12:36:02Z</time>
      </trkpt>
      <trkpt lat="42.76668" lon="1.5189">
        <ele>995.10180664062</ele>
        <time>2011-03-21T12:36:07Z</time>
      </trkpt>
      <trkpt lat="42.76677" lon="1.51885">
        <ele>993.17919921875</ele>
        <time>2011-03-21T12:36:12Z</time>
      </trkpt>
      <trkpt lat="42.76684" lon="1.51878">
        <ele>993.65991210938</ele>
        <time>2011-03-21T12:36:18Z</time>
      </trkpt>
      <trkpt lat="42.76686" lon="1.51877">
        <ele>995.10180664062</ele>
        <time>2011-03-21T12:36:20Z</time>
      </trkpt>
      <trkpt lat="42.76691" lon="1.51869">
        <ele>996.06323242188</ele>
        <time>2011-03-21T12:36:26Z</time>
      </trkpt>
      <trkpt lat="42.76693" lon="1.51866">
        <ele>996.06323242188</ele>
        <time>2011-03-21T12:36:28Z</time>
      </trkpt>
      <trkpt lat="42.76695" lon="1.51857">
        <ele>994.140625</ele>
        <time>2011-03-21T12:36:32Z</time>
      </trkpt>
      <trkpt lat="42.76698" lon="1.51853">
        <ele>992.69873046875</ele>
        <time>2011-03-21T12:36:35Z</time>
      </trkpt>
      <trkpt lat="42.76707" lon="1.51848">
        <ele>986.44995117188</ele>
        <time>2011-03-21T12:36:44Z</time>
      </trkpt>
      <trkpt lat="42.76717" lon="1.51846">
        <ele>985.96923828125</ele>
        <time>2011-03-21T12:36:52Z</time>
      </trkpt>
      <trkpt lat="42.7673" lon="1.51843">
        <ele>981.64331054688</ele>
        <time>2011-03-21T12:36:59Z</time>
      </trkpt>
      <trkpt lat="42.76741" lon="1.51845">
        <ele>979.23999023438</ele>
        <time>2011-03-21T12:37:03Z</time>
      </trkpt>
      <trkpt lat="42.7675" lon="1.51846">
        <ele>977.79809570312</ele>
        <time>2011-03-21T12:37:07Z</time>
      </trkpt>
      <trkpt lat="42.76757" lon="1.51846">
        <ele>974.43359375</ele>
        <time>2011-03-21T12:37:12Z</time>
      </trkpt>
      <trkpt lat="42.76758" lon="1.51846">
        <ele>973.95288085938</ele>
        <time>2011-03-21T12:37:13Z</time>
      </trkpt>
      <trkpt lat="42.7676" lon="1.51845">
        <ele>973.47241210938</ele>
        <time>2011-03-21T12:37:15Z</time>
      </trkpt>
      <trkpt lat="42.76765" lon="1.51847">
        <ele>974.91430664062</ele>
        <time>2011-03-21T12:37:19Z</time>
      </trkpt>
      <trkpt lat="42.76772" lon="1.51855">
        <ele>973.47241210938</ele>
        <time>2011-03-21T12:37:24Z</time>
      </trkpt>
      <trkpt lat="42.76772" lon="1.51858">
        <ele>972.99169921875</ele>
        <time>2011-03-21T12:37:25Z</time>
      </trkpt>
      <trkpt lat="42.76773" lon="1.51866">
        <ele>972.99169921875</ele>
        <time>2011-03-21T12:37:28Z</time>
      </trkpt>
      <trkpt lat="42.76776" lon="1.51869">
        <ele>972.0302734375</ele>
        <time>2011-03-21T12:37:30Z</time>
      </trkpt>
      <trkpt lat="42.76793" lon="1.51865">
        <ele>970.107421875</ele>
        <time>2011-03-21T12:37:37Z</time>
      </trkpt>
      <trkpt lat="42.76795" lon="1.51864">
        <ele>970.107421875</ele>
        <time>2011-03-21T12:37:38Z</time>
      </trkpt>
      <trkpt lat="42.76811" lon="1.51868">
        <ele>966.26220703125</ele>
        <time>2011-03-21T12:37:44Z</time>
      </trkpt>
      <trkpt lat="42.76818" lon="1.51873">
        <ele>966.26220703125</ele>
        <time>2011-03-21T12:37:47Z</time>
      </trkpt>
      <trkpt lat="42.76825" lon="1.51876">
        <ele>966.26220703125</ele>
        <time>2011-03-21T12:37:53Z</time>
      </trkpt>
      <trkpt lat="42.76829" lon="1.51869">
        <ele>965.30102539062</ele>
        <time>2011-03-21T12:37:57Z</time>
      </trkpt>
      <trkpt lat="42.76836" lon="1.51863">
        <ele>963.37841796875</ele>
        <time>2011-03-21T12:38:01Z</time>
      </trkpt>
      <trkpt lat="42.76844" lon="1.51855">
        <ele>960.49438476562</ele>
        <time>2011-03-21T12:38:05Z</time>
      </trkpt>
      <trkpt lat="42.76851" lon="1.51845">
        <ele>957.61059570312</ele>
        <time>2011-03-21T12:38:09Z</time>
      </trkpt>
      <trkpt lat="42.76859" lon="1.51836">
        <ele>953.76513671875</ele>
        <time>2011-03-21T12:38:13Z</time>
      </trkpt>
      <trkpt lat="42.76863" lon="1.51832">
        <ele>951.84252929688</ele>
        <time>2011-03-21T12:38:15Z</time>
      </trkpt>
      <trkpt lat="42.76876" lon="1.51823">
        <ele>946.07470703125</ele>
        <time>2011-03-21T12:38:21Z</time>
      </trkpt>
      <trkpt lat="42.76884" lon="1.51818">
        <ele>944.63256835938</ele>
        <time>2011-03-21T12:38:24Z</time>
      </trkpt>
      <trkpt lat="42.76897" lon="1.51813">
        <ele>944.15209960938</ele>
        <time>2011-03-21T12:38:29Z</time>
      </trkpt>
      <trkpt lat="42.76905" lon="1.51809">
        <ele>942.71020507812</ele>
        <time>2011-03-21T12:38:32Z</time>
      </trkpt>
      <trkpt lat="42.7692" lon="1.51801">
        <ele>940.78735351562</ele>
        <time>2011-03-21T12:38:37Z</time>
      </trkpt>
      <trkpt lat="42.76931" lon="1.51794">
        <ele>940.30688476562</ele>
        <time>2011-03-21T12:38:42Z</time>
      </trkpt>
      <trkpt lat="42.76935" lon="1.51791">
        <ele>941.26806640625</ele>
        <time>2011-03-21T12:38:46Z</time>
      </trkpt>
      <trkpt lat="42.76939" lon="1.5179">
        <ele>940.78735351562</ele>
        <time>2011-03-21T12:38:52Z</time>
      </trkpt>
      <trkpt lat="42.76939" lon="1.51786">
        <ele>938.86474609375</ele>
        <time>2011-03-21T12:38:58Z</time>
      </trkpt>
      <trkpt lat="42.76934" lon="1.51778">
        <ele>937.9033203125</ele>
        <time>2011-03-21T12:39:03Z</time>
      </trkpt>
      <trkpt lat="42.76934" lon="1.51772">
        <ele>935.98071289062</ele>
        <time>2011-03-21T12:39:06Z</time>
      </trkpt>
      <trkpt lat="42.76942" lon="1.5177">
        <ele>935.01953125</ele>
        <time>2011-03-21T12:39:10Z</time>
      </trkpt>
      <trkpt lat="42.76952" lon="1.51764">
        <ele>935.5</ele>
        <time>2011-03-21T12:39:14Z</time>
      </trkpt>
      <trkpt lat="42.76958" lon="1.51762">
        <ele>935.01953125</ele>
        <time>2011-03-21T12:39:18Z</time>
      </trkpt>
      <trkpt lat="42.76967" lon="1.5176">
        <ele>933.57739257812</ele>
        <time>2011-03-21T12:39:22Z</time>
      </trkpt>
      <trkpt lat="42.76978" lon="1.51757">
        <ele>932.13549804688</ele>
        <time>2011-03-21T12:39:26Z</time>
      </trkpt>
      <trkpt lat="42.76979" lon="1.51755">
        <ele>931.65478515625</ele>
        <time>2011-03-21T12:39:27Z</time>
      </trkpt>
      <trkpt lat="42.76993" lon="1.51743">
        <ele>925.40625</ele>
        <time>2011-03-21T12:39:33Z</time>
      </trkpt>
      <trkpt lat="42.77005" lon="1.51731">
        <ele>918.1962890625</ele>
        <time>2011-03-21T12:39:38Z</time>
      </trkpt>
      <trkpt lat="42.77011" lon="1.51725">
        <ele>917.23510742188</ele>
        <time>2011-03-21T12:39:41Z</time>
      </trkpt>
      <trkpt lat="42.77019" lon="1.51714">
        <ele>911.94799804688</ele>
        <time>2011-03-21T12:39:45Z</time>
      </trkpt>
      <trkpt lat="42.77022" lon="1.51709">
        <ele>910.505859375</ele>
        <time>2011-03-21T12:39:47Z</time>
      </trkpt>
      <trkpt lat="42.7703" lon="1.51716">
        <ele>911.94799804688</ele>
        <time>2011-03-21T12:39:52Z</time>
      </trkpt>
      <trkpt lat="42.77034" lon="1.51729">
        <ele>912.42846679688</ele>
        <time>2011-03-21T12:39:56Z</time>
      </trkpt>
      <trkpt lat="42.77037" lon="1.51735">
        <ele>911.46728515625</ele>
        <time>2011-03-21T12:39:58Z</time>
      </trkpt>
      <trkpt lat="42.77046" lon="1.51733">
        <ele>904.25732421875</ele>
        <time>2011-03-21T12:40:04Z</time>
      </trkpt>
      <trkpt lat="42.7705" lon="1.51728">
        <ele>902.81518554688</ele>
        <time>2011-03-21T12:40:06Z</time>
      </trkpt>
      <trkpt lat="42.77061" lon="1.5172">
        <ele>898.4892578125</ele>
        <time>2011-03-21T12:40:11Z</time>
      </trkpt>
      <trkpt lat="42.77069" lon="1.51712">
        <ele>893.2021484375</ele>
        <time>2011-03-21T12:40:15Z</time>
      </trkpt>
      <trkpt lat="42.77077" lon="1.51702">
        <ele>889.35668945312</ele>
        <time>2011-03-21T12:40:20Z</time>
      </trkpt>
      <trkpt lat="42.77091" lon="1.5169">
        <ele>881.66625976562</ele>
        <time>2011-03-21T12:40:27Z</time>
      </trkpt>
      <trkpt lat="42.77104" lon="1.51686">
        <ele>882.14697265625</ele>
        <time>2011-03-21T12:40:31Z</time>
      </trkpt>
      <trkpt lat="42.77118" lon="1.51681">
        <ele>885.03100585938</ele>
        <time>2011-03-21T12:40:36Z</time>
      </trkpt>
      <trkpt lat="42.77131" lon="1.51679">
        <ele>890.79858398438</ele>
        <time>2011-03-21T12:40:41Z</time>
      </trkpt>
      <trkpt lat="42.77145" lon="1.51676">
        <ele>889.35668945312</ele>
        <time>2011-03-21T12:40:46Z</time>
      </trkpt>
      <trkpt lat="42.77158" lon="1.51674">
        <ele>887.91479492188</ele>
        <time>2011-03-21T12:40:51Z</time>
      </trkpt>
      <trkpt lat="42.77174" lon="1.51677">
        <ele>886.95336914062</ele>
        <time>2011-03-21T12:40:56Z</time>
      </trkpt>
      <trkpt lat="42.77191" lon="1.51681">
        <ele>882.62768554688</ele>
        <time>2011-03-21T12:41:03Z</time>
      </trkpt>
      <trkpt lat="42.772" lon="1.51681">
        <ele>885.51147460938</ele>
        <time>2011-03-21T12:41:07Z</time>
      </trkpt>
      <trkpt lat="42.77212" lon="1.51681">
        <ele>885.03100585938</ele>
        <time>2011-03-21T12:41:12Z</time>
      </trkpt>
      <trkpt lat="42.77222" lon="1.51676">
        <ele>884.06958007812</ele>
        <time>2011-03-21T12:41:16Z</time>
      </trkpt>
      <trkpt lat="42.77229" lon="1.51676">
        <ele>883.10815429688</ele>
        <time>2011-03-21T12:41:20Z</time>
      </trkpt>
      <trkpt lat="42.77232" lon="1.51675">
        <ele>881.66625976562</ele>
        <time>2011-03-21T12:41:22Z</time>
      </trkpt>
      <trkpt lat="42.77239" lon="1.51675">
        <ele>872.05297851562</ele>
        <time>2011-03-21T12:41:28Z</time>
      </trkpt>
      <trkpt lat="42.77248" lon="1.51682">
        <ele>863.8818359375</ele>
        <time>2011-03-21T12:41:35Z</time>
      </trkpt>
      <trkpt lat="42.7725" lon="1.51683">
        <ele>862.92065429688</ele>
        <time>2011-03-21T12:41:38Z</time>
      </trkpt>
      <trkpt lat="42.77253" lon="1.51686">
        <ele>861.47875976562</ele>
        <time>2011-03-21T12:41:42Z</time>
      </trkpt>
      <trkpt lat="42.77257" lon="1.51689">
        <ele>860.998046875</ele>
        <time>2011-03-21T12:41:46Z</time>
      </trkpt>
      <trkpt lat="42.77261" lon="1.51693">
        <ele>862.43994140625</ele>
        <time>2011-03-21T12:41:50Z</time>
      </trkpt>
      <trkpt lat="42.77266" lon="1.51701">
        <ele>863.4013671875</ele>
        <time>2011-03-21T12:41:54Z</time>
      </trkpt>
      <trkpt lat="42.77271" lon="1.51704">
        <ele>864.36254882812</ele>
        <time>2011-03-21T12:41:57Z</time>
      </trkpt>
      <trkpt lat="42.77277" lon="1.51696">
        <ele>863.8818359375</ele>
        <time>2011-03-21T12:42:00Z</time>
      </trkpt>
      <trkpt lat="42.77284" lon="1.51682">
        <ele>860.03662109375</ele>
        <time>2011-03-21T12:42:05Z</time>
      </trkpt>
      <trkpt lat="42.77291" lon="1.51668">
        <ele>855.22998046875</ele>
        <time>2011-03-21T12:42:10Z</time>
      </trkpt>
      <trkpt lat="42.77298" lon="1.51656">
        <ele>849.94287109375</ele>
        <time>2011-03-21T12:42:15Z</time>
      </trkpt>
      <trkpt lat="42.77299" lon="1.51653">
        <ele>848.9814453125</ele>
        <time>2011-03-21T12:42:16Z</time>
      </trkpt>
      <trkpt lat="42.77307" lon="1.51641">
        <ele>843.21337890625</ele>
        <time>2011-03-21T12:42:21Z</time>
      </trkpt>
      <trkpt lat="42.77314" lon="1.51629">
        <ele>838.40698242188</ele>
        <time>2011-03-21T12:42:25Z</time>
      </trkpt>
      <trkpt lat="42.77316" lon="1.51622">
        <ele>835.52294921875</ele>
        <time>2011-03-21T12:42:27Z</time>
      </trkpt>
      <trkpt lat="42.77319" lon="1.51617">
        <ele>832.63916015625</ele>
        <time>2011-03-21T12:42:29Z</time>
      </trkpt>
      <trkpt lat="42.77317" lon="1.51608">
        <ele>830.71655273438</ele>
        <time>2011-03-21T12:42:33Z</time>
      </trkpt>
      <trkpt lat="42.77305" lon="1.51605">
        <ele>829.75512695312</ele>
        <time>2011-03-21T12:42:38Z</time>
      </trkpt>
      <trkpt lat="42.77291" lon="1.51604">
        <ele>829.75512695312</ele>
        <time>2011-03-21T12:42:43Z</time>
      </trkpt>
      <trkpt lat="42.77282" lon="1.51604">
        <ele>827.35180664062</ele>
        <time>2011-03-21T12:42:47Z</time>
      </trkpt>
      <trkpt lat="42.77273" lon="1.51597">
        <ele>824.94848632812</ele>
        <time>2011-03-21T12:42:51Z</time>
      </trkpt>
      <trkpt lat="42.7727" lon="1.5159">
        <ele>823.98706054688</ele>
        <time>2011-03-21T12:42:54Z</time>
      </trkpt>
      <trkpt lat="42.77275" lon="1.51583">
        <ele>821.10327148438</ele>
        <time>2011-03-21T12:42:58Z</time>
      </trkpt>
      <trkpt lat="42.77288" lon="1.51572">
        <ele>817.25805664062</ele>
        <time>2011-03-21T12:43:04Z</time>
      </trkpt>
      <trkpt lat="42.77292" lon="1.51565">
        <ele>815.33544921875</ele>
        <time>2011-03-21T12:43:07Z</time>
      </trkpt>
      <trkpt lat="42.77293" lon="1.51553">
        <ele>810.52856445312</ele>
        <time>2011-03-21T12:43:12Z</time>
      </trkpt>
      <trkpt lat="42.77294" lon="1.51546">
        <ele>811.48999023438</ele>
        <time>2011-03-21T12:43:15Z</time>
      </trkpt>
      <trkpt lat="42.77291" lon="1.51534">
        <ele>812.93212890625</ele>
        <time>2011-03-21T12:43:19Z</time>
      </trkpt>
      <trkpt lat="42.7729" lon="1.51531">
        <ele>812.45141601562</ele>
        <time>2011-03-21T12:43:20Z</time>
      </trkpt>
      <trkpt lat="42.7728" lon="1.51508">
        <ele>827.35180664062</ele>
        <time>2011-03-21T12:43:25Z</time>
      </trkpt>
      <trkpt lat="42.77272" lon="1.51495">
        <ele>825.90966796875</ele>
        <time>2011-03-21T12:43:29Z</time>
      </trkpt>
      <trkpt lat="42.77267" lon="1.51488">
        <ele>822.064453125</ele>
        <time>2011-03-21T12:43:33Z</time>
      </trkpt>
      <trkpt lat="42.77268" lon="1.51486">
        <ele>821.58374023438</ele>
        <time>2011-03-21T12:43:37Z</time>
      </trkpt>
      <trkpt lat="42.7728" lon="1.515">
        <ele>813.89331054688</ele>
        <time>2011-03-21T12:43:43Z</time>
      </trkpt>
      <trkpt lat="42.77287" lon="1.51511">
        <ele>809.5673828125</ele>
        <time>2011-03-21T12:43:47Z</time>
      </trkpt>
      <trkpt lat="42.77289" lon="1.51513">
        <ele>808.12548828125</ele>
        <time>2011-03-21T12:43:48Z</time>
      </trkpt>
      <trkpt lat="42.77296" lon="1.51515">
        <ele>806.68334960938</ele>
        <time>2011-03-21T12:43:51Z</time>
      </trkpt>
      <trkpt lat="42.77291" lon="1.51503">
        <ele>801.39624023438</ele>
        <time>2011-03-21T12:43:56Z</time>
      </trkpt>
      <trkpt lat="42.77283" lon="1.51486">
        <ele>800.91552734375</ele>
        <time>2011-03-21T12:44:01Z</time>
      </trkpt>
      <trkpt lat="42.77278" lon="1.51476">
        <ele>792.74438476562</ele>
        <time>2011-03-21T12:44:06Z</time>
      </trkpt>
      <trkpt lat="42.7728" lon="1.51467">
        <ele>789.37963867188</ele>
        <time>2011-03-21T12:44:12Z</time>
      </trkpt>
      <trkpt lat="42.77282" lon="1.51458">
        <ele>789.37963867188</ele>
        <time>2011-03-21T12:44:16Z</time>
      </trkpt>
      <trkpt lat="42.77285" lon="1.51457">
        <ele>788.41845703125</ele>
        <time>2011-03-21T12:44:18Z</time>
      </trkpt>
      <trkpt lat="42.7729" lon="1.51473">
        <ele>785.53442382812</ele>
        <time>2011-03-21T12:44:24Z</time>
      </trkpt>
      <trkpt lat="42.77291" lon="1.51478">
        <ele>784.5732421875</ele>
        <time>2011-03-21T12:44:26Z</time>
      </trkpt>
      <trkpt lat="42.77297" lon="1.51487">
        <ele>780.72802734375</ele>
        <time>2011-03-21T12:44:30Z</time>
      </trkpt>
      <trkpt lat="42.77301" lon="1.51491">
        <ele>779.76635742188</ele>
        <time>2011-03-21T12:44:32Z</time>
      </trkpt>
      <trkpt lat="42.77309" lon="1.51494">
        <ele>776.88256835938</ele>
        <time>2011-03-21T12:44:38Z</time>
      </trkpt>
      <trkpt lat="42.7731" lon="1.51484">
        <ele>776.40185546875</ele>
        <time>2011-03-21T12:44:42Z</time>
      </trkpt>
      <trkpt lat="42.77306" lon="1.51471">
        <ele>773.51806640625</ele>
        <time>2011-03-21T12:44:47Z</time>
      </trkpt>
      <trkpt lat="42.77306" lon="1.51469">
        <ele>773.03735351562</ele>
        <time>2011-03-21T12:44:48Z</time>
      </trkpt>
      <trkpt lat="42.77301" lon="1.51456">
        <ele>770.1533203125</ele>
        <time>2011-03-21T12:44:54Z</time>
      </trkpt>
      <trkpt lat="42.77301" lon="1.51449">
        <ele>768.23071289062</ele>
        <time>2011-03-21T12:44:59Z</time>
      </trkpt>
      <trkpt lat="42.77303" lon="1.5145">
        <ele>767.26953125</ele>
        <time>2011-03-21T12:45:00Z</time>
      </trkpt>
      <trkpt lat="42.77314" lon="1.51461">
        <ele>763.42407226562</ele>
        <time>2011-03-21T12:45:06Z</time>
      </trkpt>
      <trkpt lat="42.77314" lon="1.51463">
        <ele>762.46264648438</ele>
        <time>2011-03-21T12:45:07Z</time>
      </trkpt>
      <trkpt lat="42.77315" lon="1.51464">
        <ele>760.5400390625</ele>
        <time>2011-03-21T12:45:12Z</time>
      </trkpt>
      <trkpt lat="42.77314" lon="1.51454">
        <ele>757.65625</ele>
        <time>2011-03-21T12:45:16Z</time>
      </trkpt>
      <trkpt lat="42.77315" lon="1.51433">
        <ele>761.50146484375</ele>
        <time>2011-03-21T12:45:23Z</time>
      </trkpt>
      <trkpt lat="42.77317" lon="1.51429">
        <ele>762.46264648438</ele>
        <time>2011-03-21T12:45:25Z</time>
      </trkpt>
      <trkpt lat="42.77321" lon="1.51447">
        <ele>754.29174804688</ele>
        <time>2011-03-21T12:45:31Z</time>
      </trkpt>
      <trkpt lat="42.77325" lon="1.51448">
        <ele>752.36889648438</ele>
        <time>2011-03-21T12:45:35Z</time>
      </trkpt>
      <trkpt lat="42.77326" lon="1.51433">
        <ele>751.88842773438</ele>
        <time>2011-03-21T12:45:39Z</time>
      </trkpt>
      <trkpt lat="42.77325" lon="1.51415">
        <ele>754.77221679688</ele>
        <time>2011-03-21T12:45:43Z</time>
      </trkpt>
      <trkpt lat="42.77327" lon="1.51401">
        <ele>750.44653320312</ele>
        <time>2011-03-21T12:45:48Z</time>
      </trkpt>
      <trkpt lat="42.77329" lon="1.51396">
        <ele>751.88842773438</ele>
        <time>2011-03-21T12:45:50Z</time>
      </trkpt>
      <trkpt lat="42.77335" lon="1.51402">
        <ele>749.48510742188</ele>
        <time>2011-03-21T12:45:54Z</time>
      </trkpt>
      <trkpt lat="42.7734" lon="1.51414">
        <ele>747.56225585938</ele>
        <time>2011-03-21T12:45:58Z</time>
      </trkpt>
      <trkpt lat="42.77345" lon="1.51429">
        <ele>743.236328125</ele>
        <time>2011-03-21T12:46:03Z</time>
      </trkpt>
      <trkpt lat="42.77346" lon="1.51439">
        <ele>739.39111328125</ele>
        <time>2011-03-21T12:46:07Z</time>
      </trkpt>
      <trkpt lat="42.77346" lon="1.51447">
        <ele>736.50732421875</ele>
        <time>2011-03-21T12:46:10Z</time>
      </trkpt>
      <trkpt lat="42.77353" lon="1.51435">
        <ele>731.70043945312</ele>
        <time>2011-03-21T12:46:17Z</time>
      </trkpt>
      <trkpt lat="42.77354" lon="1.5143">
        <ele>729.29711914062</ele>
        <time>2011-03-21T12:46:19Z</time>
      </trkpt>
      <trkpt lat="42.77353" lon="1.51424">
        <ele>729.29711914062</ele>
        <time>2011-03-21T12:46:21Z</time>
      </trkpt>
      <trkpt lat="42.77352" lon="1.5141">
        <ele>723.52954101562</ele>
        <time>2011-03-21T12:46:25Z</time>
      </trkpt>
      <trkpt lat="42.77347" lon="1.51385">
        <ele>724.97143554688</ele>
        <time>2011-03-21T12:46:30Z</time>
      </trkpt>
      <trkpt lat="42.77356" lon="1.51389">
        <ele>720.16479492188</ele>
        <time>2011-03-21T12:46:34Z</time>
      </trkpt>
      <trkpt lat="42.77361" lon="1.51401">
        <ele>721.12622070312</ele>
        <time>2011-03-21T12:46:38Z</time>
      </trkpt>
      <trkpt lat="42.77365" lon="1.51407">
        <ele>721.12622070312</ele>
        <time>2011-03-21T12:46:40Z</time>
      </trkpt>
      <trkpt lat="42.7738" lon="1.51417">
        <ele>718.72290039062</ele>
        <time>2011-03-21T12:46:47Z</time>
      </trkpt>
      <trkpt lat="42.77383" lon="1.5142">
        <ele>718.2421875</ele>
        <time>2011-03-21T12:46:50Z</time>
      </trkpt>
      <trkpt lat="42.77387" lon="1.51432">
        <ele>714.39672851562</ele>
        <time>2011-03-21T12:46:57Z</time>
      </trkpt>
      <trkpt lat="42.77392" lon="1.51438">
        <ele>715.8388671875</ele>
        <time>2011-03-21T12:47:02Z</time>
      </trkpt>
      <trkpt lat="42.7739" lon="1.51444">
        <ele>717.28100585938</ele>
        <time>2011-03-21T12:47:07Z</time>
      </trkpt>
      <trkpt lat="42.7739" lon="1.51445">
        <ele>722.56811523438</ele>
        <time>2011-03-21T12:47:18Z</time>
      </trkpt>
      <trkpt lat="42.7739" lon="1.51437">
        <ele>721.12622070312</ele>
        <time>2011-03-21T12:47:23Z</time>
      </trkpt>
      <trkpt lat="42.77385" lon="1.51423">
        <ele>720.16479492188</ele>
        <time>2011-03-21T12:47:31Z</time>
      </trkpt>
      <trkpt lat="42.77386" lon="1.5142">
        <ele>719.20361328125</ele>
        <time>2011-03-21T12:47:33Z</time>
      </trkpt>
      <trkpt lat="42.77391" lon="1.51416">
        <ele>717.28100585938</ele>
        <time>2011-03-21T12:47:39Z</time>
      </trkpt>
      <trkpt lat="42.77401" lon="1.51412">
        <ele>715.8388671875</ele>
        <time>2011-03-21T12:47:47Z</time>
      </trkpt>
      <trkpt lat="42.77406" lon="1.5141">
        <ele>716.31958007812</ele>
        <time>2011-03-21T12:47:52Z</time>
      </trkpt>
      <trkpt lat="42.77408" lon="1.5141">
        <ele>715.8388671875</ele>
        <time>2011-03-21T12:47:53Z</time>
      </trkpt>
      <trkpt lat="42.77417" lon="1.51408">
        <ele>712.95483398438</ele>
        <time>2011-03-21T12:48:00Z</time>
      </trkpt>
      <trkpt lat="42.77424" lon="1.51405">
        <ele>709.59033203125</ele>
        <time>2011-03-21T12:48:06Z</time>
      </trkpt>
      <trkpt lat="42.77432" lon="1.51402">
        <ele>708.62890625</ele>
        <time>2011-03-21T12:48:10Z</time>
      </trkpt>
      <trkpt lat="42.77443" lon="1.51404">
        <ele>708.1484375</ele>
        <time>2011-03-21T12:48:15Z</time>
      </trkpt>
      <trkpt lat="42.7745" lon="1.51396">
        <ele>704.30322265625</ele>
        <time>2011-03-21T12:48:23Z</time>
      </trkpt>
      <trkpt lat="42.77451" lon="1.51394">
        <ele>702.38037109375</ele>
        <time>2011-03-21T12:48:29Z</time>
      </trkpt>
      <trkpt lat="42.77452" lon="1.51392">
        <ele>711.51293945312</ele>
        <time>2011-03-21T12:48:38Z</time>
      </trkpt>
      <trkpt lat="42.77456" lon="1.51387">
        <ele>711.0322265625</ele>
        <time>2011-03-21T12:48:42Z</time>
      </trkpt>
      <trkpt lat="42.77459" lon="1.51383">
        <ele>708.62890625</ele>
        <time>2011-03-21T12:48:44Z</time>
      </trkpt>
      <trkpt lat="42.77464" lon="1.51381">
        <ele>707.66772460938</ele>
        <time>2011-03-21T12:48:48Z</time>
      </trkpt>
      <trkpt lat="42.77474" lon="1.51375">
        <ele>704.30322265625</ele>
        <time>2011-03-21T12:48:56Z</time>
      </trkpt>
      <trkpt lat="42.77475" lon="1.51374">
        <ele>703.82250976562</ele>
        <time>2011-03-21T12:48:57Z</time>
      </trkpt>
      <trkpt lat="42.77479" lon="1.51364">
        <ele>700.4580078125</ele>
        <time>2011-03-21T12:49:03Z</time>
      </trkpt>
      <trkpt lat="42.77484" lon="1.51355">
        <ele>701.41918945312</ele>
        <time>2011-03-21T12:49:06Z</time>
      </trkpt>
      <trkpt lat="42.7749" lon="1.51342">
        <ele>702.86108398438</ele>
        <time>2011-03-21T12:49:10Z</time>
      </trkpt>
      <trkpt lat="42.77496" lon="1.51327">
        <ele>703.82250976562</ele>
        <time>2011-03-21T12:49:14Z</time>
      </trkpt>
      <trkpt lat="42.77502" lon="1.51315">
        <ele>703.341796875</ele>
        <time>2011-03-21T12:49:18Z</time>
      </trkpt>
      <trkpt lat="42.77506" lon="1.51305">
        <ele>702.38037109375</ele>
        <time>2011-03-21T12:49:21Z</time>
      </trkpt>
      <trkpt lat="42.77512" lon="1.51295">
        <ele>702.86108398438</ele>
        <time>2011-03-21T12:49:25Z</time>
      </trkpt>
      <trkpt lat="42.77517" lon="1.51285">
        <ele>700.4580078125</ele>
        <time>2011-03-21T12:49:29Z</time>
      </trkpt>
      <trkpt lat="42.77518" lon="1.51282">
        <ele>699.015625</ele>
        <time>2011-03-21T12:49:31Z</time>
      </trkpt>
      <trkpt lat="42.77524" lon="1.51272">
        <ele>696.61254882812</ele>
        <time>2011-03-21T12:49:38Z</time>
      </trkpt>
      <trkpt lat="42.7753" lon="1.51261">
        <ele>697.57373046875</ele>
        <time>2011-03-21T12:49:45Z</time>
      </trkpt>
      <trkpt lat="42.77535" lon="1.5125">
        <ele>696.1318359375</ele>
        <time>2011-03-21T12:49:52Z</time>
      </trkpt>
      <trkpt lat="42.77542" lon="1.51239">
        <ele>695.17041015625</ele>
        <time>2011-03-21T12:50:00Z</time>
      </trkpt>
      <trkpt lat="42.77549" lon="1.51228">
        <ele>692.76733398438</ele>
        <time>2011-03-21T12:50:08Z</time>
      </trkpt>
      <trkpt lat="42.77557" lon="1.51219">
        <ele>694.68969726562</ele>
        <time>2011-03-21T12:50:16Z</time>
      </trkpt>
      <trkpt lat="42.77562" lon="1.51206">
        <ele>692.28662109375</ele>
        <time>2011-03-21T12:50:25Z</time>
      </trkpt>
      <trkpt lat="42.77566" lon="1.51199">
        <ele>690.84448242188</ele>
        <time>2011-03-21T12:50:30Z</time>
      </trkpt>
      <trkpt lat="42.7757" lon="1.51191">
        <ele>691.3251953125</ele>
        <time>2011-03-21T12:50:35Z</time>
      </trkpt>
      <trkpt lat="42.77576" lon="1.51178">
        <ele>691.3251953125</ele>
        <time>2011-03-21T12:50:44Z</time>
      </trkpt>
      <trkpt lat="42.77584" lon="1.51162">
        <ele>688.44140625</ele>
        <time>2011-03-21T12:50:55Z</time>
      </trkpt>
      <trkpt lat="42.77591" lon="1.51151">
        <ele>683.63452148438</ele>
        <time>2011-03-21T12:51:04Z</time>
      </trkpt>
      <trkpt lat="42.77596" lon="1.51138">
        <ele>686.99926757812</ele>
        <time>2011-03-21T12:51:12Z</time>
      </trkpt>
    </trkseg>
  </trk>
</gpx>